GFSSW_sfc_wetblb_000.txt.gz
Wetbulb
56.20 56.57 56.66 56.63 56.92 57.42 57.96 58.30 58.66 59.30 60.44 61.48 62.28 62.07 62.16 62.27 61.24 58.37 53.74 57.40 58.08 61.37 61.96 60.98 62.45 63.09 62.60 59.16 58.23 55.99 49.64 46.55 48.30 48.32 49.93 52.31 52.34 56.64 57.58 55.55 56.06 56.95 56.74 58.54 61.84
56.01 56.47 56.28 56.05 56.24 56.51 57.14 57.85 58.53 58.59 59.08 59.78 61.01 61.15 61.38 61.01 57.69 54.21 59.52 61.54 62.14 62.20 57.18 57.72 58.40 60.91 58.11 57.34 57.42 54.05 49.64 49.03 52.64 53.28 51.98 52.99 54.06 55.43 55.03 55.10 55.24 55.52 57.76 58.67 58.85
56.05 55.96 55.76 55.99 55.94 56.32 56.88 56.99 57.83 58.90 58.88 59.16 59.85 60.29 60.54 59.94 52.14 52.24 61.41 62.72 63.26 62.42 59.30 58.32 61.30 59.71 55.81 56.82 55.67 54.40 49.71 53.05 53.24 54.11 53.77 53.67 54.45 56.16 54.68 53.46 55.22 54.70 56.43 57.98 58.25
56.23 55.90 55.49 55.90 56.08 56.22 56.20 56.43 57.10 57.80 58.52 58.64 59.23 59.59 59.68 56.73 41.45 55.60 60.50 60.27 62.31 61.33 58.75 55.38 56.37 55.10 53.65 52.45 55.72 50.76 53.81 54.05 54.52 55.00 54.39 53.69 55.81 54.69 56.07 56.22 58.93 58.97 59.22 57.16 57.13
56.96 56.65 56.10 56.28 55.85 55.94 55.93 56.15 56.43 57.52 57.99 58.44 58.67 58.74 56.16 49.26 49.09 58.07 57.38 57.06 57.60 58.48 55.94 53.28 53.25 54.68 52.35 54.12 54.32 51.95 53.35 54.59 55.40 55.16 54.86 55.72 54.22 54.97 55.34 58.32 59.73 59.36 57.31 56.55 56.40
57.16 56.88 56.40 56.50 56.32 55.97 56.18 56.20 56.81 56.81 57.57 58.21 58.29 58.22 52.54 43.29 55.49 56.90 57.03 55.82 54.27 56.24 54.73 54.59 54.31 56.81 53.95 54.27 53.23 54.45 53.98 54.07 55.11 54.94 55.35 53.30 54.45 53.58 55.98 58.72 57.23 56.45 56.18 55.76 55.23
57.35 57.03 56.69 56.85 56.85 56.85 56.09 56.29 56.74 56.91 56.99 57.75 57.74 55.69 49.65 46.93 54.73 55.24 54.27 53.74 54.80 54.43 53.83 56.20 56.18 55.82 55.68 53.25 56.90 55.18 51.22 53.28 54.08 54.57 53.92 55.03 51.19 52.14 56.37 54.09 53.05 54.06 53.90 54.54 54.92
57.16 57.47 57.50 57.34 56.77 56.41 56.06 56.35 56.86 57.66 57.07 56.59 56.41 53.71 44.59 54.11 56.53 54.13 54.61 53.05 55.49 55.18 55.39 57.20 56.33 53.90 54.73 57.05 54.81 51.99 51.87 46.99 52.68 54.07 54.50 52.36 47.03 53.60 53.18 52.90 52.00 52.35 53.83 54.37 54.29
56.77 57.23 57.09 57.70 57.01 56.93 56.78 56.79 57.01 57.06 56.82 56.17 52.47 49.81 43.19 53.87 50.25 53.65 54.38 50.36 52.71 53.98 54.51 56.16 54.60 51.88 54.38 49.45 46.93 50.17 45.06 46.23 48.30 53.73 52.74 50.88 48.52 51.87 52.79 52.65 52.66 53.11 53.46 53.67 54.35
56.98 57.25 57.47 57.62 57.07 56.79 56.21 56.47 56.80 55.51 54.21 53.30 51.96 44.97 46.85 45.07 50.16 51.43 53.57 52.23 50.42 51.99 50.85 50.99 48.98 47.75 49.31 45.82 41.00 43.36 44.86 47.02 46.66 50.45 49.31 48.35 48.92 51.73 53.34 51.57 52.24 52.32 52.97 53.46 53.50
57.02 57.08 57.33 57.54 56.88 55.18 54.27 53.00 46.79 46.01 47.47 43.20 43.65 43.17 45.76 49.76 52.48 49.79 52.09 49.72 49.71 48.40 42.41 47.98 42.33 40.35 47.01 47.84 48.52 47.88 47.25 46.07 48.50 50.07 47.77 48.80 49.65 50.14 53.63 52.21 51.79 51.65 52.59 52.89 52.86
56.41 56.65 57.02 57.24 56.60 55.46 54.00 48.80 47.34 48.46 41.23 45.96 45.72 45.54 48.76 49.74 44.39 47.68 51.92 44.76 43.85 39.72 44.24 42.50 38.87 46.81 48.66 49.34 47.83 48.28 45.59 45.02 49.01 48.55 47.59 48.91 48.78 52.04 53.09 51.18 51.83 51.49 52.15 52.43 52.22
55.89 56.09 56.56 56.38 54.88 52.95 51.28 50.29 52.52 50.80 39.73 41.91 44.55 44.24 45.45 47.61 44.22 45.20 48.47 45.56 41.59 39.17 40.98 39.33 42.42 48.07 47.66 47.18 46.32 46.87 44.68 45.30 45.72 47.10 48.14 46.32 47.03 49.09 47.71 48.04 48.09 51.21 52.95 52.82 52.37
55.97 55.72 56.20 54.62 50.43 52.63 50.27 50.95 51.12 50.19 33.33 36.16 40.37 42.82 46.15 47.13 41.53 48.99 49.86 45.57 43.03 38.84 40.82 40.36 45.52 46.67 46.01 45.34 47.72 43.48 49.24 47.91 45.95 44.32 42.03 46.50 40.84 47.08 49.22 46.76 47.57 50.10 51.04 51.52 51.90
56.01 55.35 55.74 54.67 51.59 49.11 50.66 50.93 50.34 46.59 24.60 38.55 39.78 48.46 46.21 42.10 43.72 44.29 50.40 45.64 40.13 40.17 39.29 37.85 42.61 41.73 43.95 45.73 48.98 45.74 49.47 47.99 46.33 44.19 43.92 44.57 41.27 45.91 45.14 44.54 46.01 49.31 50.65 51.44 52.26
56.10 55.27 55.18 53.81 53.33 52.43 51.73 51.01 47.67 32.05 23.92 35.45 40.24 39.13 39.44 41.65 42.49 45.00 44.89 47.33 46.69 41.35 40.87 41.43 48.03 45.17 48.36 49.13 49.71 48.96 46.82 45.60 44.47 43.64 38.67 43.89 42.22 44.13 45.47 45.91 46.97 49.26 50.45 51.08 51.61
56.35 55.50 53.86 53.72 49.13 53.80 52.01 45.98 32.65 27.90 36.68 34.75 35.93 39.02 37.56 36.35 38.41 40.12 39.96 38.54 36.45 34.83 34.23 36.67 37.64 48.21 50.50 45.57 45.30 47.87 44.34 36.55 35.61 35.57 37.22 40.54 39.56 44.84 47.44 46.45 48.34 48.70 50.19 51.21 51.87
56.15 55.23 53.76 52.73 55.05 54.23 48.74 38.46 29.08 33.95 34.15 38.68 38.25 38.15 34.42 38.06 37.80 38.78 37.99 35.32 39.25 40.15 35.71 32.89 35.31 43.99 49.36 46.52 42.15 43.35 45.36 39.42 32.38 34.66 37.70 38.75 38.19 44.07 47.16 47.93 48.84 51.03 51.59 51.75 51.52
54.98 52.13 50.78 52.45 55.29 51.82 41.81 31.79 32.97 36.48 37.26 36.21 37.30 34.07 34.53 37.39 37.68 37.58 37.31 36.11 39.31 39.84 34.87 34.18 34.85 45.17 48.24 47.57 46.86 41.78 40.04 46.09 39.02 38.82 38.13 41.24 43.89 47.80 47.01 46.71 47.26 48.78 50.45 50.49 51.12
50.04 47.86 48.26 52.86 54.51 48.65 36.96 35.26 36.89 41.18 39.47 40.02 32.90 36.39 32.78 35.06 35.54 36.75 36.00 39.58 39.08 43.08 45.63 40.13 34.75 43.18 43.55 48.19 44.33 45.61 48.23 38.71 40.50 33.50 32.42 38.40 39.73 43.27 45.36 45.71 45.96 47.25 48.81 50.49 50.98
49.52 43.88 50.82 54.32 52.27 42.66 34.08 36.38 40.30 43.69 42.75 38.77 36.79 35.27 36.53 35.63 36.39 36.49 36.37 41.13 42.57 43.81 45.32 44.05 42.24 36.38 44.36 41.42 41.19 43.76 41.88 43.24 43.33 40.26 36.98 36.02 39.79 46.74 46.18 46.62 46.83 47.68 49.76 50.67 50.10
47.83 41.88 52.78 52.95 41.47 41.06 36.99 39.64 43.21 43.89 44.61 41.68 41.83 39.66 37.46 38.23 35.37 35.88 36.89 41.13 44.69 46.68 41.34 45.03 43.21 37.17 38.17 42.13 46.92 46.67 44.01 44.35 39.69 35.36 38.75 38.72 40.82 46.87 46.81 46.59 46.56 48.29 49.50 50.75 51.00
45.30 45.93 52.99 50.08 37.62 37.83 41.74 41.24 42.25 43.29 42.89 41.70 41.56 43.00 41.98 38.76 35.41 38.89 40.67 44.29 46.45 45.48 44.37 45.25 41.86 35.94 35.81 39.65 41.04 41.18 43.78 46.08 44.85 41.38 38.33 37.34 40.18 45.40 47.29 47.50 47.15 47.92 48.92 50.04 50.00
46.02 42.06 46.67 47.58 46.15 42.53 40.43 39.92 41.42 46.85 44.62 46.20 44.44 45.11 41.53 38.69 41.31 39.11 41.06 45.62 48.36 46.42 47.67 46.40 43.04 40.64 36.32 39.69 43.28 40.30 41.54 44.25 44.24 39.36 39.79 39.76 42.76 44.67 45.44 46.50 47.01 48.07 49.42 49.82 49.53
45.04 44.07 45.98 39.33 40.90 42.08 43.11 42.18 40.14 42.01 46.13 47.09 43.86 43.79 41.58 38.35 39.92 40.13 43.03 44.07 46.39 47.91 47.51 45.23 40.13 42.25 41.38 42.61 43.34 42.30 41.68 41.14 40.62 42.98 39.73 42.98 41.96 45.78 47.72 47.63 48.57 49.21 49.18 48.82 48.14
43.39 42.82 44.49 45.15 44.43 43.37 42.14 41.38 39.96 43.19 43.07 41.43 42.54 44.04 44.41 41.14 41.64 40.88 43.00 44.19 43.48 45.94 45.70 46.45 40.19 39.95 38.06 40.33 42.26 40.18 42.40 43.14 43.11 43.76 43.55 43.73 43.30 47.39 46.99 48.14 46.79 47.85 47.33 47.19 47.21
47.26 45.99 44.30 43.88 41.49 42.40 41.22 42.81 41.34 43.10 44.10 44.78 45.16 43.68 43.12 45.08 47.81 48.49 49.03 48.82 47.46 45.27 44.15 43.51 41.38 39.54 36.44 38.25 38.64 36.55 40.75 41.49 42.63 44.12 43.70 40.42 45.46 46.13 44.40 45.15 46.99 47.51 47.42 47.23 46.98

GFSSW_sfc_wetblb_003.txt.gz
Wetbulb
57.00 56.82 57.16 57.02 56.98 57.05 57.25 57.82 58.40 59.05 59.72 61.08 61.76 62.61 62.64 62.24 61.03 58.94 54.91 59.03 59.48 61.21 61.51 61.09 60.66 62.07 62.56 59.88 60.44 59.40 50.16 46.91 48.74 49.68 50.97 54.74 53.30 56.71 58.37 56.26 56.93 57.87 57.80 59.19 60.36
57.00 56.82 56.68 56.62 56.53 56.76 56.77 57.04 57.76 58.71 59.06 59.87 60.97 61.72 61.79 61.17 57.93 55.09 61.08 62.42 62.44 62.37 58.40 56.85 56.52 58.53 58.16 57.81 57.98 54.40 49.30 49.22 53.27 53.80 52.89 54.25 54.19 55.88 55.56 55.38 55.92 57.35 59.04 59.70 59.79
57.23 56.66 56.59 56.44 56.50 56.45 56.80 56.73 57.14 57.97 59.08 58.95 59.62 60.68 60.87 60.21 53.31 53.82 62.78 63.28 63.63 62.71 60.19 58.18 58.05 58.40 55.38 57.51 56.14 54.97 49.47 53.39 54.11 55.04 55.36 54.01 54.24 56.60 55.18 53.66 56.26 55.93 57.49 59.18 59.68
57.23 56.92 56.48 56.29 56.67 56.78 56.35 56.41 56.45 57.04 57.88 58.52 59.08 59.82 60.42 57.65 42.90 56.54 60.80 59.90 61.72 61.86 59.55 56.73 54.50 54.03 53.69 52.06 56.15 51.63 54.20 54.28 54.99 55.82 54.80 53.61 55.67 54.63 55.85 56.44 59.08 59.51 60.07 60.03 58.92
57.15 57.33 57.01 56.65 56.96 56.65 56.50 56.31 56.23 56.37 57.25 58.14 58.87 58.84 57.04 50.47 50.56 58.99 58.43 57.22 58.77 59.56 57.05 55.10 51.59 52.32 51.17 53.45 53.45 51.69 53.62 54.90 55.71 55.54 55.51 55.98 53.98 54.30 55.33 58.59 59.98 59.77 59.61 59.27 58.70
57.11 57.34 57.17 56.79 57.13 57.00 56.73 56.39 56.76 56.60 56.36 57.56 58.32 58.51 53.51 43.99 56.98 58.52 58.36 57.30 56.35 56.91 56.22 56.36 53.00 53.97 52.49 52.45 52.11 54.33 54.51 54.33 55.23 55.09 55.43 53.84 54.26 55.11 56.32 59.08 58.32 57.47 56.01 57.34 58.06
56.96 57.04 57.45 56.99 57.21 57.47 57.36 56.88 56.89 56.34 56.42 56.70 57.29 56.17 50.39 47.97 55.73 57.20 56.01 54.59 55.74 55.19 53.81 56.83 56.79 53.86 54.21 51.81 54.87 54.52 50.56 53.32 53.38 54.60 53.82 55.72 51.68 52.43 56.94 58.00 53.81 53.72 54.83 55.68 56.97
56.93 57.00 57.66 57.53 57.50 57.28 57.19 57.18 56.92 56.92 56.76 56.53 56.62 54.56 46.39 55.11 57.06 54.74 55.13 53.55 55.26 55.57 54.52 56.45 57.69 53.70 51.96 54.59 51.92 50.02 50.45 45.42 51.64 53.93 54.58 54.06 47.32 53.74 56.31 53.61 53.05 53.78 55.03 55.98 55.96
57.43 56.84 57.16 57.69 57.72 57.65 57.25 57.14 57.08 56.94 56.66 56.28 53.43 50.92 44.17 54.82 50.67 54.15 54.96 51.16 52.87 54.32 54.70 55.29 55.32 50.95 51.24 47.25 45.63 47.90 43.81 44.93 48.36 54.09 53.25 52.73 48.69 53.50 55.65 53.31 53.12 54.05 54.96 55.37 55.66
58.11 57.52 57.52 57.76 57.76 57.67 57.22 56.53 56.81 56.34 55.23 54.59 52.49 46.24 48.36 46.09 50.97 52.33 54.48 52.84 49.86 50.50 50.28 50.10 49.55 46.28 46.49 45.11 38.08 42.94 43.69 46.10 46.45 50.87 52.39 50.55 49.80 52.98 54.16 53.97 53.31 53.88 54.68 55.01 54.97
58.11 57.37 57.38 57.35 57.34 56.71 54.69 53.01 47.41 45.79 48.52 44.78 44.91 45.58 46.91 50.97 52.84 50.34 52.14 50.34 49.45 47.01 42.22 47.04 42.11 39.49 43.73 44.47 47.72 47.25 46.49 46.02 48.77 51.86 51.16 49.52 49.35 51.22 53.76 54.08 53.72 53.39 54.23 54.50 54.09
57.52 56.92 56.96 56.65 56.60 56.35 54.12 47.48 47.67 48.74 42.08 47.13 47.44 47.26 49.13 50.55 44.74 48.01 52.12 45.18 43.76 39.84 43.54 41.75 38.24 44.41 46.55 45.92 46.71 46.51 45.40 46.43 48.53 50.45 49.42 48.91 48.55 52.02 53.52 54.19 54.81 53.27 53.67 54.03 53.27
56.88 56.25 55.94 55.94 55.91 54.86 51.79 48.53 52.14 51.16 40.58 40.79 45.72 44.95 45.81 47.63 43.70 45.52 48.74 46.44 42.24 39.20 39.77 38.14 41.64 45.95 44.83 42.68 44.66 46.17 45.25 45.62 45.33 49.34 49.46 48.40 46.98 49.64 53.18 53.28 52.52 53.46 54.64 54.42 53.41
56.43 55.58 55.34 55.30 51.20 52.69 49.02 52.74 52.58 51.08 32.93 37.37 40.54 43.22 45.17 45.84 41.27 48.71 50.19 46.47 41.65 38.54 40.44 39.83 43.77 42.80 43.21 42.00 43.55 42.56 48.02 47.93 46.53 45.85 41.40 49.22 40.46 47.95 50.25 48.20 49.23 51.40 53.30 53.19 53.24
56.26 55.22 55.38 54.91 51.95 49.42 50.31 51.65 51.18 47.20 25.61 40.15 40.62 48.63 46.42 41.34 43.65 44.07 50.41 46.64 39.45 39.75 39.21 36.85 40.30 40.38 40.34 41.58 44.85 44.91 49.36 48.18 47.36 46.31 45.07 44.54 42.63 46.56 50.38 47.50 48.30 50.53 52.42 52.88 53.22
56.30 55.57 54.95 53.48 52.91 52.69 51.36 50.81 47.93 32.18 25.73 35.52 40.38 38.95 39.22 41.50 42.29 44.93 44.71 47.80 45.95 39.81 41.09 39.27 44.89 44.14 43.87 46.33 46.23 49.04 47.56 47.00 47.32 45.45 37.99 44.04 43.65 44.35 46.70 48.07 49.33 50.53 51.78 52.22 52.59
56.42 55.73 53.89 53.91 49.23 53.14 50.96 46.08 32.85 28.49 37.16 34.52 35.79 38.43 38.09 37.19 39.17 40.76 39.12 37.84 35.89 32.23 34.38 36.89 36.59 40.99 45.14 41.36 45.44 47.12 43.14 37.42 35.30 36.61 36.76 45.55 43.56 45.80 47.74 48.88 50.19 49.99 51.06 52.10 52.70
56.28 55.41 53.53 53.22 55.37 52.93 48.29 37.44 28.70 35.00 34.27 38.80 37.53 37.63 35.41 37.31 37.98 38.97 37.18 35.25 39.11 36.67 34.67 31.61 30.34 37.94 42.63 43.56 41.81 43.63 43.92 38.80 31.68 33.68 38.04 42.93 39.12 45.00 49.50 50.82 51.56 52.05 52.21 52.47 52.30
55.84 53.30 51.68 52.17 54.84 51.70 42.06 31.15 32.96 36.99 38.44 36.84 37.61 34.01 34.73 36.21 37.03 36.42 36.03 36.90 38.76 38.52 34.98 32.77 33.54 42.88 44.51 48.20 46.03 41.11 41.91 46.56 41.80 42.62 40.14 41.32 45.20 47.85 49.59 48.75 49.44 50.86 51.60 51.45 52.14
50.10 47.80 48.09 54.43 54.70 48.85 37.84 34.41 37.85 42.07 39.40 39.08 33.17 36.57 32.45 34.94 35.40 35.94 35.46 40.21 38.62 40.46 40.76 37.88 33.34 40.76 46.03 48.10 45.87 45.64 48.94 40.46 43.04 34.51 33.90 39.81 41.74 43.06 46.18 47.34 48.46 49.23 50.62 51.58 52.50
49.01 43.84 52.13 53.86 53.33 43.24 33.01 35.52 40.19 44.00 42.18 39.43 37.85 36.05 37.08 35.52 36.44 35.64 36.92 40.21 41.40 41.39 41.08 41.60 36.80 36.04 43.94 42.75 41.10 42.43 42.87 45.09 45.31 42.96 37.71 36.57 40.36 48.76 47.28 48.25 48.50 49.45 51.34 51.86 52.20
47.78 40.88 53.15 53.15 41.21 40.48 36.20 38.39 42.60 42.26 44.19 43.45 41.99 40.37 38.69 38.32 36.77 37.38 37.12 39.40 43.46 43.21 37.99 42.76 39.23 35.35 37.07 44.58 48.51 47.11 44.63 46.00 41.13 37.84 41.28 40.26 40.45 49.33 49.03 49.37 49.53 50.11 51.18 52.63 52.86
44.79 46.48 52.42 49.99 37.23 37.14 39.67 39.46 41.46 41.17 43.35 42.39 41.13 42.37 42.40 39.47 35.72 39.13 40.12 43.74 45.00 42.73 42.82 45.11 39.63 35.16 36.44 40.61 45.17 43.19 45.70 47.41 46.89 44.87 40.73 37.77 40.81 49.03 49.94 49.59 49.91 49.84 50.91 52.36 52.23
45.53 41.04 45.42 46.37 45.43 41.68 38.59 38.70 38.93 44.55 43.95 44.16 42.83 44.33 41.52 39.66 41.73 38.76 40.18 43.53 46.16 44.69 47.47 47.55 42.36 40.77 36.97 40.39 43.60 41.27 43.53 45.73 44.92 40.34 40.74 41.79 43.15 45.27 47.40 48.21 49.03 49.65 51.04 51.85 51.72
45.14 43.30 46.22 39.08 40.37 41.36 42.34 40.51 38.27 40.20 45.03 44.36 43.14 43.45 41.21 37.46 39.34 39.06 41.23 43.41 44.57 46.84 45.41 45.18 40.47 43.07 43.49 44.72 44.83 43.93 43.48 43.68 43.07 44.29 40.96 43.43 43.55 47.08 48.96 49.01 49.88 50.60 50.77 50.88 50.45
42.81 43.11 46.81 44.64 43.60 41.85 41.19 39.46 39.20 40.25 43.88 41.65 42.56 44.51 44.26 41.22 40.56 38.77 41.91 43.06 42.39 45.24 44.60 45.11 40.69 42.49 40.53 42.92 44.37 42.43 44.34 44.81 44.54 45.18 44.95 45.36 45.17 50.15 49.99 50.10 49.79 50.19 50.01 49.82 50.04
47.75 49.50 46.01 44.84 45.01 41.59 41.75 40.73 40.87 42.30 44.49 46.21 45.40 44.12 43.80 45.26 47.26 48.71 48.17 48.27 47.67 45.11 44.45 42.54 41.83 40.49 36.63 41.70 41.49 38.05 42.77 43.74 44.64 45.87 45.58 42.49 46.98 50.64 46.72 47.66 48.77 49.38 49.55 49.38 49.60

GFSSW_sfc_wetblb_006.txt.gz
Wetbulb
57.09 57.17 57.25 57.72 57.52 57.38 57.39 57.98 58.65 59.09 59.51 60.54 60.98 61.85 62.80 62.56 61.69 58.57 54.04 58.74 60.27 62.31 62.19 58.70 58.70 58.76 60.36 58.23 59.07 58.16 47.73 44.55 46.42 47.45 49.36 52.90 50.98 54.42 55.82 53.02 54.09 55.10 54.17 55.64 57.39
57.22 57.41 57.12 57.13 57.02 56.90 57.10 57.41 57.98 58.82 59.10 59.53 60.28 61.16 61.59 61.34 57.26 55.02 60.96 63.40 63.16 61.81 57.69 54.53 53.45 55.89 53.44 56.26 55.99 52.57 46.98 47.04 51.29 51.41 50.32 52.83 51.94 52.42 52.68 53.03 52.42 53.83 56.49 57.07 56.86
57.42 57.39 56.97 56.93 56.69 56.93 56.78 57.36 57.40 58.07 59.04 58.83 59.26 60.67 61.45 59.89 52.67 52.68 63.15 64.28 64.55 62.93 59.41 57.63 55.91 54.77 51.71 54.52 54.24 52.92 47.76 51.67 51.98 53.07 53.63 52.40 52.09 53.60 51.52 50.46 53.35 52.52 54.64 56.48 55.46
57.52 57.29 57.15 56.88 56.69 56.88 56.89 56.86 57.05 57.51 57.93 58.72 58.89 60.00 60.94 57.72 43.65 56.51 60.58 59.86 61.06 60.97 58.66 56.10 53.40 50.06 50.62 49.47 53.93 49.84 52.96 53.01 53.37 54.36 53.83 51.38 53.29 52.01 52.10 52.44 56.35 56.32 56.93 56.71 56.07
57.51 57.38 57.38 57.26 57.04 57.19 56.67 56.67 56.78 57.07 57.70 57.88 58.75 59.42 56.53 49.45 49.80 58.45 58.75 58.43 58.18 58.22 55.63 53.95 51.35 49.33 46.95 51.16 52.20 50.36 52.30 53.59 54.22 54.04 53.73 54.29 51.75 51.80 52.14 54.91 56.73 57.16 57.36 55.99 55.75
57.99 57.38 57.36 57.36 57.06 57.25 57.09 56.63 56.71 57.29 57.15 57.52 58.08 58.81 52.69 43.31 55.80 57.46 57.75 56.92 56.01 55.39 55.20 55.02 52.68 52.71 48.68 49.70 49.69 52.63 52.83 53.17 53.86 53.26 53.48 52.01 51.60 52.21 53.21 55.22 55.21 56.46 54.75 52.29 53.57
58.16 57.30 57.83 57.89 57.20 57.36 57.41 57.43 56.95 57.02 56.96 57.10 57.61 55.71 49.80 47.24 55.80 56.32 56.87 55.32 55.21 53.76 51.40 55.12 55.15 52.19 51.29 47.54 52.90 52.41 48.56 51.62 52.12 52.77 52.15 53.16 49.03 49.67 54.22 54.98 54.19 53.56 50.20 51.07 53.20
58.25 57.51 57.73 58.08 57.91 57.68 57.35 56.99 57.34 57.65 57.30 56.90 56.91 53.71 45.24 55.42 56.20 54.45 54.64 53.02 54.20 54.02 53.28 54.29 54.20 52.25 50.20 51.64 49.56 47.85 48.50 43.01 50.34 52.45 52.74 50.95 43.95 51.45 54.81 53.51 52.03 49.84 48.34 52.09 53.42
58.41 57.95 57.53 57.93 58.14 58.12 57.71 56.86 57.10 57.12 57.10 56.58 52.98 50.50 42.82 55.08 50.71 53.48 54.19 50.39 52.06 52.68 53.72 53.61 51.71 48.48 49.45 44.06 42.34 45.66 40.36 42.87 45.80 52.43 51.23 49.45 45.50 51.50 54.42 51.24 49.24 48.41 49.50 51.87 52.10
59.25 58.64 57.83 57.48 57.79 57.69 57.07 55.68 55.79 56.15 55.38 54.73 52.46 45.66 47.79 45.64 50.72 51.81 53.59 52.80 49.23 48.87 47.74 48.43 46.49 43.25 43.94 41.57 33.86 38.09 40.95 42.79 43.50 48.59 50.61 48.04 47.40 50.82 52.79 50.76 48.68 48.62 48.47 50.71 51.64
59.09 58.57 57.58 57.47 57.31 56.94 55.22 52.75 47.56 45.98 48.81 43.84 44.80 44.97 47.13 50.89 52.55 49.89 51.75 49.68 48.54 45.63 39.01 44.35 40.07 36.79 39.46 42.01 42.67 43.17 42.74 43.44 46.08 50.10 48.31 47.15 47.86 50.01 51.46 50.79 48.92 48.96 48.25 50.01 50.24
58.66 57.85 57.33 57.30 57.14 56.65 54.52 47.26 47.92 48.45 41.83 47.86 47.57 47.30 49.86 50.59 44.71 47.51 51.58 44.26 43.01 37.81 41.14 39.59 36.16 41.17 43.51 43.37 42.82 42.13 41.56 42.03 46.36 49.70 48.21 47.97 47.41 49.56 50.16 50.58 50.44 49.90 48.75 49.31 49.26
58.01 57.20 56.71 56.36 56.13 54.31 50.93 49.28 52.83 51.04 41.07 42.38 46.23 45.37 46.70 48.18 43.64 45.00 48.09 45.08 40.78 37.90 37.94 35.36 38.49 43.36 41.84 40.59 39.96 41.31 40.39 42.76 43.02 47.82 47.34 45.38 43.19 45.30 49.08 50.65 51.15 51.98 50.04 50.46 49.22
57.43 56.75 56.17 55.68 51.24 51.62 49.43 53.86 53.17 51.49 33.72 36.59 39.58 44.31 46.26 45.75 40.70 48.48 49.55 45.40 41.27 36.90 38.29 37.78 41.93 40.17 40.00 38.41 40.26 36.68 44.28 44.72 44.00 43.75 38.50 44.68 33.26 43.03 47.06 48.20 48.12 47.08 47.85 49.23 48.92
56.88 56.54 56.00 55.17 52.43 48.86 50.89 52.38 51.41 47.68 24.26 38.81 40.67 48.65 46.27 41.52 42.53 42.90 48.94 45.77 38.64 38.01 38.73 35.12 37.38 37.37 36.90 38.85 42.14 39.31 45.17 44.65 44.24 42.55 40.16 41.64 36.92 40.52 46.61 45.91 43.52 45.09 47.49 48.58 48.68
56.49 56.04 55.70 53.59 52.32 51.94 52.77 51.45 48.12 32.54 23.60 35.55 40.48 39.35 39.84 40.67 41.01 43.35 43.57 46.86 44.97 39.36 39.00 37.71 43.15 41.27 39.86 41.84 42.11 44.70 42.21 42.45 45.12 41.48 36.16 40.51 39.27 38.60 42.13 44.17 44.59 45.68 47.96 48.82 48.64
56.47 55.68 54.29 53.37 47.65 52.89 51.28 46.27 32.25 27.69 37.83 35.05 35.84 38.68 37.43 37.51 38.19 38.98 38.01 37.12 34.03 30.40 31.11 35.39 36.63 40.93 41.06 38.12 42.70 42.82 39.53 32.99 33.19 31.87 31.68 41.81 40.24 38.50 43.42 46.43 47.45 46.87 48.00 48.41 48.69
56.39 55.43 53.72 51.74 53.12 51.91 48.47 38.07 27.24 34.84 34.44 38.83 37.70 37.45 35.36 37.62 37.53 37.16 36.32 33.88 38.14 35.89 32.23 28.76 27.71 36.85 40.06 37.58 38.95 40.10 39.50 33.34 29.58 30.63 32.73 41.58 35.38 39.66 45.74 46.87 48.48 49.16 49.06 48.96 48.50
56.09 53.34 50.96 51.63 52.82 50.73 42.13 30.12 31.69 36.14 39.16 37.12 36.68 33.86 34.11 36.98 36.62 35.78 35.13 34.58 36.80 37.69 30.89 32.82 30.48 40.75 41.01 41.15 43.47 39.13 34.14 38.91 37.86 38.74 33.87 35.62 38.76 42.04 44.91 44.60 45.94 47.36 48.17 47.69 48.28
51.08 49.66 49.13 52.80 52.60 47.68 38.12 33.07 35.84 40.93 39.87 38.73 33.73 34.25 31.08 33.25 32.81 33.80 33.85 38.26 37.24 40.29 39.75 34.46 30.62 39.37 41.86 43.65 44.18 42.22 44.16 35.95 39.39 30.58 29.52 33.71 35.93 36.52 40.77 41.78 44.40 46.19 46.61 47.68 48.49
48.40 44.00 50.09 53.32 51.24 43.28 33.36 34.35 37.87 41.83 41.82 37.86 36.31 35.07 35.45 33.07 34.18 33.09 34.06 38.50 40.39 40.23 39.38 37.03 34.56 35.26 39.00 40.77 39.25 41.84 40.60 42.35 42.36 38.32 32.31 29.72 34.52 43.50 42.77 44.36 43.53 45.75 47.75 48.25 48.46
47.22 40.42 51.34 52.79 40.74 41.01 36.22 38.52 42.00 41.13 43.60 41.73 40.57 39.30 36.65 37.39 34.40 34.58 34.19 38.15 42.98 41.38 35.38 38.84 35.88 32.82 35.33 42.29 45.53 45.24 42.96 42.83 37.37 34.07 35.81 34.79 33.84 44.48 44.31 44.93 45.76 45.22 48.74 49.22 49.41
44.09 45.60 51.75 49.98 36.23 36.81 39.43 39.43 40.19 40.94 42.26 41.15 40.11 41.43 41.20 37.79 33.26 36.21 38.40 43.18 43.41 41.06 38.13 39.70 35.24 31.84 32.93 39.90 43.69 42.22 43.61 44.08 42.88 40.33 35.10 31.57 33.33 44.84 43.82 44.14 45.62 45.14 47.38 49.12 48.89
45.15 40.38 45.21 45.75 44.40 40.88 37.92 38.16 36.76 42.25 40.94 42.48 41.89 42.49 39.89 37.54 38.85 37.35 38.14 42.77 44.49 42.68 46.49 45.27 39.69 34.45 33.77 36.93 41.37 40.00 42.54 43.05 41.54 35.69 35.52 35.49 35.94 40.49 42.70 43.43 44.41 45.04 46.36 48.04 48.37
44.99 42.16 44.30 37.79 39.33 40.72 41.55 39.66 37.25 37.37 42.97 43.62 41.09 40.61 39.62 35.85 36.88 36.75 39.48 41.07 43.58 44.58 43.45 41.03 37.87 40.06 41.50 42.87 43.14 42.56 42.08 42.35 40.08 39.65 35.46 37.41 39.06 40.88 42.90 43.46 44.04 44.98 46.68 47.65 47.49
42.24 40.91 45.36 44.05 41.85 40.56 40.10 39.37 38.17 39.30 40.90 40.84 39.22 42.83 42.48 37.89 38.47 36.79 39.46 39.89 38.20 42.78 41.60 42.61 37.69 40.53 38.26 41.81 42.50 40.91 42.82 42.69 42.17 41.56 41.10 41.33 40.16 44.04 44.98 45.19 44.47 44.09 45.64 46.90 47.15
47.90 47.76 44.40 43.07 42.66 40.46 40.30 40.20 40.64 41.20 42.07 43.22 42.61 41.25 42.08 43.03 45.22 44.83 44.80 44.55 44.78 42.54 41.07 41.03 39.56 37.54 32.60 38.55 38.99 34.39 39.83 41.49 42.09 43.19 42.61 38.93 42.89 43.78 42.82 44.68 44.09 44.24 45.80 46.03 46.27

GFSSW_sfc_wetblb_009.txt.gz
Wetbulb
56.79 56.87 56.94 57.08 57.13 57.17 57.31 57.54 57.94 58.82 59.60 60.30 61.32 61.88 62.88 62.79 62.34 58.55 53.16 57.00 58.95 61.88 61.83 56.75 55.09 55.41 55.38 54.04 56.55 54.41 44.01 42.65 43.72 44.36 46.87 51.31 49.30 52.24 53.61 51.38 52.05 52.52 52.06 54.61 57.95
57.03 57.17 57.16 56.80 56.83 56.82 56.85 57.24 57.75 58.09 59.09 59.39 60.02 61.40 61.73 61.81 57.42 54.80 60.10 63.62 64.40 62.27 56.89 53.70 51.36 52.51 49.22 51.98 53.53 49.41 44.05 45.32 48.76 48.85 48.21 50.55 49.74 50.52 50.41 50.16 50.06 51.58 55.00 54.84 55.57
57.24 57.47 57.47 56.78 56.61 56.44 56.74 56.84 57.27 57.51 58.12 59.26 59.26 60.69 61.40 59.74 53.01 52.07 63.08 64.62 64.85 62.97 58.80 56.95 55.06 52.05 48.17 49.31 50.46 49.86 46.31 49.47 50.46 52.05 51.89 50.23 50.05 51.82 49.03 47.90 50.69 51.59 52.76 54.54 54.97
57.68 57.29 57.39 57.18 56.84 56.52 56.57 56.51 56.74 56.91 57.64 58.32 58.83 59.63 60.65 57.45 43.23 55.27 60.59 60.87 63.92 61.33 58.36 55.50 52.62 47.02 46.36 46.55 49.86 47.34 51.46 51.83 52.46 53.83 52.41 49.80 51.65 49.70 50.17 50.26 53.36 54.14 54.88 54.27 54.64
58.27 57.61 57.35 57.34 57.26 56.79 57.00 56.51 56.54 56.65 56.71 57.76 58.37 59.06 56.40 49.94 49.01 57.42 59.56 59.15 57.78 57.23 54.93 53.57 49.90 47.75 43.49 46.08 48.51 47.33 49.83 52.45 53.59 53.43 52.80 52.64 50.20 49.76 50.15 52.86 54.20 54.91 55.13 54.30 54.28
58.97 58.16 57.39 57.25 57.29 56.87 57.16 56.93 56.75 56.59 56.83 56.78 57.63 58.63 52.28 42.63 53.76 56.19 56.31 54.91 55.23 55.46 53.92 53.65 51.14 51.00 47.17 45.28 44.85 48.65 49.49 50.71 52.34 52.33 52.17 50.70 49.69 49.83 51.21 53.24 52.82 53.57 53.42 53.44 52.22
59.61 58.60 58.17 57.18 57.44 57.12 57.23 57.56 57.44 56.97 56.65 56.73 56.80 55.25 49.66 46.03 53.84 53.35 57.12 54.37 53.48 51.86 49.48 54.39 53.75 51.38 50.05 45.66 49.22 50.20 47.04 48.64 50.28 51.39 50.57 52.32 47.97 47.73 51.33 52.61 52.03 52.06 52.04 50.27 51.95
59.59 59.02 58.24 57.90 57.23 57.86 57.36 57.14 57.16 57.55 56.77 56.91 56.51 52.56 44.68 54.58 54.84 53.56 52.98 51.62 52.16 52.44 51.62 51.83 53.28 48.59 49.37 49.79 46.58 44.81 45.79 41.56 47.75 49.94 50.99 50.75 43.49 49.70 52.13 50.72 50.68 51.03 49.14 49.57 51.71
59.49 59.19 58.41 57.95 58.05 58.05 57.98 56.94 56.62 57.14 56.92 56.56 52.24 48.68 42.33 55.65 50.37 52.32 52.16 49.47 50.22 50.48 50.82 52.63 49.69 45.21 46.33 42.91 39.49 40.91 37.19 39.36 43.71 49.45 49.39 49.22 45.08 49.30 51.21 50.61 49.16 47.95 46.88 48.81 49.76
59.57 59.04 58.55 57.99 57.62 57.57 57.45 55.82 55.53 55.54 55.37 55.10 52.61 45.27 47.28 45.09 50.10 51.59 51.71 51.44 47.96 47.66 46.68 46.84 43.80 39.71 39.46 40.12 32.26 36.24 36.12 39.56 40.47 45.47 47.97 46.57 46.60 47.78 50.32 50.50 48.83 46.78 45.70 48.12 49.32
59.32 58.70 58.23 57.68 57.39 57.17 54.36 50.54 44.99 44.88 49.39 44.25 44.17 43.45 46.87 50.09 51.93 49.71 50.75 48.66 47.80 43.90 36.86 41.38 37.50 34.87 36.64 39.26 40.30 38.41 38.23 39.66 42.68 47.09 45.95 45.51 46.13 47.99 49.96 48.86 46.43 45.17 45.33 47.03 48.24
58.96 58.32 58.16 57.73 57.37 57.22 52.52 46.55 45.52 46.72 41.76 47.95 47.69 47.37 49.25 50.72 44.60 47.34 50.68 43.41 42.05 37.36 38.84 37.00 33.74 39.31 41.53 40.89 39.78 39.38 37.59 36.96 41.08 45.80 45.55 45.26 44.90 48.37 49.27 50.34 48.29 47.70 45.16 47.06 47.37
58.42 58.02 57.52 57.03 56.87 53.53 49.67 48.67 50.72 50.22 39.95 42.89 46.51 45.73 46.43 48.67 43.71 44.51 47.47 44.04 39.43 36.81 36.87 33.79 36.48 41.47 40.51 38.36 37.66 38.06 36.70 37.09 37.53 43.24 45.67 43.83 42.58 45.12 48.03 49.46 49.25 48.75 47.84 48.68 48.48
57.66 57.62 56.80 56.34 50.32 49.97 47.37 51.55 52.00 50.01 34.22 36.85 39.11 44.45 46.37 46.52 41.38 48.78 49.12 44.72 40.82 35.95 37.44 35.71 39.81 38.05 37.93 37.08 38.15 33.46 40.48 40.57 40.10 39.23 36.14 44.57 36.28 42.92 46.35 45.73 46.84 46.17 46.87 46.66 47.75
57.23 57.12 56.47 54.04 48.23 46.78 49.85 51.61 51.51 48.20 20.79 37.43 40.02 48.70 46.74 41.77 42.69 43.10 49.20 45.73 38.49 37.24 38.11 33.90 35.89 35.80 34.71 36.34 39.90 35.83 41.19 39.78 40.53 39.17 38.97 39.38 37.60 40.02 44.86 43.99 45.21 43.06 46.46 46.98 48.51
56.78 56.48 55.88 52.63 50.11 51.00 51.64 50.72 47.20 32.18 19.54 35.54 40.48 38.96 39.47 41.77 41.84 43.73 42.87 46.11 44.78 39.72 38.97 36.51 40.51 39.35 37.74 39.81 40.46 41.82 39.45 39.60 40.30 38.18 32.39 37.21 36.74 36.10 41.22 43.97 46.65 42.24 46.06 46.89 47.71
56.57 56.01 54.46 52.64 47.23 51.73 50.40 44.78 32.67 25.00 35.88 34.25 35.69 38.39 36.99 36.82 38.34 39.37 38.17 37.33 35.76 31.01 30.44 34.93 35.39 38.68 41.34 36.73 39.90 38.01 35.05 29.34 27.67 29.18 28.84 39.95 35.70 38.03 42.34 46.21 47.78 44.08 45.79 46.69 47.79
56.12 55.52 53.92 52.28 52.43 50.41 46.62 38.46 25.80 32.01 32.37 39.20 37.47 37.25 35.10 36.67 37.47 37.52 35.34 34.51 38.31 34.80 30.12 24.74 22.12 34.86 39.41 37.22 34.18 34.96 34.15 29.52 21.94 25.34 29.99 40.16 33.69 40.86 46.31 46.97 47.86 47.22 47.02 47.18 46.89
55.71 52.91 50.26 51.44 51.95 49.97 39.32 29.00 28.19 33.22 38.75 37.40 37.07 33.74 34.21 36.34 35.85 36.59 35.03 33.83 35.91 35.84 26.71 29.41 28.10 38.19 39.55 40.46 39.73 33.85 32.42 38.34 34.00 36.45 33.25 36.27 39.41 42.51 42.70 42.78 44.55 45.63 46.07 45.93 45.99
52.60 49.39 47.96 52.20 51.85 46.64 37.67 30.85 33.82 40.16 40.42 39.11 33.52 34.80 30.27 32.59 33.68 33.19 32.93 36.57 35.87 38.18 38.57 34.32 27.78 36.14 38.69 40.40 40.73 38.81 41.21 32.80 34.01 28.67 29.22 33.96 33.97 35.78 37.86 40.64 43.62 44.14 44.58 45.61 46.26
49.72 44.56 50.04 52.40 50.56 42.33 33.52 33.32 37.17 41.71 41.92 37.84 36.32 34.30 32.80 31.73 32.55 31.36 31.49 36.79 39.16 38.81 39.15 36.91 32.46 31.82 36.13 35.79 35.55 35.38 35.67 38.05 37.62 34.36 31.57 30.04 33.78 39.69 40.23 42.42 43.25 44.59 45.42 45.80 45.94
47.49 40.98 50.74 50.97 40.39 39.86 36.05 37.41 41.37 40.01 42.91 40.49 40.15 38.39 35.52 34.24 32.24 30.75 31.32 35.12 41.96 40.94 35.33 37.78 35.26 30.05 31.97 41.24 41.56 41.04 38.94 38.61 31.66 31.44 35.05 32.94 32.06 40.70 41.94 42.75 45.13 44.95 46.12 46.78 47.06
44.66 44.97 50.74 48.84 34.75 36.42 39.32 38.90 40.33 39.54 40.54 40.77 38.89 40.71 39.82 36.33 32.67 34.20 36.19 41.72 41.91 39.88 36.88 38.54 33.66 27.86 32.34 37.87 41.56 38.20 40.92 41.76 40.49 37.92 34.29 28.80 31.07 41.77 40.70 41.83 43.15 44.48 45.85 46.51 46.34
45.21 39.89 44.70 45.93 44.04 39.39 37.21 37.43 37.66 41.81 40.34 42.26 41.56 41.45 38.86 36.35 37.72 35.81 35.40 41.44 42.35 41.28 43.00 40.80 35.60 33.94 32.35 36.05 39.87 38.04 39.76 41.37 38.83 35.40 33.22 32.13 34.03 36.90 39.89 41.44 41.55 44.34 45.98 46.19 46.60
45.63 41.65 43.07 37.02 38.92 40.64 40.40 39.49 37.66 36.57 41.04 42.56 39.50 39.33 37.71 33.56 34.49 35.01 38.62 40.16 41.33 44.02 40.46 38.14 32.28 32.71 35.01 37.57 40.81 39.60 39.39 39.08 35.04 39.64 35.58 35.00 36.55 38.39 40.52 41.06 41.51 44.46 45.98 45.83 45.88
42.38 41.86 44.07 40.91 41.10 39.71 39.95 39.33 38.67 38.34 39.51 39.94 39.00 40.47 39.25 36.33 35.83 34.03 38.93 37.95 37.03 41.00 38.11 39.18 34.16 37.79 38.76 41.08 42.05 39.46 41.23 42.06 41.63 41.16 40.81 39.52 38.33 40.00 41.30 41.61 41.19 42.87 45.77 45.68 45.66
47.58 47.78 45.24 42.97 40.46 38.78 38.16 38.16 39.20 41.62 41.79 42.55 41.92 40.52 40.03 40.65 43.39 41.66 43.90 41.68 40.33 40.61 39.07 39.28 37.82 37.67 32.74 40.27 40.18 35.74 40.52 40.42 40.57 41.57 41.16 37.18 39.75 40.59 40.21 42.18 41.23 42.07 45.64 45.19 44.87

GFSSW_sfc_wetblb_012.txt.gz
Wetbulb
57.40 57.34 57.45 57.32 57.30 57.08 56.87 56.99 57.23 57.86 59.15 59.74 60.77 61.25 62.22 62.87 62.32 58.84 53.18 56.08 57.76 62.27 61.87 55.86 54.10 53.16 53.79 50.55 54.58 53.05 43.48 40.65 42.59 43.19 45.86 49.31 48.08 51.34 52.46 49.97 50.89 51.48 50.94 53.14 55.72
57.80 57.55 57.77 57.37 57.21 56.87 56.69 56.55 57.09 57.24 58.05 59.27 59.65 60.89 60.91 61.92 58.20 55.55 60.00 63.49 63.94 63.07 55.89 53.03 51.04 52.52 47.83 49.74 51.13 48.83 44.14 44.30 47.58 48.30 47.03 49.48 48.66 49.18 48.74 49.13 48.57 50.50 53.26 54.20 56.73
58.41 57.69 57.73 57.66 57.17 56.54 56.49 56.55 56.59 56.85 57.54 58.46 58.95 60.11 61.29 60.31 53.11 52.34 63.12 64.74 64.92 63.17 57.95 56.22 54.42 51.56 46.58 47.56 48.68 49.26 45.74 48.18 49.25 51.14 50.52 49.33 48.11 50.57 48.49 46.73 49.77 49.77 50.93 52.23 53.86
59.02 58.20 57.74 57.37 57.39 56.74 56.52 56.16 56.31 56.50 56.91 57.67 58.60 59.20 60.32 57.20 39.85 54.20 61.41 62.31 64.69 61.90 57.64 54.84 51.70 46.92 44.86 44.87 48.16 44.48 49.75 50.70 51.44 52.63 51.49 48.90 50.34 48.83 48.57 49.21 52.33 52.87 53.58 53.36 53.36
59.57 58.72 57.97 57.58 57.60 57.16 56.75 56.41 56.07 56.40 56.54 57.17 57.71 58.74 55.74 49.25 48.94 56.11 59.19 60.27 58.23 57.92 55.70 53.41 49.25 47.19 42.86 44.17 45.80 44.73 46.85 50.58 52.26 52.40 52.24 52.69 49.85 48.76 49.10 51.98 52.78 53.23 53.75 52.82 52.97
60.08 59.11 58.40 57.58 57.62 57.40 56.93 57.05 56.43 56.21 56.27 56.51 57.01 57.94 51.15 41.22 53.01 54.72 56.44 53.95 55.01 55.02 53.30 53.55 50.70 50.21 46.25 44.51 43.27 45.85 46.36 47.89 50.19 50.60 51.24 50.33 50.53 48.83 50.93 51.93 51.48 52.61 52.63 52.10 52.54
60.38 59.83 59.24 58.11 57.45 57.49 57.12 57.36 57.59 56.99 56.60 56.10 56.41 54.97 49.31 45.20 52.89 53.03 53.78 53.07 53.36 51.94 50.45 54.08 53.60 50.16 48.79 44.98 47.61 46.94 43.75 46.36 47.08 48.56 48.86 50.89 47.10 48.00 50.82 51.17 50.67 50.67 51.45 51.49 51.26
59.89 60.27 59.26 58.48 57.53 57.93 57.38 57.59 56.64 57.48 56.83 56.76 56.43 52.12 43.46 53.69 53.62 52.46 52.37 50.98 51.80 51.93 51.27 51.15 51.51 48.38 47.97 49.36 45.36 42.26 41.30 37.55 44.73 48.17 49.26 48.90 42.46 49.05 51.06 48.82 48.85 49.57 49.64 49.79 50.10
60.33 59.94 59.50 58.49 58.15 58.05 58.06 57.45 56.69 56.80 56.83 56.77 51.62 47.72 41.13 54.64 50.23 51.66 51.55 48.94 49.16 49.23 49.87 52.29 50.26 46.20 44.66 43.31 39.37 39.22 34.28 35.79 40.77 47.20 47.75 46.65 43.77 49.16 51.00 48.26 48.12 48.72 48.27 48.50 47.93
59.70 59.56 59.12 58.45 58.01 57.99 57.67 56.72 55.76 55.31 55.50 55.16 52.45 45.61 47.00 44.63 49.21 50.56 50.75 50.61 47.00 46.70 45.71 45.38 43.13 38.09 38.41 39.77 31.67 35.04 34.43 35.87 36.03 43.56 45.99 45.00 44.69 47.82 48.85 48.74 47.76 49.02 48.05 45.11 48.03
58.85 58.73 58.65 58.34 57.62 57.42 54.84 49.51 44.09 43.44 49.34 45.10 44.79 43.78 44.94 49.52 51.23 49.20 50.12 47.97 46.57 42.86 36.43 40.13 36.82 33.67 34.93 37.79 38.83 37.62 35.82 34.47 37.61 43.12 41.94 42.17 44.16 46.66 49.46 47.39 46.30 47.32 46.04 44.24 47.19
58.02 58.02 58.23 58.21 57.50 57.15 50.95 44.43 43.80 45.40 40.06 47.38 47.66 46.45 48.55 50.40 44.35 47.32 49.77 42.58 42.26 37.77 38.19 37.29 33.43 38.42 39.49 38.69 38.06 36.95 34.75 35.09 38.59 42.12 42.30 42.03 42.26 46.60 48.53 49.28 49.19 48.52 44.61 45.18 46.18
57.53 57.57 57.83 57.69 56.97 53.95 48.97 47.72 49.88 47.64 38.61 42.19 45.72 45.37 46.46 48.28 43.78 44.82 46.89 43.61 39.59 37.82 37.54 34.14 35.33 39.64 38.66 37.50 36.15 36.02 34.28 33.80 34.35 39.31 41.21 40.45 37.74 41.92 47.44 48.85 50.23 49.53 46.56 47.22 47.83
57.16 57.27 57.18 56.56 50.96 49.41 47.60 50.39 49.60 49.28 32.85 35.62 39.26 44.44 46.71 47.42 42.01 49.08 48.84 44.84 40.60 36.46 36.67 35.95 39.21 37.17 36.24 35.79 36.76 32.14 38.81 38.60 37.71 36.26 31.02 40.80 31.17 39.21 44.16 45.99 47.13 48.40 44.14 46.76 46.46
56.49 56.95 56.70 54.78 46.46 46.64 48.41 50.58 49.78 46.25 11.72 35.59 39.31 48.69 46.58 42.87 43.26 43.16 49.66 45.41 38.54 37.19 36.92 34.15 35.10 35.41 33.84 34.86 38.75 34.89 39.52 37.61 37.53 35.04 33.71 35.09 33.24 37.06 42.98 42.53 45.79 48.13 44.37 46.65 47.57
56.32 56.62 55.79 51.86 49.43 49.63 50.97 50.73 46.06 24.25 13.02 34.63 39.83 38.84 39.29 41.58 41.78 43.94 43.41 46.64 45.01 39.69 39.00 36.29 40.67 38.81 37.12 38.65 38.43 40.26 37.71 37.04 36.60 34.61 28.22 32.63 34.15 34.08 38.78 42.01 44.86 45.47 44.34 46.06 47.33
55.46 56.17 53.69 52.20 47.26 51.21 50.48 44.57 28.73 15.02 34.20 33.42 35.18 37.87 36.79 36.95 38.21 39.66 38.43 37.31 35.12 30.98 30.25 34.59 35.18 38.42 41.11 36.66 39.10 37.03 32.68 24.86 23.03 24.29 25.02 34.00 33.08 34.69 40.68 44.74 46.63 47.43 43.99 45.64 47.49
53.39 55.54 53.29 51.74 52.36 51.12 46.97 35.72 14.33 29.26 31.13 38.37 36.74 37.03 33.84 36.26 36.98 37.30 36.45 33.47 37.81 35.78 32.03 28.65 25.68 35.20 38.85 36.45 34.29 34.79 33.47 25.31 17.14 19.28 24.65 36.85 31.06 35.35 44.18 46.79 47.01 47.94 46.21 46.37 46.33
53.15 53.30 49.97 51.40 52.09 49.69 41.59 27.20 23.39 30.94 36.93 35.64 36.20 33.20 34.13 35.96 36.09 35.77 35.40 33.47 35.09 36.46 29.61 28.18 26.48 36.70 37.69 38.50 38.13 33.42 30.37 35.37 29.73 31.04 27.77 32.51 36.76 42.42 45.39 44.19 42.84 44.33 44.69 45.25 46.32
49.05 49.43 47.60 51.92 51.53 46.51 37.01 28.75 31.61 39.06 39.92 38.50 32.34 34.55 29.78 32.22 32.66 32.70 32.60 35.45 34.84 37.88 37.20 30.76 22.36 34.28 36.73 39.14 38.63 35.64 37.33 28.68 29.73 20.46 20.93 30.34 33.78 36.93 41.09 41.94 41.06 42.35 43.50 45.05 46.35
47.30 43.30 48.97 51.79 50.09 41.48 32.40 32.34 35.59 41.74 41.10 37.82 36.20 35.80 33.55 30.72 31.87 30.91 30.87 35.34 37.41 36.91 37.80 34.40 31.44 30.94 34.24 33.14 32.68 33.60 31.76 33.42 32.09 30.58 27.95 27.66 32.62 42.42 43.96 42.67 42.27 43.69 44.50 44.73 45.40
47.68 36.86 49.84 50.73 39.22 38.35 35.89 37.31 40.77 39.14 41.75 40.00 39.26 38.32 35.45 33.09 31.54 29.93 30.47 34.04 39.83 38.94 33.30 36.68 34.51 27.94 29.89 36.81 39.49 36.79 33.48 33.79 28.87 25.96 32.30 31.22 30.73 41.40 46.30 43.78 45.05 44.47 44.91 45.14 46.00
44.31 44.07 49.62 48.31 34.06 34.63 38.85 38.41 40.11 39.44 39.72 39.62 39.02 39.94 39.12 34.18 31.00 32.76 34.29 39.80 42.05 39.61 36.64 38.30 32.82 26.45 28.65 33.84 36.98 35.75 35.58 36.12 35.57 36.41 31.89 30.34 33.08 41.40 39.85 43.09 44.14 43.33 43.88 44.67 44.86
43.08 37.47 43.16 44.59 43.86 38.83 36.42 36.82 36.76 41.97 40.24 41.81 40.77 41.09 38.53 36.45 36.04 34.15 34.94 39.86 41.60 41.24 42.92 41.01 34.87 31.19 26.45 33.20 35.93 35.01 36.20 36.86 34.78 31.85 31.66 32.76 35.35 38.82 38.89 39.90 41.31 42.34 43.96 44.28 44.56
44.92 41.21 42.39 35.58 38.22 39.21 39.37 38.82 36.42 36.57 40.77 42.01 38.58 39.36 37.91 32.66 32.86 33.42 37.00 38.03 40.85 42.96 41.01 37.99 31.35 32.24 34.18 35.35 36.40 37.75 36.86 37.18 36.48 36.57 31.66 34.66 34.30 38.31 41.70 40.72 41.87 43.22 43.64 43.76 44.09
42.88 42.22 43.37 39.91 41.00 40.10 39.21 38.03 37.97 38.94 39.81 38.91 37.26 39.96 38.79 35.50 34.78 32.61 35.99 36.87 35.99 39.98 37.68 38.71 31.24 33.47 35.22 37.25 36.67 37.88 38.46 39.67 39.97 37.45 36.12 36.78 36.68 43.67 40.65 40.68 41.02 42.68 43.71 43.77 44.20
47.37 47.13 44.09 40.47 39.28 38.06 38.53 38.67 38.98 40.53 41.27 42.05 41.34 40.53 38.53 39.33 41.11 42.45 41.48 41.95 41.03 38.81 37.00 36.26 33.39 35.18 32.96 39.06 38.53 35.43 38.39 39.14 36.05 37.24 36.50 33.25 39.46 39.54 38.91 40.45 40.22 41.89 44.48 44.41 44.77

GFSSW_sfc_wetblb_015.txt.gz
Wetbulb
58.66 57.74 57.59 57.74 57.90 57.89 57.60 57.31 57.64 57.69 58.45 59.72 60.65 61.36 61.99 62.83 62.65 59.10 53.64 56.16 57.47 61.86 61.28 54.99 53.53 53.64 52.31 49.39 52.98 50.88 42.78 39.85 41.19 41.54 44.23 47.28 46.52 49.80 50.60 47.23 49.39 49.45 51.34 51.99 54.61
59.23 58.37 57.70 57.45 57.78 57.68 57.49 57.12 57.10 57.51 57.72 58.77 59.26 60.82 60.68 61.83 58.81 56.22 59.99 63.34 64.15 63.64 55.31 52.09 49.99 51.82 46.89 48.20 49.36 48.38 43.28 42.75 45.81 45.62 44.90 47.63 47.65 48.04 48.22 48.08 47.71 49.25 52.19 54.15 56.81
59.85 58.87 58.15 57.88 58.04 57.63 57.22 57.23 56.91 56.88 57.26 57.87 58.53 59.41 60.79 60.45 53.23 53.22 63.34 64.65 65.01 63.30 56.79 55.25 53.52 50.75 45.31 46.44 47.02 47.49 44.49 47.52 48.26 49.56 49.87 47.78 47.30 49.55 47.00 45.37 48.52 49.18 49.95 51.33 54.18
60.62 59.48 58.65 58.08 57.27 57.72 57.30 57.12 56.73 56.62 56.63 57.31 58.28 58.86 59.85 56.73 40.81 52.93 61.07 62.44 64.67 60.80 57.32 54.26 50.74 45.76 43.67 43.57 47.01 42.81 47.47 49.21 50.36 51.58 50.46 48.44 49.30 47.69 47.58 47.84 51.00 51.22 51.91 51.25 52.45
61.11 60.11 59.06 58.30 57.91 57.95 57.43 57.44 56.76 56.66 56.48 57.01 57.46 58.43 54.99 49.11 48.36 55.29 59.86 59.46 59.32 59.07 55.27 53.11 48.05 45.94 41.60 42.94 44.27 42.98 45.31 48.21 49.94 51.04 50.96 51.61 49.76 48.67 48.55 50.86 52.26 52.03 51.81 51.53 51.90
61.25 60.52 59.48 58.51 57.91 57.89 57.58 57.44 57.17 56.60 56.40 56.42 56.80 57.49 50.48 39.57 51.80 53.73 53.97 53.79 55.55 55.30 54.05 53.85 50.43 49.58 45.90 43.71 42.28 44.18 44.75 45.46 47.65 48.49 49.26 48.37 49.03 49.10 49.27 50.89 50.53 50.64 51.04 51.63 51.18
60.62 60.71 60.03 59.31 57.96 57.65 57.62 57.40 57.66 57.11 56.44 56.02 56.33 54.45 48.60 44.61 51.91 52.35 53.00 51.78 52.47 53.98 51.39 53.47 53.16 49.64 49.10 44.58 47.01 45.61 41.71 44.01 45.14 46.33 46.60 49.04 45.73 46.61 50.50 50.81 49.13 49.15 49.68 51.20 51.11
60.33 60.46 60.15 59.47 58.60 57.73 57.71 57.38 57.32 57.82 56.88 56.65 56.27 51.51 42.76 52.76 52.67 51.75 51.58 50.09 51.70 51.00 50.66 51.60 54.27 48.56 46.93 49.07 45.24 41.74 39.34 35.22 41.61 45.51 47.12 47.66 39.51 47.01 51.11 50.66 50.09 48.63 48.04 49.11 49.88
59.43 59.36 60.07 59.37 58.56 57.91 58.09 57.45 56.66 56.40 56.78 56.81 50.86 46.54 40.32 53.25 49.71 51.22 51.21 48.58 48.47 48.66 49.06 52.34 50.13 45.77 45.74 42.25 39.57 40.39 33.10 34.05 38.24 45.38 46.19 45.71 41.56 46.56 49.85 48.77 46.99 46.77 47.18 48.83 48.79
58.71 58.71 58.67 58.79 58.35 57.87 57.72 57.14 55.92 55.01 55.27 55.12 52.05 44.18 45.99 43.94 48.87 50.04 50.39 50.45 46.27 45.94 44.96 44.79 44.67 40.51 40.65 38.87 29.48 31.35 32.87 33.38 34.52 41.64 42.72 42.27 42.14 45.55 48.11 47.90 47.22 48.02 49.08 47.14 47.02
57.25 58.06 58.12 58.11 58.11 57.78 55.19 48.83 43.60 42.08 48.57 45.31 44.58 44.21 44.90 49.09 50.82 48.76 49.45 47.67 45.96 42.35 35.95 39.13 36.61 34.99 37.02 37.75 37.24 36.27 34.67 33.38 36.31 41.39 38.76 38.51 39.86 42.84 46.33 47.06 48.00 45.64 46.86 46.98 45.73
54.93 57.59 57.78 58.28 57.96 57.39 50.41 43.38 42.87 44.43 39.25 46.53 47.37 46.27 48.16 49.68 44.21 46.76 49.44 42.85 41.30 36.51 37.77 36.59 32.22 36.63 38.20 37.17 35.88 35.22 33.72 33.85 36.23 40.32 39.30 38.02 37.34 41.33 43.43 44.88 47.71 48.63 47.93 47.56 44.49
53.91 56.81 57.20 57.58 57.35 54.38 49.44 46.50 49.21 46.68 37.38 41.11 45.12 45.33 46.08 47.86 43.49 44.36 46.46 42.82 38.45 36.66 36.11 33.41 34.77 39.48 37.49 35.48 34.51 34.08 32.42 32.86 32.63 36.56 38.20 35.98 33.50 36.20 41.68 44.74 47.44 49.62 50.08 50.35 46.80
52.84 55.31 56.66 56.96 52.52 51.08 48.01 49.77 48.97 47.86 24.26 32.76 39.32 43.40 46.15 46.73 41.37 48.32 48.53 44.52 40.54 36.53 37.62 37.03 40.34 37.18 35.03 33.68 35.34 30.75 37.08 36.75 35.47 32.83 27.20 35.69 25.54 33.37 37.53 40.87 44.59 47.31 48.65 46.68 45.40
53.42 54.51 56.14 55.89 48.85 47.20 48.33 49.44 48.78 41.80 11.91 34.89 38.70 48.24 47.21 42.15 43.37 42.38 49.11 45.18 38.12 37.36 36.70 34.18 34.63 34.25 32.98 34.21 36.92 33.87 38.31 36.32 36.41 33.89 31.41 32.25 29.75 30.75 39.23 39.23 42.52 44.99 47.15 45.68 46.01
52.74 53.37 56.29 50.91 49.71 49.05 50.52 49.77 46.30 23.49 12.39 33.85 39.07 38.91 39.51 41.67 41.91 43.50 43.64 46.95 44.81 39.82 38.64 35.80 39.24 37.78 36.03 37.87 37.91 39.54 36.49 35.75 36.11 32.84 25.79 29.78 29.44 29.23 33.51 38.48 41.26 44.29 46.85 45.26 45.66
52.00 53.07 54.15 51.88 45.69 50.41 50.55 45.14 27.39 15.85 33.81 32.53 34.45 37.73 36.26 36.07 38.14 39.68 37.69 38.01 35.78 31.81 30.80 35.15 36.18 38.01 39.41 34.80 37.73 36.26 32.79 26.08 24.81 25.27 22.89 31.40 29.23 31.50 36.35 39.64 43.05 44.29 45.88 44.06 45.98
51.98 52.60 51.46 51.93 51.44 50.80 47.44 35.65 19.13 28.28 30.18 37.05 36.14 36.18 32.68 35.41 36.81 37.51 36.56 33.23 37.75 35.85 31.87 28.46 26.30 35.76 37.95 35.43 33.59 33.47 31.88 25.69 18.55 19.36 21.15 31.76 26.68 32.14 40.55 43.34 44.68 45.20 44.77 43.61 45.63
51.46 48.17 48.58 50.96 51.67 50.66 41.57 27.11 24.43 28.57 35.42 34.88 35.92 32.76 32.92 36.01 36.19 35.16 34.47 32.98 35.59 36.05 29.26 26.43 26.72 35.58 37.62 38.60 37.89 34.04 30.51 34.12 28.29 29.73 26.85 28.59 32.85 39.78 42.65 42.60 43.06 42.80 43.22 43.01 45.01
47.25 44.88 47.20 51.85 51.74 47.02 36.92 28.18 29.53 37.74 38.59 36.92 29.85 34.05 30.17 31.95 32.35 32.07 31.34 34.15 34.80 36.50 38.13 32.67 25.06 32.94 35.71 37.35 37.01 34.70 36.14 28.78 29.86 20.80 19.01 23.96 28.99 31.56 36.84 40.15 42.15 41.50 41.65 43.43 45.30
46.26 40.17 48.92 51.91 50.18 42.05 32.27 29.15 33.94 40.75 40.74 36.67 33.74 33.52 32.58 31.14 31.88 31.42 30.22 33.81 36.91 35.97 37.83 35.98 28.81 26.71 32.69 32.25 30.66 32.40 30.76 32.52 31.53 27.06 18.43 19.26 25.56 38.01 39.12 41.49 40.09 40.59 41.88 43.62 45.08
44.05 34.37 49.81 50.34 38.85 39.17 34.78 35.22 39.62 39.76 41.39 39.62 38.50 37.46 35.33 33.06 31.21 29.62 29.52 32.87 38.26 38.08 33.86 36.25 32.56 26.39 28.12 36.50 38.15 36.12 32.23 31.83 27.64 20.51 25.82 25.93 28.00 38.95 40.72 41.00 42.70 41.80 44.48 46.04 46.52
41.44 41.12 49.32 47.77 32.68 34.07 37.55 37.39 38.88 38.69 39.16 38.91 37.58 39.12 39.60 33.99 30.08 31.77 32.78 38.36 39.51 37.71 35.07 37.00 32.11 25.68 28.72 32.75 35.36 33.46 34.06 33.95 33.04 32.46 25.65 22.19 25.69 42.08 42.11 41.84 43.54 44.03 43.90 44.77 44.61
42.95 33.34 42.11 43.75 42.97 36.54 35.84 34.74 35.82 41.05 39.53 40.85 39.48 41.08 38.55 35.51 35.30 32.40 33.28 38.46 40.06 39.72 42.90 40.18 34.08 30.41 25.57 30.38 32.80 31.00 33.07 34.15 32.02 26.59 27.30 29.52 31.94 38.24 40.84 40.48 41.77 42.64 43.79 44.06 44.19
42.09 37.95 39.47 33.99 36.70 37.26 36.71 38.19 35.46 36.57 40.13 41.41 38.83 39.00 38.21 33.47 33.76 33.24 36.13 37.66 40.51 42.95 41.22 38.12 30.06 31.98 33.18 34.23 34.25 34.48 33.08 33.42 31.28 31.99 27.96 31.06 34.39 37.69 40.01 41.28 41.87 42.79 42.90 42.81 43.37
41.06 41.14 42.43 38.92 39.85 38.25 37.82 36.76 37.01 37.62 39.16 37.89 37.70 39.45 38.61 37.01 33.79 30.95 35.09 36.17 36.28 40.16 38.54 38.86 29.79 32.53 30.92 34.39 34.05 33.25 34.75 35.82 34.70 34.45 34.07 35.08 35.55 41.89 43.21 41.58 39.85 41.66 42.65 42.38 43.14
44.51 47.65 42.78 39.42 38.46 37.93 37.95 37.51 38.14 40.77 41.11 41.74 40.92 39.37 38.70 40.10 41.37 41.09 40.11 41.11 40.89 38.77 37.36 35.08 32.52 32.47 31.04 36.69 35.00 31.20 33.91 36.09 36.13 38.27 37.26 33.38 38.30 42.51 40.50 39.71 39.60 41.91 43.49 43.10 43.52

GFSSW_sfc_wetblb_018.txt.gz
Wetbulb
60.71 59.32 58.35 57.70 57.71 57.77 57.78 57.62 57.39 57.87 58.06 58.65 60.08 61.40 62.22 62.74 62.25 58.80 53.01 55.97 57.19 62.47 60.81 54.13 53.21 52.81 51.27 48.69 52.07 49.27 41.94 38.48 39.56 40.41 42.33 46.07 44.99 48.88 49.97 46.42 48.72 48.52 48.84 51.24 53.98
61.16 60.19 58.92 58.15 57.37 57.63 57.69 57.50 57.30 57.26 57.78 58.19 59.27 60.31 60.88 61.60 58.84 56.13 60.29 63.17 63.33 62.71 55.17 51.37 48.96 50.51 46.29 47.71 48.28 47.41 41.69 41.28 44.85 44.39 44.08 46.19 46.32 46.88 47.32 47.22 46.85 48.76 51.42 53.56 55.29
60.92 60.65 59.68 58.69 57.92 57.89 57.73 57.16 57.11 57.03 57.31 57.95 58.83 59.04 60.57 60.46 52.67 52.16 62.94 64.69 64.65 63.90 56.32 54.20 52.51 49.60 44.46 45.42 45.92 45.72 42.95 45.49 47.05 48.50 49.10 47.16 46.62 48.33 45.96 45.26 47.86 47.36 49.33 51.51 53.77
60.75 60.93 60.27 59.27 58.34 57.25 57.67 57.17 56.88 56.69 56.90 57.64 58.29 58.66 59.67 56.38 39.95 51.57 60.81 61.82 64.70 61.50 57.42 53.14 49.47 44.89 42.85 42.26 45.86 40.55 46.16 48.01 49.16 50.60 49.66 47.56 49.19 47.44 46.73 47.34 49.83 50.36 50.34 50.92 50.74
60.47 60.78 60.66 59.64 58.60 57.72 57.93 57.30 57.16 56.54 56.78 56.86 57.53 58.24 54.83 49.15 48.56 54.27 59.73 57.24 58.98 59.43 55.61 53.51 46.80 44.82 40.84 41.85 42.79 41.66 44.06 47.10 47.98 48.21 48.62 50.01 48.36 48.31 48.43 50.84 51.91 52.80 51.30 50.59 50.65
59.72 60.27 60.11 59.91 58.68 58.07 57.94 57.43 57.46 56.80 56.68 56.61 56.56 57.24 49.72 39.29 50.09 52.68 52.59 53.20 57.11 57.96 55.33 54.23 50.77 48.75 44.06 43.30 41.49 43.06 43.66 44.31 45.92 46.35 47.08 46.49 46.93 47.16 48.76 50.37 49.89 50.01 50.11 50.62 50.06
58.64 59.72 59.56 59.63 59.00 58.16 57.75 57.64 57.45 57.23 56.68 55.99 56.26 53.91 47.75 44.28 51.09 51.39 52.82 50.44 52.10 54.04 52.15 54.03 52.18 48.64 47.35 43.04 46.24 44.57 40.59 42.54 43.65 44.93 44.40 47.19 43.55 44.30 49.31 49.99 49.73 48.89 49.23 50.07 50.62
57.00 58.19 59.13 59.06 59.16 58.63 57.78 57.56 57.47 57.06 57.23 56.73 56.23 50.56 41.53 51.81 51.54 51.35 50.58 49.15 50.92 51.08 50.39 52.79 54.33 50.25 47.16 45.43 44.51 41.95 42.47 35.45 40.46 43.32 44.84 45.96 37.28 44.50 47.79 47.49 48.27 49.58 48.46 48.62 50.81
55.16 56.39 58.23 58.56 58.66 58.44 57.96 57.64 57.03 56.19 57.24 56.91 49.85 45.62 39.65 52.37 49.22 50.09 50.38 47.57 48.09 48.54 48.94 52.19 48.83 43.32 43.08 38.61 35.63 39.88 32.72 35.72 37.86 42.65 43.37 43.72 39.06 44.80 46.88 46.48 45.59 46.07 46.04 47.08 48.15
53.98 54.45 56.08 58.06 58.33 57.82 57.91 57.16 56.19 54.97 54.55 54.75 51.18 42.84 44.86 43.35 48.23 49.46 49.66 49.68 45.54 45.54 44.66 44.20 44.49 39.15 40.47 38.26 28.11 30.72 32.93 35.28 35.99 38.51 40.02 38.98 39.55 43.53 45.49 45.72 45.63 46.01 46.08 46.26 47.13
53.14 54.31 55.26 57.04 58.05 57.64 55.47 50.95 44.81 42.25 47.59 44.81 44.42 43.22 44.92 48.30 49.90 48.03 48.91 47.03 45.21 42.01 36.45 39.32 36.82 35.06 37.34 37.47 37.11 36.14 32.86 33.28 35.98 40.08 38.28 37.45 37.72 40.14 42.45 42.99 43.91 46.13 47.67 46.68 47.17
52.25 53.80 54.34 55.30 58.01 57.51 52.27 45.32 44.33 43.37 37.69 45.76 46.94 45.90 47.89 49.01 43.50 46.21 48.98 42.47 40.94 36.42 37.28 36.77 31.93 36.72 38.87 37.99 37.47 36.07 33.66 32.69 34.67 38.39 37.12 35.95 35.72 39.48 40.61 41.94 44.12 45.03 46.65 46.89 47.86
51.35 52.26 53.59 53.73 57.52 54.20 49.50 46.00 48.54 46.49 36.07 39.75 44.37 45.50 45.61 47.47 43.07 43.70 45.81 42.17 37.86 35.42 35.77 33.19 34.08 38.71 37.15 34.73 33.37 32.60 31.41 30.99 30.74 34.88 36.54 34.48 31.63 34.34 38.61 41.02 42.49 43.93 45.49 47.46 48.47
51.02 51.98 53.26 52.83 53.48 51.53 48.32 50.08 48.27 45.43 23.77 31.30 39.21 43.01 45.89 46.16 41.15 47.98 47.96 43.17 38.90 35.91 37.37 36.05 39.11 36.42 34.21 33.30 33.72 29.94 35.29 35.19 34.09 31.24 25.99 32.04 23.07 30.82 34.88 37.18 38.03 40.85 43.17 46.49 47.96
51.33 52.24 52.93 53.74 51.02 47.73 49.34 49.78 47.54 40.21 12.69 34.67 39.04 48.28 46.91 41.34 42.26 41.87 48.17 44.96 38.13 36.49 37.22 33.60 34.14 34.24 33.71 34.06 35.27 32.31 36.84 35.19 34.92 32.24 30.75 30.42 28.16 27.85 33.68 34.16 37.03 40.01 42.14 45.25 48.09
51.34 52.12 52.12 49.60 51.55 50.46 50.61 50.27 44.81 23.61 12.10 33.38 39.03 39.32 40.59 41.43 41.97 42.63 43.96 46.57 44.50 39.31 38.70 36.00 39.67 37.85 35.06 37.07 37.11 38.18 34.60 34.73 34.40 32.68 25.36 28.87 27.37 27.81 30.56 33.85 36.20 39.88 42.08 45.33 46.60
51.19 51.30 49.03 49.85 47.31 51.18 50.93 43.84 28.76 19.90 33.16 31.97 33.69 37.55 37.44 36.79 38.19 39.75 38.53 38.25 35.42 31.28 31.34 35.40 36.41 38.79 39.08 33.71 36.78 36.06 33.63 25.31 24.13 23.90 21.53 29.56 27.04 29.94 33.70 35.97 38.13 39.64 41.09 43.98 44.89
50.88 51.12 50.02 50.37 51.74 51.39 47.55 32.60 20.38 28.11 29.72 37.19 35.33 35.64 32.68 35.28 36.50 37.58 36.67 34.10 38.50 36.71 32.49 28.62 22.44 34.59 38.47 35.10 31.59 32.31 31.80 25.78 19.05 16.80 19.84 29.42 24.42 28.67 37.33 40.83 41.76 42.44 42.14 43.33 42.90
50.72 47.85 47.00 49.49 52.03 50.28 39.91 26.95 25.93 28.57 35.07 34.40 35.10 31.25 32.32 35.13 35.36 35.12 35.14 34.23 35.89 37.67 30.52 26.13 24.87 34.47 37.31 37.09 36.83 33.90 28.88 33.48 28.38 28.80 25.44 25.30 29.56 35.36 40.56 39.81 41.15 40.62 40.72 40.84 42.40
46.46 43.58 43.51 49.44 52.08 46.42 36.07 28.88 29.52 35.48 37.34 36.11 29.18 32.45 29.15 32.53 32.81 33.48 30.66 33.15 34.50 36.69 36.05 29.05 26.41 31.63 34.98 36.99 37.77 35.51 37.11 28.77 28.45 19.97 18.44 21.80 24.14 26.10 34.29 36.87 39.18 40.45 41.05 41.30 42.55
45.70 38.97 45.39 51.19 50.33 41.37 31.80 29.21 32.42 40.08 39.30 35.35 32.82 31.75 33.18 31.94 33.32 31.14 29.37 32.64 35.85 34.53 36.94 34.80 30.72 26.73 32.83 31.50 29.96 32.71 31.34 32.14 30.55 29.20 20.49 15.78 21.28 33.92 37.05 37.44 39.62 40.92 41.96 42.28 42.68
42.99 34.00 48.38 50.91 37.30 38.91 33.93 33.19 39.59 38.97 40.11 38.66 37.69 36.06 33.39 33.39 30.79 29.24 29.18 31.55 37.43 37.00 33.23 36.57 33.69 26.91 29.02 35.00 37.23 35.08 31.99 31.74 25.42 19.86 24.31 21.20 24.77 36.47 37.99 39.50 41.41 42.05 41.30 40.94 43.27
39.94 39.82 49.24 47.05 32.20 34.03 37.49 36.13 37.59 38.35 38.62 38.19 36.64 38.05 38.98 34.81 30.45 31.33 31.83 37.46 38.27 36.94 34.42 36.34 31.58 25.67 27.08 31.74 35.25 32.55 33.33 33.73 32.73 31.50 24.19 20.05 24.16 37.52 37.54 40.28 42.07 42.09 41.80 43.36 43.47
41.61 34.16 40.79 43.03 41.44 37.23 34.92 35.07 34.45 39.75 39.72 40.18 39.65 40.67 37.60 36.06 35.01 31.49 32.18 37.22 38.74 38.44 41.61 39.76 34.24 29.62 25.03 29.14 33.00 30.87 33.22 34.07 32.16 26.30 25.66 26.69 29.42 34.45 38.72 40.17 42.06 40.95 40.93 41.41 43.23
41.80 36.71 38.38 32.49 35.47 37.10 36.91 35.18 34.52 35.74 39.17 40.76 38.77 36.92 38.08 34.32 34.52 33.57 34.01 35.76 38.17 40.35 40.48 38.20 30.66 32.12 32.91 33.79 33.31 33.82 32.87 33.24 31.10 30.48 25.73 28.10 29.59 34.57 37.85 40.14 41.78 43.26 43.80 43.91 43.57
39.78 39.90 40.29 36.66 39.43 36.78 36.63 34.28 33.91 36.68 37.85 37.08 36.34 38.75 39.10 36.76 35.37 31.21 34.76 35.32 34.97 39.32 38.12 39.38 31.57 32.75 30.48 33.66 32.72 31.52 34.73 34.51 33.78 33.18 32.11 32.05 31.63 39.13 41.20 42.91 41.98 43.33 42.20 43.05 43.72
42.86 43.85 42.04 38.71 38.52 35.41 34.98 36.43 37.28 38.99 40.27 41.41 40.09 38.88 38.26 40.05 41.32 41.92 40.96 40.12 39.41 38.60 37.03 35.77 32.21 31.96 27.77 33.74 34.28 30.84 32.25 33.95 34.33 35.68 34.09 29.91 34.60 39.18 38.61 40.82 41.55 40.88 42.22 42.68 43.39

GFSSW_sfc_wetblb_021.txt.gz
Wetbulb
61.28 61.56 60.73 59.01 57.95 57.62 57.52 57.91 57.82 57.57 57.93 57.84 58.51 60.44 61.69 62.47 62.20 58.59 53.33 56.65 58.05 62.74 61.24 55.88 54.74 53.81 53.48 51.52 54.12 51.64 45.45 41.79 42.51 42.24 45.19 49.50 48.76 51.93 52.77 50.97 52.56 53.51 53.55 55.26 58.07
60.79 61.20 61.28 60.09 58.73 57.84 57.58 57.71 57.61 57.42 57.42 57.77 58.10 59.59 61.03 61.35 58.54 55.94 59.83 62.61 63.40 62.82 56.31 53.13 50.58 51.55 48.83 49.74 50.85 49.77 44.72 43.83 46.76 46.62 46.91 48.70 48.95 50.01 50.58 50.22 51.33 52.70 54.86 55.72 58.51
60.42 60.80 61.01 60.66 59.66 58.19 57.88 57.61 57.32 57.19 57.22 57.44 58.00 58.92 60.18 60.48 53.10 52.58 62.42 64.71 64.87 63.79 57.15 55.18 53.56 50.72 46.93 48.75 48.41 48.56 44.51 46.92 48.51 50.15 51.03 49.64 49.43 51.10 49.61 48.67 51.25 52.00 52.86 54.38 56.31
58.75 60.14 60.47 60.63 60.22 58.90 57.81 57.71 57.10 56.93 57.02 56.98 57.50 58.29 59.31 56.86 41.85 52.78 60.92 61.61 64.57 60.99 57.39 53.26 50.63 46.55 44.75 43.98 47.45 44.35 47.34 48.78 49.74 51.31 50.36 49.33 51.17 50.43 50.10 51.34 53.09 52.95 54.06 53.86 55.07
57.26 58.58 59.85 60.12 60.20 59.27 57.62 57.66 57.25 57.17 56.75 56.50 57.21 57.84 55.18 49.92 49.34 55.01 58.90 57.09 58.44 58.66 55.86 52.80 47.96 45.99 42.85 44.08 45.30 44.50 45.50 47.72 48.72 48.01 48.28 49.90 48.62 49.20 50.04 53.29 54.44 54.90 55.39 54.34 54.78
56.14 57.26 57.95 59.27 59.86 59.56 58.50 57.96 57.45 57.48 56.77 56.55 56.38 57.02 50.07 40.55 50.65 52.39 52.86 53.38 58.24 58.45 55.67 54.25 50.83 49.20 45.77 44.82 43.43 44.78 45.13 45.44 46.68 46.89 47.72 46.89 47.36 48.37 49.96 52.66 52.95 53.15 53.53 53.85 53.64
53.66 55.59 56.58 58.06 58.99 59.34 58.42 57.98 57.78 57.68 57.02 56.38 56.44 53.62 47.78 43.89 51.90 52.00 52.63 51.37 54.52 57.09 54.17 55.56 53.66 49.92 48.31 44.91 47.60 46.17 42.60 43.88 44.64 45.83 45.52 47.64 43.33 44.18 49.97 51.32 50.93 51.61 52.66 53.86 54.96
52.73 54.10 55.07 56.49 58.16 59.06 58.64 57.99 57.81 57.66 57.45 56.56 56.73 50.75 42.08 51.70 52.23 51.60 51.76 50.39 52.63 51.73 52.96 55.26 54.76 51.39 48.29 47.09 44.58 42.68 42.61 36.63 42.13 44.50 45.55 45.63 37.28 45.01 49.10 48.84 48.97 50.40 51.63 52.06 53.84
52.66 52.43 54.25 55.38 56.48 58.21 58.09 58.22 57.72 56.75 57.47 57.19 50.38 45.82 40.00 52.12 49.41 50.55 50.91 48.28 49.66 49.89 50.46 55.39 49.98 44.87 44.71 40.55 36.88 39.04 33.01 35.87 38.18 44.21 44.09 44.10 40.35 46.37 48.92 47.58 47.26 48.37 49.55 50.33 51.93
52.10 52.06 52.46 53.84 55.21 57.27 57.92 57.60 56.65 54.88 54.38 54.68 50.97 43.28 44.73 43.45 48.36 49.40 50.71 49.27 46.41 46.42 45.87 45.63 44.05 40.41 40.73 38.07 28.77 31.40 33.36 35.38 35.41 40.33 40.67 39.17 39.14 42.91 45.37 45.56 46.26 47.29 47.81 48.96 49.88
51.69 51.75 52.12 52.90 54.58 56.33 56.31 51.43 45.44 44.25 47.84 43.18 43.41 42.38 44.81 48.26 50.05 47.78 49.56 47.13 45.69 43.07 38.37 41.02 38.00 34.72 37.65 38.61 37.90 36.78 35.34 34.21 36.87 40.50 38.04 37.92 38.19 40.62 43.51 44.07 43.96 45.19 46.32 47.82 49.04
50.91 50.65 51.08 51.95 54.40 54.73 53.58 46.31 45.21 45.04 38.14 45.26 46.52 45.96 47.68 49.00 43.04 45.96 49.00 42.74 41.20 36.52 38.18 37.34 33.98 38.66 39.21 40.18 38.25 37.35 35.04 34.74 37.49 38.56 37.35 36.32 35.46 39.38 41.32 42.23 43.90 44.56 45.45 46.77 49.09
50.15 50.31 50.36 51.46 53.07 52.36 49.94 46.66 47.90 46.50 36.21 39.39 44.03 45.26 45.21 47.09 42.78 43.18 45.87 42.52 38.96 36.13 35.97 33.47 35.60 39.03 37.56 36.14 35.16 34.82 33.18 33.16 32.93 35.69 37.29 35.06 32.92 36.59 40.02 41.40 42.65 44.00 45.34 46.39 47.82
49.99 50.51 51.30 51.60 48.68 51.17 47.92 49.53 48.39 45.35 24.54 31.79 38.77 42.76 46.33 46.82 40.83 47.75 47.48 43.46 39.36 36.41 37.95 35.99 39.40 36.67 34.97 34.02 34.93 30.98 35.92 35.48 34.12 31.90 26.41 34.18 24.70 33.83 37.39 38.86 40.35 40.57 42.11 43.97 45.68
49.80 51.36 51.19 51.69 48.48 48.04 49.64 50.17 47.13 43.20 12.86 34.03 38.98 48.26 46.36 41.64 40.92 42.25 47.94 44.62 37.58 36.99 36.98 33.98 35.14 35.01 33.97 34.63 35.61 32.89 36.74 34.70 34.45 32.45 30.86 31.12 27.87 31.31 35.57 35.03 37.98 41.05 42.09 42.46 45.06
50.89 51.14 51.13 49.26 49.28 48.84 51.36 48.79 43.70 27.28 15.01 33.25 38.99 39.48 39.88 40.90 41.83 42.82 43.53 46.46 44.30 39.21 39.10 35.55 39.60 37.85 36.22 37.66 37.58 38.80 35.06 34.69 34.84 32.69 25.83 29.50 28.68 29.60 33.62 35.55 36.96 40.13 42.41 44.04 46.19
50.31 50.82 49.75 49.06 43.44 52.21 50.72 45.24 29.42 18.26 33.15 31.91 33.59 38.60 38.21 36.49 38.60 39.26 39.19 37.79 35.58 30.93 31.45 36.06 36.67 38.78 39.41 34.44 36.71 36.21 33.49 26.05 23.54 24.60 23.02 30.67 28.42 31.08 36.15 39.00 39.80 40.24 41.26 43.15 44.97
49.73 50.46 49.68 48.41 50.34 51.71 47.83 35.25 22.11 27.96 29.48 36.75 35.87 36.63 33.53 36.57 36.74 38.19 36.78 34.95 38.51 36.51 32.58 27.42 23.29 35.50 38.90 35.63 32.71 33.25 32.01 25.80 18.81 19.51 23.05 29.22 25.90 31.08 38.23 41.44 41.93 42.41 43.04 43.54 44.62
49.55 48.23 46.72 48.29 50.95 51.02 39.59 28.26 25.15 28.59 34.61 34.28 34.87 31.74 31.51 34.35 34.98 35.58 34.97 34.53 36.95 38.19 31.64 28.22 27.51 34.93 37.44 37.58 36.85 33.57 29.31 34.07 28.20 28.83 24.93 27.80 30.62 35.01 38.03 38.75 41.71 42.46 44.11 43.74 43.45
44.86 44.20 43.52 49.44 52.06 46.10 35.25 31.02 29.02 36.12 37.11 36.05 30.16 32.33 29.05 31.70 31.92 32.88 32.07 33.75 35.20 38.79 38.90 31.28 26.18 31.43 34.86 37.77 37.84 35.64 36.39 27.94 29.12 19.39 18.87 24.25 25.71 28.41 32.47 35.42 40.23 40.57 43.10 44.42 44.43
44.57 39.13 45.55 51.12 50.07 38.28 31.63 30.54 32.71 39.07 38.57 34.69 32.59 31.30 31.73 31.63 32.36 32.47 29.77 32.79 35.60 34.64 37.54 33.96 30.71 27.47 33.17 32.67 30.67 33.09 31.48 32.85 31.12 29.07 21.70 19.82 25.05 32.85 34.43 37.84 39.14 41.38 43.46 43.98 43.76
41.91 34.40 46.85 49.57 33.72 33.20 31.78 33.59 40.29 38.07 39.94 38.25 37.14 35.04 32.51 32.45 32.08 31.26 29.20 31.47 36.72 35.98 32.87 35.92 32.21 25.92 27.03 35.33 37.38 35.77 33.00 32.58 26.63 24.09 27.45 24.89 25.44 38.34 39.73 39.62 41.35 41.87 43.39 44.61 44.64
37.78 39.69 49.02 45.65 31.43 33.05 36.30 36.15 38.09 37.88 37.93 37.48 36.03 37.63 37.44 33.03 29.83 31.56 31.87 36.98 37.65 36.20 33.90 36.16 31.44 23.74 25.47 31.90 34.74 32.30 33.44 33.65 32.72 31.61 26.31 22.24 25.16 36.90 37.14 39.91 41.74 42.55 44.62 44.47 43.79
38.97 33.09 36.18 42.05 40.29 36.48 33.78 34.22 34.25 39.09 38.46 39.76 38.88 39.08 37.18 35.69 35.67 31.38 31.80 36.64 37.84 37.99 41.13 39.31 32.55 26.30 24.66 29.49 33.24 30.14 32.03 33.49 31.71 26.95 26.37 26.74 28.58 33.53 36.37 37.97 40.39 42.22 45.11 44.78 43.88
41.58 36.69 37.75 32.55 36.06 36.86 36.05 35.30 34.10 33.83 38.90 39.64 37.94 36.84 37.11 34.08 34.92 33.57 33.28 35.12 37.13 39.59 39.11 37.00 31.07 32.21 32.70 33.49 33.32 32.07 32.23 33.28 30.75 30.65 26.91 29.53 29.64 33.41 36.30 38.09 40.67 42.79 45.02 44.64 43.48
37.60 37.83 39.51 35.92 38.28 36.68 36.99 33.30 32.95 36.22 36.61 36.46 35.88 38.57 37.34 36.33 36.33 32.81 34.36 34.01 34.08 35.83 37.12 38.71 31.29 33.48 31.53 34.60 34.08 31.25 33.46 33.38 33.41 33.01 31.98 31.95 30.89 38.40 39.01 40.83 41.54 43.24 43.72 44.49 44.16
41.98 42.14 40.98 38.51 36.01 34.29 33.88 34.41 34.85 38.29 38.64 41.01 39.55 37.99 37.46 38.91 42.03 42.20 41.21 39.57 38.83 38.36 36.54 36.56 33.10 31.87 28.26 34.29 33.81 30.93 35.34 34.32 34.71 35.33 33.83 29.80 34.38 38.75 37.91 39.70 41.09 42.67 43.47 44.05 44.98

GFSSW_sfc_wetblb_024.txt.gz
Wetbulb
59.77 60.75 61.13 61.18 60.08 58.98 58.26 57.72 58.20 58.10 57.76 58.16 58.34 59.05 60.68 62.05 62.48 59.58 55.71 59.02 59.79 63.08 61.99 58.47 57.26 56.70 57.33 54.73 57.77 56.92 47.87 44.90 46.38 46.85 48.26 52.56 51.20 54.88 56.00 54.72 55.88 56.66 56.56 58.24 60.74
58.62 59.87 60.96 60.97 60.79 59.57 58.69 58.24 58.06 57.88 57.64 57.65 58.02 58.89 59.97 61.07 59.70 56.34 61.01 62.56 63.59 62.95 59.61 55.83 53.62 54.48 53.12 53.10 54.78 52.48 47.45 47.08 50.96 51.57 49.89 51.90 52.13 53.07 53.01 53.60 54.48 55.81 57.84 58.97 61.16
56.22 58.36 59.12 60.43 60.70 60.37 59.21 58.00 58.01 57.63 57.48 57.33 57.70 58.78 59.40 60.71 54.62 54.29 62.65 64.48 64.79 64.01 59.90 57.99 56.19 53.38 50.31 52.89 51.99 51.50 47.58 50.57 51.05 52.42 52.77 52.37 52.44 54.52 52.51 51.17 54.44 55.02 56.48 58.22 58.87
54.58 55.89 58.16 58.87 60.06 60.43 59.78 58.75 58.16 57.54 57.21 57.05 57.41 58.34 58.94 58.57 44.17 56.52 61.13 61.94 65.34 62.93 59.22 56.38 54.15 50.52 48.64 47.21 51.23 47.16 50.42 51.11 51.11 53.11 52.54 51.69 53.84 52.56 53.34 53.53 56.06 57.12 57.66 58.48 58.95
53.40 54.19 55.48 57.08 58.64 59.75 60.09 58.62 58.28 57.78 57.17 56.90 56.89 57.74 56.39 51.41 51.67 57.64 58.54 57.88 60.78 60.88 57.12 54.24 51.80 50.62 47.20 48.18 49.05 47.67 48.66 49.88 51.43 51.54 51.44 51.99 50.48 51.18 51.81 55.38 57.31 57.80 58.02 58.34 59.06
53.06 53.33 53.80 55.83 57.15 58.96 59.63 59.18 58.39 58.08 57.34 57.28 56.48 57.35 51.36 45.01 53.89 55.54 55.84 56.71 59.30 58.73 57.13 55.23 52.51 52.38 49.11 47.78 47.43 48.24 48.35 48.87 49.74 49.83 50.12 48.38 49.19 50.32 51.58 54.60 54.22 54.89 55.36 56.57 57.71
53.04 52.56 53.08 53.93 55.96 57.60 58.96 58.82 58.56 58.24 57.59 57.26 56.91 55.20 49.70 46.46 54.33 55.50 55.37 55.98 57.74 59.43 55.19 56.28 55.02 50.92 51.87 47.68 50.38 48.94 45.19 47.68 48.42 48.87 48.07 49.83 45.83 46.81 51.93 53.31 52.37 53.41 54.44 55.59 56.56
52.51 52.71 52.83 53.02 54.83 55.86 57.81 58.94 58.93 58.51 57.78 56.94 57.10 53.25 45.53 53.26 56.06 53.54 54.59 54.73 55.88 57.26 58.14 58.14 55.59 51.41 49.30 49.96 47.37 44.46 44.87 41.00 45.97 47.07 48.29 47.44 41.26 47.95 51.96 51.78 51.56 52.88 53.97 54.53 55.46
51.96 52.22 52.61 52.74 53.04 54.61 56.39 58.71 58.46 57.94 57.81 57.15 52.84 49.28 43.51 53.17 49.78 52.84 54.40 53.15 52.75 53.56 55.99 57.48 54.28 48.03 47.59 44.09 41.53 42.56 38.32 39.68 42.42 47.22 46.59 46.02 43.64 48.77 51.86 51.00 50.88 52.17 53.36 54.20 55.37
51.14 51.61 51.78 51.90 52.29 53.04 54.86 58.42 57.47 56.61 56.22 53.75 51.67 45.50 47.41 45.36 49.89 51.37 53.57 53.69 50.72 50.93 50.05 49.43 47.99 44.35 44.17 41.84 35.37 37.46 37.50 39.39 39.17 43.51 44.65 43.36 43.54 47.48 49.75 49.47 49.60 50.98 52.43 53.39 53.87
50.81 50.86 51.20 51.14 51.01 51.99 53.15 53.91 47.08 46.12 50.15 45.42 45.27 44.51 46.03 49.99 52.24 49.57 52.07 50.06 50.08 48.47 42.21 44.42 39.87 37.42 40.84 42.22 42.42 39.85 38.71 38.22 41.30 43.86 41.72 40.95 41.91 44.43 47.27 47.74 47.58 48.50 49.31 50.56 52.18
50.37 50.16 50.50 50.72 50.87 51.43 51.19 47.26 46.43 49.14 41.77 47.87 47.65 47.00 48.84 50.02 44.44 47.59 51.56 45.65 45.12 41.20 43.76 40.25 36.38 42.15 42.90 42.33 40.11 38.45 35.82 35.88 40.39 42.88 41.08 39.93 39.18 42.85 44.80 45.52 46.68 47.10 48.00 48.82 50.01
49.93 50.16 49.91 50.09 50.95 50.01 47.88 49.04 51.25 51.72 41.66 42.33 46.53 46.07 46.93 48.63 44.31 45.13 48.53 46.06 42.83 39.99 40.44 37.81 38.68 41.66 40.61 39.56 37.73 37.63 35.39 35.28 34.67 39.89 41.31 39.21 37.52 41.61 44.25 45.74 46.70 47.30 48.03 48.89 49.27
50.00 49.86 50.44 50.70 47.41 48.42 46.91 51.87 50.47 48.80 36.88 36.07 40.67 44.47 47.33 47.73 42.54 49.45 49.91 46.15 42.31 39.24 40.14 38.63 42.36 38.72 38.46 37.21 38.83 34.84 40.51 38.56 36.42 34.18 29.90 37.88 30.59 39.31 42.66 43.19 44.41 45.72 47.08 47.75 48.93
50.05 51.18 50.36 50.93 47.41 46.50 49.62 51.15 49.62 46.01 25.57 37.62 39.66 49.45 47.07 42.50 43.91 44.08 50.01 45.80 40.07 39.64 39.86 36.86 37.76 37.62 35.09 36.59 39.60 35.90 39.43 37.49 37.06 34.31 32.78 34.40 28.78 36.70 40.37 39.75 42.71 45.74 47.51 48.81 50.15
49.91 50.17 50.33 49.74 49.28 49.23 51.93 49.66 46.05 31.67 24.51 34.12 39.84 40.60 40.38 41.44 41.99 44.59 44.49 47.16 45.55 40.51 40.76 39.34 42.45 40.56 39.61 40.78 40.56 40.41 37.51 37.06 36.24 33.53 27.55 33.11 30.80 33.99 39.04 41.50 43.20 44.79 46.65 48.05 48.82
50.18 50.15 49.08 50.40 44.35 51.43 51.03 44.03 30.48 28.73 35.73 32.30 34.35 39.21 38.21 36.72 39.19 40.92 39.47 38.08 36.49 31.96 32.69 37.20 37.92 40.84 41.04 36.50 39.28 37.81 33.48 28.03 25.27 25.75 25.84 35.50 32.98 35.13 40.82 42.53 43.67 44.65 46.28 47.79 49.28
50.59 49.51 50.15 49.96 51.31 51.19 47.24 35.21 28.20 32.03 33.38 37.56 37.79 38.35 35.23 37.08 37.59 37.94 37.46 35.39 39.85 37.71 34.12 30.82 30.39 37.64 40.29 36.69 35.13 35.06 33.60 28.46 21.77 24.90 28.43 34.56 28.82 35.49 43.09 44.80 45.82 46.25 47.52 49.76 50.39
49.56 48.03 47.73 49.43 50.61 48.35 38.69 31.20 31.41 33.47 36.56 34.91 35.84 32.88 33.06 35.67 36.34 36.20 35.75 34.86 37.90 38.85 32.54 31.48 29.46 37.73 40.05 40.72 38.57 34.26 30.94 37.27 29.65 31.81 26.83 31.25 35.69 40.65 42.54 42.64 43.92 44.89 47.08 48.35 49.73
44.47 44.45 45.56 50.09 50.51 45.20 36.04 33.19 33.23 38.83 39.08 38.31 31.65 34.15 29.92 32.55 33.69 33.94 34.31 38.56 37.40 40.93 41.24 34.95 29.43 35.25 37.74 39.94 40.05 37.45 38.74 29.14 30.58 21.78 21.39 29.04 31.23 32.63 38.01 39.97 43.21 44.22 45.43 47.91 49.49
43.05 37.89 45.86 50.40 49.58 39.22 33.32 32.83 36.87 40.79 40.97 37.02 34.69 33.55 34.54 32.69 34.85 33.88 34.59 36.45 39.63 39.44 41.89 37.66 32.43 31.59 35.70 33.33 33.66 33.52 32.19 34.19 33.14 31.09 24.20 24.01 29.86 40.19 39.10 40.93 42.14 43.67 45.98 47.76 48.72
41.72 34.70 46.80 48.47 34.55 34.67 35.20 36.42 40.74 39.43 42.20 39.78 39.60 37.63 35.89 35.95 34.36 34.56 33.96 35.65 40.52 40.49 36.29 38.84 33.70 28.12 30.98 38.25 39.93 38.44 34.53 33.43 27.66 26.35 29.25 28.32 29.32 41.55 42.33 43.33 44.05 44.08 46.01 47.69 48.64
38.56 38.42 48.34 47.48 33.12 34.43 36.82 38.15 40.42 39.24 39.56 38.75 37.50 39.48 39.05 36.23 33.05 35.68 35.55 39.63 40.34 39.25 37.31 38.61 32.54 27.31 30.76 34.87 37.33 33.87 35.28 35.49 34.44 33.04 28.78 25.28 28.67 40.29 40.75 41.36 43.40 44.24 45.43 46.80 48.06
38.64 33.67 37.98 42.45 41.60 37.85 36.50 36.03 36.59 41.82 40.40 41.62 39.37 41.14 38.66 36.11 37.63 34.60 35.07 38.66 40.37 40.36 41.55 41.14 34.96 31.19 28.82 33.25 36.38 31.92 34.02 35.24 33.08 28.64 30.09 30.74 32.43 37.45 39.54 39.71 41.99 43.77 44.91 46.07 47.67
40.98 36.43 38.59 34.28 37.57 38.94 38.67 37.90 36.37 36.03 40.88 41.76 38.96 39.21 37.64 34.72 35.19 34.37 36.82 37.76 39.17 40.62 40.49 38.48 31.14 33.12 33.54 34.74 34.93 33.90 33.56 34.35 31.74 32.65 28.80 32.80 33.53 37.68 40.14 41.07 42.52 43.88 45.07 45.65 44.96
36.65 36.32 40.15 39.35 39.61 37.79 38.01 36.63 36.54 37.66 38.89 37.50 37.55 39.49 39.84 36.63 36.66 35.08 37.37 37.95 37.69 39.46 38.62 39.74 32.80 34.74 31.92 35.62 35.83 33.29 35.90 35.74 35.20 34.60 33.64 34.12 33.56 40.94 42.61 43.32 42.48 43.31 43.82 43.76 45.06
42.33 42.00 38.85 38.50 38.38 37.59 37.20 36.99 37.57 40.32 40.28 41.97 40.50 39.50 38.23 39.74 41.66 42.79 42.21 41.70 41.52 38.55 37.40 36.93 34.14 32.25 29.78 34.84 34.70 32.67 36.09 36.74 36.90 36.82 35.82 31.31 36.69 40.92 40.09 40.57 40.76 42.93 43.27 43.44 45.25

GFSSW_sfc_wetblb_027.txt.gz
Wetbulb
56.84 57.76 59.40 59.81 60.84 60.83 59.88 59.14 58.41 58.12 58.47 58.08 58.20 58.48 59.29 60.85 62.45 60.23 55.65 59.94 61.15 63.50 61.56 59.89 58.50 58.12 58.37 55.81 57.41 58.27 49.14 45.37 47.34 47.53 49.11 53.49 51.82 55.27 56.65 54.84 55.93 57.38 57.52 59.82 62.14
54.85 56.21 57.11 58.90 59.72 60.53 60.48 59.53 58.87 58.57 58.32 57.88 57.80 58.19 59.31 60.26 59.02 55.79 61.46 62.06 62.62 63.16 59.43 56.77 54.68 56.10 54.00 54.04 54.62 52.71 47.32 47.41 50.97 51.66 50.93 52.69 52.84 53.73 53.43 53.65 53.99 56.25 58.62 60.09 62.00
53.62 54.24 55.38 56.74 58.39 59.23 60.37 59.86 58.98 58.57 58.07 57.68 57.49 58.02 58.96 59.64 54.37 54.52 64.38 64.09 64.38 63.96 60.87 58.71 57.10 54.86 51.65 53.52 52.61 51.99 47.21 50.76 51.52 53.70 53.96 52.62 52.58 54.77 52.95 51.78 54.17 54.32 57.22 59.08 59.94
53.26 53.90 54.14 54.80 56.03 57.80 59.39 60.34 58.89 58.69 58.00 57.59 57.36 57.86 58.56 57.63 44.62 58.60 61.91 63.57 65.04 63.09 59.57 56.87 54.62 50.97 49.28 48.82 52.65 48.05 51.05 51.77 52.74 53.59 53.26 51.76 54.09 52.62 53.59 53.87 56.54 57.24 58.72 59.05 58.98
52.39 53.29 53.68 53.64 54.67 56.48 57.79 59.56 59.58 58.90 57.97 57.48 57.23 57.45 55.88 51.62 52.23 59.85 58.88 58.84 62.07 61.09 57.71 54.89 52.53 51.32 47.71 49.55 50.02 48.63 50.25 51.48 52.42 52.79 52.64 53.37 51.38 51.79 52.87 56.08 57.20 57.57 57.83 58.28 58.83
52.08 52.93 53.27 53.50 53.45 54.45 56.77 58.69 59.58 58.83 57.98 57.59 57.02 57.20 53.31 45.29 56.73 58.52 57.93 57.63 59.22 59.74 57.34 55.96 53.28 54.12 51.04 49.83 48.71 50.60 50.40 50.47 51.46 51.09 51.51 49.51 49.78 50.75 51.85 54.77 54.66 55.24 55.71 56.76 57.52
51.78 52.03 52.66 53.19 53.36 53.95 55.34 56.75 59.12 58.68 58.23 57.85 57.13 55.47 50.31 48.16 55.14 55.97 56.03 57.06 59.86 59.40 56.19 57.02 56.05 52.51 52.68 48.73 51.38 50.31 46.79 49.17 49.83 50.41 49.45 51.01 46.77 47.71 52.53 53.69 52.69 53.41 54.34 55.20 56.07
51.25 51.56 52.10 52.69 53.10 53.43 54.04 55.21 57.17 58.41 58.18 57.79 57.27 53.99 47.08 55.11 57.07 54.36 55.80 57.28 59.27 60.34 58.85 58.64 56.68 52.58 50.70 50.80 48.85 45.72 46.81 42.34 48.43 49.31 50.00 48.42 41.90 49.41 52.80 52.58 51.92 53.00 53.83 54.38 55.22
50.75 50.72 51.53 52.00 52.24 52.36 52.77 54.00 55.43 58.44 57.97 57.36 53.60 51.14 45.73 53.90 50.24 54.08 55.56 54.68 55.58 57.66 58.97 57.44 54.80 49.40 48.04 45.17 42.46 44.75 40.06 42.63 45.07 49.57 48.03 47.16 44.56 50.18 52.85 52.48 51.13 52.48 53.58 54.30 55.10
50.51 50.59 50.76 51.28 51.41 51.37 51.80 52.62 54.26 57.53 56.11 54.86 53.03 46.66 49.07 46.88 51.17 52.43 55.33 55.68 52.38 53.51 52.41 51.83 47.34 42.76 43.69 41.73 37.87 40.67 40.73 42.35 41.90 46.02 45.98 44.51 44.32 48.14 50.58 50.92 50.88 51.93 52.97 53.69 54.39
50.41 50.58 50.67 50.91 51.04 51.21 50.93 48.79 49.17 47.27 50.13 45.43 45.49 46.01 47.92 51.21 53.06 50.87 53.88 52.89 51.83 50.30 43.60 46.66 41.67 39.94 43.72 45.70 45.17 43.27 40.77 40.45 43.69 46.39 43.75 42.81 43.39 45.75 48.29 48.72 48.74 49.52 50.71 51.79 52.77
49.91 49.90 50.33 50.51 50.51 50.52 49.00 42.26 45.19 48.25 43.04 49.15 48.52 48.29 50.27 51.34 45.34 48.94 53.85 46.95 45.80 41.46 43.51 41.53 38.41 43.98 45.41 44.29 42.57 41.55 39.52 39.40 42.27 44.10 42.72 41.82 41.14 44.66 46.30 46.92 47.87 48.17 49.10 50.44 51.73
49.22 49.92 50.20 50.45 50.06 50.02 46.71 44.79 48.47 50.06 42.13 44.57 47.59 47.21 47.66 49.61 45.67 46.23 49.81 47.59 44.01 41.18 41.05 39.20 41.04 44.11 42.77 41.34 39.55 40.10 38.14 38.10 37.70 41.22 42.11 40.46 39.02 43.24 46.36 47.16 48.20 48.96 49.42 49.86 50.38
49.14 49.87 50.08 50.47 47.59 48.45 44.71 49.46 48.98 49.45 36.16 37.87 42.09 45.88 48.10 48.70 43.71 50.30 51.01 47.34 43.79 39.54 41.24 40.33 43.94 40.21 40.29 39.14 40.50 36.17 42.25 40.72 39.21 36.20 32.81 39.80 31.70 40.11 43.79 44.90 46.71 47.52 47.83 48.49 49.60
49.26 49.98 50.64 50.87 46.13 45.57 48.20 51.24 49.95 46.45 27.07 39.27 41.30 50.50 48.54 44.36 45.15 45.33 51.22 46.79 40.65 41.65 41.03 38.55 39.07 39.13 36.68 38.68 41.28 37.25 40.91 38.83 38.34 35.22 33.35 35.62 31.67 38.01 42.84 41.73 44.22 46.68 48.19 49.48 50.65
49.24 50.10 50.62 49.39 49.65 49.56 51.81 49.57 45.70 31.95 26.94 34.37 40.35 40.08 40.43 42.52 43.34 45.29 45.08 47.76 46.53 41.13 41.65 41.14 44.06 41.95 40.63 41.70 41.76 41.24 38.43 37.25 37.28 33.97 26.87 33.89 34.56 35.81 39.66 42.10 44.68 47.35 48.67 48.84 49.20
49.71 50.77 49.56 49.59 45.17 51.83 50.90 43.63 29.74 27.25 37.34 33.06 34.86 39.14 38.70 36.97 39.33 41.05 39.57 38.64 37.39 32.47 32.93 37.37 38.52 41.50 42.53 38.05 40.72 39.01 34.55 29.23 27.54 26.64 26.62 37.29 34.59 36.56 42.17 43.98 44.58 45.28 46.79 48.25 49.24
50.43 50.26 50.25 50.41 52.22 51.38 45.15 36.17 27.62 33.37 33.96 38.45 38.26 38.63 35.40 37.57 38.31 38.91 37.98 35.51 39.52 38.51 35.02 30.67 31.59 38.80 41.09 38.74 36.36 36.02 35.13 29.39 23.73 26.91 30.66 37.60 30.86 36.76 44.11 45.34 45.94 46.82 47.32 48.19 48.70
49.42 47.49 48.38 50.17 51.75 48.63 38.71 30.50 32.77 36.04 36.89 36.08 37.42 34.19 34.70 36.40 37.48 37.53 36.94 36.22 38.54 39.91 34.20 33.17 31.78 40.07 41.61 41.74 39.55 35.28 31.01 37.73 30.83 32.37 27.80 32.30 36.90 41.55 43.46 43.66 44.74 45.30 46.26 46.86 49.20
44.95 44.21 45.34 51.29 50.86 45.94 35.51 32.95 34.93 40.49 40.13 39.92 32.87 35.02 31.26 33.65 34.95 35.06 34.96 40.07 38.10 42.24 43.32 37.44 31.16 37.62 39.75 40.79 40.40 37.64 40.00 29.48 31.05 22.65 22.94 30.99 33.15 34.46 39.80 41.35 43.68 43.89 45.21 46.72 49.43
43.72 37.38 46.50 50.32 49.18 40.20 34.07 35.10 38.05 42.06 42.41 38.93 36.25 34.17 34.18 33.78 35.49 34.23 35.80 39.44 42.24 41.38 41.87 38.91 35.13 33.24 35.95 34.27 34.64 34.36 32.11 33.81 34.47 32.48 25.80 25.03 31.31 41.88 40.21 41.56 41.55 44.05 46.39 47.41 48.89
42.22 34.29 47.66 50.04 35.73 35.42 35.88 37.45 41.00 40.24 43.04 40.94 41.20 39.11 36.74 37.14 36.24 36.63 36.43 37.89 43.00 42.77 36.63 39.51 34.90 29.91 32.69 39.42 40.83 39.54 34.68 34.46 28.91 27.65 30.34 29.38 29.47 42.47 42.82 43.24 43.35 43.66 46.21 48.00 48.58
38.69 37.93 47.41 46.82 34.12 35.61 38.21 38.88 40.74 39.97 40.68 40.01 38.87 40.39 41.13 38.10 34.90 37.91 38.89 41.37 42.23 41.27 39.04 39.60 33.71 28.29 31.91 36.19 39.10 35.26 36.79 36.83 35.95 34.31 29.13 26.53 30.10 42.40 42.85 42.18 43.38 43.23 44.99 46.46 47.32
40.25 35.18 40.12 43.39 43.62 39.54 37.61 37.18 37.33 43.25 42.15 42.42 41.23 41.92 39.99 38.38 40.03 37.39 37.23 39.78 41.79 41.50 42.16 42.91 36.02 31.75 29.97 33.38 36.89 32.71 34.94 36.47 34.22 29.58 30.57 31.29 33.32 38.75 40.94 42.05 43.27 44.10 44.99 45.23 46.56
39.98 37.18 39.27 36.00 39.17 40.39 40.22 38.50 36.38 37.12 42.22 43.22 40.14 40.29 39.24 35.83 36.79 36.27 38.61 39.25 40.97 42.08 41.06 39.91 32.20 34.27 34.83 35.78 35.79 34.83 34.71 35.66 32.91 33.68 29.82 33.22 33.87 38.04 40.94 41.96 43.05 44.78 44.76 45.08 46.04
37.04 36.57 38.27 39.93 41.75 40.42 39.51 38.06 38.11 38.99 40.12 38.67 39.22 40.32 40.81 37.82 38.17 35.72 38.80 39.07 38.20 40.51 39.08 39.83 33.06 35.64 32.25 35.88 36.57 34.87 36.79 36.57 36.49 36.55 35.74 35.09 34.18 41.01 42.53 43.58 42.87 43.90 44.37 44.62 45.17
43.09 42.40 38.98 39.51 39.62 39.64 39.22 39.53 39.63 41.50 42.22 43.33 42.02 40.90 39.20 40.75 42.52 43.52 43.06 42.51 41.90 39.16 37.33 36.60 34.76 32.47 29.53 35.92 34.93 33.55 36.07 37.18 37.98 39.13 37.16 32.70 37.92 41.31 40.56 40.65 40.89 42.18 42.82 44.17 45.34

GFSSW_sfc_wetblb_030.txt.gz
Wetbulb
54.12 54.75 55.29 56.69 57.88 59.01 60.12 61.06 60.05 59.32 58.40 58.81 58.54 58.47 58.70 59.38 60.58 59.45 53.50 58.41 61.04 63.85 61.70 60.71 58.47 56.94 56.62 54.52 55.31 55.63 45.74 42.24 44.35 45.37 46.95 50.90 49.18 52.65 53.70 51.29 52.61 52.67 52.02 57.20 63.87
53.28 54.08 54.95 55.02 56.03 57.24 58.65 59.90 60.74 59.68 58.97 58.77 58.34 58.10 58.40 59.63 57.15 54.86 59.79 63.17 62.77 64.11 57.74 55.95 53.54 54.75 51.35 51.92 52.10 49.90 45.17 45.76 49.78 49.31 48.52 50.71 49.83 50.54 49.77 50.30 50.43 52.27 56.48 58.96 59.84
53.37 53.29 53.47 54.35 54.62 55.64 57.13 58.56 60.11 59.86 59.30 58.62 58.11 57.81 58.14 58.48 53.00 53.10 63.45 63.93 63.89 63.03 59.56 57.52 56.40 53.92 49.70 51.09 50.15 49.17 44.58 48.72 49.56 50.57 52.38 51.25 50.72 51.81 49.67 47.98 51.02 50.17 53.45 56.34 58.17
53.08 52.79 53.14 54.02 54.19 54.37 55.93 57.34 58.77 60.10 59.32 58.50 57.87 57.73 58.03 55.74 42.81 57.93 64.05 64.92 64.71 62.63 59.34 56.20 53.67 49.81 47.67 46.46 50.50 45.69 49.64 50.02 50.66 51.93 51.70 49.81 52.01 50.08 50.24 50.23 54.14 53.98 54.61 54.97 55.74
53.29 52.92 52.55 52.94 53.92 54.14 54.33 55.64 58.10 59.56 59.41 58.40 57.75 57.63 54.87 49.79 50.64 60.29 61.74 61.59 61.77 60.58 57.10 54.63 50.51 49.37 45.70 47.03 48.75 46.69 48.32 50.28 50.97 51.02 50.51 51.98 49.61 49.40 50.03 52.62 54.15 54.74 54.95 53.76 54.86
53.06 52.79 52.08 52.59 53.26 53.67 53.87 54.94 56.78 58.52 59.44 58.27 57.73 57.62 52.18 44.25 57.48 58.88 57.95 57.41 58.10 58.78 56.93 55.96 51.75 52.17 49.05 47.65 46.37 48.55 48.89 48.82 49.79 49.10 49.66 48.24 48.25 49.07 49.10 51.93 52.10 53.13 52.85 52.88 53.80
52.90 52.52 51.79 51.88 52.23 53.07 53.70 54.49 55.09 56.56 59.25 58.32 57.91 54.84 48.52 48.08 55.28 56.52 57.13 55.92 58.11 58.28 55.57 57.41 55.66 51.90 51.94 48.14 51.20 48.98 44.70 47.04 47.75 48.25 47.59 48.80 44.82 45.54 50.29 51.25 49.92 50.26 51.35 52.87 53.34
52.31 52.15 51.42 51.04 51.80 52.42 52.71 52.96 53.63 54.49 56.38 58.17 57.94 52.90 45.86 55.66 56.40 54.12 54.91 54.90 58.26 58.80 58.42 58.52 56.47 52.12 50.12 50.29 48.69 44.96 44.69 39.30 46.02 47.94 48.55 47.10 38.95 47.05 50.17 49.76 49.12 49.91 50.49 50.83 52.14
51.28 51.33 51.33 50.98 51.23 51.70 51.91 52.25 52.58 53.11 55.09 57.79 53.08 50.39 44.14 53.92 50.64 54.08 54.25 53.45 55.77 58.05 58.30 57.88 55.25 49.43 48.50 43.78 41.30 43.04 36.23 38.78 42.34 47.18 46.30 44.69 39.89 47.29 50.05 48.65 47.96 48.02 49.37 50.77 51.64
50.89 50.85 50.82 50.80 51.25 51.11 51.42 51.82 52.30 52.54 55.69 55.30 52.71 46.24 48.29 46.26 50.19 52.40 53.98 55.70 52.51 54.25 52.71 51.31 47.29 43.91 43.72 41.03 34.33 36.88 38.26 39.23 38.96 43.75 44.04 41.93 41.51 45.41 47.67 47.71 46.71 48.15 48.55 49.02 50.29
50.46 50.50 50.04 50.19 50.80 50.86 49.66 47.97 45.13 47.04 51.02 44.63 45.35 45.98 46.96 51.34 52.71 50.43 52.99 52.49 51.43 50.04 43.28 47.77 41.66 38.63 40.36 42.78 42.82 42.90 39.87 37.40 40.32 44.56 40.98 39.94 40.50 42.79 45.47 45.80 45.58 46.56 47.66 48.64 49.95
50.21 50.10 49.80 50.24 50.48 50.55 48.59 41.59 42.48 46.19 42.57 48.49 48.71 48.56 50.24 50.97 45.12 48.36 53.98 47.08 45.89 42.32 44.54 41.40 37.58 43.08 45.87 45.15 42.34 40.09 36.97 36.20 40.09 42.99 40.02 38.36 37.82 41.24 43.16 44.06 45.37 45.73 46.33 47.19 48.22
49.73 49.42 49.88 50.64 51.09 48.42 44.95 43.53 48.49 46.36 39.91 43.94 47.87 46.80 47.12 49.39 45.01 45.70 50.52 47.34 43.42 40.87 40.93 37.94 40.42 44.36 42.67 40.80 38.78 37.60 35.66 35.81 35.43 39.44 40.17 37.77 35.32 38.49 42.81 44.30 45.34 46.25 47.08 47.56 47.59
49.20 49.59 50.15 50.68 47.06 46.66 44.31 49.10 48.58 47.42 32.33 38.89 42.58 45.64 47.69 48.79 43.51 50.30 51.32 47.55 43.79 39.69 41.19 40.01 43.88 40.83 39.59 38.86 39.47 34.06 40.72 39.41 37.92 34.22 27.68 36.92 25.92 34.79 39.28 40.49 42.19 42.00 43.10 45.27 46.64
49.28 49.90 50.30 50.41 45.60 42.83 47.07 48.85 47.60 43.55 24.37 39.76 41.37 51.03 48.23 44.22 44.80 45.36 50.90 47.08 40.78 40.96 40.86 37.27 38.81 38.66 36.27 38.28 40.51 36.31 40.59 37.98 37.19 32.76 31.79 30.76 26.29 31.42 38.59 37.65 39.37 41.85 43.28 44.13 45.01
49.43 49.88 50.64 48.38 48.43 48.08 50.19 48.70 44.16 27.02 23.39 35.63 40.33 40.88 41.07 43.40 43.46 45.06 45.29 47.98 46.79 41.77 41.59 40.20 43.71 41.11 39.93 41.37 40.83 41.03 37.52 36.98 35.93 33.73 24.77 29.79 29.82 28.98 33.34 36.58 38.22 41.62 41.66 44.65 44.97
49.23 49.98 49.04 49.18 43.83 50.65 49.02 43.44 28.65 23.22 36.28 33.78 35.99 39.71 39.01 38.26 39.80 40.93 39.72 38.08 35.56 31.69 32.94 37.25 37.94 41.33 42.28 37.33 39.93 38.76 34.37 23.09 22.43 23.57 20.00 34.01 29.66 31.90 38.73 41.16 41.80 41.33 40.40 42.81 43.26
49.72 49.99 48.88 49.57 50.75 48.92 46.05 35.11 23.32 33.39 33.38 38.00 38.29 38.26 35.04 37.96 38.34 38.90 37.71 35.23 39.61 37.24 34.35 29.35 29.17 37.53 40.05 37.61 35.77 35.80 34.17 24.45 18.84 20.11 23.70 33.11 26.58 31.22 40.57 42.23 42.55 42.93 42.53 43.96 43.52
49.84 47.39 47.18 50.06 51.16 48.52 39.98 28.33 29.27 34.17 36.74 35.87 37.25 33.50 33.82 37.00 37.37 37.17 36.04 35.30 37.92 39.03 32.40 30.66 31.43 40.46 40.64 41.24 39.61 34.11 29.72 34.28 27.83 27.90 20.29 26.23 31.27 37.33 41.06 41.19 42.14 41.44 42.31 42.08 43.16
46.01 43.64 45.14 50.69 50.28 45.12 35.90 32.44 34.00 39.78 39.96 39.04 32.26 35.65 31.03 33.69 34.30 35.29 34.99 38.90 37.45 40.75 40.64 37.27 30.18 37.51 39.83 40.89 39.90 36.97 37.79 28.42 28.11 14.56 17.32 24.71 27.96 30.25 35.09 36.73 39.46 38.82 39.86 41.60 43.19
43.33 39.16 46.20 50.54 48.96 40.68 31.70 32.52 37.67 42.46 42.31 38.40 35.30 34.08 34.66 33.32 35.25 33.82 33.92 39.12 40.49 39.90 41.25 38.64 33.44 32.02 34.49 33.31 32.29 33.55 31.81 33.00 31.55 29.65 19.91 19.73 25.10 36.56 35.52 37.95 37.94 39.30 41.71 42.93 44.65
42.57 34.12 47.57 49.45 35.77 36.87 34.56 37.04 41.24 40.97 43.59 41.40 40.59 37.97 35.57 35.92 34.68 34.09 34.65 37.68 42.53 41.60 36.70 39.15 34.70 25.94 29.98 37.24 38.81 37.12 33.25 32.17 23.24 21.22 26.02 24.23 26.19 40.92 38.03 40.60 39.93 39.85 42.86 43.42 46.00
39.03 37.43 47.74 45.94 33.28 34.97 37.57 38.90 40.70 40.64 40.72 40.24 39.04 40.57 39.71 36.09 32.95 37.49 37.93 40.73 41.38 40.34 38.03 38.68 31.31 21.94 27.77 34.00 36.47 32.05 34.95 35.41 33.66 32.39 26.56 23.89 26.14 41.12 40.77 41.25 42.84 42.44 42.62 42.47 42.52
41.43 34.77 41.41 44.48 43.61 37.49 37.29 37.17 37.55 43.49 41.87 42.35 40.32 41.57 38.67 37.15 39.72 36.35 36.16 39.81 41.17 41.25 43.24 41.82 35.04 27.28 22.74 28.28 33.48 30.00 33.24 35.00 33.77 28.66 28.14 28.63 30.40 35.90 38.88 40.45 42.24 43.08 43.82 42.79 42.22
40.02 37.27 39.05 36.66 39.23 39.82 39.98 38.71 37.23 37.24 42.47 43.34 40.30 40.42 38.95 35.40 36.55 36.07 38.02 38.02 39.96 42.04 39.84 38.12 31.13 28.37 32.52 33.98 33.51 32.49 32.81 33.83 32.22 33.15 29.74 31.60 32.62 36.62 39.52 40.71 41.63 43.44 43.89 43.32 43.14
37.97 36.48 38.89 39.91 41.61 39.69 39.43 37.24 37.83 39.31 40.51 39.06 38.53 40.34 40.19 37.01 37.66 35.38 37.81 37.62 36.38 38.75 37.17 38.53 30.45 31.05 28.88 33.90 34.00 31.71 34.53 35.63 36.13 36.45 35.96 36.11 35.63 41.43 42.82 42.65 41.01 41.96 42.58 41.93 42.48
43.01 43.15 39.43 39.92 39.25 38.74 38.90 39.34 39.38 41.42 42.16 42.96 41.72 40.23 39.32 40.48 42.04 41.91 41.47 41.59 41.20 37.70 35.99 37.03 33.65 31.65 22.50 34.05 33.36 31.32 34.65 37.68 37.92 39.23 38.53 34.42 38.31 43.14 42.06 41.66 40.96 41.86 41.14 41.21 42.07

GFSSW_sfc_wetblb_033.txt.gz
Wetbulb
54.10 54.42 54.20 54.36 55.42 56.13 57.24 58.50 59.62 60.90 59.99 59.15 58.74 58.82 58.70 58.76 59.08 57.52 53.87 57.63 59.31 64.70 62.03 59.26 56.79 55.62 54.20 50.74 52.18 50.60 40.86 38.40 41.78 42.88 44.55 49.08 46.97 50.36 51.81 49.53 50.41 50.68 52.16 58.45 63.49
54.16 54.16 53.86 53.86 53.79 54.66 55.42 56.81 58.33 59.56 60.45 59.49 59.10 58.60 58.33 58.64 55.60 53.63 59.39 63.08 64.23 64.00 58.99 54.48 52.97 53.23 47.86 48.66 48.92 45.48 41.62 42.50 46.51 46.90 45.59 48.40 48.49 48.78 48.27 48.15 46.81 50.24 55.17 58.45 62.64
54.08 54.00 54.06 53.47 53.25 54.32 54.89 55.20 57.18 58.46 59.84 59.69 59.12 58.49 58.14 57.83 52.11 50.97 62.57 63.84 64.53 64.17 58.28 55.91 54.72 52.02 47.16 47.50 46.45 45.36 41.78 47.07 49.20 49.70 49.24 49.12 49.01 50.52 47.34 45.01 48.17 48.37 51.97 55.43 58.10
54.04 53.87 53.74 53.65 53.12 53.10 54.37 54.62 55.38 57.26 58.89 59.91 59.07 58.27 58.11 55.05 39.37 56.63 63.79 64.41 64.46 61.80 57.66 55.29 52.07 48.35 45.62 44.41 47.79 42.50 46.74 48.36 49.37 50.42 49.16 47.70 50.12 48.40 47.77 47.68 51.26 51.18 52.43 53.49 54.31
53.83 53.58 53.40 53.20 52.63 52.94 53.55 54.25 54.79 56.57 58.17 59.59 59.13 58.19 54.81 48.67 48.91 59.71 63.34 64.48 61.74 60.18 56.41 54.14 49.77 47.39 43.97 44.97 46.02 43.56 45.71 48.64 49.10 48.87 48.24 49.68 47.36 47.13 47.82 50.71 51.91 51.77 52.05 51.00 52.67
53.23 53.13 52.75 52.59 52.35 51.87 52.58 53.50 54.54 55.67 56.24 57.95 59.12 58.40 51.62 43.40 55.09 59.17 58.81 59.17 59.36 58.21 56.16 55.22 50.27 49.60 45.87 45.55 43.11 45.77 46.33 46.50 47.94 47.61 47.56 46.81 46.18 46.57 47.54 50.27 49.10 49.79 50.04 49.79 51.03
52.55 52.46 52.43 52.23 51.77 51.77 52.22 53.23 53.59 54.19 54.84 56.73 59.06 55.32 48.16 46.54 53.70 56.19 56.92 54.74 56.52 58.18 54.70 56.83 54.99 49.92 48.49 46.76 48.34 46.81 42.60 44.93 45.64 46.69 45.70 47.70 42.94 43.25 47.96 48.83 47.83 47.58 47.56 50.03 50.38
52.09 51.62 51.84 51.65 51.69 51.52 51.63 52.25 52.64 52.85 53.57 55.25 58.51 52.51 44.69 54.01 53.59 53.57 53.31 53.25 54.85 57.40 57.73 58.30 56.03 50.75 47.68 47.86 46.42 42.74 42.10 36.78 44.09 46.37 47.03 45.63 37.90 45.38 48.15 46.61 46.52 48.41 49.14 49.00 50.17
51.40 51.20 51.12 51.15 51.05 51.15 51.14 51.54 52.11 52.68 53.14 54.34 54.20 49.61 43.07 55.48 50.81 52.75 52.32 51.05 54.21 56.81 56.87 57.59 54.65 49.48 46.97 42.15 39.72 39.82 33.56 36.39 40.12 45.90 45.42 43.61 38.64 45.99 47.98 46.59 44.82 45.67 47.06 49.37 49.91
50.72 50.76 50.81 50.85 50.33 50.92 51.11 51.51 51.53 51.45 51.40 51.95 52.59 44.69 47.61 45.57 50.28 52.52 52.47 52.86 52.93 53.86 52.11 50.94 48.10 44.78 43.81 41.10 32.93 35.19 34.78 35.97 36.60 42.17 42.82 40.76 39.67 43.28 45.67 44.71 43.93 43.76 45.37 45.73 47.90
50.12 50.33 50.45 50.27 50.25 50.52 48.34 44.74 40.08 43.63 45.31 45.60 44.38 44.77 46.91 50.65 51.90 50.35 51.59 52.20 52.25 50.00 44.85 47.14 41.69 38.94 38.99 40.69 40.47 41.32 39.48 35.03 37.61 42.20 38.30 37.57 37.58 39.77 42.60 41.76 42.97 44.87 44.56 45.83 48.09
49.76 49.74 49.94 50.13 50.84 51.00 48.71 40.69 40.17 43.62 37.01 45.65 47.23 47.52 49.37 50.26 44.66 48.00 52.54 46.45 45.50 41.35 42.09 41.77 38.22 43.43 44.88 44.08 42.68 39.19 35.24 33.21 37.46 40.67 38.11 36.55 36.76 40.16 41.84 42.39 43.56 44.20 43.13 44.07 46.27
49.65 49.52 50.05 50.45 50.89 48.21 43.63 42.55 47.56 46.83 35.42 43.13 47.35 46.50 46.58 49.10 44.29 44.57 50.13 46.86 43.54 41.11 40.42 36.58 38.84 44.17 42.75 40.99 39.32 35.17 33.13 33.23 33.49 37.24 36.89 34.39 32.17 35.15 39.64 41.71 43.36 44.35 45.35 45.89 45.83
49.32 49.75 50.25 50.53 46.68 46.06 42.22 47.45 47.12 45.82 30.16 37.98 43.02 45.84 47.30 48.44 42.81 49.40 51.43 46.95 43.96 39.80 41.41 39.74 42.49 40.18 38.63 38.20 37.94 32.20 38.20 37.62 36.20 31.64 26.00 33.76 23.52 30.15 36.52 37.92 39.74 39.75 41.14 43.96 45.55
49.58 49.86 50.05 50.21 44.75 42.60 45.88 46.45 46.08 42.78 18.65 38.96 42.38 50.76 47.39 43.58 44.10 45.25 51.29 46.83 41.00 41.07 40.85 37.53 39.48 38.50 35.38 37.57 39.16 35.33 39.23 36.58 35.44 30.55 27.57 27.97 23.77 28.17 34.04 34.56 36.74 38.16 39.63 40.74 44.55
49.88 50.10 50.40 47.57 47.51 47.31 48.28 45.78 42.71 26.98 18.47 35.33 41.51 40.94 40.45 42.73 43.19 44.94 45.27 48.16 46.66 42.21 41.29 39.24 42.08 40.14 38.65 40.00 39.44 39.97 35.86 34.03 32.89 29.23 16.84 26.87 26.13 25.37 30.32 34.66 36.00 37.36 39.69 40.91 42.52
50.25 50.62 49.13 48.98 43.69 48.81 47.08 41.24 24.17 18.02 33.06 32.85 37.13 39.60 38.86 38.64 39.18 41.14 39.63 38.55 34.77 31.30 30.62 37.22 37.29 39.80 41.20 35.67 37.82 37.48 29.13 16.59 16.37 21.99 18.53 30.07 26.76 27.56 35.71 38.73 38.42 39.69 40.09 39.58 40.77
51.01 50.77 48.64 49.37 50.31 48.06 43.92 33.55 19.57 30.06 32.65 39.78 38.38 38.63 35.32 38.45 37.95 39.30 37.66 33.70 37.16 34.96 28.78 25.13 22.88 35.61 38.67 35.84 33.29 33.21 30.47 19.46 15.95 17.49 21.37 30.07 24.82 30.13 38.89 41.84 40.79 41.93 42.07 42.51 42.10
50.17 47.03 46.26 48.99 48.76 47.16 38.64 24.19 26.11 33.72 36.40 36.82 37.25 33.34 34.19 37.20 37.13 37.06 36.26 35.07 35.61 36.07 28.87 26.68 28.60 38.40 38.88 39.34 38.42 33.11 26.19 32.56 24.85 24.28 15.81 24.15 28.30 34.14 38.31 38.04 38.26 37.41 39.24 39.12 40.60
41.45 43.43 43.84 49.57 47.87 43.19 35.43 32.10 32.64 38.31 39.65 38.82 31.13 35.00 30.95 34.05 33.80 34.58 34.46 37.38 36.41 38.54 37.74 35.02 28.92 37.37 39.04 40.96 39.98 34.67 35.75 25.78 22.06 10.91 15.16 21.45 23.76 28.03 32.72 35.02 37.54 37.66 38.55 41.18 41.99
41.34 39.17 44.67 49.00 47.87 39.63 30.69 32.04 37.51 41.22 41.67 38.10 33.83 34.09 33.96 33.52 34.45 33.90 32.99 37.54 38.80 38.06 39.94 38.06 33.09 29.81 36.48 32.57 30.89 32.41 31.94 32.41 29.13 23.65 17.65 18.32 22.92 32.93 33.96 35.05 35.15 37.07 38.28 40.17 43.00
38.71 34.34 43.94 47.51 34.81 35.80 32.06 34.17 41.12 39.72 42.49 40.70 37.44 35.88 33.79 34.88 33.39 33.45 32.06 34.77 40.47 40.88 35.01 38.68 33.44 24.36 27.79 34.85 37.24 34.27 30.94 29.94 20.48 18.33 23.01 19.90 24.67 39.91 39.44 37.40 39.61 40.82 43.03 44.44 45.46
39.28 38.17 45.51 44.41 32.55 33.29 38.89 39.22 41.39 40.19 40.74 40.27 38.38 38.12 38.07 34.78 31.04 34.30 36.09 39.08 41.86 40.34 37.87 37.90 29.97 17.35 28.97 29.86 33.90 30.90 33.42 33.20 30.87 29.27 24.51 23.21 25.80 37.89 39.40 40.20 41.84 42.28 44.18 45.16 45.40
40.05 33.19 38.01 41.86 40.88 37.86 37.05 37.00 37.70 42.48 40.72 40.30 38.16 38.83 37.46 36.41 36.56 34.69 35.04 38.31 40.48 41.30 43.88 40.42 31.91 22.90 21.11 26.16 30.40 23.53 31.50 32.84 31.08 26.95 26.73 27.58 29.74 35.02 37.93 39.44 42.09 43.59 43.05 44.08 44.89
36.78 34.52 38.42 29.36 34.32 37.60 39.62 38.33 36.30 36.46 40.60 41.19 39.39 38.01 37.12 35.16 35.89 35.01 36.62 36.05 38.60 41.87 38.95 37.19 28.82 24.94 29.94 32.37 31.98 29.70 31.01 32.74 31.01 31.67 28.66 30.55 32.27 36.30 39.53 41.10 43.51 42.13 43.04 43.36 43.62
37.39 35.93 37.61 36.59 39.02 36.20 37.27 35.70 37.19 38.49 38.87 37.43 36.99 39.37 39.51 36.44 36.61 34.99 36.98 35.18 34.29 35.98 34.82 35.92 24.85 31.59 28.20 32.24 32.55 30.07 33.36 33.72 33.83 33.59 33.70 34.41 34.64 41.56 44.12 44.89 43.01 42.58 42.68 42.17 42.89
42.52 42.90 39.53 36.23 35.42 36.85 35.86 38.36 38.19 39.64 40.44 41.15 40.25 39.77 39.05 40.15 40.32 39.57 41.18 39.92 37.97 35.20 34.21 35.99 33.09 24.00 18.52 30.71 31.59 30.71 33.52 34.39 36.74 38.56 38.16 34.86 39.28 43.14 42.23 43.11 41.07 41.13 41.22 41.35 42.26

GFSSW_sfc_wetblb_036.txt.gz
Wetbulb
54.58 54.69 54.63 54.29 53.90 54.02 54.83 55.86 56.55 57.84 59.16 60.86 59.72 58.95 58.87 58.76 58.50 56.09 51.63 56.17 58.32 63.52 62.30 58.54 56.14 54.96 53.45 49.27 50.63 48.31 39.62 37.35 40.01 40.61 42.07 47.03 45.49 48.94 50.90 47.72 48.62 49.14 55.10 58.72 62.43
55.01 54.85 54.50 53.88 54.27 53.35 53.32 54.53 55.57 56.28 58.01 59.16 60.19 59.13 58.69 58.31 54.55 51.24 58.31 62.76 63.93 64.17 58.94 55.33 52.78 52.36 47.51 47.08 47.62 44.01 39.18 40.48 45.16 45.73 44.14 46.76 47.08 48.39 47.31 46.59 45.68 50.48 55.79 61.11 61.93
55.23 54.74 54.53 54.55 53.94 53.83 53.55 53.97 54.97 55.38 56.37 58.04 60.01 59.45 58.68 57.21 50.04 48.98 60.91 63.43 64.24 63.23 58.69 57.55 54.24 51.37 46.41 46.34 45.62 43.85 40.53 45.62 47.45 49.01 48.38 47.67 47.47 49.08 45.94 44.63 46.12 47.66 53.90 57.48 59.07
54.70 54.58 54.17 53.70 53.78 53.39 52.81 52.77 53.91 54.69 55.53 57.55 59.31 59.29 58.32 54.60 38.11 53.87 62.87 63.43 64.47 61.50 57.10 54.47 51.95 47.85 44.81 43.54 46.71 41.34 45.55 47.24 48.47 49.58 47.70 45.99 48.71 46.38 47.16 47.48 50.16 49.70 50.41 52.18 54.44
53.84 53.45 53.22 53.28 53.07 53.04 52.62 52.33 52.97 54.07 55.16 57.06 58.25 58.87 55.05 47.09 46.82 56.20 62.60 63.46 61.45 59.02 55.03 52.58 49.25 47.18 43.39 44.45 45.25 41.85 43.72 47.09 48.36 48.40 46.63 47.96 46.59 46.28 47.05 50.17 50.86 49.79 50.89 50.44 50.86
53.05 52.83 52.45 52.85 52.38 52.32 52.19 52.00 52.78 53.68 54.48 55.73 56.50 58.51 50.63 40.80 54.09 57.94 59.41 60.14 59.08 57.77 55.29 54.19 51.13 49.80 45.29 44.56 43.73 44.74 45.70 45.40 46.76 46.50 46.59 45.83 45.26 45.45 46.27 49.26 49.13 49.17 48.29 48.89 49.95
52.37 52.00 51.95 52.18 51.83 51.72 52.03 52.17 52.34 53.07 53.47 54.21 55.39 55.01 47.91 44.14 53.36 57.20 58.72 57.65 58.58 57.66 54.27 55.89 54.82 48.43 47.28 44.63 47.14 45.77 42.29 43.58 44.92 45.33 44.91 46.33 43.33 42.23 47.28 48.28 47.02 46.92 47.23 48.53 48.86
51.64 51.33 51.19 51.31 51.23 51.28 51.29 51.54 51.72 52.20 52.78 53.69 54.33 53.27 43.86 53.30 53.66 53.69 53.93 53.10 55.87 57.72 57.02 57.70 55.77 49.61 47.14 46.95 45.34 42.23 41.12 36.21 42.73 44.75 45.67 45.07 38.34 43.90 46.93 44.69 45.27 45.78 45.93 46.89 49.09
51.03 50.85 50.78 50.76 51.00 50.74 50.76 51.66 51.92 52.35 52.72 52.99 49.36 50.13 41.82 56.34 49.92 51.77 52.06 50.92 52.00 55.87 56.61 57.32 54.51 48.30 45.67 41.03 37.16 38.41 32.26 35.80 39.32 44.86 44.22 42.34 37.78 45.09 48.46 45.41 43.96 44.40 45.08 46.05 47.53
50.54 50.40 50.34 50.55 50.41 50.15 50.52 51.04 50.75 50.65 49.78 50.57 49.33 44.24 46.74 45.51 50.68 51.60 51.34 51.89 52.26 53.38 51.89 50.70 49.12 44.56 42.52 38.72 31.20 34.18 33.67 34.51 36.00 40.66 41.03 39.65 38.97 43.22 44.28 43.99 43.70 43.36 44.26 45.11 46.33
50.00 49.90 50.10 50.22 50.32 50.64 49.49 45.80 37.78 40.13 44.28 40.83 43.10 43.89 45.49 50.06 52.57 50.28 50.97 49.63 52.51 49.52 44.19 46.94 42.48 39.98 42.22 41.76 40.25 39.26 37.78 36.32 37.15 40.96 37.48 36.35 35.66 38.67 41.73 40.50 40.58 42.89 43.29 44.25 45.57
49.79 49.57 50.08 50.24 50.66 50.94 48.14 40.53 40.33 41.86 36.27 43.61 43.54 45.27 49.14 49.35 44.66 48.24 51.64 47.50 46.82 42.73 45.14 42.09 39.30 43.76 45.08 44.31 42.67 40.75 35.20 34.20 36.86 39.68 37.21 35.64 35.24 39.18 40.90 41.89 42.67 43.42 44.46 44.89 45.26
49.45 49.89 50.01 50.31 50.56 47.69 43.05 42.61 47.22 44.68 35.26 38.37 41.85 43.56 46.14 48.29 43.97 44.72 48.92 47.52 43.39 40.87 41.06 38.93 39.96 44.86 43.67 41.88 40.01 37.15 32.99 32.33 33.02 36.35 35.43 33.93 33.72 35.02 38.14 40.12 41.36 43.38 44.57 44.68 44.91
49.57 49.95 50.24 50.45 46.23 44.85 40.79 47.62 47.27 44.63 30.39 34.98 40.57 45.68 46.83 47.23 41.85 49.54 51.49 46.85 43.35 39.52 40.28 38.46 41.30 42.47 41.05 39.15 36.92 31.50 36.94 36.69 34.93 31.36 25.76 33.11 23.69 29.73 34.61 36.11 38.14 37.74 38.11 40.67 42.72
50.20 50.56 50.88 50.66 45.18 42.71 45.17 47.75 45.92 42.40 19.83 37.52 41.78 50.15 46.87 42.75 43.83 44.69 51.11 46.72 40.66 40.65 39.54 36.02 38.23 36.94 35.64 38.07 39.44 34.54 38.09 35.60 34.07 29.24 26.35 26.78 23.79 27.85 31.94 33.73 35.75 37.27 38.48 39.59 40.15
51.29 51.29 51.04 48.46 46.77 47.33 47.25 44.69 42.25 25.08 20.18 32.82 40.77 40.95 40.34 41.81 42.62 45.59 45.61 47.35 46.96 41.68 40.22 37.75 41.55 39.80 37.73 39.11 38.83 39.07 34.80 32.50 31.36 27.17 16.84 24.94 24.99 24.58 28.87 32.74 34.04 35.62 38.16 38.98 41.34
51.49 50.68 48.75 49.19 43.57 48.44 47.23 39.23 21.94 19.00 31.98 31.96 37.40 40.18 38.78 38.06 39.92 41.63 39.94 38.66 36.32 32.91 33.14 36.90 36.32 38.99 40.32 35.35 37.92 35.11 28.57 18.01 15.47 19.13 18.56 27.81 24.97 26.39 33.33 36.87 36.67 38.19 39.48 39.46 41.07
50.17 49.45 49.26 49.38 48.52 47.48 42.55 33.58 18.72 27.55 28.19 37.58 38.51 38.45 35.97 38.25 39.15 39.40 37.87 35.00 38.13 34.36 29.52 27.90 28.02 35.10 37.70 35.30 33.04 32.23 29.62 19.13 14.95 16.34 19.83 28.17 24.00 28.51 35.78 38.36 38.23 38.44 37.99 39.04 39.57
48.42 44.63 45.99 48.51 48.75 46.52 38.36 24.04 23.90 30.52 34.41 37.28 37.49 33.95 34.30 36.95 37.98 37.35 36.24 35.37 36.68 34.69 28.48 25.67 27.57 37.43 38.13 38.50 37.02 32.23 25.63 31.56 23.54 21.96 15.54 22.59 26.02 31.74 35.27 34.99 36.71 37.10 39.99 40.55 41.08
41.05 40.55 44.14 49.46 48.64 43.69 34.86 30.37 32.10 36.90 39.68 37.87 31.14 33.50 30.09 33.75 34.24 34.81 34.30 38.00 35.70 37.79 36.45 32.90 26.38 35.74 37.84 40.34 39.40 34.30 35.44 23.62 18.46 8.52 13.66 19.60 21.14 25.50 30.26 33.43 35.50 36.14 37.33 38.84 41.17
39.44 36.44 42.91 47.98 47.81 39.36 30.95 31.35 37.13 41.52 41.71 37.37 33.55 31.72 32.57 32.26 33.60 33.34 32.84 36.08 37.85 36.57 37.27 35.05 29.51 30.13 36.71 31.68 30.24 31.86 29.60 29.07 27.02 21.56 15.95 17.25 22.52 31.02 31.48 33.68 34.46 36.46 37.67 39.07 40.91
37.06 28.42 43.66 46.12 34.46 33.59 32.10 35.91 40.29 40.10 41.53 39.09 36.60 35.11 32.36 35.33 32.63 32.67 31.46 33.58 39.13 38.67 33.94 36.13 30.60 20.62 29.40 34.09 35.77 33.21 30.37 28.88 18.31 16.07 20.96 18.85 24.04 36.25 34.76 34.64 37.01 40.46 41.79 43.32 45.47
35.35 35.01 43.37 42.43 33.54 35.01 38.70 39.28 41.47 39.56 39.30 38.54 35.85 36.86 36.60 33.50 31.01 32.32 34.06 38.31 39.94 38.84 35.65 35.92 26.28 17.57 25.60 29.26 32.85 29.99 31.80 31.75 29.23 27.87 15.99 19.59 23.48 35.99 35.79 38.99 40.91 42.55 44.83 45.86 44.86
35.86 28.25 35.03 41.21 37.27 33.55 34.92 35.58 36.81 41.06 39.68 38.33 36.64 37.75 35.89 33.81 34.79 33.29 33.82 37.92 41.62 41.28 44.16 39.70 29.77 23.33 20.59 24.50 27.38 21.90 30.09 31.88 28.90 22.08 22.99 24.80 28.64 34.04 36.80 40.02 42.71 43.79 45.49 43.62 43.89
35.77 35.61 36.39 29.20 34.06 35.57 36.53 36.27 35.31 36.07 39.69 39.66 37.18 37.56 37.49 33.95 34.58 34.04 36.04 35.29 39.52 42.28 40.09 35.33 22.63 22.07 27.91 30.83 30.04 28.95 29.76 30.86 27.42 29.94 23.86 29.14 30.19 34.87 38.91 40.67 43.16 44.85 44.03 43.62 43.32
35.43 36.32 38.63 34.96 36.33 34.06 36.05 34.86 36.07 37.41 37.92 37.26 36.42 39.67 39.36 36.31 35.02 33.08 34.90 33.41 33.22 37.09 33.99 34.11 24.42 27.16 25.55 31.05 30.81 26.49 31.03 31.52 31.90 31.95 32.12 32.28 32.31 39.63 42.98 45.24 41.08 40.88 40.61 41.08 43.07
42.52 42.15 39.59 36.23 34.66 33.11 33.64 35.74 36.87 38.12 39.50 40.64 39.47 39.63 38.98 40.00 40.16 39.07 38.46 38.11 36.70 34.30 32.96 32.56 28.30 26.65 22.89 28.32 29.11 27.00 31.61 32.95 33.18 34.27 34.23 33.27 38.82 43.26 42.62 42.20 38.66 38.94 37.67 34.96 36.59

GFSSW_sfc_wetblb_039.txt.gz
Wetbulb
56.14 56.00 55.70 55.38 54.96 54.28 54.84 53.86 53.65 55.28 56.33 57.33 58.58 60.62 59.56 59.20 58.67 55.39 50.33 54.61 57.62 62.84 64.00 58.44 56.61 54.85 52.63 49.44 49.25 47.02 39.31 36.51 38.09 39.28 40.80 45.04 44.35 47.90 49.20 46.70 47.46 48.15 53.57 56.43 60.71
55.51 55.81 55.88 55.39 54.88 54.88 54.43 53.87 53.35 54.35 55.48 56.06 57.30 59.31 59.50 59.30 54.05 50.84 55.75 60.46 62.23 62.70 58.76 54.03 51.50 51.89 47.57 47.44 47.33 43.29 37.99 39.72 44.14 44.02 42.78 45.80 45.45 46.68 47.02 45.84 45.29 49.61 56.59 59.79 60.64
54.49 54.77 54.82 54.91 54.38 54.49 54.06 53.80 53.19 53.24 54.09 54.81 56.33 58.35 59.71 57.16 47.51 47.44 58.63 61.17 62.97 62.76 59.66 57.45 54.15 50.89 45.94 45.40 44.94 43.63 39.54 43.96 46.21 47.70 47.79 45.72 45.91 47.83 45.09 44.26 45.07 45.56 50.49 54.41 58.40
53.78 53.80 53.79 53.76 53.92 53.62 53.87 53.39 53.05 52.83 53.19 54.24 55.69 58.00 59.13 53.72 36.34 51.59 60.81 61.44 63.76 61.41 57.38 54.13 51.25 46.76 44.44 42.80 45.92 41.17 45.03 46.36 47.58 49.12 47.15 44.36 46.81 45.19 46.71 47.16 49.13 49.40 49.98 50.51 54.17
53.19 52.99 52.94 52.98 53.16 52.70 52.89 52.86 52.72 52.69 52.96 54.22 55.65 57.09 54.87 46.26 45.50 54.71 60.73 62.13 60.48 59.31 55.26 52.46 48.43 46.88 43.43 44.32 44.43 41.71 43.36 46.41 47.62 47.80 46.08 46.68 44.60 44.82 45.66 49.58 49.17 49.83 49.81 49.29 49.31
52.53 52.18 52.04 52.21 52.15 51.96 52.03 52.09 52.28 52.32 52.82 54.02 55.04 55.63 51.14 39.91 52.18 54.85 54.94 58.52 58.58 56.98 54.05 52.58 49.29 49.04 45.74 44.13 43.43 44.52 45.32 45.37 46.13 45.86 45.88 44.87 44.42 44.54 44.60 48.02 48.30 48.02 48.57 48.21 48.45
52.11 51.62 51.23 51.40 51.63 51.47 51.41 51.82 51.84 52.20 52.46 53.30 54.01 52.31 49.11 44.46 52.27 53.78 58.12 58.18 58.57 57.04 53.42 54.39 52.62 48.34 46.49 43.57 46.29 44.36 40.68 42.26 44.03 44.57 44.37 45.20 42.13 41.22 46.20 47.45 46.42 47.43 45.68 47.27 47.85
51.45 51.19 50.81 50.76 50.92 50.98 51.04 51.39 51.52 51.42 52.16 52.87 53.07 50.07 45.28 53.58 53.09 51.66 55.90 56.30 57.62 57.42 56.26 56.81 55.75 49.36 46.00 46.02 44.31 41.53 40.00 35.66 41.75 44.47 45.07 44.15 37.47 43.47 46.12 44.33 44.24 44.70 45.37 45.67 47.04
51.00 50.79 50.56 50.62 50.59 50.73 50.24 50.76 51.44 51.63 52.16 52.40 48.54 46.88 42.93 55.24 49.09 50.82 51.93 51.80 53.77 55.71 56.88 57.26 53.27 47.84 44.78 40.16 36.58 37.36 31.96 34.78 38.83 43.99 43.04 41.55 36.63 43.55 45.99 44.67 43.78 44.68 45.88 44.97 46.34
50.64 50.38 50.07 50.06 50.31 50.34 50.70 51.18 51.26 50.00 48.82 49.52 48.35 44.54 46.82 44.97 49.76 51.19 51.18 52.77 52.14 53.00 52.06 51.37 49.37 42.93 40.33 38.77 31.45 34.07 33.10 33.54 34.74 38.83 39.96 38.88 37.66 42.83 44.72 43.45 42.42 42.80 44.15 45.29 45.39
50.29 49.62 49.89 50.13 50.37 50.87 49.17 44.81 38.72 38.95 42.19 37.31 40.66 41.96 45.76 50.32 52.03 49.74 50.40 51.18 51.92 48.92 44.85 47.67 43.40 39.05 40.02 40.36 38.26 37.68 36.23 34.24 36.61 40.00 36.40 35.96 35.03 38.25 41.28 39.79 39.31 40.78 42.75 43.92 45.31
49.94 49.62 50.09 50.36 50.51 50.69 47.21 40.34 40.57 42.55 35.61 42.31 43.18 45.63 47.34 50.50 44.22 47.21 50.99 46.84 46.53 42.88 44.76 42.88 39.48 43.35 45.26 44.03 41.84 41.08 35.83 33.53 36.43 38.67 35.89 34.76 34.02 38.48 40.54 41.41 42.61 43.02 43.49 44.29 45.46
50.80 50.48 50.41 50.58 50.64 46.98 43.64 41.37 46.83 44.13 34.40 38.07 40.69 41.97 44.66 48.41 44.03 44.59 48.30 47.85 44.47 42.81 41.67 38.75 41.20 45.65 43.20 42.28 40.79 40.13 35.62 32.32 32.76 35.60 34.12 32.63 31.24 33.88 37.64 39.06 40.02 42.17 43.79 44.45 44.48
51.80 51.65 51.16 50.71 46.45 45.79 40.10 46.60 46.50 43.79 22.01 33.17 37.40 42.72 46.53 47.09 41.87 48.67 50.07 47.64 44.13 40.45 41.11 39.65 41.58 43.25 42.10 40.42 40.48 33.39 36.03 36.02 34.05 30.93 26.34 32.95 23.82 30.13 34.70 35.49 36.55 37.48 37.82 39.96 41.11
51.55 51.39 51.16 50.74 45.59 41.27 45.23 47.57 44.07 42.09 18.16 37.11 39.62 50.08 46.58 41.59 43.12 45.18 51.27 47.11 40.67 40.90 40.26 36.94 38.80 40.17 39.14 39.79 38.99 35.13 37.32 34.79 33.25 28.69 25.22 26.21 23.58 28.77 31.42 32.96 35.14 36.78 37.37 38.17 39.48
51.34 51.43 50.45 45.91 46.17 46.42 45.79 45.89 41.57 26.55 20.29 32.17 41.18 40.75 40.38 41.49 42.60 46.12 45.61 48.04 46.97 40.69 40.24 38.29 41.76 40.08 36.99 38.82 38.86 38.78 34.32 30.89 29.96 26.68 17.08 23.99 23.85 25.65 28.81 30.90 33.16 35.45 38.90 37.78 38.31
51.13 51.25 48.73 48.65 41.64 46.92 45.34 39.73 25.44 20.80 31.69 31.60 35.54 39.23 38.73 39.02 40.90 41.64 39.97 39.16 37.57 32.78 33.01 36.42 36.18 39.43 39.96 35.04 37.20 34.09 28.30 17.41 15.23 16.46 17.31 26.46 24.46 27.62 32.36 35.52 35.67 36.47 36.27 37.52 38.69
50.75 49.83 48.88 47.69 47.01 45.25 42.41 31.94 18.78 28.98 28.84 37.09 38.65 38.42 35.81 39.41 39.24 39.39 37.22 35.30 37.92 35.80 31.54 28.41 27.91 35.10 37.07 34.39 32.80 31.12 28.76 19.03 14.51 14.93 18.86 26.40 23.55 28.55 33.81 35.03 36.21 38.42 37.56 39.67 40.53
48.52 43.78 46.92 47.52 48.43 46.72 37.91 25.58 27.40 29.71 33.10 37.24 37.62 33.84 34.16 37.40 38.53 37.90 35.60 35.42 36.32 34.08 29.63 24.88 27.31 36.57 37.59 37.79 36.28 31.87 23.89 29.86 22.51 20.28 15.20 22.95 26.09 30.91 34.72 34.95 35.17 36.37 37.63 37.66 39.12
40.03 41.65 42.52 48.16 48.16 41.47 33.36 32.25 32.85 38.05 39.88 36.04 30.71 33.00 30.31 33.32 34.77 35.37 34.11 37.77 36.21 36.83 35.68 31.42 26.87 34.83 36.99 38.98 37.85 33.40 34.52 23.39 18.26 10.90 14.01 18.61 21.09 24.46 29.27 31.83 34.95 35.34 35.99 37.61 39.30
38.80 35.15 43.74 48.01 44.93 39.28 30.33 31.74 38.24 41.29 40.71 35.96 32.47 31.33 31.73 31.47 33.91 31.78 32.74 36.01 38.60 36.13 37.17 33.82 29.90 31.77 36.30 31.55 30.44 31.20 28.79 27.67 26.38 22.00 16.40 16.65 22.15 29.67 30.16 31.94 34.15 35.99 37.53 39.08 42.20
36.11 28.03 43.05 46.44 36.28 34.81 33.79 36.93 39.75 39.16 40.58 37.67 36.05 34.50 32.24 32.95 32.02 33.24 31.92 33.84 38.76 37.94 33.29 34.57 29.36 27.08 30.49 33.15 34.84 32.75 29.91 28.02 17.30 16.28 19.37 21.22 22.96 34.69 32.50 34.17 37.09 38.12 41.82 45.05 47.03
34.14 33.93 42.01 42.03 32.81 29.83 36.80 38.44 39.44 38.52 38.16 36.94 35.01 36.00 35.33 32.62 29.56 32.65 33.60 37.92 39.09 37.49 34.85 35.06 25.42 17.67 24.69 28.21 32.13 29.16 31.05 30.10 27.34 23.29 12.55 16.34 22.61 34.92 34.50 37.91 40.09 43.07 44.75 46.34 45.70
34.55 29.01 34.29 37.17 36.18 32.68 33.80 34.40 35.46 39.75 37.76 37.31 35.68 36.49 34.57 33.18 34.25 32.41 32.53 37.48 39.43 39.36 43.32 38.71 28.62 22.87 19.73 24.17 27.32 22.61 29.36 30.42 25.73 20.05 21.45 23.30 25.91 33.78 35.49 38.28 41.10 43.94 43.62 44.03 44.54
36.08 35.38 37.30 29.29 33.32 34.25 34.52 35.23 34.70 35.00 38.38 37.88 35.12 35.83 35.33 32.42 33.23 32.62 34.25 34.72 39.59 43.06 38.69 34.88 23.60 22.75 28.05 30.19 29.57 28.52 29.51 29.78 23.98 28.11 22.73 26.16 27.91 33.18 36.86 39.29 41.95 42.39 41.93 41.68 41.53
36.29 36.52 38.83 36.23 34.60 33.99 35.11 34.17 34.97 36.42 36.92 36.12 34.60 38.66 37.83 35.29 33.92 32.56 34.05 32.91 33.64 36.04 35.78 33.26 24.97 26.48 24.70 29.93 29.52 25.77 29.86 30.42 31.12 30.98 30.14 31.45 31.16 38.43 40.59 43.48 43.41 40.37 40.00 38.57 37.10
42.16 41.99 39.16 34.10 32.65 31.72 32.48 34.60 35.74 37.13 39.81 41.22 40.52 39.78 38.66 39.56 38.90 37.33 37.16 37.13 36.13 34.14 32.31 31.73 27.11 23.16 21.43 26.80 28.78 25.01 29.63 31.24 33.08 34.23 33.83 29.62 35.18 40.98 42.54 43.74 38.50 38.92 38.04 35.31 35.22

GFSSW_sfc_wetblb_042.txt.gz
Wetbulb
55.47 55.54 55.82 55.66 55.84 55.92 55.62 55.38 55.30 53.76 53.68 54.64 56.16 57.13 58.70 60.34 59.76 55.60 51.34 53.92 56.94 62.16 62.31 57.69 57.83 55.82 51.93 48.72 48.39 46.15 39.02 35.84 38.19 39.11 41.00 44.14 42.92 47.11 48.26 45.12 46.31 47.34 49.44 55.46 61.10
54.93 54.84 54.60 54.55 54.69 55.03 55.20 55.20 54.69 54.34 53.42 53.67 54.90 55.85 56.94 59.19 54.70 51.30 55.87 60.14 61.56 61.75 57.70 54.52 53.36 51.54 47.59 46.80 46.69 42.68 37.81 38.97 43.23 43.11 42.40 44.41 44.53 45.51 45.97 45.43 44.20 47.39 55.30 58.91 64.00
54.08 54.03 53.95 54.06 53.92 54.27 54.24 54.27 54.26 54.07 53.56 53.15 53.52 54.90 56.05 57.44 48.85 47.14 59.42 60.71 61.52 61.45 59.14 55.98 54.05 50.75 45.67 44.96 44.21 42.90 38.29 43.21 45.30 46.57 47.54 45.17 45.13 46.55 43.83 43.21 44.66 44.50 47.57 53.55 57.27
53.41 53.22 53.33 53.25 53.31 53.32 53.39 53.40 53.56 53.39 53.30 53.21 53.28 54.34 56.66 54.44 39.42 49.13 58.26 60.77 61.56 59.31 58.13 54.78 50.58 46.89 44.28 42.07 44.96 40.55 44.57 44.85 46.77 48.19 46.85 44.02 45.38 43.37 45.57 46.12 48.47 48.72 49.10 49.10 51.83
53.01 52.83 52.68 52.34 52.40 52.46 52.57 52.84 52.69 52.92 53.05 52.80 53.19 54.36 54.31 47.07 44.92 53.95 59.65 60.68 57.72 58.04 55.86 52.62 49.12 46.24 42.80 43.66 43.88 41.78 42.93 46.10 47.35 47.27 45.78 46.08 43.77 43.81 44.27 47.86 48.68 49.32 49.10 48.42 48.06
52.64 52.11 51.77 51.66 51.54 51.60 51.81 52.07 52.01 52.26 52.35 52.46 53.17 54.17 49.44 41.76 52.76 53.39 53.39 57.49 55.49 57.22 54.97 52.64 50.25 48.93 45.79 44.22 42.77 44.44 45.05 44.91 45.92 45.57 45.04 43.72 43.19 43.46 44.08 45.94 46.65 47.10 48.10 48.12 47.81
52.22 51.73 51.45 51.14 51.26 50.98 51.33 51.57 51.76 51.52 51.87 52.38 52.72 51.30 47.72 45.29 52.97 52.90 53.78 56.71 56.68 57.57 53.67 53.62 52.20 48.52 46.19 43.20 46.10 43.92 40.15 41.57 43.15 44.29 44.00 44.57 41.15 40.60 45.77 46.64 45.64 45.66 45.76 47.53 47.79
52.15 51.56 51.16 50.76 50.54 50.92 51.21 51.12 50.99 51.38 51.64 51.66 52.02 49.52 42.62 53.53 54.48 52.39 54.71 56.15 57.69 56.85 55.69 55.62 54.19 48.72 45.25 45.27 43.45 40.70 39.54 34.93 40.85 43.71 44.54 44.08 35.64 42.49 45.50 43.81 44.02 43.83 43.34 44.17 46.96
51.95 51.33 50.73 50.44 50.20 50.48 50.46 50.64 51.20 51.62 51.50 51.44 46.77 45.46 41.95 54.00 49.60 51.48 51.10 54.46 55.54 55.51 55.76 56.41 52.38 47.36 44.82 39.55 36.37 36.68 30.90 34.27 38.39 43.12 42.05 41.08 35.76 42.22 44.02 42.26 42.32 42.70 42.64 43.77 44.54
51.39 50.19 49.60 50.28 50.30 50.52 50.79 51.05 50.88 48.99 48.15 48.94 47.29 40.74 45.29 44.41 49.40 50.19 51.90 54.66 52.76 52.91 51.24 50.12 48.17 42.32 40.92 38.94 30.42 33.33 31.73 33.26 34.75 38.02 39.21 37.81 36.54 41.25 42.62 42.74 42.19 42.58 42.68 43.05 44.02
51.41 50.98 50.36 50.16 50.43 50.72 48.82 44.41 38.66 37.78 41.10 36.09 38.16 40.64 45.08 49.82 51.92 49.47 50.50 52.10 51.93 50.08 44.66 47.01 43.41 38.85 40.15 40.09 37.50 37.19 35.15 33.29 35.82 39.03 36.00 35.72 34.37 37.62 41.34 39.39 39.31 39.92 41.38 42.84 44.78
52.04 51.84 51.43 50.66 50.52 50.67 46.09 38.97 38.50 41.55 33.40 41.47 41.44 42.53 46.07 49.83 43.85 47.36 51.30 46.70 46.39 42.71 45.23 42.97 38.97 43.25 43.58 42.19 40.67 38.44 34.97 32.46 36.12 37.76 35.16 34.36 33.64 37.71 40.54 40.78 41.27 42.01 42.48 43.53 44.47
52.18 51.80 51.73 51.32 50.44 45.97 43.55 41.34 46.31 44.14 33.93 37.53 41.17 41.66 44.14 47.83 43.43 44.51 48.17 47.70 43.70 42.60 42.03 37.36 42.04 45.76 43.79 41.97 40.04 39.23 35.92 32.85 33.09 34.94 33.08 32.01 31.70 32.96 36.76 37.94 38.79 40.29 40.96 41.43 41.95
52.34 52.20 51.39 50.69 44.92 44.31 40.73 45.32 46.49 42.93 26.17 31.41 36.66 42.69 45.94 47.15 41.26 48.49 49.87 47.54 44.39 41.12 41.57 39.58 44.75 43.06 41.40 40.01 41.49 35.34 37.03 36.15 33.81 30.77 26.76 31.97 24.16 30.56 34.01 34.26 35.33 35.00 36.16 36.94 38.35
52.13 52.24 51.16 50.12 43.40 40.56 44.63 45.06 44.59 41.79 6.77 34.66 38.58 48.78 47.62 42.36 43.01 44.67 50.99 47.15 41.52 40.90 40.67 37.35 40.67 41.37 39.64 40.13 40.80 37.18 37.81 34.58 32.64 28.51 25.77 26.53 23.65 28.55 30.49 31.96 33.97 34.61 35.82 36.83 37.68
51.59 51.34 49.98 44.97 44.30 45.01 47.32 44.13 41.45 21.24 17.16 32.87 40.41 38.80 40.53 42.03 42.73 45.74 45.78 48.15 46.69 41.25 40.44 39.09 42.26 41.01 39.19 39.56 40.16 37.92 33.57 30.95 29.68 26.53 17.05 23.37 23.05 25.18 28.14 28.94 32.66 33.88 35.76 37.84 39.13
51.14 50.64 48.48 48.05 41.16 45.39 43.71 38.28 22.93 17.24 30.99 31.37 34.09 39.17 38.60 38.85 39.80 41.14 40.42 39.38 37.56 32.49 32.84 36.36 36.76 39.07 39.73 35.13 37.63 34.33 29.92 19.57 16.33 14.70 17.56 25.99 23.83 26.47 30.96 33.89 33.61 33.47 36.46 37.37 38.59
51.32 49.27 48.35 47.42 47.00 46.14 42.81 29.28 16.68 28.24 24.30 37.03 38.44 38.89 36.57 38.15 39.27 38.99 38.10 35.91 37.87 35.20 32.35 28.26 28.96 36.12 37.92 34.56 32.73 30.57 29.12 20.39 15.38 15.40 19.12 26.24 22.78 27.29 32.83 33.74 35.08 36.32 36.11 37.66 38.41
48.85 42.53 44.21 46.45 48.58 46.77 36.52 26.29 27.09 30.16 33.46 37.07 37.13 35.25 35.03 37.48 37.92 37.77 35.65 34.21 35.63 33.86 30.22 27.92 28.24 36.38 36.92 36.97 35.78 31.12 23.55 28.81 21.39 19.15 14.51 21.27 25.10 29.23 32.20 32.81 33.73 35.31 37.57 37.21 38.50
39.22 41.28 42.88 47.01 46.57 41.23 34.85 33.23 35.30 37.83 39.66 36.18 31.36 32.86 30.83 34.94 35.59 35.05 33.60 36.57 35.32 35.93 34.62 30.78 26.81 34.07 35.93 37.68 36.33 32.67 33.26 22.84 17.48 10.72 13.33 18.33 19.90 22.85 27.74 30.10 34.03 36.39 36.09 36.95 38.92
38.12 34.17 41.51 45.79 43.02 37.43 31.28 33.04 36.50 40.34 39.15 35.00 31.55 30.92 31.67 32.03 33.13 32.38 31.81 35.52 37.16 35.77 36.13 32.65 30.03 31.63 34.14 30.78 30.06 30.62 28.07 26.43 25.24 20.98 15.77 15.78 21.77 28.52 29.64 31.34 33.51 35.27 36.70 38.45 42.71
35.35 30.42 41.63 44.17 35.45 35.88 33.24 36.11 40.09 38.44 39.60 36.32 35.31 33.63 31.17 31.59 30.17 30.55 30.74 32.91 38.44 38.02 32.73 33.28 29.77 25.80 30.49 32.46 34.00 32.02 29.54 27.20 17.32 15.80 20.47 19.17 21.14 32.93 32.72 33.20 34.86 36.45 40.62 45.97 46.00
33.69 33.50 41.17 40.69 31.43 28.90 34.52 36.77 38.50 37.70 36.76 35.49 33.91 35.06 34.49 31.72 29.17 31.41 32.91 37.41 38.87 36.65 34.13 33.89 25.68 17.75 25.10 28.21 31.59 29.05 30.56 29.43 26.76 23.34 13.95 15.15 21.86 33.68 31.81 34.34 37.60 38.66 43.79 42.98 42.25
33.81 28.38 34.00 36.47 35.98 30.87 32.02 33.52 34.43 39.19 36.62 36.54 35.02 36.16 34.12 32.33 33.79 31.55 32.32 37.37 38.42 38.03 42.54 37.58 27.94 23.01 18.98 23.96 27.39 23.42 29.45 29.36 26.16 17.49 20.85 22.20 24.62 32.51 34.28 34.62 38.56 39.75 41.38 42.24 42.49
35.41 34.20 36.79 30.97 31.86 32.47 32.96 33.87 33.50 34.12 37.52 37.05 34.63 34.30 34.39 30.72 32.04 31.35 34.01 34.75 38.18 42.25 37.20 34.27 22.57 21.68 27.56 29.22 28.80 28.37 29.31 29.02 23.85 26.82 21.34 24.43 26.17 31.69 35.02 36.64 38.40 39.93 41.79 41.18 39.81
36.44 36.24 38.61 35.49 33.06 31.50 33.85 32.89 33.85 35.06 35.33 34.01 33.63 36.98 36.60 33.17 32.26 31.13 33.02 32.13 32.19 34.60 35.66 34.09 26.10 26.53 23.39 29.59 29.31 26.39 29.63 29.93 29.72 29.47 28.54 30.63 30.07 37.95 38.65 38.57 40.28 42.30 40.26 38.55 35.69
41.44 42.13 38.69 33.87 31.24 30.73 31.46 33.75 35.28 36.38 38.19 39.53 39.68 38.90 38.12 39.10 37.27 36.21 35.92 36.13 35.54 33.45 31.61 32.16 27.21 21.36 17.70 26.73 28.24 24.82 28.62 29.86 30.46 33.04 33.47 27.85 33.99 37.81 37.07 40.21 42.07 39.19 38.14 35.90 34.37

GFSSW_sfc_wetblb_045.txt.gz
Wetbulb
55.47 55.40 55.14 54.70 54.71 54.91 55.06 55.44 55.92 55.57 55.10 54.32 53.76 54.54 56.02 56.87 57.95 56.95 51.44 54.87 56.92 61.65 61.35 58.43 59.42 58.10 53.43 50.46 50.19 48.97 43.08 38.70 41.56 40.76 43.76 46.72 46.03 50.27 51.19 49.63 50.28 51.98 54.01 58.18 62.28
54.66 54.71 54.33 54.20 53.94 53.99 54.17 54.29 54.73 54.77 54.69 54.55 53.87 53.60 54.52 55.63 52.55 51.91 56.72 60.30 61.08 61.26 57.09 54.36 55.04 53.00 49.60 48.40 48.25 46.59 41.77 41.14 44.77 45.85 44.77 46.92 47.88 49.30 49.65 48.28 49.29 51.88 53.94 62.02 64.46
54.13 53.94 53.87 53.73 53.45 53.45 53.42 53.53 53.66 54.12 54.16 54.18 53.74 53.36 53.44 54.35 49.28 50.42 60.81 61.35 61.65 61.07 57.45 57.15 55.96 52.01 47.49 47.11 46.32 44.68 41.35 44.53 46.30 46.97 48.52 47.52 47.85 49.72 48.26 47.05 49.26 49.21 51.72 57.51 62.46
53.93 53.62 53.18 52.94 52.81 52.76 52.74 52.68 53.07 53.10 53.24 53.49 53.39 53.26 53.15 52.31 40.08 50.48 59.45 62.00 61.71 59.06 57.48 54.91 52.82 48.61 45.55 43.49 46.40 42.97 45.30 45.84 47.93 49.23 48.38 47.18 48.85 47.39 48.47 49.40 51.48 52.25 52.39 52.42 60.59
53.37 53.16 52.69 52.30 52.18 51.95 51.81 52.22 52.27 52.34 52.48 52.78 53.02 52.60 50.42 47.12 46.66 54.13 57.33 57.11 58.59 56.79 54.38 52.39 50.24 49.28 45.44 44.77 45.03 43.59 44.85 47.11 48.69 48.23 47.91 48.22 46.63 47.23 46.92 50.00 51.21 51.11 51.59 52.06 52.33
52.95 52.78 52.50 52.04 51.75 51.30 51.34 51.35 51.65 51.96 52.02 52.16 52.54 52.57 46.89 41.96 53.08 53.99 53.41 55.47 55.96 55.30 54.53 53.09 50.58 50.45 47.13 45.54 44.57 45.84 46.11 46.25 47.29 47.21 47.37 45.46 45.50 46.10 47.53 49.16 49.07 49.13 50.61 51.12 51.56
52.57 52.43 52.13 51.59 51.24 50.90 51.15 51.42 51.58 51.32 51.40 51.92 52.22 49.83 45.18 44.65 53.22 54.63 53.42 54.97 55.81 55.94 54.00 54.13 53.16 49.32 47.21 44.13 47.08 45.25 42.42 44.41 45.10 45.81 45.67 46.59 42.64 42.42 48.02 48.85 48.43 48.90 48.79 50.25 50.96
52.13 52.12 51.75 50.82 50.71 50.47 50.86 50.72 50.79 51.08 51.31 50.97 51.14 47.99 40.73 52.71 54.47 53.27 53.44 54.38 56.29 57.99 56.88 55.84 53.70 49.20 47.20 46.97 44.82 42.15 42.20 37.15 43.10 44.60 45.64 45.60 37.46 44.58 47.46 46.70 47.01 47.67 47.82 47.27 49.07
52.78 52.42 51.60 50.07 50.50 50.46 50.69 50.86 51.10 51.68 51.18 50.36 46.99 44.41 39.68 53.68 50.27 52.71 52.99 50.51 54.45 55.69 55.39 56.03 52.98 48.92 46.43 40.90 38.57 39.48 33.56 35.57 39.45 44.39 43.87 43.25 38.63 44.40 46.62 45.52 45.65 46.28 46.65 46.53 47.49
52.92 52.72 52.00 51.32 50.19 50.53 50.91 51.44 50.90 48.38 48.33 49.02 46.91 39.74 43.99 44.12 49.47 50.57 51.89 53.40 52.67 52.77 50.96 50.08 48.05 43.29 41.65 38.82 31.77 34.76 33.97 36.13 36.16 40.34 41.62 40.01 39.32 43.37 44.49 43.26 43.86 44.81 45.81 46.88 46.87
52.85 52.44 52.17 51.89 50.60 50.38 48.04 43.04 36.70 37.23 40.96 35.67 36.91 38.29 44.17 49.56 51.83 49.25 51.20 52.88 51.74 49.12 43.25 46.57 41.17 37.30 40.65 40.52 38.84 38.22 36.33 35.70 38.25 40.42 39.04 37.98 37.29 39.91 42.57 42.30 42.24 43.23 44.47 45.54 46.65
52.58 52.34 52.19 51.96 50.87 49.70 45.40 37.67 37.95 41.08 33.01 40.88 41.19 41.68 44.33 45.60 44.41 47.47 51.57 48.00 47.32 41.85 45.01 42.86 37.65 42.14 43.58 41.99 39.74 38.59 35.90 35.38 38.40 39.09 38.15 35.92 35.35 39.49 42.17 42.34 42.76 42.90 43.28 44.01 45.15
52.43 52.19 51.84 51.18 50.41 45.48 41.92 40.56 45.92 42.99 32.94 37.03 40.85 41.03 42.34 47.10 43.79 44.41 48.48 48.12 44.55 39.76 36.53 38.60 41.83 44.66 43.00 41.29 39.63 38.72 36.49 35.12 35.89 36.72 36.10 34.02 34.51 36.09 39.29 39.83 40.36 39.52 39.34 40.61 42.34
52.29 51.86 51.44 50.81 44.65 43.35 39.58 46.34 45.69 42.56 18.60 30.71 36.64 41.92 44.19 46.50 42.03 48.70 49.90 47.58 44.33 37.82 38.25 37.01 45.20 43.36 42.05 40.26 41.49 36.45 38.69 37.13 35.03 33.82 30.17 34.01 28.28 33.44 35.34 36.10 36.50 38.33 39.31 40.34 41.75
51.94 51.43 50.72 49.56 42.61 40.48 44.70 44.87 43.42 39.58 13.48 33.16 38.01 47.51 47.21 42.65 43.14 44.79 51.12 47.49 41.27 40.30 41.30 36.81 41.49 41.29 38.99 39.99 42.48 37.37 38.89 35.73 33.64 30.87 30.29 29.84 28.26 32.02 33.75 34.45 35.05 37.59 39.16 40.71 42.02
52.23 50.97 50.16 45.77 44.66 45.01 45.92 44.36 40.64 18.55 18.54 32.17 39.69 39.61 40.42 41.68 43.39 45.81 45.99 48.22 45.96 41.04 40.56 38.73 42.85 41.97 39.95 40.29 41.54 38.23 34.35 32.18 30.94 29.38 25.13 27.11 26.98 28.91 31.73 34.08 35.07 37.57 39.23 40.04 41.17
52.02 50.59 47.38 47.61 41.61 45.69 43.99 38.10 19.01 19.28 29.15 31.92 34.02 39.05 38.85 38.13 40.18 41.34 40.40 39.78 37.35 32.93 33.19 36.66 36.96 39.47 41.28 37.53 38.27 35.94 33.83 25.57 21.89 21.19 24.11 27.77 26.07 29.71 33.60 36.14 37.16 37.86 38.98 40.06 40.79
51.04 48.71 47.48 46.80 45.94 47.27 43.68 27.92 19.73 29.44 29.53 37.35 38.62 39.28 36.70 38.31 38.53 39.06 37.88 35.72 37.47 36.03 32.40 30.49 29.56 36.36 38.30 36.42 35.47 33.23 32.46 26.40 20.32 19.75 22.44 27.44 24.38 30.42 35.00 36.14 38.86 39.46 38.95 39.52 41.63
48.17 42.47 44.74 44.90 48.48 47.01 38.38 28.99 27.47 24.90 33.93 37.31 37.35 33.55 34.86 36.84 37.50 37.48 34.20 34.95 35.43 35.81 32.14 29.11 29.35 37.60 37.94 38.06 36.99 32.77 29.26 30.79 23.26 22.02 21.27 24.80 27.64 31.51 34.92 35.31 37.20 38.15 40.26 40.75 42.41
38.69 38.01 39.79 45.74 45.54 40.95 34.25 33.22 35.17 37.30 38.25 35.28 31.01 32.98 31.25 34.39 35.17 34.88 34.62 37.14 35.24 36.21 35.95 32.66 28.87 35.28 36.52 38.53 36.81 34.13 33.83 26.56 23.64 17.66 18.33 21.57 22.46 26.47 30.44 33.72 36.06 38.03 38.84 40.06 42.84
37.22 34.99 40.65 44.85 42.34 36.78 30.57 32.45 36.97 39.90 38.36 34.21 31.26 30.92 33.13 33.36 33.17 32.24 32.05 36.56 37.42 36.12 36.07 33.86 32.09 32.12 36.00 32.83 31.12 31.70 29.73 27.82 26.71 23.23 19.76 19.18 24.47 30.82 32.73 34.86 35.38 37.16 38.79 41.08 45.12
34.81 31.63 41.40 43.17 33.91 35.28 34.27 36.50 40.08 37.83 38.53 35.76 34.76 33.06 31.13 31.79 30.25 30.64 30.22 33.92 38.73 38.12 33.30 34.35 31.97 29.36 30.53 33.54 35.01 33.48 30.46 28.07 22.37 19.72 21.70 21.34 24.15 34.67 34.06 35.51 36.22 37.56 39.73 44.93 44.89
33.08 32.93 40.29 40.66 27.94 26.27 33.48 35.62 37.73 36.22 35.38 35.02 33.53 35.12 34.36 31.38 29.44 31.74 32.67 37.32 38.73 36.80 33.99 34.28 27.27 23.17 27.89 30.54 32.57 30.71 31.08 29.42 26.75 24.74 20.32 20.10 24.59 34.98 35.12 36.23 37.98 38.18 41.27 43.94 44.08
32.79 27.24 33.78 36.11 33.78 30.26 30.60 32.64 33.60 38.24 35.70 35.81 34.14 35.11 33.38 31.41 33.18 30.86 31.83 37.00 37.98 38.41 41.50 37.43 28.79 24.83 21.06 25.87 29.18 25.41 30.01 29.62 27.45 22.06 22.70 23.35 25.79 32.14 34.88 35.30 37.93 39.53 41.55 43.38 42.33
33.79 33.62 36.68 30.70 31.24 31.55 30.92 32.62 32.23 33.36 36.77 36.16 33.82 33.67 33.19 29.92 31.41 30.64 33.15 34.51 38.02 41.70 36.57 34.25 23.62 22.71 28.25 29.95 29.45 29.16 29.90 29.13 25.49 27.37 24.59 26.18 26.73 32.60 34.83 36.33 38.28 39.21 42.65 41.63 37.94
33.99 35.28 38.07 35.33 32.11 28.69 32.65 31.01 32.77 34.32 34.75 33.07 32.91 35.47 34.87 31.74 31.44 30.68 32.76 32.30 32.58 34.33 33.57 32.82 28.41 26.27 24.32 30.13 29.62 27.36 30.18 30.50 30.25 30.05 28.81 30.11 30.33 37.87 39.11 38.46 39.01 42.20 40.48 38.61 35.73
41.04 41.83 38.50 33.05 29.77 28.71 30.08 32.01 34.20 35.47 37.10 38.61 37.32 36.40 35.90 37.49 36.75 35.59 35.12 35.73 35.31 33.61 31.76 31.90 27.68 22.20 19.21 27.22 28.31 25.21 29.07 30.00 30.49 31.64 32.26 28.14 33.60 37.47 37.12 38.42 40.78 40.49 37.77 35.85 34.49

GFSSW_sfc_wetblb_048.txt.gz
Wetbulb
55.39 55.21 54.94 54.83 54.62 54.60 54.50 54.53 54.90 55.03 55.49 55.89 55.42 54.51 54.28 55.13 55.72 53.33 52.75 56.43 57.79 61.60 61.88 57.66 57.07 59.60 56.56 54.21 54.66 54.70 48.04 45.22 46.71 46.93 48.63 51.76 50.75 52.98 54.01 52.75 53.82 55.17 56.42 61.53 64.39
54.99 55.10 54.73 54.30 54.10 53.77 53.73 53.86 54.00 54.17 54.69 54.78 55.02 54.46 53.73 54.09 51.30 48.96 55.91 61.17 61.32 61.01 57.56 53.99 54.64 56.85 52.16 52.10 52.26 49.83 45.89 46.18 50.27 50.58 48.96 50.07 51.07 52.34 52.13 52.28 52.90 54.49 58.13 64.29 65.84
54.62 54.61 54.17 53.98 53.57 53.30 53.16 52.98 53.20 53.44 53.74 53.91 54.55 54.31 53.48 52.78 47.23 50.07 60.83 62.22 62.19 61.26 57.85 56.70 57.20 54.95 50.48 51.49 50.63 49.49 45.61 49.04 48.98 50.33 50.17 50.40 51.01 53.41 51.69 50.56 52.70 52.76 55.87 61.56 64.18
54.22 53.97 53.64 53.61 53.18 52.89 52.66 52.52 52.59 52.68 53.01 53.18 53.67 53.62 52.90 49.65 37.36 54.15 60.18 62.89 62.41 60.15 57.39 55.38 54.54 50.82 48.79 46.65 50.52 45.96 48.68 49.26 50.10 50.82 50.37 49.99 52.43 51.05 52.09 52.07 55.04 56.28 55.96 56.56 62.89
53.82 53.23 53.00 53.18 52.83 52.45 52.19 51.90 51.88 52.20 52.23 52.73 52.86 52.96 50.43 43.49 44.87 55.77 56.87 56.60 59.85 58.10 54.79 53.52 52.09 50.71 47.01 48.60 48.91 47.02 48.01 49.35 50.55 50.93 50.84 51.41 50.43 50.70 51.35 54.31 55.29 55.31 55.14 55.89 56.31
53.28 52.90 52.74 52.70 52.29 51.88 51.47 51.58 51.76 51.75 51.54 52.23 52.24 52.07 47.07 38.05 53.42 56.31 54.86 55.78 56.96 56.45 54.35 54.72 52.27 53.06 49.37 48.75 47.26 49.07 48.49 48.96 49.94 49.89 50.00 48.57 49.55 50.02 51.52 54.26 53.67 53.94 54.19 55.30 56.24
53.92 53.44 52.97 52.23 51.54 51.09 51.27 51.25 51.48 51.10 50.84 51.33 51.77 50.25 45.10 42.57 54.67 55.96 54.82 53.85 57.60 55.79 53.08 56.02 55.36 51.97 50.95 46.94 50.55 48.79 45.47 47.46 48.25 48.69 48.00 49.89 46.10 46.60 51.91 53.21 51.98 52.57 53.48 54.46 55.60
53.92 53.64 53.18 52.18 50.34 50.50 50.87 51.28 51.22 51.13 51.06 50.91 51.26 48.88 41.03 51.56 54.96 53.94 54.29 53.54 58.01 57.10 56.47 57.45 57.02 52.52 49.87 50.56 47.94 45.41 45.10 40.49 46.20 48.18 48.57 48.04 41.30 46.89 51.37 51.20 50.75 51.90 52.60 53.40 54.31
53.86 53.36 53.04 52.33 51.32 50.36 50.77 51.40 51.71 51.77 51.25 50.04 47.37 45.67 39.50 53.74 49.69 52.82 54.47 51.26 55.21 55.39 56.91 56.55 55.28 50.50 48.15 44.25 41.19 43.34 37.43 39.06 41.45 47.80 46.78 46.22 42.01 47.35 50.20 49.77 49.76 51.06 51.92 52.48 53.17
53.29 52.93 52.79 52.49 51.76 50.14 50.77 51.31 50.00 49.38 50.06 49.10 47.12 40.69 44.33 44.58 50.73 51.86 54.02 53.95 52.58 51.98 51.39 50.26 49.51 45.78 45.52 42.06 33.78 37.28 37.65 39.48 39.00 43.65 45.61 44.04 43.40 46.96 49.69 49.09 49.21 50.22 51.08 51.86 52.32
53.03 52.49 52.32 52.02 50.94 49.83 49.89 48.01 43.06 41.23 43.55 38.20 38.76 39.29 43.51 48.26 52.86 50.00 53.28 51.45 52.00 49.75 42.84 46.71 42.61 40.02 42.87 43.88 42.24 42.03 39.72 38.30 41.42 42.95 42.60 42.84 43.33 45.62 48.21 48.74 48.53 49.51 50.54 51.12 51.96
52.52 52.28 52.26 51.74 50.98 50.89 49.27 42.41 41.19 43.18 35.90 42.51 42.07 42.12 44.63 46.33 44.73 47.61 52.59 47.13 46.84 41.36 45.15 42.37 38.97 44.45 46.01 44.88 42.44 41.07 39.12 38.81 41.20 42.04 42.26 41.68 41.41 45.31 47.03 47.32 46.98 46.45 47.38 48.57 49.30
52.36 52.22 51.81 51.49 50.61 48.82 45.60 43.21 47.99 46.13 37.06 37.99 41.16 40.76 43.09 46.34 44.22 44.66 49.41 47.43 44.62 41.39 42.77 39.58 41.86 45.38 44.48 43.03 40.73 40.58 38.77 39.20 39.04 40.44 40.30 39.89 40.37 41.10 41.94 43.32 44.57 45.14 44.95 46.25 47.59
52.96 52.13 51.05 49.72 47.08 47.39 43.98 48.27 48.44 46.81 32.21 31.77 37.71 42.35 44.92 47.01 42.92 49.09 49.85 47.45 40.14 38.14 39.15 39.87 45.16 43.53 41.99 41.27 42.62 37.49 42.58 41.45 39.35 38.72 35.69 38.84 34.85 38.27 39.50 40.52 42.93 45.03 45.94 47.22 48.97
52.74 51.75 50.35 50.09 46.94 43.52 45.81 48.24 47.93 43.86 22.13 32.81 38.40 47.21 46.77 42.81 43.85 45.52 51.32 48.03 38.30 38.97 40.47 37.00 40.60 41.96 40.79 41.72 44.36 38.81 42.18 40.09 38.51 38.12 36.62 35.90 34.65 37.10 39.36 38.02 40.71 43.83 45.63 47.39 49.05
51.68 51.65 49.50 48.63 47.61 46.28 48.22 47.55 44.48 31.17 22.22 32.68 38.94 39.79 40.43 42.49 43.58 46.10 45.97 48.86 47.47 42.63 41.80 38.78 43.83 42.22 40.27 41.02 43.45 40.97 38.70 36.93 36.48 36.53 32.39 34.41 33.31 34.88 36.99 39.11 40.75 43.48 45.84 46.91 48.68
51.47 51.19 49.20 49.49 44.27 48.95 48.36 42.96 32.04 26.68 33.50 32.72 35.66 39.82 39.50 39.07 40.31 42.48 40.94 41.64 40.16 34.72 35.30 37.45 37.19 40.54 41.94 36.84 39.29 39.57 38.42 32.06 30.74 30.16 30.88 31.88 30.89 36.64 38.97 40.59 42.76 43.21 45.20 47.25 48.95
51.46 49.20 48.77 49.13 49.03 48.67 46.26 36.24 27.98 30.97 32.18 37.75 39.15 39.72 36.00 38.96 38.74 38.89 38.63 37.89 40.57 40.37 35.89 33.67 30.32 37.07 39.02 39.41 37.39 36.96 37.40 33.60 26.10 26.16 29.08 30.82 29.01 35.60 40.29 41.55 43.96 44.01 45.03 45.72 48.75
48.73 48.60 48.96 49.11 49.94 49.92 41.08 32.03 30.56 32.60 35.13 37.21 37.92 35.63 35.41 38.47 38.76 37.86 36.60 37.44 38.96 40.52 35.41 33.51 32.50 39.09 39.65 40.35 41.08 36.18 34.68 35.31 30.05 28.24 28.82 32.66 33.93 37.49 38.73 40.28 41.79 43.84 45.64 46.68 48.59
46.79 45.49 46.17 49.08 49.67 46.22 40.99 33.88 36.55 38.41 40.34 38.74 33.11 35.89 33.13 34.95 36.02 36.37 36.07 39.18 37.78 39.82 39.89 36.63 30.97 37.05 38.00 40.98 39.60 38.69 38.40 32.24 32.96 25.74 25.45 29.85 29.99 33.96 35.93 38.43 40.79 43.17 44.99 46.45 48.80
45.54 43.97 46.39 48.14 48.59 45.04 33.41 34.44 38.22 41.97 41.07 37.51 35.52 35.01 36.25 34.64 36.48 35.55 35.25 38.64 40.29 39.18 40.42 39.40 36.93 33.16 37.77 36.47 35.56 34.88 34.82 33.15 33.89 30.72 27.20 26.98 30.89 37.63 39.00 40.88 40.23 42.66 45.08 46.94 48.49
43.67 42.69 47.05 48.18 42.98 41.32 38.36 38.78 40.84 40.76 41.63 39.68 39.62 38.09 36.96 36.75 35.72 35.76 35.80 38.11 42.00 41.26 37.39 38.51 37.43 31.82 33.14 36.62 38.39 37.59 35.73 35.34 31.79 27.64 28.72 28.53 32.64 39.45 40.92 41.59 41.62 43.30 45.58 47.77 48.60
41.24 41.61 47.48 47.07 39.27 39.18 39.09 38.99 40.56 39.49 38.82 38.70 37.42 39.07 38.76 36.52 34.49 36.36 36.81 40.18 41.63 40.38 38.66 39.20 34.50 28.83 29.94 34.08 36.04 34.37 35.38 34.50 32.54 32.11 28.27 28.76 32.35 39.61 40.89 41.31 43.44 44.08 46.00 47.73 47.13
41.81 39.67 43.84 44.03 41.47 39.41 37.58 37.62 37.54 41.47 39.34 39.31 38.42 39.46 37.60 35.84 37.77 35.31 36.24 39.55 41.08 41.54 41.14 40.81 33.68 32.67 29.75 30.99 34.91 31.86 33.48 34.07 34.01 30.35 30.51 31.08 33.54 38.14 39.93 41.26 44.28 45.16 46.16 47.54 45.30
41.05 35.27 37.34 38.18 39.07 38.32 38.21 38.01 36.77 36.52 40.63 40.36 38.18 38.23 37.42 34.45 35.26 34.83 37.33 38.35 40.73 41.60 39.71 39.35 32.50 31.07 32.41 33.58 33.14 32.86 33.22 32.97 30.38 33.96 31.79 33.44 33.01 38.02 40.41 42.58 43.90 44.57 46.50 45.26 43.03
37.83 35.86 38.83 37.66 37.23 37.36 37.37 37.42 36.93 38.17 38.89 37.15 37.03 39.11 39.43 36.45 36.85 34.82 37.29 37.84 37.46 39.57 38.04 37.63 31.73 31.47 30.17 32.60 32.58 30.70 33.73 34.48 33.91 34.55 34.11 35.26 34.92 42.35 44.15 43.89 44.23 45.62 44.54 43.02 40.64
42.79 42.51 39.01 36.75 36.38 37.18 38.07 37.59 38.02 39.35 40.84 41.51 40.74 40.22 38.77 40.02 41.80 41.64 42.47 41.95 41.13 38.76 36.90 36.59 33.18 31.56 28.98 30.65 31.30 29.64 32.85 33.73 34.72 35.87 36.04 32.49 38.21 42.44 41.86 42.42 43.51 44.86 42.69 40.77 39.18

GFSSW_sfc_wetblb_051.txt.gz
Wetbulb
55.49 55.73 55.64 55.41 54.84 54.68 54.41 54.24 54.23 54.46 54.62 55.18 55.59 56.06 54.89 54.28 54.50 52.04 49.55 56.58 59.66 60.90 61.41 56.89 56.95 58.89 59.70 55.38 56.28 56.48 48.60 46.55 48.44 49.26 50.96 54.98 53.03 55.52 55.92 53.89 54.34 55.20 56.61 62.48 65.26
55.09 55.35 55.11 54.83 54.49 54.16 53.92 53.68 53.80 53.62 53.98 54.31 54.80 55.04 54.75 53.74 50.61 48.21 56.24 60.95 62.38 60.81 58.19 53.42 53.65 56.62 53.70 53.12 53.15 50.78 47.89 48.12 52.26 52.43 51.32 53.80 52.74 53.56 52.41 52.39 52.73 54.19 58.69 64.56 65.70
55.08 54.89 54.67 54.12 53.92 53.87 53.50 53.41 53.02 53.07 53.30 53.58 53.99 54.61 54.51 53.15 46.47 46.69 58.54 61.46 62.89 61.54 58.72 56.99 55.87 55.49 50.03 52.18 51.43 49.91 46.06 50.41 51.52 51.15 51.64 52.02 51.88 53.65 52.22 50.64 53.14 53.17 56.02 61.37 64.35
54.55 54.19 54.03 53.50 53.59 53.46 53.24 52.90 52.55 52.45 52.68 53.00 53.40 53.52 53.49 51.25 36.01 50.76 60.88 61.82 63.15 60.89 57.04 55.03 53.95 51.24 48.68 47.02 51.18 46.82 49.73 50.23 51.41 51.17 50.06 49.78 52.61 51.43 52.67 53.02 55.57 55.85 57.63 57.58 62.28
53.83 54.37 54.52 53.96 53.51 53.06 52.71 52.42 52.07 52.39 52.20 52.69 52.78 52.59 50.21 44.36 44.35 56.13 59.26 62.09 60.55 58.51 54.84 53.14 50.65 51.04 47.10 48.63 48.79 47.37 49.47 50.79 51.39 51.15 50.85 51.38 50.37 50.91 51.92 55.04 56.31 56.66 56.43 56.40 57.14
54.42 54.41 54.30 53.90 53.20 52.56 52.02 51.85 51.68 51.98 51.91 51.96 52.25 51.70 46.80 38.74 52.14 52.79 55.74 57.27 57.72 56.82 53.81 54.38 51.58 53.55 49.35 48.51 47.32 49.38 49.79 49.76 50.70 50.24 51.00 49.44 50.26 51.64 52.66 55.35 54.71 54.75 54.87 55.50 56.18
54.58 54.26 53.88 53.26 51.76 51.94 51.20 51.17 51.41 51.60 51.37 51.17 51.43 50.18 44.85 43.58 53.15 55.48 55.87 55.11 57.17 56.96 52.47 54.76 54.37 52.19 51.66 47.53 50.99 49.40 46.11 48.00 49.08 49.58 48.75 50.55 46.87 48.17 53.09 54.16 53.00 53.17 53.90 54.50 55.00
54.33 53.77 53.45 52.99 52.25 51.47 50.87 51.02 51.16 51.19 50.94 51.15 50.99 48.96 41.02 51.43 53.02 52.17 54.94 54.60 57.29 58.67 55.63 56.46 56.20 52.92 50.24 51.01 48.53 45.32 45.92 40.46 46.96 48.52 48.90 48.11 41.66 49.01 52.67 52.13 51.45 52.23 52.69 53.03 53.91
54.15 53.51 53.14 52.73 52.16 51.62 50.28 50.85 51.68 51.56 51.21 50.32 47.78 45.86 39.66 53.10 48.83 51.41 55.26 51.12 55.30 55.95 55.99 56.94 55.29 50.42 49.55 45.04 41.77 43.24 37.76 40.07 42.80 48.24 47.64 46.33 42.94 48.66 51.17 50.56 50.49 51.56 52.21 52.57 53.37
53.75 53.07 53.10 52.47 51.37 51.22 49.82 50.45 49.82 49.92 50.60 49.67 47.90 41.34 44.44 43.58 49.81 52.33 55.17 52.33 52.57 52.66 51.80 50.77 48.88 45.30 45.47 42.53 34.30 37.26 38.10 40.47 40.09 45.18 46.09 44.70 44.10 47.71 49.42 49.41 49.70 50.82 51.64 51.98 52.42
53.47 52.83 52.43 52.03 51.32 50.07 50.46 48.97 44.23 42.15 44.78 39.54 40.18 40.40 42.98 48.46 51.78 49.76 51.86 51.23 51.84 49.51 43.12 47.35 41.79 38.80 42.42 43.95 43.14 41.80 40.47 39.39 42.27 45.15 44.16 43.05 44.13 46.05 48.55 49.17 49.14 49.85 50.56 50.93 51.65
53.17 52.57 51.93 51.59 51.42 50.03 50.42 43.67 42.63 44.66 37.19 42.87 42.29 42.39 45.27 46.08 44.32 48.63 53.00 47.25 46.11 41.55 44.87 42.56 38.31 44.63 45.73 45.12 43.19 41.48 39.78 39.39 42.35 44.21 43.08 42.74 42.45 45.84 47.43 48.00 49.13 49.52 49.96 50.97 51.64
52.45 52.29 51.45 50.70 49.82 50.20 46.81 44.95 49.56 47.62 38.22 39.22 42.37 41.87 42.54 45.27 44.00 45.14 48.72 47.57 44.08 41.63 42.05 39.54 40.18 45.55 44.18 42.53 41.14 40.54 38.68 39.51 39.62 42.25 43.59 41.94 40.11 42.58 43.70 45.67 45.86 46.66 47.44 48.10 48.93
52.14 52.79 51.35 50.79 47.92 48.23 44.27 48.66 49.68 48.70 34.10 33.91 38.37 40.95 44.92 46.11 42.73 49.39 49.49 46.89 41.67 41.15 42.78 40.92 44.70 43.19 42.86 41.26 42.62 37.72 43.15 42.15 40.95 39.03 34.85 42.16 34.11 41.29 41.34 42.33 44.48 46.04 47.27 48.49 49.98
51.92 52.13 51.00 51.25 48.58 44.78 46.02 49.03 49.04 46.17 22.79 36.20 38.04 47.63 46.50 43.28 44.19 43.50 50.06 45.95 39.72 39.79 40.63 36.44 40.96 41.09 40.73 42.19 44.19 40.39 44.82 42.38 41.23 39.46 38.43 38.40 35.86 39.09 40.99 39.45 42.00 45.16 47.12 48.77 50.23
51.45 51.96 51.18 50.40 49.75 48.11 49.97 49.80 46.12 32.16 24.34 33.27 39.44 40.58 40.27 42.65 43.92 45.02 45.82 48.47 47.31 40.15 40.57 39.45 43.25 42.77 42.51 43.04 44.37 44.50 41.60 40.54 40.01 38.51 32.97 38.30 36.69 35.48 37.36 40.20 42.09 45.03 47.13 48.46 49.80
51.04 51.80 50.58 50.77 46.49 50.80 50.38 45.05 32.67 28.57 35.60 33.35 37.12 40.78 38.89 39.07 41.21 40.83 39.80 39.53 36.88 33.18 33.84 35.48 35.63 41.36 42.32 39.11 41.39 41.88 39.39 32.32 30.89 31.34 31.43 35.58 34.14 39.46 41.56 43.50 44.08 44.84 46.65 48.68 50.28
51.11 50.17 50.46 50.31 51.49 50.71 47.55 39.03 29.87 33.22 33.76 39.20 39.87 39.59 37.00 39.77 39.54 40.06 40.39 38.46 42.33 41.45 36.78 32.88 29.90 34.55 40.14 39.22 37.37 39.29 39.41 34.75 27.08 28.77 32.04 33.18 30.62 38.07 42.97 44.80 45.84 46.53 47.74 48.32 50.20
50.40 50.75 50.01 51.78 51.48 50.42 42.90 33.35 32.77 34.58 36.68 38.11 39.30 36.11 36.69 39.55 39.29 38.21 38.60 38.99 41.10 42.86 36.23 34.48 32.47 38.88 39.68 41.29 41.17 35.82 35.39 38.51 32.76 33.02 31.35 33.27 36.15 39.52 41.27 41.58 44.29 45.91 47.18 48.28 49.91
48.72 48.45 49.27 51.13 51.50 46.46 41.57 34.86 37.07 39.29 41.19 40.71 34.89 37.39 34.18 37.17 38.14 38.48 37.90 40.92 39.92 42.13 43.24 38.95 31.56 37.76 39.20 42.08 41.12 40.66 41.88 33.45 35.33 27.96 26.87 32.08 33.57 34.89 36.32 39.23 43.02 44.91 45.99 47.90 49.87
48.22 45.88 49.30 50.66 50.44 46.36 35.09 36.43 39.08 43.22 42.66 39.20 37.67 36.85 37.42 36.84 38.58 37.72 37.96 40.42 42.31 40.89 42.99 42.05 38.22 34.58 38.39 37.31 36.80 36.70 36.16 36.39 36.41 33.12 29.62 29.33 31.97 38.83 39.33 41.29 42.16 43.20 46.05 47.85 49.46
47.39 43.63 49.69 51.16 45.20 45.93 40.62 40.92 41.67 41.77 43.34 41.50 41.64 40.02 39.10 39.34 37.97 37.85 37.70 40.73 43.72 43.14 39.31 40.89 38.65 32.31 34.43 39.00 40.55 40.20 38.90 38.97 33.66 30.49 31.91 31.03 32.69 40.81 42.79 43.54 43.76 43.43 46.69 48.71 49.67
43.57 44.96 50.23 49.78 41.42 41.25 41.52 41.03 42.27 41.02 40.57 40.41 39.26 40.85 41.32 38.84 35.86 38.69 39.06 42.09 43.36 42.11 40.58 41.25 36.41 29.87 31.13 36.07 38.50 36.19 38.51 38.66 35.89 35.13 31.31 30.45 32.79 41.99 43.14 42.73 43.85 45.10 47.38 48.17 48.80
43.76 40.50 46.44 48.30 45.83 42.70 40.18 39.53 39.25 42.94 41.19 41.38 40.32 41.65 39.99 38.25 40.29 37.52 38.23 40.96 42.45 42.75 41.63 43.08 37.21 34.09 31.30 32.97 37.09 33.98 36.01 37.45 35.40 32.27 32.79 32.92 35.32 38.55 40.62 41.60 45.05 46.29 47.01 48.50 47.80
43.81 37.90 38.47 40.13 42.06 42.03 41.75 40.44 38.43 38.08 42.03 42.14 39.66 39.96 39.44 36.34 37.38 37.08 39.53 40.12 41.92 40.81 41.62 41.17 33.00 33.07 34.75 35.74 35.45 34.62 34.66 35.25 32.55 34.79 33.69 35.60 35.87 39.88 41.70 42.83 45.34 46.38 47.64 47.26 46.08
38.62 36.44 39.60 39.81 41.03 40.25 39.06 39.66 38.45 39.44 40.14 38.80 38.66 40.34 40.66 37.80 38.72 36.56 39.37 39.96 39.13 41.63 40.48 40.38 33.27 33.63 32.23 35.05 34.68 32.21 35.03 35.97 35.14 35.03 35.39 36.28 35.86 43.00 44.33 45.61 45.22 46.56 46.86 45.60 44.16
42.83 43.76 40.07 39.43 40.09 39.41 40.77 40.20 39.71 41.19 42.16 42.86 41.82 41.00 39.63 41.16 43.37 43.66 44.19 43.62 42.71 40.54 39.26 38.34 35.19 32.86 30.65 32.63 32.72 30.04 34.11 34.99 36.20 37.48 36.90 32.93 38.88 43.46 42.81 43.99 44.55 45.64 46.18 44.18 42.62

GFSSW_sfc_wetblb_054.txt.gz
Wetbulb
55.67 55.77 56.05 55.63 55.28 54.98 54.82 54.61 54.37 54.18 54.37 54.62 54.86 55.55 56.02 55.79 54.02 52.17 47.67 54.50 58.79 61.51 60.18 56.24 55.13 55.54 58.71 55.65 56.14 55.50 45.97 43.39 45.90 47.57 49.57 53.75 51.03 52.84 53.77 50.70 50.34 51.08 57.52 60.75 67.15
55.86 55.91 55.64 55.27 54.64 54.57 54.12 54.32 54.05 53.70 53.56 53.83 54.30 54.81 55.02 55.13 50.18 46.73 54.07 59.10 61.85 62.75 57.23 52.19 50.60 55.01 53.99 53.10 52.49 48.99 44.45 45.70 51.33 51.72 49.89 52.50 52.33 51.70 49.90 49.53 48.59 49.94 59.01 62.31 65.55
54.91 54.91 54.90 55.08 54.97 54.29 53.99 53.86 53.70 53.38 52.94 52.94 53.56 54.24 54.41 53.68 45.75 45.45 57.10 59.51 61.88 62.18 57.95 55.01 54.64 54.57 51.45 51.37 50.14 48.38 44.05 49.97 51.54 51.33 50.37 51.38 51.02 51.92 48.73 47.13 49.40 49.46 52.92 61.07 62.08
55.05 55.37 55.41 55.27 55.11 54.34 53.88 53.39 53.21 52.89 52.57 52.61 53.04 53.40 53.25 50.64 35.18 51.48 58.45 59.47 62.50 60.20 56.72 54.67 50.22 49.72 48.10 46.31 50.30 44.76 48.41 49.54 51.25 50.80 49.56 48.69 51.69 48.83 49.12 49.10 52.94 53.82 55.03 57.13 60.20
55.23 55.32 55.14 54.76 54.81 54.05 53.41 52.65 52.67 52.21 52.34 52.37 52.73 52.44 49.29 43.07 43.15 52.41 58.94 59.20 59.49 58.43 53.95 52.44 47.95 49.15 45.68 47.14 48.27 46.46 47.60 49.16 50.61 49.92 49.24 50.60 48.76 47.61 48.14 51.05 53.58 54.60 54.35 52.42 52.09
55.14 54.94 54.41 53.96 54.00 53.23 52.57 51.56 51.78 51.90 52.01 51.63 51.88 50.98 45.99 38.23 51.00 52.59 55.47 56.58 57.31 56.33 53.89 53.12 49.46 51.56 48.52 47.29 46.00 48.14 48.59 48.67 49.23 49.23 49.86 47.61 47.38 48.32 49.20 50.91 51.80 51.96 50.54 51.12 52.02
55.08 54.64 53.75 53.43 53.60 52.23 51.26 51.00 51.25 51.26 51.14 51.42 50.80 49.27 43.77 41.75 51.65 55.29 54.54 53.95 56.96 56.36 52.66 53.66 52.92 51.02 50.69 47.14 49.97 48.82 44.44 46.47 46.94 48.12 47.55 49.08 45.05 45.40 49.60 50.71 50.19 49.80 50.11 51.61 51.78
54.54 54.29 53.64 53.55 52.93 51.73 50.59 50.86 51.07 51.45 51.25 51.25 51.08 48.03 39.58 50.60 51.12 51.45 53.96 52.77 55.52 57.55 55.71 55.02 54.29 51.48 49.59 50.38 47.75 44.75 44.03 39.14 45.40 47.38 48.13 47.15 38.76 47.27 50.84 49.00 48.53 48.58 48.45 49.17 51.09
54.20 53.89 53.12 53.39 52.31 51.43 49.96 50.79 51.77 51.86 51.63 50.65 47.32 45.15 38.58 52.90 46.95 49.70 50.27 50.75 53.65 55.65 56.15 55.62 54.60 49.46 48.62 43.17 40.67 41.81 35.90 38.20 41.68 47.31 46.46 44.67 39.47 46.66 50.07 49.07 47.51 47.53 48.21 48.56 48.96
53.72 53.42 52.80 52.74 52.06 51.20 49.82 51.14 50.38 49.76 50.19 49.64 47.61 40.30 43.33 42.43 47.61 48.96 52.92 53.08 51.44 52.41 50.66 49.96 48.07 44.31 43.47 41.15 33.64 35.50 35.88 38.79 38.75 43.83 45.12 42.76 41.42 45.00 46.52 45.79 45.58 45.66 46.22 47.02 48.10
53.31 53.21 52.43 52.25 51.70 51.09 50.27 48.33 43.60 41.72 44.26 39.04 39.82 40.02 42.76 46.55 50.72 48.69 52.27 50.55 51.99 48.88 42.95 46.14 40.66 37.78 40.37 42.40 41.67 40.53 38.51 37.16 41.40 44.91 42.65 41.57 41.85 44.09 45.87 46.06 45.17 45.61 46.13 46.71 47.74
53.00 52.51 52.62 52.04 51.41 51.94 50.21 42.94 42.55 43.72 36.80 42.75 42.89 42.27 45.60 46.83 42.54 46.29 52.14 46.36 46.84 40.94 44.18 42.14 37.92 42.58 45.10 44.23 42.00 38.92 36.92 37.07 40.34 43.52 42.04 40.54 39.51 42.87 44.77 45.31 46.38 44.96 45.01 45.63 46.95
52.54 52.01 52.82 51.85 51.52 50.55 46.06 44.65 49.55 48.05 37.77 39.64 42.88 42.32 42.74 44.79 41.54 43.79 48.71 47.25 43.40 40.74 41.26 37.86 40.68 44.57 43.16 41.85 39.88 38.12 36.57 36.90 37.26 40.89 41.29 38.65 36.16 39.67 43.43 43.41 44.12 44.07 42.81 43.94 44.29
51.93 51.95 52.50 51.63 47.57 48.25 43.64 48.25 49.85 48.12 33.03 34.40 38.30 41.64 44.18 42.00 38.02 48.99 50.16 46.87 43.28 39.59 41.65 40.85 44.15 42.53 41.69 40.51 41.58 35.59 40.92 40.69 40.05 36.78 30.82 39.17 26.12 36.67 39.40 39.37 41.94 41.46 41.74 42.45 44.45
51.31 51.62 52.38 51.68 47.75 44.79 46.30 49.48 49.38 45.36 20.94 36.66 37.45 47.84 45.06 41.59 42.53 43.20 49.84 47.26 40.91 40.55 41.47 37.37 40.55 40.61 39.85 41.31 42.92 39.50 43.21 40.77 40.17 37.04 34.96 34.80 29.47 32.97 37.75 36.86 39.22 41.61 43.20 44.93 45.92
50.77 51.34 52.06 50.23 49.32 48.10 50.35 49.82 46.33 31.39 23.45 32.92 39.15 40.25 40.21 43.16 42.08 43.99 45.66 48.56 46.90 40.99 39.21 39.04 43.36 42.95 42.45 43.52 43.92 44.65 40.09 38.91 38.34 35.97 29.32 34.68 32.11 30.09 33.98 37.42 38.58 41.50 43.53 45.36 46.38
50.78 51.30 50.13 49.98 45.61 51.04 50.40 44.36 31.19 26.76 36.10 33.94 37.00 38.40 38.93 38.39 38.58 40.57 40.87 40.23 37.47 33.16 33.74 34.68 35.14 40.60 42.90 39.57 42.90 40.65 35.49 26.60 26.63 26.33 26.16 34.64 31.79 32.86 38.07 40.48 40.88 41.60 43.29 44.98 46.49
50.92 50.29 50.66 49.74 51.56 50.59 46.99 37.90 26.19 32.66 33.53 40.14 39.74 40.34 36.79 38.96 39.06 38.06 37.94 37.39 40.69 39.76 35.49 32.02 28.27 35.78 40.59 39.42 36.43 36.14 35.79 28.24 22.34 24.74 26.30 31.92 26.31 32.30 39.24 42.03 43.43 44.84 45.03 46.06 46.31
51.49 50.44 49.57 51.70 51.77 49.74 41.86 31.50 30.93 33.97 35.74 38.24 39.33 36.62 36.34 39.52 38.62 38.82 39.04 38.01 40.63 41.34 34.56 33.55 31.59 38.22 40.29 42.14 41.35 36.03 33.25 35.33 28.90 28.40 25.44 28.13 31.48 35.09 38.76 39.67 41.38 42.69 44.66 44.80 46.75
47.34 48.28 49.02 51.81 51.58 45.87 39.32 34.34 37.06 40.48 41.49 40.66 34.67 37.61 33.60 36.96 37.25 37.46 37.88 40.95 39.35 41.96 41.97 37.56 30.38 36.66 38.63 41.72 40.19 38.20 41.22 31.84 28.17 20.01 22.00 26.65 28.21 28.40 33.04 35.40 39.85 41.79 42.90 44.93 47.07
47.82 44.87 47.97 51.21 49.96 43.72 33.61 34.88 39.56 43.43 42.59 38.98 37.70 36.88 37.11 36.95 38.63 37.36 38.04 40.26 42.23 40.27 41.74 40.54 36.39 34.49 37.76 35.98 34.56 35.21 35.19 35.43 33.00 28.29 22.98 21.31 25.25 33.51 35.42 36.91 38.87 40.58 43.26 44.51 46.19
46.92 41.89 49.18 50.93 43.18 45.32 38.01 40.17 42.66 41.85 43.72 41.77 41.66 39.99 38.33 38.58 37.35 36.97 37.30 39.42 42.79 42.33 38.14 39.84 35.94 31.56 34.16 38.79 40.01 38.40 37.47 36.33 30.65 29.22 25.09 24.39 26.30 37.87 38.05 39.75 40.44 40.14 44.44 46.04 47.45
41.73 43.40 49.85 48.99 39.71 39.85 41.36 41.00 42.66 41.29 40.91 40.84 39.45 41.14 41.04 38.03 34.40 37.72 38.39 42.39 43.07 41.58 38.43 39.58 33.43 27.79 29.23 33.01 36.86 34.45 36.96 37.04 32.89 31.26 25.63 23.70 25.22 38.71 38.80 39.61 40.57 40.15 44.22 45.49 46.62
42.76 38.41 42.34 46.91 44.35 40.66 39.48 39.40 39.22 43.32 41.77 41.78 40.55 41.58 39.28 37.21 38.91 36.26 37.31 41.00 42.01 41.54 42.77 41.50 34.89 29.84 24.61 29.20 33.90 29.56 34.34 35.66 30.64 23.62 27.29 27.07 28.82 33.35 36.82 38.12 40.54 43.31 43.62 44.92 44.86
42.40 37.40 38.51 35.75 40.47 39.36 40.92 40.57 38.67 38.18 41.89 41.98 39.39 39.81 38.97 35.21 36.27 36.28 38.67 38.58 41.38 41.15 39.74 38.70 28.19 25.54 32.71 35.11 33.89 32.67 33.30 34.10 27.09 31.33 25.00 30.57 31.70 35.26 37.03 37.94 41.33 42.88 44.47 45.56 44.20
37.25 35.30 38.48 36.72 39.79 39.03 39.00 39.42 38.66 39.97 39.81 38.71 37.56 40.08 39.49 36.53 37.04 35.33 38.16 37.84 36.94 38.80 37.94 38.67 28.28 29.63 27.17 34.08 32.96 28.77 33.07 33.85 33.83 33.65 33.06 33.82 32.72 37.83 39.55 40.63 41.21 43.57 44.96 44.26 42.95
40.29 41.92 39.51 37.29 39.04 37.50 37.52 38.38 39.88 41.18 42.07 42.65 41.30 39.61 38.64 40.44 41.95 41.23 41.06 40.63 39.63 37.79 35.91 35.68 30.91 27.70 24.64 30.66 29.95 26.17 31.70 33.13 34.59 35.80 34.80 30.17 34.95 38.67 39.35 41.87 41.29 42.79 44.18 42.83 41.13

GFSSW_sfc_wetblb_057.txt.gz
Wetbulb
56.49 56.08 56.11 55.83 55.89 55.57 55.10 54.92 54.71 54.61 54.37 54.31 54.41 54.93 55.25 56.02 56.02 51.56 47.56 51.61 56.34 62.48 59.36 55.77 54.87 54.84 55.25 55.37 55.90 55.27 45.97 42.24 45.03 46.19 48.32 53.68 50.86 50.77 51.39 49.30 49.59 52.81 56.91 63.87 66.24
55.68 55.55 56.21 56.13 55.87 55.73 55.27 54.54 54.27 54.17 54.01 53.49 53.64 54.18 54.62 55.23 50.77 46.96 52.81 57.52 60.61 62.14 55.14 51.89 49.75 51.87 52.81 52.88 52.55 50.14 45.42 43.90 48.96 50.25 48.82 51.87 52.00 52.12 48.10 47.50 47.54 55.08 62.83 65.17 65.40
55.24 55.91 56.44 55.94 55.58 55.60 55.16 54.43 54.01 53.66 53.45 52.83 52.97 53.41 53.93 53.27 45.77 45.40 56.93 58.30 59.84 61.71 56.99 53.30 52.27 53.18 50.26 50.66 49.18 47.83 44.79 48.72 49.46 51.04 51.55 50.48 52.38 52.67 46.62 45.02 47.14 50.84 57.29 61.96 63.11
55.75 56.19 55.96 55.17 54.80 54.81 54.52 53.68 53.20 53.06 52.75 52.29 52.75 53.01 53.14 49.51 35.85 48.00 59.00 59.66 59.87 59.18 56.49 52.58 50.36 49.48 47.41 46.33 50.28 44.13 48.56 49.78 51.02 52.01 50.84 48.62 50.52 50.49 47.00 47.26 51.45 50.33 58.53 59.47 60.25
55.81 55.89 55.30 54.77 54.33 54.21 53.66 52.26 52.31 52.13 51.47 51.84 52.38 52.04 48.85 41.91 42.41 51.70 56.43 58.43 56.12 57.20 53.48 51.69 47.58 48.85 45.13 46.95 48.13 45.76 47.12 49.44 50.16 49.29 48.74 49.53 47.79 46.99 45.77 49.25 52.37 52.83 52.56 53.56 57.13
55.77 55.23 54.47 54.07 54.07 53.42 51.82 51.22 51.26 51.52 51.69 51.45 51.14 51.09 45.19 36.31 50.04 51.70 50.90 53.65 55.77 55.76 53.30 52.11 46.44 50.13 47.12 46.99 45.11 47.70 48.21 48.03 48.45 48.04 47.88 46.17 45.52 47.45 46.63 49.77 49.78 51.01 49.90 48.86 49.60
55.00 54.82 53.59 54.10 53.78 52.59 51.23 50.69 51.29 51.33 50.68 50.95 50.92 48.95 43.14 40.38 50.57 50.29 54.04 52.74 54.89 55.04 52.02 52.73 50.48 49.47 48.35 45.56 48.43 46.96 44.17 45.78 46.40 46.32 45.94 47.59 44.33 43.83 47.74 48.41 47.36 46.38 47.24 50.15 49.85
54.40 54.37 53.35 53.57 53.07 52.16 50.95 51.05 51.37 51.53 51.49 51.74 50.98 47.15 38.95 49.58 49.72 49.02 52.59 51.49 53.92 55.76 54.80 54.38 52.91 49.19 47.45 48.50 45.97 43.32 43.18 38.29 44.46 46.05 46.62 46.00 38.99 45.05 48.08 46.07 47.41 46.31 45.04 46.38 49.39
54.17 54.01 53.11 52.95 52.70 51.96 50.62 50.89 51.86 51.82 51.55 51.15 46.80 44.15 38.19 51.98 46.14 48.15 50.49 48.09 51.71 53.87 55.55 55.63 52.52 48.65 46.64 41.85 38.91 41.12 34.83 37.26 40.57 45.59 45.76 43.76 39.13 45.72 47.30 45.79 46.16 45.85 46.45 46.77 46.76
53.87 53.05 53.12 52.54 51.95 51.42 51.53 52.00 50.97 49.97 49.39 49.47 47.77 39.89 42.86 41.47 47.07 48.28 51.01 50.01 50.00 51.56 50.90 49.58 47.24 42.48 43.16 38.60 32.54 34.65 34.54 38.15 37.56 42.34 43.95 41.70 40.60 44.73 44.93 44.70 45.08 44.81 44.61 44.62 46.40
52.98 52.72 53.01 52.33 52.48 52.66 50.04 46.11 39.77 39.07 42.62 38.55 39.58 39.45 42.04 46.28 50.32 48.02 49.07 47.83 50.12 48.84 42.10 45.54 39.05 36.59 39.64 39.95 39.86 39.74 37.41 36.92 40.45 43.75 42.39 41.00 41.05 43.88 45.13 43.07 42.86 43.41 44.31 44.75 45.86
52.11 52.14 52.49 52.48 52.32 52.49 48.47 40.65 41.60 41.68 35.88 43.01 43.24 42.74 45.55 46.50 41.56 45.66 49.85 44.91 45.22 40.25 43.78 41.29 35.55 40.45 42.91 42.88 41.27 38.52 36.09 35.07 39.15 43.06 41.67 41.01 39.28 42.91 43.22 43.05 44.24 44.33 43.28 43.25 43.88
51.20 51.83 52.08 52.77 51.98 47.78 43.71 43.74 47.65 46.18 36.19 39.67 42.08 42.05 42.11 44.29 39.32 42.07 47.62 46.02 41.82 39.90 40.37 37.44 38.72 43.54 42.56 40.62 39.02 36.14 34.24 34.21 35.72 38.75 39.05 37.60 35.41 38.29 41.58 42.95 43.87 43.35 42.57 42.66 42.91
50.82 51.55 51.83 52.76 46.50 44.94 41.58 47.00 47.67 45.96 29.86 34.81 38.04 41.66 43.29 41.31 39.85 48.18 49.40 45.97 43.40 39.95 40.99 40.32 42.80 40.86 39.17 38.81 39.19 33.07 39.04 38.90 38.16 34.75 29.55 38.41 25.10 33.27 38.41 38.87 40.47 40.15 40.26 39.97 43.98
50.88 51.14 51.55 52.10 43.78 42.10 45.16 47.38 46.50 41.90 18.29 36.56 37.84 47.56 42.62 38.53 41.86 42.74 49.63 46.96 40.87 39.24 38.89 37.37 38.95 39.64 38.56 39.56 42.05 37.14 41.37 39.09 37.70 34.11 33.13 32.42 27.24 32.34 36.31 35.17 37.48 39.33 40.42 42.75 43.90
50.56 50.83 51.38 48.61 48.31 47.29 47.93 47.71 43.63 25.65 21.92 32.87 36.98 35.90 36.65 37.93 41.98 42.71 45.15 47.80 46.58 40.79 39.63 38.71 42.34 42.59 42.21 43.56 43.19 43.10 38.72 37.16 35.78 33.32 25.91 32.71 29.60 29.10 32.36 37.35 36.67 38.65 41.97 44.11 45.18
50.86 51.25 49.74 49.62 44.59 47.96 49.46 43.14 28.35 21.48 35.49 34.45 36.44 40.03 39.11 37.98 39.22 41.77 40.68 38.85 36.61 33.47 32.58 36.48 35.72 40.37 43.04 39.58 42.02 39.88 34.75 23.70 22.25 20.98 23.04 32.02 29.46 31.67 36.92 37.94 39.48 40.02 41.46 43.15 44.87
51.55 50.94 49.53 48.61 47.75 48.15 45.49 35.63 21.70 32.18 32.10 39.58 39.96 39.99 36.47 38.90 38.06 38.81 39.38 35.73 39.18 36.45 30.20 28.70 28.50 37.54 40.64 39.11 37.97 37.04 34.11 25.02 18.88 20.06 23.90 30.65 27.62 32.12 37.15 39.84 42.04 43.16 43.12 43.75 44.64
51.03 45.96 45.29 47.99 48.94 48.19 41.14 25.10 24.46 30.14 34.11 37.01 38.85 35.32 35.64 38.84 37.63 38.70 37.70 37.27 38.35 38.32 32.19 31.14 29.99 38.37 40.46 41.96 40.97 35.95 28.88 34.66 26.48 25.63 20.62 26.32 30.19 34.81 37.75 38.50 40.44 41.58 42.90 42.98 44.18
42.42 42.82 44.75 49.40 48.03 42.42 35.36 31.58 34.61 39.02 41.01 40.06 33.28 35.52 31.37 36.01 35.06 36.38 36.31 40.04 40.05 41.67 40.94 36.83 29.97 37.23 39.43 42.01 41.10 38.64 40.08 30.10 25.39 18.58 19.43 23.59 25.65 28.56 32.75 35.55 38.99 40.55 41.05 42.31 45.08
42.08 39.02 44.95 49.31 46.97 39.62 31.50 30.17 37.59 42.57 41.45 37.59 35.83 36.38 34.52 35.69 35.59 35.48 35.96 38.63 40.17 38.57 38.75 38.01 33.17 34.35 37.81 36.09 36.23 35.64 34.95 34.34 32.49 25.86 20.91 19.38 24.08 32.68 35.87 36.56 37.58 40.32 41.84 43.44 44.87
38.88 33.62 45.30 47.26 38.25 33.91 29.28 37.62 41.82 40.49 41.60 39.93 38.53 39.00 35.23 38.20 34.61 34.70 34.43 36.18 40.68 40.60 37.96 39.18 34.43 30.67 32.94 38.71 40.56 38.26 35.92 35.36 27.73 26.91 23.99 22.34 24.29 36.06 36.20 37.23 39.13 40.02 43.03 44.55 45.54
35.77 37.03 45.42 44.40 31.83 32.90 37.43 39.63 41.00 39.72 38.70 38.70 37.57 38.94 38.25 36.66 32.39 35.44 36.11 40.82 41.55 39.37 37.40 38.36 32.58 25.82 28.36 32.51 37.00 34.43 36.51 37.35 33.58 31.08 27.22 24.37 24.94 36.56 36.62 38.31 39.39 39.53 42.18 44.80 44.50
36.59 31.27 35.40 40.16 38.82 34.48 35.52 37.66 37.21 40.92 39.87 39.81 38.28 38.84 36.56 34.41 36.02 33.76 35.03 39.50 40.63 39.66 43.67 41.55 33.31 28.25 25.57 29.89 33.44 30.65 34.35 34.84 31.14 22.93 26.45 26.35 28.02 32.08 35.25 37.02 38.53 39.33 42.85 43.50 42.96
35.65 34.27 37.32 28.18 34.80 35.07 35.60 38.30 37.26 36.61 39.42 39.45 36.77 37.36 36.22 32.41 33.77 33.70 36.14 36.49 39.43 41.21 38.34 36.66 24.82 23.23 31.36 35.05 32.70 32.15 32.59 33.43 29.45 31.16 24.91 29.33 29.71 33.14 35.41 36.53 37.66 41.72 42.86 43.18 41.87
32.16 31.59 34.16 32.49 34.70 34.82 36.44 37.87 36.48 38.77 37.45 36.51 35.22 37.70 36.84 35.57 34.45 33.10 36.07 35.12 34.76 35.77 35.15 35.79 24.80 26.67 26.09 32.67 31.90 27.90 31.81 33.08 33.23 32.40 31.95 31.86 31.28 36.85 37.20 36.45 39.45 41.15 43.15 43.01 41.80
34.89 36.35 37.74 33.40 34.98 33.21 34.98 36.97 37.98 39.09 41.52 40.45 38.91 37.39 36.71 38.63 38.59 37.71 38.06 38.04 38.12 35.79 33.91 33.74 27.81 23.05 19.58 28.81 28.47 23.92 30.04 31.61 32.70 34.53 34.56 29.17 35.17 36.26 37.18 39.67 39.75 42.22 43.08 42.28 40.48

GFSSW_sfc_wetblb_060.txt.gz
Wetbulb
56.28 56.30 56.51 56.84 56.82 56.36 56.32 56.01 55.37 54.87 54.79 54.71 54.66 54.21 54.61 55.12 55.67 53.06 48.08 51.62 54.31 61.33 60.87 55.07 53.95 54.04 54.90 54.77 56.26 55.41 45.17 41.00 43.52 44.49 46.64 50.51 48.70 52.65 51.55 47.71 52.40 54.75 57.93 62.40 65.43
56.26 56.76 56.85 56.57 56.17 55.55 55.31 55.63 55.32 54.45 54.21 54.24 53.89 53.48 53.76 54.22 50.23 47.87 53.11 57.63 58.78 61.19 54.14 51.32 48.80 51.29 51.46 52.87 53.04 50.05 44.60 43.49 48.32 49.23 48.41 50.40 49.48 50.26 48.32 48.03 52.60 59.51 63.34 64.85 64.38
56.25 56.59 56.54 56.04 55.47 54.96 54.73 54.68 54.17 53.77 53.54 53.44 53.18 52.74 53.12 52.59 44.70 44.48 57.34 58.70 58.77 58.81 56.49 52.94 50.84 50.94 50.43 50.49 50.08 49.69 44.57 48.10 49.47 51.17 51.78 50.41 50.22 52.42 48.50 44.88 50.03 57.87 60.43 62.52 61.96
56.01 55.70 55.95 54.93 55.07 54.59 54.31 53.79 52.71 52.73 52.14 52.15 51.88 52.30 52.18 49.30 33.13 46.62 57.02 58.84 59.92 56.51 56.43 50.82 49.00 48.87 46.59 46.13 49.90 44.89 49.02 50.45 51.12 51.90 51.28 49.62 51.42 48.92 49.03 47.54 51.25 58.19 62.15 61.13 61.21
55.78 55.61 54.45 54.85 54.82 53.99 52.90 52.24 51.61 51.81 51.12 51.24 51.72 51.68 48.64 41.52 41.08 51.23 55.15 55.30 55.48 54.39 54.01 49.33 46.65 47.74 43.85 46.21 48.75 45.07 47.70 49.95 51.49 51.67 51.59 51.85 49.15 48.95 49.07 50.58 50.40 55.61 58.16 59.28 60.04
55.76 54.92 53.94 54.23 54.02 53.24 51.87 51.69 51.83 52.06 51.46 51.07 50.92 51.20 44.49 35.61 48.15 51.00 50.15 52.05 53.45 52.54 53.40 51.64 47.31 49.64 46.09 46.57 46.75 48.19 48.05 48.30 48.67 48.32 50.58 48.76 48.95 49.20 48.99 49.07 47.75 50.48 49.90 50.12 55.49
55.55 54.42 53.48 53.77 53.47 52.48 51.43 51.57 51.64 51.48 50.52 50.51 51.06 48.70 42.59 39.36 48.47 50.43 49.67 52.45 52.96 53.68 51.59 52.87 49.45 48.71 47.04 45.12 48.13 47.31 44.31 45.58 46.57 46.47 46.61 48.99 45.04 44.80 49.48 48.60 47.30 45.48 46.44 49.28 49.80
54.98 53.78 53.54 52.83 52.91 52.19 51.30 51.14 51.38 51.42 51.42 51.48 50.90 46.38 38.44 48.85 48.61 48.12 49.93 50.66 53.50 55.39 54.08 54.73 52.30 48.76 45.46 46.60 44.86 42.24 43.43 38.43 44.27 45.85 47.10 45.84 38.02 45.57 48.67 46.85 46.33 44.92 43.51 45.26 48.06
53.69 53.61 53.21 52.62 52.45 52.11 51.95 52.18 51.78 51.21 51.09 51.28 46.05 43.18 37.13 50.79 45.96 48.49 49.74 47.37 51.29 53.44 53.55 55.44 51.62 46.09 44.93 40.13 37.97 40.30 35.00 37.20 40.63 45.63 45.31 43.50 38.32 44.86 47.22 44.75 45.13 44.65 45.76 46.05 46.14
52.65 53.15 52.38 53.23 52.28 52.88 53.33 52.87 51.98 49.97 49.29 49.63 47.57 39.41 42.78 41.07 46.18 48.75 50.93 49.98 46.59 49.85 48.48 50.34 46.20 41.98 39.70 38.76 32.29 34.92 35.33 38.22 38.11 42.29 43.69 41.57 38.90 44.19 44.11 42.40 44.25 44.43 45.23 45.27 45.24
51.66 52.26 52.36 52.92 52.54 52.64 50.27 44.32 38.58 37.30 41.50 36.99 38.69 38.89 40.61 46.12 49.23 47.54 48.62 46.49 46.03 47.65 42.17 45.34 39.35 36.23 38.62 37.90 38.90 39.15 37.21 36.96 39.30 42.95 41.92 40.70 39.56 42.81 43.68 40.56 41.68 42.74 43.96 44.74 45.38
51.45 51.48 52.25 52.54 52.82 52.45 46.70 40.28 40.87 41.59 35.25 42.82 42.49 43.15 45.34 45.50 41.40 44.20 48.47 41.13 43.54 41.34 43.40 41.63 37.29 39.73 42.66 41.84 39.56 39.12 35.60 35.67 38.83 42.76 41.08 39.74 39.25 41.54 43.12 42.06 42.84 43.46 43.12 43.53 43.26
51.26 50.97 51.84 52.29 52.92 46.07 42.82 43.20 46.93 45.45 35.49 39.75 42.50 41.36 41.67 43.87 40.91 41.14 44.81 43.33 41.49 40.44 39.96 37.20 39.04 43.23 42.30 39.88 38.43 35.58 35.15 33.94 34.86 38.45 38.86 37.09 34.60 37.27 40.64 40.78 42.80 43.76 43.57 43.52 43.47
50.97 51.02 51.22 52.29 46.21 44.44 40.79 46.09 47.43 46.11 25.60 35.39 38.43 41.48 43.75 41.95 39.95 46.67 47.19 45.64 40.77 39.57 40.80 39.56 42.38 40.99 39.57 38.44 38.64 32.51 38.31 38.41 36.98 34.80 31.04 36.97 26.39 32.13 37.19 38.72 39.75 39.59 40.17 41.43 42.41
50.69 51.19 51.15 51.66 42.29 41.08 44.55 46.72 46.26 42.48 20.68 37.42 38.15 46.25 43.80 39.50 40.23 43.56 49.02 46.64 39.82 40.29 39.66 38.02 38.19 38.22 37.35 38.77 39.90 35.82 39.49 37.83 36.85 33.78 31.82 31.84 27.03 29.78 33.17 34.67 37.22 38.13 38.62 40.03 43.03
50.67 51.43 51.01 47.96 45.84 45.33 47.18 46.14 41.93 23.96 22.57 32.73 37.30 37.73 38.14 39.65 40.56 42.55 43.73 48.19 46.47 40.83 39.93 38.77 41.82 41.29 40.47 42.38 42.43 41.19 37.47 35.72 34.96 32.98 25.81 31.07 28.82 26.78 30.76 34.31 37.26 37.57 39.60 42.18 43.28
51.24 51.71 49.69 49.36 42.65 47.06 47.45 40.20 23.67 22.65 34.89 34.45 37.54 39.05 38.66 37.93 38.97 38.24 40.37 39.36 36.85 32.62 33.09 35.65 36.68 39.85 41.97 38.67 41.04 39.03 32.97 25.73 25.05 25.25 22.51 31.07 28.61 32.43 34.63 36.99 37.97 38.56 40.73 42.36 43.38
51.56 50.95 48.43 48.23 46.81 47.23 43.69 31.33 20.26 30.60 30.68 39.08 40.04 39.44 36.21 38.71 37.91 39.75 37.98 35.83 38.74 35.73 32.27 30.02 29.10 38.37 40.58 38.34 36.38 36.72 32.50 23.26 19.39 20.73 23.44 30.05 26.51 32.62 36.30 37.48 39.71 41.59 42.97 42.78 43.03
50.10 44.55 44.37 46.87 48.00 45.32 35.96 22.56 23.79 25.92 31.99 36.20 37.86 34.91 36.13 38.28 37.41 38.35 36.61 35.71 37.44 36.51 30.97 30.80 29.95 38.63 40.37 42.24 40.77 36.18 33.15 33.39 25.09 23.20 19.53 25.71 30.07 34.58 35.80 35.18 38.10 39.65 41.40 42.01 43.38
41.55 41.70 43.52 48.20 47.05 41.72 31.39 30.60 30.50 37.81 39.19 38.79 31.79 34.55 30.87 35.56 36.23 35.63 36.81 38.67 38.66 40.20 38.59 34.12 29.34 37.11 39.95 41.89 41.18 38.15 38.09 29.21 24.63 17.30 18.11 22.40 23.66 27.84 31.96 34.67 38.04 39.18 41.01 41.88 44.10
41.69 38.77 44.38 48.15 46.32 36.59 26.43 29.05 36.33 41.48 40.82 36.36 34.15 34.75 35.84 34.20 35.26 35.85 34.26 40.12 39.80 39.47 38.94 36.06 31.46 33.41 38.75 37.02 35.97 36.52 35.80 32.47 30.96 25.63 20.54 18.84 23.00 31.40 34.59 38.01 38.82 40.73 41.05 41.31 43.77
36.96 33.22 44.65 46.45 39.15 32.49 27.27 35.83 41.30 39.24 40.33 38.75 37.07 36.41 35.07 34.89 33.05 33.56 33.38 35.09 40.03 39.32 35.51 37.68 32.68 30.28 33.22 39.10 41.06 37.13 35.97 35.81 28.57 22.47 21.29 20.87 23.45 34.54 35.09 38.10 40.53 41.19 42.52 43.43 44.83
34.81 35.32 44.22 43.67 31.30 29.13 36.18 38.32 39.71 38.39 37.44 37.31 36.31 37.69 36.74 34.11 31.33 34.28 35.05 39.55 40.27 38.71 36.77 37.93 29.27 21.87 29.56 32.52 37.59 35.95 36.00 35.64 32.38 29.59 19.87 19.88 24.63 36.01 34.35 37.63 40.03 40.55 42.36 44.22 44.10
34.84 28.22 33.71 38.86 36.78 35.23 33.92 35.95 35.74 39.80 38.56 38.39 36.93 37.53 35.35 33.29 35.23 33.03 33.66 38.30 39.53 38.41 43.50 40.76 32.15 28.15 23.83 26.68 30.97 27.86 34.16 34.84 32.79 25.99 28.84 25.99 30.04 31.93 34.29 36.62 37.93 39.59 41.81 43.87 43.43
33.57 32.01 35.20 26.98 33.03 32.90 33.93 37.41 37.58 35.75 38.15 37.97 35.61 35.87 34.55 30.75 32.21 32.49 34.86 35.37 38.51 40.54 37.26 35.20 24.43 23.80 30.15 33.96 32.03 31.76 33.09 33.63 30.98 33.67 29.29 32.58 30.30 33.97 35.95 37.87 38.69 39.71 42.36 43.06 41.93
30.75 29.51 32.29 30.14 32.79 32.72 35.43 35.04 36.44 37.99 38.28 35.45 33.87 36.93 35.38 33.10 33.30 32.14 34.76 33.61 33.56 34.52 34.08 34.11 23.89 26.32 26.12 31.40 30.51 27.67 31.57 33.54 33.75 33.28 31.81 30.75 30.92 36.58 36.98 35.96 37.83 39.62 41.90 42.44 41.81
33.49 34.21 33.32 31.44 29.84 34.49 34.38 35.81 37.31 37.59 40.89 39.33 37.81 36.38 35.07 36.96 36.94 36.21 37.23 37.42 36.38 34.39 33.01 31.98 26.86 21.95 18.79 28.23 27.64 23.80 29.10 30.81 32.06 33.89 34.10 29.31 35.61 35.76 35.57 36.88 38.56 39.61 41.99 42.49 41.70

GFSSW_sfc_wetblb_063.txt.gz
Wetbulb
56.97 56.97 57.10 57.29 56.87 56.53 56.21 55.90 55.57 55.54 55.59 55.47 55.18 54.91 54.14 54.20 54.59 51.15 47.83 51.39 54.25 60.38 60.72 55.86 53.38 52.98 54.24 54.23 56.35 55.57 45.05 40.82 42.70 43.97 45.63 49.78 48.23 51.37 52.92 47.04 53.74 56.79 57.93 62.05 64.62
56.29 56.66 56.35 56.25 55.53 55.50 55.26 55.08 55.06 54.92 54.59 54.10 54.59 54.09 53.18 52.93 49.47 46.15 52.77 57.93 59.33 59.59 54.53 51.48 48.57 51.09 51.56 51.22 53.53 49.94 44.52 43.39 47.53 48.77 47.78 50.16 50.51 50.26 48.63 48.68 53.04 58.15 62.90 64.01 64.44
56.33 56.42 56.10 54.78 55.62 55.57 54.79 54.53 54.30 52.73 52.51 52.68 53.94 52.60 52.01 51.89 44.36 42.47 55.81 58.60 59.18 58.11 55.88 53.15 50.59 49.89 48.80 49.26 50.30 49.81 44.52 47.37 48.73 50.55 51.93 50.42 50.82 50.87 47.46 45.73 47.28 54.99 60.91 61.73 62.25
56.48 55.89 54.97 54.95 55.09 54.61 53.67 52.80 52.25 51.86 52.06 52.41 51.70 51.71 52.25 48.70 31.51 48.00 55.17 58.67 59.43 56.87 53.21 51.84 49.07 46.43 44.83 45.70 48.78 46.50 49.20 49.40 50.64 51.98 50.87 49.29 51.91 49.04 47.91 47.78 51.15 50.22 61.32 60.67 60.93
56.14 55.32 54.21 54.37 54.33 53.26 52.58 52.50 52.86 52.33 51.58 51.54 51.31 51.91 48.21 40.78 40.31 49.94 54.33 52.47 53.36 52.13 50.58 49.88 46.57 45.00 43.24 45.26 46.82 44.49 48.07 50.36 51.88 51.51 51.27 51.74 49.53 48.61 48.09 51.15 52.65 51.54 60.39 58.97 59.19
55.46 54.51 53.82 53.48 53.55 52.46 51.97 52.44 52.87 52.30 51.67 51.19 51.11 51.98 43.66 34.33 46.39 50.22 50.52 49.92 51.31 51.98 50.55 51.02 46.95 48.26 45.80 45.85 45.47 47.18 47.75 49.28 50.23 50.19 51.39 48.64 48.31 48.93 48.70 50.60 48.80 56.10 57.56 58.30 58.62
54.50 54.24 53.66 52.92 52.81 52.17 51.68 51.99 51.93 51.82 50.88 50.68 51.19 48.37 41.87 38.10 46.84 48.34 49.70 47.94 51.09 52.72 49.23 53.04 49.76 48.54 45.90 43.90 47.68 46.60 43.88 46.07 47.19 48.12 48.03 50.35 45.07 45.17 49.60 50.47 47.39 47.03 47.48 49.89 54.45
53.78 53.99 53.30 53.41 52.48 52.55 52.40 52.36 52.13 52.17 51.75 51.73 51.13 45.43 36.66 47.99 46.85 48.38 49.29 48.29 53.06 53.79 52.43 53.70 52.70 48.76 44.81 45.48 43.96 41.80 43.44 38.73 44.45 46.39 47.21 48.03 40.89 47.26 50.55 49.72 46.73 45.49 45.77 45.63 47.10
52.44 53.22 53.33 52.69 52.92 52.65 53.23 53.60 52.48 51.91 51.03 51.04 45.18 41.72 35.94 49.82 45.70 47.96 48.87 46.50 49.82 52.46 52.58 54.39 51.08 46.14 44.35 39.64 36.56 37.64 33.85 36.54 40.10 46.39 45.93 44.87 39.67 46.53 50.75 49.33 47.72 45.77 44.86 46.01 45.69
51.74 52.08 52.63 52.33 53.23 52.84 53.06 53.05 51.87 49.49 48.98 49.43 47.41 38.15 41.66 40.22 46.14 48.26 50.33 49.70 46.02 49.03 47.70 49.36 45.80 40.83 38.93 37.07 31.36 33.40 33.90 37.20 37.51 42.64 43.75 41.93 40.24 44.78 46.75 46.04 47.20 48.60 44.33 44.49 45.67
51.78 51.10 51.75 51.88 52.95 53.16 49.35 43.08 37.80 36.04 40.72 37.09 37.92 38.81 40.97 45.61 48.87 46.78 48.71 46.71 45.48 45.78 39.74 45.61 38.45 36.30 37.00 37.19 36.97 37.05 36.07 36.76 38.45 43.26 42.23 41.04 40.51 43.05 44.17 42.37 41.62 41.80 42.11 43.55 44.50
51.48 50.83 51.15 51.92 52.68 52.99 45.33 41.17 39.40 40.24 35.12 43.00 42.38 42.15 44.85 45.37 41.30 43.87 48.06 41.13 40.76 37.94 40.69 39.96 35.06 39.51 41.93 41.83 38.42 37.14 35.51 35.52 38.86 42.13 42.18 40.08 39.89 43.33 44.88 42.39 42.10 42.14 41.43 42.40 42.50
51.29 50.76 51.14 51.34 52.58 45.76 42.22 42.74 46.87 44.15 35.39 39.74 42.58 40.78 41.78 43.83 40.96 40.87 44.97 42.57 39.52 38.06 37.88 35.05 39.32 42.52 41.82 40.33 37.02 33.91 33.97 34.11 35.59 38.30 38.44 37.61 35.73 39.11 42.87 41.36 41.95 42.59 42.29 41.97 42.65
51.16 50.77 51.11 51.00 45.89 43.36 40.01 45.41 46.22 44.13 23.14 35.37 38.32 41.32 44.05 42.10 39.73 45.43 46.40 43.77 40.05 37.86 40.18 39.70 42.49 40.98 39.53 38.18 37.82 31.40 37.22 37.67 36.91 35.09 29.68 37.86 28.26 33.66 37.49 39.08 40.38 41.12 39.93 41.17 41.33
51.05 51.20 50.98 50.58 41.78 40.72 43.72 45.87 45.04 40.63 15.19 36.99 38.02 45.87 44.13 39.77 40.97 42.34 49.01 45.70 38.50 40.38 40.30 36.91 38.81 38.32 37.37 38.24 39.02 35.20 37.67 37.00 36.03 33.61 30.94 31.05 28.60 32.76 32.71 33.58 39.01 41.17 38.22 39.59 40.37
51.26 51.75 50.52 48.07 45.29 45.17 46.25 45.24 40.24 22.35 16.42 33.44 38.83 38.50 38.51 40.64 40.25 42.14 44.24 47.90 46.35 41.28 40.18 38.78 41.30 40.13 39.62 41.82 40.98 40.06 36.10 35.03 34.19 32.17 24.75 30.44 29.12 28.56 30.78 33.79 35.24 39.76 37.76 38.96 41.51
51.44 52.04 49.31 48.08 41.80 46.30 46.13 38.55 24.34 19.51 33.77 34.26 37.40 38.77 38.22 37.20 39.48 40.48 39.08 39.01 36.44 32.72 34.13 37.39 37.26 39.48 41.40 38.60 40.63 36.94 31.07 24.53 25.08 24.90 23.17 30.31 28.54 33.44 35.97 35.60 36.50 37.55 37.46 39.08 41.68
51.18 50.26 48.72 47.85 46.24 46.42 42.60 28.51 20.48 31.36 32.81 39.26 39.24 38.73 35.90 38.29 38.28 39.48 38.40 35.96 38.73 37.03 33.06 31.14 29.58 35.83 39.40 37.01 35.20 36.10 30.73 23.72 19.49 21.23 23.34 29.23 26.16 31.83 37.96 37.53 38.70 39.42 39.46 41.01 41.89
49.27 43.71 43.72 46.29 47.38 46.09 36.17 21.38 24.02 24.20 30.28 35.21 37.15 33.18 34.86 37.39 37.53 36.46 34.25 35.80 37.26 36.42 30.76 29.33 29.59 38.71 40.61 40.74 38.81 35.90 29.25 31.58 23.88 21.77 19.70 25.48 28.96 34.11 36.09 36.65 35.59 38.01 40.36 40.34 41.95
40.85 41.08 42.82 47.01 46.60 43.09 29.44 27.41 29.79 36.17 37.73 37.75 29.64 33.19 30.57 34.91 35.21 34.13 34.19 37.27 37.37 38.45 37.26 32.58 29.72 37.22 39.76 41.41 40.30 37.38 37.58 29.51 23.27 15.54 17.06 21.81 23.72 28.12 31.34 34.04 36.04 37.38 38.74 40.47 42.44
40.61 38.37 43.66 47.30 46.36 35.55 22.89 24.53 35.06 40.26 40.04 35.32 32.89 32.89 33.80 33.62 34.03 33.72 34.13 38.24 39.27 38.25 37.63 33.90 30.99 33.11 38.96 36.83 35.66 36.78 35.03 33.20 30.24 24.34 19.75 18.97 23.50 30.81 32.34 34.77 35.83 38.36 40.16 41.04 42.44
36.41 33.30 44.01 45.57 38.70 31.50 26.29 34.53 40.75 38.11 39.41 37.72 36.08 35.38 34.48 34.40 34.81 32.27 32.51 34.55 39.19 40.24 34.68 35.42 31.67 29.43 33.72 37.91 40.82 40.03 36.94 32.75 24.37 21.48 20.28 19.61 23.31 32.99 32.26 34.93 38.60 39.60 41.62 41.60 43.79
34.39 34.56 42.38 45.25 28.54 27.67 35.06 37.25 38.45 37.28 36.36 36.15 35.10 36.67 35.96 32.90 31.07 33.27 33.67 38.57 39.29 37.96 35.97 36.55 27.25 27.04 30.13 33.94 37.13 36.70 37.17 35.53 31.25 27.00 19.04 19.83 25.03 34.99 32.56 35.71 39.51 40.27 41.70 42.77 43.59
33.71 27.96 32.85 36.80 35.19 31.00 31.74 34.71 34.57 38.78 37.30 37.21 35.75 36.39 34.13 32.07 34.22 32.52 32.79 37.28 38.62 38.14 43.41 40.86 31.08 25.84 22.69 25.93 30.63 32.17 35.68 34.98 31.21 25.47 28.94 25.00 28.74 32.97 33.34 34.44 37.96 40.43 41.77 42.56 43.67
31.98 29.43 31.66 25.48 33.41 34.11 32.25 35.03 34.96 34.22 37.09 36.96 34.35 34.90 33.17 29.59 31.41 32.07 34.01 34.66 37.51 40.63 36.99 35.64 27.14 24.04 29.19 32.66 30.70 30.06 31.27 34.58 29.38 33.93 28.83 33.03 31.23 36.31 36.76 37.12 38.57 39.95 41.49 42.77 41.52
28.61 28.14 30.19 28.88 30.81 29.52 33.02 33.30 35.78 36.03 35.85 34.13 32.79 35.99 34.31 31.58 32.28 31.44 33.96 32.82 33.14 33.96 33.41 32.74 23.74 25.16 25.44 30.89 30.30 27.45 30.34 33.56 34.96 34.76 33.79 32.89 31.52 37.51 37.62 36.55 36.64 38.69 40.08 41.95 42.49
32.28 33.40 31.15 30.04 27.27 29.37 29.35 31.55 35.75 36.43 39.90 38.63 36.93 35.47 33.85 35.84 36.29 35.87 36.62 36.31 35.65 33.82 32.24 30.93 26.15 21.82 18.31 27.00 27.12 23.60 28.10 30.33 32.43 33.56 34.34 29.07 36.35 36.24 35.73 36.11 37.38 37.84 39.44 41.05 41.69

GFSSW_sfc_wetblb_066.txt.gz
Wetbulb
56.79 56.54 57.05 56.51 55.12 55.86 56.33 56.17 55.60 55.30 55.16 55.60 55.41 55.53 54.85 54.07 53.47 49.86 46.61 51.80 53.88 59.37 59.66 56.17 53.87 52.83 55.57 52.95 55.62 54.86 44.92 40.26 41.53 43.76 45.32 49.75 47.91 51.12 51.88 47.75 50.12 59.48 57.63 60.97 64.36
57.00 57.53 56.37 55.22 55.53 55.71 55.56 55.23 55.04 54.89 54.15 53.92 53.81 54.26 53.81 53.04 48.51 45.40 51.35 56.70 59.22 59.40 54.50 51.56 49.46 51.38 50.96 50.50 52.38 49.76 44.40 42.32 46.37 48.17 47.28 50.28 49.37 48.67 48.14 47.15 49.74 50.30 61.17 63.33 65.95
56.60 56.75 55.55 54.90 55.25 54.85 54.07 53.59 53.53 53.43 52.41 52.26 51.91 52.74 52.34 51.40 42.89 41.49 53.95 57.16 58.99 58.72 54.94 53.37 51.28 49.82 47.78 48.53 48.46 48.77 44.52 46.47 48.05 50.97 51.84 50.30 49.86 49.66 46.60 44.76 46.21 47.23 50.44 61.12 63.88
55.86 55.90 54.89 54.90 54.46 53.49 53.19 53.17 53.61 52.96 52.18 51.95 52.43 52.75 52.44 47.84 27.73 45.83 56.66 56.32 58.51 56.47 53.59 52.18 49.57 45.17 44.59 44.17 48.28 44.40 48.31 49.37 51.02 51.90 50.53 48.88 51.13 48.23 47.48 47.05 50.49 50.06 51.36 59.73 61.31
55.40 55.57 54.46 53.90 53.49 52.79 52.75 53.01 53.18 52.97 52.50 52.00 51.45 52.28 47.48 39.86 39.52 49.15 53.47 53.91 53.49 53.75 50.54 49.21 47.39 44.44 41.38 43.88 46.03 42.80 46.89 49.95 51.59 51.07 50.76 51.53 48.87 48.69 48.27 50.03 50.49 51.35 54.07 59.05 59.70
54.50 55.00 53.90 53.56 52.73 52.54 52.18 52.49 52.52 52.11 51.24 51.43 51.04 51.68 43.10 32.19 44.77 48.61 49.91 49.45 49.89 50.14 48.55 49.81 48.43 46.96 44.00 44.87 44.62 46.52 47.63 49.17 50.79 50.43 50.88 48.55 47.44 48.53 49.41 49.88 49.28 49.92 51.36 57.63 58.51
53.31 53.92 54.31 53.19 52.97 52.72 52.82 52.80 52.62 52.35 51.20 51.02 51.26 47.78 41.20 37.59 45.62 47.55 48.21 47.82 48.73 47.55 48.44 50.89 51.01 47.13 46.26 44.00 47.45 46.58 45.45 47.93 48.74 49.50 49.14 49.44 45.55 44.08 49.84 49.81 47.76 47.78 46.52 50.10 55.28
52.70 53.03 53.40 53.00 53.21 52.77 53.11 53.71 53.41 52.08 51.75 51.77 51.07 44.68 35.68 46.81 46.06 47.53 47.93 47.25 49.40 51.98 51.80 53.10 53.18 48.02 46.14 45.61 44.25 42.55 43.89 40.19 45.47 48.08 48.29 46.67 40.12 46.33 50.64 48.20 47.40 47.94 45.84 45.92 47.47
52.46 51.74 52.61 53.21 52.67 53.20 53.08 53.48 53.57 52.04 51.04 51.04 44.62 40.62 35.07 48.96 45.39 46.31 47.66 45.94 48.47 51.34 52.76 53.26 51.63 45.80 44.74 39.61 36.80 41.11 33.53 34.91 40.56 47.43 46.75 44.28 39.71 46.44 50.38 48.20 47.14 48.51 46.63 45.57 45.93
52.26 51.59 51.44 52.49 52.29 53.26 53.37 52.43 51.70 49.17 48.53 48.99 46.93 36.81 40.89 39.41 45.41 47.30 50.20 48.76 46.54 48.23 46.38 45.94 44.94 40.63 38.34 37.80 30.73 32.76 32.01 33.09 35.79 42.58 45.18 42.06 40.01 45.84 48.28 48.27 46.47 48.57 48.85 45.55 45.62
51.96 51.47 51.05 51.45 51.83 53.18 48.84 42.40 37.25 36.00 39.83 36.26 37.82 38.53 40.88 45.62 48.46 46.00 48.36 46.10 45.70 45.18 37.37 39.38 38.09 35.32 36.68 36.76 36.01 36.12 34.81 34.30 36.34 43.09 42.40 41.86 41.00 42.75 46.00 46.67 46.50 46.91 48.43 46.12 45.10
51.92 51.21 50.97 51.36 51.54 52.76 44.40 38.38 38.75 40.72 35.20 41.29 42.63 41.31 44.48 45.35 40.57 43.49 47.82 40.79 41.45 37.27 39.92 36.06 34.44 37.63 40.91 39.64 38.06 36.92 33.77 32.81 36.55 41.04 41.83 39.63 39.62 42.86 42.97 44.76 46.78 47.01 48.35 47.60 42.74
51.81 50.92 51.39 51.16 51.61 45.00 41.26 41.89 45.70 44.43 35.20 39.88 42.86 40.86 42.25 44.12 40.63 40.17 44.35 41.88 39.15 37.17 36.36 34.94 36.63 41.54 41.18 37.62 36.14 33.58 33.24 33.08 34.02 37.26 37.46 38.34 36.58 38.51 42.31 45.11 44.59 45.37 44.66 41.82 42.19
51.57 51.08 51.81 50.33 45.33 42.46 39.45 44.80 45.11 42.19 27.16 35.30 37.83 40.91 43.90 42.48 38.80 45.13 46.59 42.92 39.91 37.35 38.07 37.53 42.16 40.34 39.16 38.02 36.74 31.56 36.86 36.66 35.84 33.53 29.60 36.83 28.06 34.20 40.10 42.04 42.05 44.38 45.68 42.41 41.25
51.30 51.56 51.46 50.45 41.11 40.69 42.79 45.06 43.95 39.31 13.67 37.54 38.43 45.90 44.35 40.02 41.24 42.07 48.45 44.53 37.13 39.14 37.88 36.55 39.21 37.88 37.33 37.97 39.82 34.69 37.56 35.94 34.65 31.45 29.76 30.04 28.98 31.86 34.29 38.66 42.23 44.37 44.49 42.19 41.30
51.45 51.77 50.58 47.87 44.83 44.07 45.59 44.47 39.74 21.63 13.27 32.15 39.77 38.49 38.44 40.58 40.10 42.50 44.02 47.05 45.28 40.80 40.55 39.18 42.04 40.06 39.71 40.33 39.58 38.91 35.36 34.07 32.43 30.31 21.29 29.97 29.27 29.03 30.54 35.54 36.60 39.57 42.97 43.31 41.46
51.40 51.74 48.85 47.19 41.25 45.65 45.03 37.77 22.25 19.48 34.10 30.00 36.35 38.48 38.75 37.85 39.25 40.09 39.65 37.79 34.19 32.60 33.19 37.65 37.82 39.31 40.41 37.36 39.95 35.90 31.15 22.33 21.77 21.02 20.50 28.53 27.72 33.16 36.20 35.33 37.34 38.89 39.13 38.98 39.18
50.76 49.66 48.71 47.31 45.73 45.82 44.26 28.15 18.78 28.20 32.84 39.21 39.37 38.72 35.85 38.47 38.61 38.26 38.26 35.72 37.67 36.35 32.73 29.65 30.13 37.15 39.32 36.16 35.07 33.12 30.48 23.05 18.69 20.61 21.73 27.56 25.42 31.42 37.22 38.86 38.02 39.24 39.22 38.67 39.81
48.79 42.73 42.98 45.74 47.71 46.70 35.28 18.59 22.55 23.31 29.62 34.47 38.08 33.76 34.62 37.09 37.10 36.86 35.72 34.39 35.75 35.94 31.36 27.60 30.58 39.18 41.01 39.60 37.99 34.46 30.95 29.97 22.78 19.51 17.90 24.41 28.16 33.46 35.84 36.48 36.52 36.22 37.89 38.38 40.39
40.33 40.26 41.85 46.45 46.45 43.39 28.90 26.99 29.68 34.44 36.70 36.89 29.33 32.93 30.51 33.77 32.65 32.57 32.13 36.74 36.58 37.60 36.51 31.59 29.09 37.41 38.58 39.57 39.23 36.18 35.91 28.80 23.03 15.90 16.62 20.31 22.39 27.04 31.54 33.74 35.66 35.86 37.29 39.09 41.52
39.86 37.71 42.96 46.38 46.84 34.84 23.62 23.75 33.83 39.26 39.32 34.69 31.81 31.83 31.96 31.49 31.86 31.57 32.72 37.55 39.09 37.35 35.89 33.06 30.23 33.45 37.11 34.03 33.03 36.21 31.91 30.99 29.16 24.00 19.26 17.70 23.34 30.51 32.10 33.23 33.26 35.77 37.95 39.69 41.02
35.86 32.83 43.12 44.64 37.11 32.39 25.76 33.30 40.12 37.37 38.94 36.65 35.18 34.22 33.82 33.95 31.69 30.35 32.30 34.01 40.01 39.38 33.54 34.32 30.82 29.61 32.90 37.57 38.30 36.49 34.50 31.59 24.68 21.17 20.12 19.03 23.06 33.19 32.49 33.38 34.08 36.54 39.13 40.58 42.31
33.87 33.90 40.87 44.33 26.25 25.36 33.81 36.03 37.39 36.19 35.24 35.19 34.17 36.95 37.38 34.10 30.83 32.04 33.13 37.97 38.75 37.71 35.42 35.83 28.22 27.65 29.00 31.73 36.25 36.47 37.50 36.90 30.91 26.77 19.68 22.34 25.41 35.38 31.78 34.45 36.28 37.07 39.06 40.51 42.33
33.08 27.97 32.64 35.57 33.60 29.97 30.82 33.66 33.37 37.85 36.20 36.17 34.55 35.43 34.32 32.82 33.66 31.91 32.16 36.62 37.60 37.34 43.44 38.98 29.37 25.53 22.12 25.78 30.35 32.69 34.53 36.94 34.31 30.82 30.39 26.02 28.37 33.79 34.93 33.81 36.23 37.97 39.26 39.92 41.84
30.92 28.34 29.39 25.58 30.48 30.46 31.06 34.31 34.00 33.33 36.20 36.12 33.31 34.50 32.32 29.50 30.43 30.61 33.36 33.93 37.72 41.20 36.13 36.65 25.40 22.00 28.05 30.47 30.41 29.76 31.29 34.37 32.89 34.53 31.04 32.31 32.39 36.92 38.01 36.32 35.83 37.76 39.40 40.39 41.23
27.62 27.55 28.63 27.09 29.63 28.89 32.41 32.05 34.37 34.64 35.20 33.48 32.49 35.16 33.75 30.44 31.32 30.51 33.08 32.21 32.48 33.05 32.24 31.89 23.22 24.50 24.20 29.31 30.16 27.14 30.30 32.14 34.19 34.78 33.65 34.24 32.89 39.54 36.76 35.74 36.40 38.93 39.74 41.06 42.24
30.53 31.82 30.68 28.10 26.22 27.81 26.49 28.07 33.95 33.86 37.90 37.54 36.37 34.43 33.02 34.80 35.45 34.83 35.37 35.19 34.15 33.26 31.46 30.47 25.53 21.70 18.65 25.98 26.33 23.15 28.88 29.89 31.31 33.88 34.92 31.67 36.55 36.75 36.84 37.19 37.27 37.14 38.63 40.13 41.76

GFSSW_sfc_wetblb_069.txt.gz
Wetbulb
56.90 57.81 56.75 55.45 55.57 56.04 55.52 55.21 54.97 55.07 55.18 55.21 55.29 55.25 55.27 55.36 53.90 50.31 46.44 51.09 53.77 59.23 58.65 55.71 56.09 54.45 56.48 54.51 55.69 54.06 45.16 41.67 43.04 44.44 46.32 51.12 49.81 52.10 52.98 51.03 55.86 57.26 60.36 62.80 66.16
56.61 57.35 55.98 54.90 55.39 54.66 54.08 54.11 54.28 54.01 53.46 53.57 54.21 54.13 53.38 53.76 48.65 45.27 51.38 55.96 58.14 58.91 53.84 52.13 50.89 51.94 51.68 52.14 53.07 50.15 44.75 44.17 47.89 49.11 48.23 50.69 50.40 50.16 50.35 49.02 49.82 51.09 54.12 62.26 65.77
56.16 56.63 55.54 54.69 54.61 53.73 53.83 53.94 54.29 53.76 53.44 53.26 52.97 52.90 52.78 51.61 42.03 40.67 55.69 56.58 57.55 58.05 55.23 53.95 52.24 51.07 47.86 50.27 50.69 49.81 45.10 47.50 48.76 51.57 52.29 50.71 50.41 50.92 49.33 47.29 49.28 48.72 51.32 55.69 63.93
55.11 55.92 54.82 53.79 54.07 53.37 53.38 53.62 53.72 53.57 53.32 52.99 52.05 51.74 51.41 48.36 29.46 45.30 55.46 56.30 57.43 55.83 53.94 52.13 49.97 47.05 45.11 45.86 49.56 46.28 49.49 49.57 51.18 52.20 50.91 49.59 51.71 49.47 49.92 50.36 52.25 51.42 53.49 53.39 61.88
53.98 54.81 55.09 53.95 52.82 53.01 52.78 53.03 53.08 52.78 52.53 52.38 51.82 52.15 48.19 40.48 39.72 48.55 53.56 52.99 53.99 53.87 51.13 50.26 47.75 45.85 42.04 45.87 47.93 46.45 48.64 50.14 51.51 51.29 51.07 51.72 48.93 49.29 49.29 51.90 52.39 52.40 52.42 58.21 60.37
53.46 53.53 54.25 53.96 53.70 52.92 52.92 53.02 53.11 52.90 51.74 51.78 51.95 50.80 43.26 32.61 45.03 48.19 48.27 49.57 51.63 50.74 50.01 50.01 48.53 48.13 45.47 45.96 45.87 47.73 48.03 49.30 50.97 50.67 51.00 49.06 48.51 49.73 48.54 51.06 51.26 51.67 51.38 51.20 59.02
53.58 52.61 53.44 54.00 53.32 53.67 52.97 53.50 54.11 53.18 52.26 51.74 51.41 47.61 41.32 37.32 46.25 47.22 47.45 47.98 49.05 48.98 46.91 50.60 51.17 48.01 46.67 45.06 48.73 47.71 44.92 47.14 48.88 49.85 49.07 49.86 46.15 46.32 50.31 50.86 50.10 50.56 51.00 50.43 50.03
53.50 52.57 52.16 53.15 53.52 53.10 53.28 53.30 53.62 52.95 51.66 51.74 51.15 45.03 36.02 46.43 46.85 47.43 48.08 47.35 50.56 51.77 48.93 52.50 52.49 49.21 46.44 47.57 46.47 43.20 44.40 39.75 47.10 49.03 48.49 48.06 41.25 47.68 51.00 49.90 49.58 50.23 50.73 50.19 50.49
53.35 52.34 51.71 52.28 52.89 52.81 53.57 53.60 53.29 52.19 51.24 51.36 44.96 41.74 35.28 48.96 45.14 46.78 48.56 46.05 48.49 51.20 51.61 52.93 50.85 46.58 45.35 41.66 39.18 41.79 35.61 38.32 42.17 48.63 47.15 45.54 42.40 47.44 50.79 50.05 49.02 49.88 50.53 50.07 50.06
52.97 52.04 51.32 51.71 52.36 52.36 53.60 52.27 51.63 49.14 48.16 48.71 46.82 37.28 40.95 39.27 45.19 47.43 49.56 48.87 46.55 47.95 47.48 46.94 42.50 41.57 40.32 39.14 31.14 35.08 34.76 37.41 38.72 45.28 45.81 43.51 42.27 46.64 48.96 49.31 49.56 49.52 49.85 49.93 50.27
52.63 51.23 50.94 51.31 52.08 52.10 47.71 41.57 36.83 35.81 40.47 36.84 37.81 38.18 40.86 45.76 48.32 45.76 47.99 45.76 46.07 44.83 38.90 38.66 33.93 34.64 38.37 38.60 38.10 37.53 37.04 36.19 39.80 44.66 43.92 42.40 41.64 44.64 47.53 48.05 48.65 50.02 49.23 49.40 50.16
52.05 51.09 50.78 51.49 51.41 52.02 43.92 37.73 38.17 39.94 35.05 41.74 42.17 41.31 44.33 45.84 39.39 43.56 47.84 41.25 39.61 36.93 38.24 36.05 33.69 38.10 40.97 40.82 38.22 37.79 36.03 35.67 38.86 43.43 42.98 42.18 41.32 43.87 45.97 46.79 48.24 49.64 49.31 49.16 49.84
51.53 51.00 51.03 51.71 50.39 44.63 40.83 41.61 45.01 43.25 35.86 39.61 43.22 41.42 43.04 44.34 40.18 40.10 44.51 41.84 38.19 36.40 36.49 34.13 37.61 40.41 40.61 38.07 36.46 35.63 34.95 34.81 35.78 39.45 40.62 39.54 38.14 40.80 43.10 45.71 47.43 48.81 49.49 49.08 48.52
51.42 51.27 51.87 50.25 45.69 41.90 39.11 44.80 44.75 41.68 25.82 35.64 38.70 40.62 43.98 43.18 38.87 45.08 46.67 42.91 39.76 36.22 37.67 36.65 41.26 39.64 38.64 37.02 37.48 33.67 38.14 37.85 36.47 35.70 32.48 39.18 30.26 37.13 41.16 41.50 44.25 46.60 48.26 48.62 47.81
51.34 51.58 51.10 50.43 41.23 40.42 42.27 44.59 43.47 38.61 18.72 37.15 38.80 46.37 44.65 40.04 40.91 42.04 48.09 44.72 38.16 38.22 38.13 36.14 37.75 38.80 37.33 37.98 39.86 35.72 38.54 37.00 36.41 33.66 33.13 32.99 31.81 34.64 38.74 39.57 42.12 44.62 46.64 47.97 48.93
51.20 51.47 50.67 47.62 44.24 43.29 45.00 43.17 39.56 21.55 14.35 33.09 39.80 38.55 38.67 40.53 40.51 42.77 44.01 46.25 45.60 39.27 39.16 39.55 42.19 41.12 40.17 40.64 40.26 38.37 36.14 34.82 33.85 33.24 28.79 32.09 32.63 31.82 34.25 38.13 41.16 45.63 46.85 47.53 48.48
51.15 51.70 48.50 46.97 40.85 45.12 45.11 37.78 22.01 18.87 32.26 31.39 36.37 38.87 38.51 37.58 38.78 40.45 39.33 37.79 36.57 31.32 32.31 37.30 38.33 41.00 41.12 38.53 40.51 37.67 32.14 27.30 27.49 27.00 25.09 30.64 29.41 34.70 39.00 38.94 39.95 41.34 43.79 46.07 46.67
50.47 50.71 48.96 46.64 45.79 46.96 44.53 29.44 19.35 27.04 32.57 38.68 39.49 38.93 35.77 38.32 37.91 38.98 37.24 35.06 38.93 37.64 34.05 32.10 29.60 37.26 39.65 37.96 36.07 35.51 32.30 25.83 20.08 22.20 24.89 29.89 27.14 33.62 39.48 40.39 40.36 40.42 40.84 41.65 41.43
49.23 42.13 42.50 44.97 47.94 46.91 36.78 16.75 23.66 24.08 30.20 35.03 37.95 32.94 34.29 36.96 37.87 37.33 35.28 35.91 37.22 37.07 31.05 29.51 32.05 39.47 40.87 40.04 38.54 35.08 29.62 32.12 24.39 23.41 22.80 26.99 30.15 34.75 36.87 38.07 39.21 39.44 39.45 40.48 40.96
40.36 39.84 41.43 45.71 47.52 43.08 28.14 27.10 29.15 33.22 36.22 36.39 29.67 32.60 29.83 34.10 33.73 32.93 33.57 37.96 37.57 38.16 36.83 32.68 29.71 37.62 39.59 40.39 40.15 36.63 35.98 29.31 26.37 18.61 19.78 23.44 24.90 29.52 33.89 36.19 36.40 36.93 38.56 40.22 41.92
39.55 37.03 42.44 46.07 46.95 35.10 21.48 23.78 32.74 38.13 38.43 34.31 31.26 31.01 31.20 31.20 32.86 32.36 31.97 37.47 39.34 36.85 36.38 33.90 31.46 33.84 37.49 35.36 35.62 35.97 33.21 31.49 30.53 26.39 22.85 20.73 26.39 32.55 34.58 35.60 34.68 35.50 37.90 40.07 42.02
36.36 32.68 42.59 45.89 37.04 32.77 24.80 31.81 39.52 36.70 38.50 36.45 34.81 34.90 32.91 32.96 31.79 31.30 31.91 34.29 40.13 38.19 34.03 34.37 31.67 30.38 32.79 38.14 38.77 36.96 33.88 32.51 27.13 23.87 22.03 23.28 26.52 36.05 35.28 35.73 35.38 37.26 39.98 41.19 43.14
33.95 33.71 40.14 44.12 25.86 24.20 32.44 35.00 36.82 35.55 34.66 34.51 33.65 37.51 36.36 32.98 30.18 32.09 33.54 37.73 39.71 37.46 34.80 35.40 29.62 26.87 29.03 33.54 35.89 35.48 35.90 34.79 31.51 30.32 21.23 25.30 27.85 35.97 35.45 36.89 38.57 39.86 40.92 41.55 43.21
32.48 27.40 32.04 34.73 32.42 29.54 30.10 31.90 32.56 37.19 35.48 35.57 34.06 35.20 36.01 34.04 33.67 31.60 32.13 36.52 38.03 38.06 42.68 38.42 29.95 26.44 23.65 27.05 31.47 31.43 34.43 35.71 33.96 30.23 29.24 28.76 31.39 35.85 37.62 37.80 38.19 40.24 41.37 41.73 43.19
30.02 28.18 29.30 24.69 29.73 29.42 30.00 32.61 32.90 32.29 36.04 35.90 33.03 34.06 32.35 29.59 30.35 30.27 33.03 33.74 36.51 40.47 36.40 35.57 25.83 23.39 29.19 31.15 31.96 31.67 32.38 34.78 33.54 33.94 29.72 31.54 32.29 36.74 39.42 40.19 40.94 39.48 40.25 40.49 41.50
27.89 27.47 27.56 26.75 28.42 27.45 30.23 29.77 32.05 32.99 33.98 32.93 32.13 34.43 33.12 30.07 30.40 30.39 32.82 32.11 32.71 34.05 33.36 32.62 24.43 25.27 26.06 30.17 31.08 27.89 31.21 32.34 33.78 34.80 34.02 34.49 33.83 41.00 41.08 39.29 38.35 38.87 38.82 39.91 41.38
29.60 31.18 30.74 27.24 25.98 27.54 25.35 26.61 32.67 31.84 36.51 36.10 34.92 33.66 32.58 34.62 35.34 34.79 34.88 34.80 34.44 33.52 32.67 33.71 27.39 23.51 20.40 26.30 26.89 24.35 28.60 30.24 32.31 34.18 34.78 31.56 36.32 40.46 38.89 39.16 39.03 39.68 38.20 39.73 41.68

GFSSW_sfc_wetblb_072.txt.gz
Wetbulb
57.17 57.40 56.75 55.59 55.55 54.87 54.55 54.74 54.73 54.48 54.59 54.61 54.80 55.00 54.92 55.37 54.54 52.71 48.77 51.85 54.69 58.98 58.68 57.17 56.82 57.25 59.36 56.43 57.20 56.85 48.68 45.56 47.00 46.40 47.90 52.85 52.05 54.04 55.51 55.73 55.87 57.15 60.44 63.33 66.86
56.16 56.84 56.36 55.04 54.72 54.02 54.29 54.43 54.58 54.33 54.16 54.40 54.10 54.34 54.24 53.76 49.87 47.10 52.80 55.72 57.29 58.63 55.04 53.97 52.70 54.61 53.06 53.37 54.27 52.08 47.65 47.72 51.81 51.76 49.86 52.73 53.07 52.67 53.25 54.63 53.93 55.63 59.13 61.98 66.92
54.75 55.89 56.15 54.80 54.23 53.86 53.76 53.93 53.95 53.68 53.93 53.57 53.41 53.70 53.75 51.05 42.82 43.81 53.87 56.86 57.53 57.40 55.99 55.74 54.86 52.68 49.66 52.62 52.08 50.69 45.89 51.33 52.21 52.57 53.74 52.31 52.69 53.61 53.08 51.83 53.37 52.88 55.99 56.84 64.96
54.35 54.26 55.53 54.78 54.05 53.42 53.16 53.46 53.39 53.25 52.95 52.92 52.62 51.99 51.31 47.86 32.40 48.31 55.10 55.34 57.64 55.82 53.97 52.97 52.17 48.58 46.99 47.01 51.91 47.81 50.66 51.89 52.18 53.63 52.85 51.52 53.57 51.89 53.07 54.11 55.74 55.57 58.14 56.27 62.84
54.97 53.65 54.20 54.89 54.00 54.00 53.13 53.37 53.64 53.40 52.30 52.55 52.25 52.08 49.18 40.82 39.71 49.86 53.45 54.78 55.10 53.93 51.49 50.75 49.22 48.73 45.46 47.92 49.88 48.41 50.26 52.19 52.95 53.48 53.44 53.12 50.86 51.38 52.19 55.09 56.00 56.29 56.97 60.82 60.62
55.19 53.90 52.86 54.11 54.33 53.48 53.52 53.28 54.16 53.82 52.20 51.94 52.01 50.76 44.59 34.89 47.62 50.56 50.29 51.16 53.01 52.45 51.27 51.45 49.99 50.83 47.39 47.76 48.05 50.07 50.40 51.36 52.43 52.45 52.80 50.41 50.54 51.02 52.71 54.68 54.79 55.25 55.85 56.53 58.63
54.76 53.76 52.68 52.64 53.99 53.27 53.76 53.26 53.60 53.76 52.33 51.47 51.32 48.88 42.56 39.55 48.90 51.01 50.18 49.27 52.65 52.20 50.41 51.69 52.98 49.40 48.59 45.72 51.07 50.12 46.86 49.55 50.59 51.99 50.58 52.25 47.46 48.34 54.29 54.18 53.71 54.67 55.51 55.89 55.74
54.35 53.55 52.85 51.86 52.92 52.95 53.24 53.52 53.52 53.63 51.81 51.74 51.34 47.86 39.32 47.97 51.49 49.62 50.00 48.27 51.73 52.78 50.12 51.73 52.69 50.38 49.22 50.19 48.77 46.11 46.96 41.63 49.19 50.68 50.17 49.97 44.10 50.17 54.21 52.97 52.88 54.46 55.19 55.50 55.40
53.89 53.35 52.56 51.56 52.31 52.30 52.85 53.89 53.43 52.86 51.46 51.84 47.85 45.46 38.61 50.23 46.38 49.50 50.87 46.47 49.21 50.82 50.23 52.76 50.55 46.86 47.98 43.85 41.68 43.75 38.78 41.14 43.43 50.68 48.88 48.67 45.43 49.74 52.90 52.46 51.67 53.53 54.87 54.91 54.89
53.49 52.98 51.39 51.53 52.07 51.65 53.04 52.12 51.41 50.80 50.22 50.09 48.59 41.28 43.49 41.24 46.45 48.39 50.45 49.49 47.01 47.23 45.65 47.04 42.52 40.67 43.25 41.86 34.03 37.57 39.62 41.36 41.85 46.90 48.08 46.56 46.09 47.42 50.77 51.73 51.94 53.35 54.62 55.06 54.26
53.20 52.53 51.47 51.35 52.16 51.27 51.13 48.38 43.89 42.15 44.06 40.54 41.03 39.99 41.69 45.20 49.12 46.42 48.67 47.02 46.14 42.88 38.66 40.77 36.33 34.25 40.66 43.12 42.54 42.35 41.22 39.40 42.93 47.25 45.64 44.70 44.80 46.74 49.48 50.19 50.65 52.51 53.55 54.33 54.55
52.78 52.19 51.48 51.69 51.76 50.95 48.83 43.14 42.58 44.39 38.71 43.58 43.84 43.29 44.97 45.15 40.13 43.86 48.50 41.99 40.06 33.63 39.07 37.61 34.54 40.10 44.03 43.40 42.08 42.19 40.24 40.34 44.05 47.51 46.53 44.83 44.69 47.22 48.90 49.90 51.20 51.10 53.07 54.12 55.06
52.49 51.51 51.73 52.05 50.54 49.36 45.96 44.97 48.57 47.27 40.11 40.48 43.71 42.56 43.31 44.76 40.57 39.82 45.01 42.66 38.40 35.89 37.61 35.63 38.35 41.47 42.55 41.26 39.96 40.94 39.89 40.23 40.36 44.94 45.81 44.26 42.05 44.29 48.25 49.57 51.00 52.20 52.89 53.94 55.22
51.79 51.36 51.73 50.61 47.75 47.27 44.39 48.34 49.06 46.89 35.61 36.37 39.32 41.75 44.32 44.15 39.30 45.58 46.99 42.51 39.42 36.05 38.29 37.57 41.75 40.31 41.50 39.67 41.63 37.23 43.49 42.69 41.72 40.85 35.96 44.16 35.03 41.96 45.30 46.09 48.20 50.30 51.61 52.61 53.92
51.16 51.42 51.30 50.55 47.43 45.39 45.96 49.04 48.74 45.73 26.19 37.83 39.64 47.25 45.31 40.38 41.52 42.30 48.75 44.22 37.62 37.97 38.87 36.06 38.51 39.84 39.52 40.50 43.31 38.99 43.65 42.47 41.95 39.58 38.37 38.49 35.88 39.99 44.05 43.39 46.28 49.06 50.62 52.15 53.64
51.26 51.36 50.56 49.38 49.40 47.23 49.09 48.33 46.14 33.15 25.34 33.64 40.76 39.17 38.95 41.17 41.11 43.31 44.48 46.83 45.02 39.29 41.17 40.14 44.54 43.29 42.62 42.81 43.33 42.70 41.47 41.28 40.91 39.30 31.49 37.33 36.40 37.79 40.39 43.11 45.32 48.97 50.58 51.41 52.87
51.11 51.72 50.48 50.13 46.30 49.55 48.38 45.04 33.44 29.92 35.75 34.55 36.76 39.09 38.92 36.20 37.79 40.59 39.50 38.53 36.83 33.66 34.03 38.27 39.53 42.90 43.46 40.17 42.43 42.46 38.99 30.82 28.80 29.93 29.77 35.98 35.64 39.00 43.77 45.56 45.27 46.29 49.00 51.70 53.15
50.35 51.50 49.81 49.10 49.22 48.28 45.89 37.46 30.21 31.57 34.48 39.32 39.54 39.04 35.93 38.70 37.99 39.03 38.12 36.40 39.79 38.79 35.87 33.78 31.61 39.61 42.19 41.63 39.14 40.08 39.46 32.85 24.38 26.25 30.61 34.67 32.07 39.25 45.27 45.75 45.52 46.21 47.40 47.70 48.48
49.74 49.12 48.99 49.30 49.55 48.18 39.67 33.34 33.59 34.73 37.29 37.89 38.99 35.32 35.03 37.53 37.71 38.09 37.54 37.09 39.61 41.97 35.44 33.27 32.54 40.84 42.12 42.99 42.12 38.32 35.33 37.44 32.18 30.90 31.20 34.95 37.06 42.20 43.11 44.60 44.81 44.88 45.31 46.68 48.13
47.53 47.14 47.27 49.45 49.13 44.39 37.16 33.15 35.13 36.84 39.20 39.67 34.18 36.57 32.53 34.88 35.84 36.62 36.47 39.33 39.20 40.84 41.38 37.85 32.12 38.86 40.49 43.22 43.00 40.68 41.25 33.62 35.60 26.32 24.90 30.72 32.61 35.89 40.22 42.11 43.17 43.59 43.96 44.89 47.08
46.75 43.95 47.05 48.77 47.87 40.13 35.20 35.20 37.40 40.79 41.26 38.37 36.24 35.45 35.96 35.69 36.56 35.84 35.91 39.38 41.71 39.31 40.90 39.80 37.48 35.38 39.29 36.78 37.99 38.26 36.94 37.02 36.97 34.26 29.62 28.57 33.54 41.29 41.45 42.18 42.11 43.85 45.10 45.48 46.14
45.51 40.20 47.24 47.72 38.58 35.80 37.30 37.21 40.52 40.54 42.15 40.30 39.65 38.55 37.74 37.41 36.39 36.31 36.00 38.16 43.37 41.88 37.80 38.80 38.06 31.93 35.04 39.74 40.93 39.99 39.08 39.33 33.44 30.58 32.31 31.53 34.11 42.15 42.57 42.65 42.65 44.89 45.77 46.47 47.01
41.91 41.94 45.10 45.44 37.51 37.78 38.76 38.71 40.44 39.36 39.21 38.68 38.03 39.36 40.18 38.50 35.12 37.10 37.85 40.60 42.99 40.85 38.99 40.01 35.71 29.90 30.07 35.01 38.03 36.96 39.61 39.34 37.67 36.10 31.35 30.46 34.64 41.53 42.16 42.72 43.91 45.04 46.71 47.18 47.97
40.65 37.83 39.74 42.05 39.83 38.30 37.26 37.10 37.19 41.06 39.53 39.55 38.61 39.82 39.00 37.16 38.56 36.61 36.96 39.75 41.58 41.69 42.25 42.37 35.93 33.54 30.45 32.55 36.99 33.87 36.46 38.89 37.76 34.09 33.73 33.80 36.18 40.67 42.62 43.62 45.37 46.67 47.87 47.73 48.27
38.51 36.33 37.74 36.58 36.89 37.72 37.62 37.53 36.67 36.40 40.17 40.23 38.26 38.34 37.29 35.23 36.36 36.05 37.81 38.30 40.58 41.68 40.09 40.31 33.98 32.32 33.31 34.93 35.80 35.15 35.74 37.41 35.14 36.49 33.35 35.97 36.60 40.19 42.70 44.12 45.63 46.87 46.18 45.76 46.51
36.81 35.60 35.63 35.34 34.86 36.62 35.42 36.03 36.05 36.29 37.59 37.23 36.85 38.26 38.41 36.00 36.10 35.70 38.06 38.45 38.54 39.29 38.18 38.10 33.17 31.88 31.20 33.80 34.33 32.55 35.46 36.41 37.29 37.63 37.03 37.30 36.49 43.55 45.21 46.00 45.72 46.00 46.62 45.77 46.38
37.02 37.82 39.73 31.49 33.59 36.13 34.35 33.59 34.34 35.58 38.78 39.12 39.17 38.71 37.38 38.15 40.29 39.93 40.85 40.49 41.12 39.76 38.52 38.71 34.17 32.41 30.48 30.88 31.14 29.25 33.72 35.42 36.55 38.58 38.23 34.33 39.58 43.75 42.74 42.99 43.91 44.83 45.67 45.94 46.30

GFSSW_sfc_wetblb_075.txt.gz
Wetbulb
55.56 56.74 57.62 55.82 55.17 54.25 54.64 54.66 54.72 54.54 54.45 54.57 54.67 54.81 55.09 54.71 55.05 53.33 48.57 52.99 55.07 57.99 58.51 57.07 56.27 56.13 57.30 55.05 56.43 56.41 47.49 46.06 46.78 47.48 48.86 53.23 52.26 55.22 56.77 56.41 57.47 59.52 62.06 63.56 67.54
55.47 55.18 56.62 56.00 54.65 54.03 53.95 54.29 54.23 54.00 54.26 54.09 53.89 54.23 54.44 53.92 51.05 48.39 52.54 57.61 56.87 57.53 54.08 53.41 52.65 54.46 52.75 52.66 53.83 50.23 46.77 48.29 53.01 52.80 51.23 51.95 52.81 53.73 53.74 54.68 55.29 57.08 60.90 66.01 67.11
56.51 54.86 54.75 56.37 55.18 53.85 53.69 53.71 53.77 53.80 53.37 53.54 53.28 52.80 52.41 51.32 44.99 44.90 53.58 55.86 57.84 57.06 55.10 55.04 54.25 53.31 49.11 51.87 51.33 50.33 45.52 51.78 52.00 52.73 53.95 53.15 52.55 54.55 52.84 52.28 54.62 54.06 58.21 63.14 66.08
55.96 55.64 54.13 54.95 55.52 54.54 53.98 53.47 53.62 53.94 53.41 52.98 52.85 51.68 51.15 48.47 34.23 47.57 53.82 56.43 56.67 56.43 53.51 52.43 51.81 49.11 46.86 47.12 50.58 46.50 50.04 49.78 50.93 54.03 54.13 52.54 53.68 52.00 53.57 54.62 56.43 56.85 59.82 61.07 63.76
55.63 55.54 54.23 53.48 54.86 54.57 54.41 53.59 53.96 54.88 53.59 52.68 52.74 51.89 50.57 42.57 41.34 49.53 52.69 53.94 54.86 54.26 50.40 50.14 48.57 48.70 45.97 48.20 49.15 48.11 49.82 51.37 52.80 53.16 53.90 54.32 52.12 51.54 52.40 56.42 56.89 57.58 58.76 61.44 63.57
55.24 55.15 54.15 53.25 53.15 54.66 53.65 54.22 53.67 54.40 53.21 52.45 52.43 51.72 46.62 37.34 48.63 50.50 51.14 52.01 52.85 52.73 50.58 51.13 49.13 50.87 48.15 47.34 47.30 49.94 49.90 50.36 52.35 50.59 53.12 52.03 52.07 51.85 52.78 56.71 55.74 55.93 56.79 59.20 63.02
54.94 54.73 54.18 53.11 52.60 53.67 53.56 54.11 53.56 53.98 53.63 52.55 52.28 50.20 44.49 41.51 50.16 51.90 51.00 50.73 53.37 52.52 49.53 52.46 52.45 49.33 49.58 46.62 50.55 49.77 46.59 49.30 50.07 50.13 50.85 53.58 48.89 48.69 53.09 55.27 54.40 55.36 56.40 57.44 57.62
54.51 54.19 53.93 52.56 52.43 52.86 53.03 53.55 54.01 53.82 52.83 52.12 52.24 49.72 41.32 49.91 52.92 49.93 50.59 49.38 53.11 53.68 51.73 52.50 52.90 50.02 48.41 50.27 48.82 46.03 47.12 41.03 48.41 50.11 51.39 51.50 44.26 51.02 53.33 54.02 53.50 54.65 55.78 56.55 56.72
54.27 54.09 53.56 52.09 52.09 52.53 52.30 53.44 53.94 53.24 51.82 51.84 49.47 46.96 40.15 51.01 47.00 50.11 50.93 46.98 50.14 51.18 52.05 52.19 50.71 46.99 47.16 43.60 41.27 43.25 37.85 40.75 44.00 50.14 49.46 49.36 45.19 50.48 53.49 52.04 51.77 53.61 54.75 55.80 56.77
53.86 53.61 52.90 52.10 52.02 52.61 51.98 53.12 51.58 51.70 51.22 51.23 49.32 43.32 44.78 41.71 47.44 49.00 50.69 49.70 47.29 47.96 46.99 46.29 43.91 42.47 42.78 41.75 34.18 36.92 38.53 41.12 41.80 46.95 48.50 46.99 46.25 49.44 52.53 51.75 51.61 52.96 54.03 55.21 55.83
53.47 53.03 52.38 51.96 52.00 52.30 51.66 49.97 45.92 44.45 45.97 41.56 41.93 41.56 42.92 46.94 49.54 46.96 49.00 47.12 46.79 44.38 38.66 41.26 37.29 35.87 40.71 43.38 43.22 41.65 40.24 40.57 43.56 48.00 46.42 45.76 46.08 47.92 50.46 51.61 51.36 51.98 53.05 54.01 55.85
52.88 52.62 51.89 52.12 52.29 50.96 51.12 45.13 44.81 46.41 40.61 45.09 44.68 44.20 45.66 45.95 40.70 44.84 49.14 42.48 41.25 37.00 38.47 37.29 34.66 39.78 43.19 43.76 42.06 42.04 40.11 40.31 43.67 46.92 46.42 45.41 45.32 48.66 50.36 50.62 51.73 51.82 52.94 53.74 55.33
52.44 51.80 51.76 52.10 51.02 50.19 47.91 46.21 50.39 49.02 41.16 42.13 43.99 42.90 43.36 43.94 40.78 41.28 45.91 43.35 38.61 35.90 35.55 36.15 39.14 41.87 41.01 40.72 39.24 41.04 40.52 40.80 40.97 44.80 46.14 45.12 42.92 45.79 49.22 50.95 51.38 52.50 53.85 54.58 55.00
51.80 51.51 51.83 50.85 47.32 49.81 46.00 49.68 51.03 49.50 35.37 36.90 39.88 42.18 45.09 45.01 38.81 45.85 47.42 43.33 38.43 34.86 34.68 38.43 42.06 38.85 40.39 40.18 41.99 37.23 43.88 43.54 42.22 40.96 35.87 44.71 34.78 43.09 46.10 47.08 49.07 51.12 52.42 53.22 54.80
51.72 51.22 51.62 50.71 49.79 47.12 48.11 50.62 50.57 47.61 26.72 39.25 40.42 48.63 46.12 41.22 42.22 42.17 48.58 44.39 36.54 36.48 40.62 37.55 39.38 38.51 39.72 40.35 43.63 39.92 44.87 43.23 42.68 40.65 39.98 40.35 37.04 40.86 45.64 44.49 46.89 49.90 51.40 52.90 53.79
51.26 51.02 50.66 49.83 50.83 49.23 50.73 50.17 47.80 33.79 25.12 34.12 40.94 39.91 39.61 41.85 42.05 44.51 43.15 45.44 45.01 40.69 42.29 40.93 45.23 42.96 42.38 44.53 44.50 45.36 43.26 42.06 41.63 39.59 32.16 37.63 37.45 37.99 41.55 43.26 45.84 49.05 51.11 52.34 53.13
50.94 51.53 50.56 52.27 46.78 51.55 51.08 46.75 33.26 30.88 37.27 35.30 37.45 39.19 39.06 36.85 38.50 40.97 39.47 37.89 36.56 33.00 34.73 38.45 39.75 43.87 44.93 41.28 44.20 43.15 39.22 31.19 29.21 30.09 30.10 38.66 36.71 39.60 44.64 46.17 46.76 46.83 49.40 51.69 53.16
50.38 51.78 50.01 51.24 51.27 50.13 47.99 39.44 29.84 33.91 35.03 40.61 40.24 39.72 36.17 37.85 38.01 39.50 38.08 36.56 40.53 40.04 36.02 32.96 31.92 40.01 44.36 41.37 39.29 40.06 39.46 32.81 24.69 26.95 30.93 37.49 32.33 38.84 46.09 47.83 48.08 48.64 49.23 50.21 50.24
51.29 51.51 49.80 50.99 50.76 49.37 42.03 33.83 35.80 36.31 37.21 38.81 39.78 35.77 35.99 38.38 38.30 38.64 38.23 37.54 39.64 41.99 35.83 34.59 33.00 41.83 43.37 44.26 43.89 39.60 36.01 39.47 34.26 35.61 32.84 35.27 38.56 43.63 44.75 45.67 46.59 46.87 47.14 48.59 49.91
49.34 47.99 47.32 51.76 50.60 46.79 38.01 35.58 37.91 40.42 41.64 41.46 34.72 38.11 33.15 35.88 36.68 37.66 36.77 40.63 40.16 42.96 43.29 39.44 31.95 39.40 42.06 44.30 43.95 41.88 43.56 33.96 35.81 26.75 25.70 32.00 34.29 36.65 40.93 42.73 44.69 45.26 46.10 47.24 47.90
48.51 42.66 48.10 50.25 49.07 42.19 34.40 36.37 39.77 42.74 43.11 40.21 38.03 36.44 36.62 36.40 38.28 37.16 37.36 39.46 43.01 41.75 42.72 42.37 38.69 35.68 41.09 39.18 38.30 38.81 37.06 38.50 38.15 35.45 29.79 28.96 33.45 43.26 42.44 43.82 44.38 46.05 47.43 48.08 48.70
47.48 41.09 48.16 49.13 39.54 38.48 37.98 40.04 41.72 41.96 43.75 42.02 41.55 40.67 38.61 39.50 38.02 37.82 37.23 40.04 44.46 43.39 38.54 41.25 38.77 33.02 36.03 41.49 43.26 41.78 39.36 39.38 32.99 31.34 34.10 32.67 34.37 43.79 45.26 44.79 45.79 46.52 47.62 48.93 49.60
44.15 41.61 45.07 46.12 35.57 39.11 41.36 40.61 42.01 40.91 41.40 40.52 39.75 41.02 42.51 39.87 36.30 39.13 39.74 42.54 44.73 42.42 40.55 41.84 36.96 30.02 31.40 37.11 40.31 38.00 40.49 41.03 40.24 38.10 33.90 31.06 34.54 44.42 44.65 44.26 45.78 46.59 47.82 49.22 49.55
44.17 38.55 40.99 41.55 43.98 40.93 39.66 39.24 38.74 42.75 41.18 41.43 40.83 41.83 40.73 38.96 41.13 38.42 38.97 41.17 43.79 43.32 42.64 43.61 38.69 35.49 31.47 33.90 38.22 35.13 37.62 40.00 38.05 34.05 33.96 34.73 36.94 41.31 43.17 43.73 45.55 46.87 48.38 48.84 49.21
42.33 40.46 42.88 36.61 39.89 41.22 40.95 40.37 38.57 37.59 41.80 42.00 40.10 40.48 39.49 36.46 38.11 37.96 40.07 40.15 42.78 42.23 42.12 42.00 34.01 33.71 35.38 37.15 37.29 36.21 36.85 37.98 35.26 36.95 34.14 36.77 37.56 41.14 43.83 45.11 46.32 47.64 48.10 47.69 47.96
39.51 38.41 38.76 39.98 40.58 40.62 38.12 39.22 38.90 38.84 39.82 38.65 38.41 39.98 40.64 38.11 38.30 37.46 39.95 40.41 39.92 41.98 41.13 41.11 33.90 34.40 33.27 35.79 35.76 33.76 36.95 38.00 38.30 38.80 38.61 38.50 37.84 44.71 45.93 46.77 45.62 45.88 46.25 46.68 47.91
41.47 41.33 42.16 36.31 38.73 38.95 38.81 39.34 39.07 40.17 40.45 41.84 41.25 40.41 39.54 39.86 42.18 41.69 43.04 42.44 42.66 41.12 40.21 40.01 36.03 33.24 31.81 33.16 33.31 30.70 35.42 36.94 38.11 39.86 39.68 35.63 40.66 44.73 43.65 43.60 44.19 45.02 45.81 45.93 47.03

GFSSW_sfc_wetblb_078.txt.gz
Wetbulb
57.27 56.17 55.62 57.05 55.85 54.76 54.44 54.36 54.43 54.65 54.61 54.88 54.50 54.66 55.17 55.37 55.03 52.74 47.64 52.55 54.43 59.38 57.66 55.76 54.88 54.61 55.60 54.06 55.33 55.92 46.73 43.46 45.18 46.78 47.48 51.58 50.88 53.94 55.61 55.39 55.82 59.03 59.64 64.89 67.70
56.63 56.91 55.35 55.36 56.65 55.13 54.15 54.04 54.15 54.45 54.50 54.00 54.06 54.14 54.04 54.19 49.95 47.35 53.91 55.34 56.09 58.22 52.82 51.41 50.14 52.17 50.39 50.94 52.86 49.50 45.71 46.07 50.68 50.03 49.39 50.92 51.21 51.87 52.59 52.96 53.94 56.53 63.71 65.44 66.94
56.17 56.55 56.06 54.60 55.29 55.90 54.75 54.29 53.87 54.42 54.50 53.60 53.81 53.74 52.82 52.16 44.54 43.51 55.02 54.89 56.05 56.28 53.86 52.79 52.47 51.19 47.65 50.37 49.78 49.32 44.89 49.50 50.76 52.35 53.09 50.84 51.27 53.18 51.41 50.13 51.94 52.10 60.19 64.67 65.87
55.72 56.27 56.02 54.65 54.01 55.30 55.08 54.86 54.00 54.44 54.89 53.57 53.44 53.27 53.16 49.29 33.91 47.24 53.46 54.61 56.38 55.93 52.78 50.33 50.31 46.99 45.50 45.11 50.00 45.80 49.35 49.32 51.35 52.70 52.20 50.99 52.04 50.66 52.28 51.33 54.51 55.44 61.49 63.20 64.60
55.41 55.83 55.56 55.04 53.71 53.75 55.33 54.10 54.48 54.23 54.51 53.48 53.25 52.78 49.51 42.64 40.94 50.69 52.11 52.27 52.65 52.39 49.78 48.29 47.40 46.88 43.57 45.49 48.03 45.94 48.63 50.31 51.76 52.00 51.57 53.29 50.42 49.65 51.74 54.26 55.17 56.55 60.83 62.38 63.41
55.05 55.22 55.17 54.82 53.38 53.08 53.96 53.96 54.60 53.81 54.45 53.70 53.04 52.67 46.17 37.19 48.29 50.50 50.62 50.60 51.94 51.14 49.61 49.62 48.07 49.51 45.91 45.78 45.68 48.47 48.74 49.60 50.28 50.42 50.01 48.71 50.50 50.79 50.87 54.68 53.98 55.05 56.21 60.46 62.89
54.79 54.93 54.58 54.34 53.01 52.73 53.21 53.69 54.02 53.87 54.22 53.37 53.05 50.64 44.52 41.10 49.57 51.16 50.57 49.95 52.77 51.77 48.65 51.26 51.64 48.39 47.65 45.41 48.82 48.22 45.25 48.01 48.45 49.88 48.10 50.82 47.72 46.95 51.37 53.26 52.61 52.95 54.16 55.85 56.65
54.58 54.58 54.52 53.71 52.23 52.21 53.12 52.90 53.47 54.36 53.92 52.98 53.07 49.25 41.21 50.06 51.51 49.93 50.66 49.17 52.57 53.68 51.98 52.53 52.98 49.31 47.26 48.50 46.55 44.43 44.84 39.30 45.81 49.00 49.94 48.83 40.62 48.70 51.17 50.55 50.88 51.39 52.31 53.42 54.74
54.33 54.21 53.89 53.06 51.87 52.32 53.04 52.47 53.74 53.54 53.49 52.58 48.93 46.75 39.74 51.15 46.53 49.50 50.11 47.59 50.04 51.12 52.29 52.52 50.73 46.66 46.11 41.59 39.24 41.62 35.63 38.50 41.81 47.13 46.08 45.68 42.34 49.70 51.77 50.39 49.90 50.79 51.09 52.12 53.64
53.95 53.90 53.33 52.64 52.10 52.28 52.74 52.53 52.84 51.85 51.86 51.10 49.29 42.34 44.64 41.70 46.70 48.64 50.32 48.79 46.97 47.45 46.68 45.94 44.26 41.01 41.33 39.99 31.65 35.02 35.77 38.44 38.93 44.09 44.37 43.19 43.69 47.50 50.67 49.48 48.47 49.35 50.38 51.53 51.98
53.68 53.25 52.84 51.83 52.10 52.77 50.72 50.36 44.84 42.85 45.93 41.63 41.78 41.63 43.59 46.77 49.25 46.70 48.69 46.38 46.77 43.96 37.34 40.46 37.40 35.60 37.76 38.40 41.51 39.94 38.05 37.40 40.80 46.60 44.88 43.62 44.27 46.61 48.08 47.97 48.38 48.20 50.04 50.96 51.65
53.27 52.78 52.01 52.11 52.51 51.88 49.95 45.29 45.01 46.35 39.82 45.53 45.00 44.32 45.84 46.23 40.66 44.49 48.50 41.78 40.77 36.32 38.74 36.51 34.16 39.40 42.50 40.79 40.83 38.63 37.18 37.46 41.91 45.80 45.07 43.62 43.01 45.88 47.38 48.07 49.21 49.34 49.88 50.58 52.06
52.90 52.03 51.55 52.28 51.19 49.43 48.33 46.53 50.79 49.42 40.08 42.35 44.38 42.96 43.73 44.94 40.64 41.22 45.46 43.15 38.71 35.79 35.66 34.76 37.47 42.06 40.46 40.04 38.47 38.37 36.78 38.07 38.09 43.49 44.54 42.22 39.16 42.15 46.98 47.78 49.63 50.56 50.89 52.07 52.03
52.54 51.80 51.48 51.15 46.83 49.84 45.72 49.87 51.12 50.33 34.41 37.09 39.84 42.31 44.83 43.89 38.41 46.09 47.36 43.29 38.66 34.97 36.07 34.82 41.16 39.74 38.83 38.30 40.25 35.34 42.03 42.12 41.15 38.71 33.99 41.38 27.77 39.38 42.93 44.51 47.55 47.64 49.28 48.62 50.83
52.05 51.64 51.22 51.34 48.98 46.12 48.37 50.70 50.57 46.74 23.82 39.00 39.90 48.67 45.98 40.85 40.52 41.54 48.12 43.92 36.19 35.54 37.34 35.95 37.94 37.39 37.84 39.09 42.33 38.66 43.55 41.93 41.55 38.96 36.73 37.15 30.59 34.46 42.13 40.74 44.27 46.09 47.41 48.38 49.91
51.45 51.20 50.94 49.33 50.04 49.67 51.18 50.58 46.87 32.40 21.17 33.61 41.42 39.76 39.29 41.53 40.93 42.70 42.79 44.08 43.72 36.77 37.47 39.33 43.85 41.81 42.12 43.87 43.36 43.62 40.85 40.33 40.63 37.37 25.20 34.57 32.78 31.84 35.90 40.31 43.23 45.93 48.65 48.95 49.55
50.91 51.25 50.22 51.89 46.63 51.38 51.07 45.81 32.76 28.15 37.53 33.84 36.35 38.99 38.65 37.40 38.69 39.00 37.88 36.95 35.57 30.34 33.25 38.38 39.37 43.05 44.32 40.27 43.12 41.47 37.24 27.23 23.82 22.43 23.52 34.87 31.81 33.91 40.19 42.39 41.61 43.45 42.60 45.94 49.27
50.27 51.69 50.75 50.95 51.51 50.90 47.54 38.32 27.63 34.70 33.91 40.78 39.90 39.11 35.93 38.03 38.36 38.99 36.82 34.70 40.00 38.76 32.97 29.78 27.08 39.30 43.22 41.00 37.99 37.75 35.56 27.17 20.28 20.73 25.04 33.86 25.96 33.34 40.88 43.62 44.50 45.40 43.84 46.59 45.51
52.32 50.05 49.20 50.58 51.32 49.76 42.02 31.84 34.45 34.64 36.78 38.35 38.62 35.52 35.50 38.41 38.10 38.38 37.36 36.76 39.00 38.48 33.48 31.51 31.63 41.27 43.16 43.61 42.19 37.03 33.27 36.32 30.80 30.44 25.43 30.05 33.04 37.03 41.74 41.25 41.45 42.07 43.47 41.99 44.38
48.49 47.18 46.69 51.68 51.01 46.61 37.27 34.02 37.39 42.09 42.07 41.44 34.98 37.85 33.42 35.72 35.79 36.47 35.99 39.86 40.00 42.61 41.93 36.87 30.17 38.66 41.79 43.79 42.49 39.72 41.14 30.60 29.22 20.15 20.61 27.35 29.53 30.77 35.49 38.12 40.78 40.93 41.24 42.71 43.67
47.56 42.55 47.76 50.33 48.82 42.04 32.91 35.88 40.05 42.93 43.40 39.80 37.54 36.60 36.34 35.74 36.67 36.42 36.66 39.10 42.58 40.90 40.74 39.42 35.00 34.55 39.62 37.27 36.09 36.89 36.04 35.85 34.04 29.36 23.44 21.39 27.21 37.48 37.96 39.99 40.35 41.32 42.89 43.10 43.82
45.91 38.96 47.65 49.02 39.18 38.16 35.54 39.68 42.21 41.77 43.68 42.05 41.29 40.27 37.67 38.64 37.29 36.49 36.20 38.73 44.28 41.86 38.27 40.15 37.44 29.69 35.22 40.92 42.63 40.46 36.24 36.10 27.29 27.15 28.34 26.51 28.27 39.53 40.49 41.69 42.62 42.36 43.56 43.03 45.71
42.95 40.70 44.74 46.20 34.12 35.10 40.57 40.34 42.27 40.94 41.33 40.75 39.85 41.23 42.33 39.13 35.45 38.31 39.10 43.01 43.23 41.67 39.20 39.93 33.57 27.68 28.98 34.83 38.21 35.85 38.65 39.39 36.89 33.34 27.45 23.99 27.75 40.86 39.68 39.92 41.34 41.75 42.22 44.20 45.46
43.52 35.67 39.70 41.90 41.01 38.18 38.41 38.63 38.13 42.96 41.67 41.81 40.82 41.33 39.84 38.53 39.88 37.37 37.49 41.57 43.33 42.75 43.81 42.10 36.20 31.68 26.86 29.52 34.51 30.54 35.75 37.98 35.89 28.06 30.35 30.79 32.67 36.06 38.60 39.65 41.13 42.19 41.12 42.89 43.25
41.77 39.48 39.67 33.93 36.88 39.03 40.34 40.15 37.96 36.74 41.49 41.65 39.38 39.81 39.04 35.82 37.24 36.97 38.55 39.13 42.08 42.11 40.09 39.29 30.64 26.55 32.87 35.80 35.43 34.10 34.42 35.44 31.38 34.55 27.13 32.74 34.08 37.33 38.99 39.86 39.71 41.12 42.77 43.25 44.43
38.04 37.00 38.66 39.29 40.48 38.76 38.81 38.08 38.18 38.66 39.64 37.81 37.42 40.24 39.47 36.85 37.17 36.53 38.61 38.22 37.81 39.30 37.84 38.64 29.72 29.21 28.46 34.54 33.64 29.63 34.80 35.62 36.23 36.61 35.57 35.94 35.24 41.79 39.90 40.88 40.20 41.73 42.43 42.63 43.29
40.76 40.80 39.15 38.07 37.40 37.01 37.12 38.79 39.55 40.57 40.71 42.02 40.96 39.11 38.37 39.06 40.52 39.45 40.18 40.22 39.60 39.55 37.31 36.69 31.97 28.98 24.80 30.20 29.29 26.30 32.43 34.67 35.56 37.40 37.13 33.12 38.00 39.73 38.82 40.47 40.33 41.47 42.30 42.29 43.04

GFSSW_sfc_wetblb_081.txt.gz
Wetbulb
56.88 56.74 57.02 55.63 55.48 56.89 55.79 54.39 54.40 54.59 54.82 54.70 54.35 54.45 54.48 54.14 54.28 50.48 46.95 51.34 53.63 59.31 58.34 54.13 54.19 52.29 53.08 52.48 54.82 55.04 44.88 40.68 42.00 43.79 46.48 49.22 49.50 52.49 54.23 53.87 56.65 58.95 60.54 63.68 66.70
56.14 56.73 57.14 56.18 55.07 55.46 56.49 54.99 54.54 54.30 55.00 54.92 54.00 54.26 54.11 53.76 48.95 45.74 53.52 57.48 57.45 55.87 52.58 49.79 48.56 50.90 48.00 49.87 52.24 49.29 44.36 42.88 47.97 48.49 46.32 49.04 49.41 50.52 51.81 52.83 55.74 60.21 63.11 66.19 66.06
55.82 56.19 56.75 56.35 54.82 54.40 55.74 55.72 55.06 54.48 54.91 55.11 53.85 54.01 53.80 52.21 43.78 42.90 53.46 55.46 55.99 55.36 53.05 51.90 50.30 49.99 46.09 48.31 48.83 48.81 44.57 48.22 50.42 52.72 52.44 50.01 49.78 51.77 50.29 48.46 50.19 58.60 61.75 64.21 63.67
55.83 55.81 56.30 56.11 55.14 54.31 54.37 56.11 54.74 54.82 54.60 54.58 53.70 53.83 53.42 48.92 30.53 45.52 52.55 53.97 55.16 53.95 51.56 49.90 48.12 45.48 44.08 43.79 48.71 45.38 49.02 49.68 50.95 52.01 51.76 50.63 52.09 49.84 50.31 50.08 53.75 60.11 63.78 63.99 64.11
55.67 55.52 55.54 55.35 55.29 53.56 53.57 54.66 54.58 55.15 54.18 54.71 53.91 53.36 49.09 42.32 40.00 50.12 53.73 52.37 51.13 50.49 48.52 47.58 45.22 45.96 42.52 43.12 46.89 44.89 47.89 49.64 50.98 51.65 51.34 52.31 49.55 50.39 49.34 52.79 54.57 61.77 62.58 62.34 62.67
55.76 55.10 55.34 55.00 54.48 53.10 53.05 53.60 54.44 54.75 54.01 54.58 53.63 53.10 45.67 36.88 45.98 49.50 50.07 50.18 49.12 48.76 47.22 48.01 46.89 47.50 44.98 43.97 44.89 47.48 47.90 48.70 50.31 50.68 50.32 48.95 49.65 48.85 49.63 52.09 52.51 60.10 60.54 61.93 63.20
55.57 55.10 54.80 54.88 53.98 52.76 52.56 53.55 53.82 53.92 54.49 54.42 53.38 50.36 44.66 41.23 48.17 49.29 50.19 48.74 50.65 50.93 46.57 50.33 50.56 47.48 46.71 43.35 47.71 47.94 43.76 45.71 47.54 49.21 47.85 50.05 47.39 46.10 49.34 50.98 50.93 52.72 58.11 60.34 61.73
55.42 54.89 54.50 54.40 53.26 52.32 52.56 53.60 52.97 53.69 54.55 54.23 53.10 47.80 41.61 49.59 48.27 49.52 50.12 50.09 53.25 52.97 51.67 52.11 51.96 48.82 46.42 46.57 45.92 43.96 44.22 38.83 45.15 48.37 49.35 47.90 41.88 47.73 50.19 49.24 48.52 49.45 50.79 52.58 55.00
55.03 54.54 54.27 53.54 52.86 51.95 52.32 53.49 52.92 53.91 53.67 53.52 47.62 45.06 39.55 51.31 46.00 48.45 49.73 46.62 50.33 51.29 51.68 51.44 49.86 45.81 45.45 40.70 38.73 40.73 34.55 38.21 40.81 47.49 46.93 45.81 41.85 47.12 49.85 48.21 47.56 48.35 48.86 50.48 51.31
54.61 54.07 53.68 53.23 52.03 52.44 53.11 53.01 52.72 52.27 50.95 50.99 49.09 41.50 43.96 41.48 46.39 47.91 49.66 48.27 47.25 47.37 45.66 44.91 43.82 38.52 39.29 38.83 31.58 34.65 34.95 37.91 38.70 43.20 45.06 42.63 41.70 45.86 48.48 47.97 46.87 47.42 48.73 47.95 50.62
54.18 53.68 53.10 52.29 52.06 52.68 49.75 46.95 42.10 40.37 43.29 40.17 41.50 41.19 43.18 46.33 49.05 46.65 48.98 46.48 46.50 42.84 36.92 40.34 34.84 31.85 34.63 39.23 38.88 38.80 37.58 36.47 41.05 45.34 42.74 40.34 40.31 43.84 46.92 47.24 44.87 44.72 46.64 48.68 49.12
53.81 53.06 52.34 51.89 52.14 52.15 47.75 43.44 42.63 43.41 38.23 45.23 44.83 44.18 45.31 45.66 40.66 44.40 48.13 40.97 39.58 35.22 38.41 35.11 32.55 39.42 41.51 40.43 39.89 38.50 36.03 36.10 41.29 44.89 43.62 40.78 40.22 44.80 45.97 47.20 46.59 47.01 46.41 47.53 49.44
53.30 52.54 51.67 51.62 51.43 47.81 45.49 45.34 48.07 46.60 36.84 41.86 44.04 42.61 43.38 44.27 39.98 40.81 44.95 42.09 38.16 33.39 35.38 32.76 36.76 41.24 40.56 38.49 37.45 37.49 34.68 35.32 37.77 42.50 43.58 42.38 39.57 42.01 45.04 46.81 47.74 48.71 48.11 47.97 49.68
52.74 52.14 51.24 51.54 45.94 46.52 43.85 48.12 47.98 46.31 29.02 36.67 39.61 42.17 44.43 43.55 37.89 45.54 47.02 42.87 37.23 32.54 35.19 34.31 38.67 39.17 38.93 37.18 39.20 34.68 40.01 40.04 39.93 38.04 33.39 41.08 30.57 38.75 43.05 44.36 45.78 45.57 45.59 47.23 48.16
52.35 51.71 50.94 51.63 46.53 45.32 46.91 47.83 46.56 42.93 21.87 38.96 39.70 47.78 45.78 40.36 39.24 40.97 47.30 42.94 34.48 34.47 35.55 32.87 38.02 37.86 37.10 37.93 40.22 37.95 41.30 39.49 40.35 38.31 34.82 36.27 32.48 34.53 38.28 40.25 43.39 44.09 44.60 46.08 46.73
52.06 51.29 51.06 48.47 46.85 48.24 47.90 46.56 43.35 28.61 13.83 34.34 40.37 39.33 38.45 40.94 40.66 42.40 42.64 43.64 42.01 36.87 38.11 38.14 43.41 41.37 40.95 42.88 42.43 43.46 40.00 39.79 39.43 36.91 27.90 34.72 33.00 30.07 33.83 40.21 40.18 43.00 44.94 46.62 47.27
51.71 51.16 49.91 51.09 45.82 47.83 47.51 41.87 30.96 20.37 35.92 32.86 35.05 38.12 37.68 36.73 38.30 37.84 37.29 35.55 34.15 28.39 30.93 37.94 38.36 42.53 43.67 39.60 42.69 40.59 34.77 28.94 27.18 27.02 25.43 33.60 30.56 32.30 36.87 40.47 42.04 43.37 43.13 43.48 46.08
51.09 51.64 49.99 50.76 48.67 47.51 44.04 37.29 22.59 33.34 29.84 39.67 38.00 37.36 34.61 37.09 37.81 37.75 36.19 32.56 37.58 36.00 33.57 29.31 28.04 38.47 42.77 40.18 36.92 38.48 35.37 25.08 21.21 22.06 23.94 32.22 26.34 33.01 38.46 40.34 42.03 43.12 43.32 43.25 42.89
52.02 47.58 46.42 47.55 49.10 46.79 41.65 26.11 27.34 30.08 34.14 37.36 37.32 33.04 33.74 37.62 36.87 37.75 36.51 35.12 37.14 37.39 31.76 30.98 31.37 41.19 42.55 42.36 40.03 36.99 32.98 34.27 28.86 27.57 24.03 27.43 31.45 36.42 38.46 39.28 39.21 40.33 42.01 41.85 42.22
46.36 46.44 46.04 49.27 49.60 45.61 36.61 30.14 33.21 39.60 40.35 39.61 33.79 36.00 32.29 33.83 34.76 35.72 36.10 37.45 38.20 39.71 38.45 34.15 29.27 38.47 41.49 42.46 40.78 38.68 38.80 28.17 25.28 20.97 20.84 24.63 25.79 28.33 32.90 34.92 38.20 38.57 39.08 40.73 41.68
44.66 40.60 46.55 49.68 48.15 41.20 30.63 30.12 37.96 41.62 41.82 38.82 37.18 35.97 35.63 33.11 35.13 34.02 34.16 37.53 40.53 39.06 37.90 36.57 31.95 33.45 38.29 35.39 33.75 35.22 34.26 33.73 31.93 26.81 22.52 19.39 24.31 33.81 35.12 37.46 37.97 39.26 41.01 41.62 41.61
42.77 37.24 47.40 48.24 37.41 37.53 32.89 36.92 41.84 40.06 41.43 40.17 40.03 38.34 36.92 36.50 34.28 34.04 33.98 36.81 41.88 40.87 35.25 38.46 33.29 30.62 32.95 38.77 40.46 37.89 35.84 35.18 24.98 26.44 24.45 23.44 25.91 37.72 38.20 39.65 40.70 40.49 41.68 41.76 42.69
39.95 40.17 44.61 46.12 32.14 32.40 35.47 38.89 40.34 39.52 39.25 39.31 37.97 39.02 39.42 36.90 33.30 36.19 36.35 41.15 41.40 39.36 37.03 37.43 29.76 26.97 30.24 32.95 36.34 35.48 37.34 37.94 34.67 30.34 22.48 20.41 25.11 37.74 37.26 39.59 41.17 41.22 39.79 42.22 43.49
38.87 33.83 39.29 41.96 39.22 36.33 35.06 36.14 36.43 40.70 39.72 39.82 38.77 38.76 37.28 37.14 37.70 34.84 35.70 40.17 41.80 40.92 43.97 41.76 33.49 27.20 22.04 27.08 32.39 29.57 34.53 36.89 33.20 22.29 27.71 27.68 29.85 32.21 36.23 37.54 38.72 38.41 40.06 40.85 42.82
39.06 34.39 36.63 32.74 34.35 35.86 35.83 37.44 36.00 35.04 38.84 39.22 36.53 37.32 37.17 33.66 35.17 34.70 36.30 37.84 40.79 42.32 39.33 38.04 28.36 23.99 31.85 35.28 35.00 32.98 33.02 34.22 29.48 33.34 28.06 32.22 33.23 35.92 36.10 37.58 38.74 40.16 40.86 41.57 42.13
35.88 35.50 36.57 33.89 35.68 34.04 35.40 35.47 35.81 37.07 36.87 35.43 34.93 37.90 37.00 34.28 33.99 35.12 36.02 35.64 35.92 37.59 37.26 37.45 27.92 28.98 28.27 32.87 32.53 29.81 33.27 33.90 34.41 34.62 34.71 35.27 34.01 40.42 39.62 38.39 37.98 39.46 40.66 40.87 41.78
38.45 37.55 36.01 34.77 34.10 33.53 33.38 35.86 37.33 37.94 38.83 40.02 38.30 36.72 36.60 37.31 37.92 38.46 37.11 39.03 37.79 36.67 34.99 34.55 28.89 24.83 22.13 29.59 28.45 25.16 30.56 32.80 33.59 35.52 35.62 31.35 36.72 38.12 36.70 38.12 38.29 39.66 40.09 40.01 40.38

GFSSW_sfc_wetblb_084.txt.gz
Wetbulb
56.28 56.40 56.73 57.37 56.07 55.25 55.55 56.79 54.71 54.67 54.54 55.22 55.43 54.70 54.77 54.42 53.88 49.49 46.02 50.23 52.73 58.09 57.67 53.32 52.22 52.55 52.37 50.20 54.01 53.57 44.50 40.50 41.12 41.04 44.10 48.18 48.52 51.63 53.76 53.86 57.06 58.84 59.55 62.89 65.29
56.28 56.21 56.57 56.97 56.62 55.12 54.68 56.10 56.19 55.04 54.67 55.19 55.72 54.54 54.46 54.11 48.26 45.15 51.56 56.02 57.47 57.81 51.58 48.57 46.59 49.24 46.41 48.26 50.44 48.67 43.00 43.24 46.78 46.74 44.98 47.59 48.01 49.93 51.97 53.86 57.54 60.03 63.98 64.43 61.64
56.27 55.95 56.04 56.66 56.39 54.90 54.64 54.22 56.30 55.14 54.87 54.93 55.03 54.25 54.09 51.85 43.18 42.34 52.51 54.63 55.84 55.31 52.34 51.21 49.21 47.87 44.48 47.12 47.23 48.47 43.53 47.61 50.15 52.38 52.12 48.65 48.45 50.88 49.91 47.55 52.98 58.65 60.97 63.68 62.90
56.30 55.84 55.53 55.65 55.55 55.48 53.98 53.71 54.97 54.93 55.19 54.40 54.96 54.26 53.94 48.04 28.20 44.04 53.04 52.83 54.63 53.66 50.86 48.32 47.49 43.68 42.62 42.41 46.66 45.27 48.30 49.16 50.90 51.53 51.44 49.15 50.31 48.13 49.60 49.31 56.07 61.57 63.29 63.50 62.26
56.38 55.88 55.20 55.16 55.33 54.83 53.38 53.59 54.09 54.96 55.13 54.09 54.85 53.93 48.68 41.21 40.68 47.69 54.18 52.20 50.61 49.82 47.45 45.76 44.87 44.20 40.52 42.47 44.62 45.10 47.74 49.79 51.13 51.30 50.70 51.16 48.02 47.01 48.79 51.69 57.14 62.38 63.33 62.92 62.53
56.25 55.72 55.15 54.84 55.08 53.99 53.13 52.60 53.64 54.36 54.37 54.20 54.49 53.19 45.11 36.21 45.84 47.30 49.81 49.93 48.27 46.75 46.28 47.53 45.98 47.11 43.55 43.23 42.23 46.38 47.79 48.48 50.36 50.15 49.84 47.89 48.96 48.09 48.72 51.79 58.46 59.99 60.78 62.07 62.77
56.21 55.45 54.78 54.46 54.41 53.54 52.77 52.96 53.83 53.40 53.78 54.74 54.25 50.19 44.07 41.33 47.52 47.92 49.36 48.91 50.20 47.73 45.06 48.39 49.05 46.22 46.07 43.12 45.77 46.48 43.99 46.70 46.58 47.86 48.53 49.03 46.42 46.42 48.42 50.10 55.54 56.16 56.98 60.94 61.41
56.02 55.08 54.54 54.15 53.33 53.08 52.10 52.75 53.45 52.91 53.77 54.33 53.91 46.99 39.79 49.39 47.37 48.46 49.71 50.09 52.23 51.27 49.48 51.12 51.52 48.36 45.41 45.70 43.60 42.21 43.65 38.93 45.10 48.13 49.18 46.36 41.12 47.08 49.27 47.02 48.16 50.79 52.38 56.21 58.97
55.98 54.78 54.13 53.78 53.38 52.16 52.54 52.77 53.23 53.09 53.89 53.50 47.44 44.96 38.61 50.95 45.50 47.37 48.29 46.04 49.72 50.92 51.40 51.28 49.33 45.20 45.05 39.15 37.58 39.55 34.75 37.29 40.88 46.65 47.14 43.61 39.24 47.50 49.31 47.42 46.13 47.17 48.36 50.25 52.00
55.68 54.35 53.64 53.23 52.09 52.08 52.53 53.01 52.43 52.27 50.04 50.78 48.60 40.96 42.47 41.00 45.63 47.25 48.73 48.07 46.65 46.86 45.01 44.55 42.64 39.70 40.27 37.75 29.97 33.48 34.14 37.11 38.30 43.84 44.91 43.30 42.92 46.20 47.82 47.69 45.81 46.04 46.57 47.82 50.30
55.45 54.20 52.79 52.43 51.64 52.28 49.29 45.90 41.38 39.76 42.25 39.41 40.31 40.90 42.63 45.52 48.20 45.68 48.34 45.57 45.13 42.61 35.94 39.18 36.77 33.74 36.30 38.91 39.95 37.47 36.68 35.94 39.58 44.21 41.93 41.18 42.21 44.48 47.15 46.48 45.14 44.89 46.01 46.54 48.72
55.08 53.96 52.29 51.41 51.75 51.80 47.28 42.83 41.80 42.60 36.49 43.96 43.99 43.57 44.92 44.91 40.49 43.64 47.79 40.05 38.66 33.63 37.54 35.60 32.86 38.47 41.25 41.35 39.33 38.40 36.24 36.75 40.97 44.33 41.94 40.72 40.58 43.73 46.06 46.14 45.27 45.51 44.67 46.49 47.17
54.77 53.53 51.99 50.91 51.15 47.42 44.94 45.41 47.12 45.49 35.62 41.01 43.32 41.91 42.44 43.62 39.13 39.90 44.95 41.58 36.35 32.72 34.51 33.24 35.37 39.95 39.97 38.98 37.98 37.36 36.41 36.24 37.44 41.80 43.18 41.10 38.21 40.77 44.28 45.59 46.12 46.73 46.98 46.82 47.91
54.42 53.19 51.92 51.05 45.85 46.11 43.99 47.86 46.71 45.42 26.00 34.09 38.71 41.70 43.88 42.86 36.84 44.57 46.41 41.75 35.92 32.43 35.77 35.75 38.29 39.34 37.66 36.58 38.37 34.68 40.01 39.71 39.39 37.47 34.02 42.03 30.36 37.29 41.24 43.03 43.64 44.16 44.90 46.74 47.36
54.02 52.94 52.02 51.13 45.78 43.54 45.90 46.91 45.47 42.15 11.89 36.65 38.76 47.10 45.05 40.04 37.92 39.89 46.15 41.82 32.87 34.08 35.85 32.65 37.68 37.42 35.74 37.28 40.09 37.44 41.60 39.43 40.09 36.95 36.00 36.59 30.29 34.26 38.25 38.67 41.10 43.82 44.57 45.34 46.86
53.52 52.58 51.61 48.84 46.59 47.45 47.06 45.98 42.58 29.14 13.43 31.43 39.33 38.12 38.32 40.46 40.42 42.15 41.70 42.57 41.08 36.63 38.40 38.70 43.18 40.75 39.52 41.69 41.37 42.99 39.11 38.15 38.94 36.78 29.91 33.83 29.79 30.33 33.35 39.31 39.71 43.16 44.42 45.05 45.75
52.98 52.08 49.44 49.23 44.05 47.26 46.81 40.99 29.92 19.47 33.96 30.40 34.16 37.62 36.93 36.70 37.25 37.65 36.72 33.08 30.35 22.96 29.19 36.90 37.76 41.30 43.36 38.90 42.19 40.36 33.68 26.27 27.46 26.97 24.88 32.72 31.46 32.53 36.98 39.52 42.11 42.34 43.28 43.97 44.88
52.39 51.52 50.12 50.12 47.78 46.75 43.62 32.70 22.88 28.77 29.06 38.99 36.13 35.69 34.06 37.13 36.76 37.53 35.92 32.36 36.54 35.99 34.33 27.03 27.15 38.38 42.17 39.99 37.02 37.10 33.44 26.30 21.86 23.55 24.25 32.31 28.75 32.79 37.25 39.36 40.71 41.66 42.43 41.96 40.60
51.79 48.11 46.22 47.11 48.36 46.34 37.72 24.83 23.62 28.71 33.01 37.09 35.95 31.84 33.37 36.04 35.90 36.71 34.20 32.16 37.07 37.29 32.96 30.65 31.63 40.64 41.87 42.00 39.32 36.32 30.64 34.26 28.09 26.45 22.57 27.77 31.39 35.64 38.30 38.22 39.29 39.62 39.81 38.99 39.60
46.60 45.66 44.91 48.43 48.18 44.49 35.81 28.07 31.00 38.46 38.82 37.95 30.58 34.00 29.58 32.80 32.93 34.48 33.47 36.25 37.29 39.38 38.97 34.32 30.88 37.94 39.98 40.71 39.27 36.52 38.45 27.24 25.17 20.21 20.40 23.61 24.87 27.91 31.78 33.35 36.89 37.95 38.49 39.30 40.23
45.97 40.43 45.96 49.53 47.79 40.21 30.26 28.01 35.04 40.50 40.98 38.37 35.34 35.19 34.26 32.86 34.86 32.42 32.96 36.03 38.91 39.41 37.27 35.99 33.06 31.55 36.49 34.25 32.33 34.34 32.29 32.56 30.12 26.24 20.94 20.36 24.87 32.61 34.60 35.72 37.01 37.90 38.89 40.02 41.06
43.11 35.96 46.60 47.94 36.96 37.01 32.29 34.01 41.26 38.88 40.36 38.98 38.36 37.43 35.34 35.63 33.78 35.30 32.77 35.01 40.15 39.08 34.55 37.46 32.55 25.95 31.50 37.31 38.92 36.12 33.71 32.05 23.84 23.30 22.54 21.86 25.40 35.36 36.15 37.68 38.78 38.75 39.94 41.15 41.80
40.45 39.58 45.33 45.92 30.61 32.49 34.38 36.14 40.07 38.26 38.07 38.15 36.83 38.12 38.20 34.77 31.91 34.89 35.54 40.01 40.36 38.60 34.85 36.83 28.70 26.90 30.26 32.15 34.86 34.06 35.86 36.07 32.57 28.36 21.50 21.42 24.72 37.55 36.41 36.36 38.35 37.91 39.13 41.22 42.17
40.00 33.82 39.32 41.96 39.86 33.71 32.09 35.21 36.68 39.64 39.02 39.04 37.24 37.81 36.30 35.72 36.06 33.65 34.63 39.28 40.37 40.38 43.93 40.98 31.54 26.28 21.69 26.18 30.97 28.82 33.31 35.64 31.35 22.34 26.13 26.94 28.77 32.45 35.00 37.14 37.09 37.44 39.46 39.51 41.30
38.33 33.43 38.16 32.48 34.27 36.05 34.37 36.20 35.11 34.31 37.59 38.23 35.14 36.07 35.44 32.88 33.66 33.06 35.42 36.60 39.66 41.21 37.77 36.67 26.64 22.39 30.02 34.50 33.02 31.56 31.74 33.42 29.71 32.14 26.05 30.80 32.13 33.74 35.52 36.90 37.69 39.08 39.42 40.03 40.46
35.93 34.19 35.59 32.87 35.04 33.82 35.59 33.74 34.74 35.27 35.47 34.23 34.14 36.54 36.10 34.76 33.31 32.99 35.36 34.58 34.73 36.08 34.65 35.64 25.95 27.43 27.04 32.09 32.20 30.00 32.76 33.05 33.41 33.32 33.20 33.26 32.20 37.68 37.51 36.43 36.43 38.24 39.53 39.47 40.51
37.08 36.99 36.56 34.74 31.94 32.79 32.30 34.41 36.23 37.25 38.19 38.28 36.86 36.21 35.20 36.51 37.13 36.28 36.01 37.02 37.70 35.61 33.93 33.54 28.75 25.28 21.39 27.81 28.53 25.46 29.54 31.84 32.41 34.35 34.54 30.83 36.77 38.80 36.56 37.48 37.13 38.61 38.94 38.92 39.28

GFSSW_sfc_wetblb_087.txt.gz
Wetbulb
57.18 56.89 56.62 56.99 57.20 56.85 55.37 55.06 56.18 56.21 55.29 54.88 55.18 56.35 54.93 54.53 53.80 48.22 44.44 48.88 51.80 57.39 56.81 51.88 51.07 50.53 51.35 47.73 51.41 51.44 42.94 39.66 40.44 40.55 42.14 47.60 48.52 50.88 54.58 53.79 56.56 59.16 58.88 61.82 64.04
57.36 57.04 56.58 56.49 56.82 56.72 54.81 55.06 54.71 56.24 55.71 55.14 55.16 55.44 54.40 54.22 47.67 44.45 50.90 54.88 56.23 56.55 50.81 48.28 45.61 47.51 45.18 45.51 47.17 45.83 40.66 40.45 45.34 44.67 43.88 47.33 47.93 49.80 52.85 55.50 56.22 60.58 62.13 62.83 64.66
57.52 56.91 56.55 55.96 56.14 55.81 55.39 54.42 54.18 54.81 55.55 55.31 54.63 55.17 54.25 51.53 41.72 41.15 53.65 53.27 54.47 55.18 52.33 49.83 48.61 46.31 42.48 44.58 44.78 44.09 40.90 44.50 47.93 50.91 51.15 48.60 47.06 49.86 50.68 49.34 55.29 57.63 60.39 61.48 62.79
57.88 56.98 56.60 56.22 55.52 55.49 54.96 54.07 53.59 54.19 55.38 55.52 54.34 54.87 53.93 47.13 28.48 42.60 53.08 53.26 53.72 52.56 50.50 47.85 46.40 41.95 40.56 39.45 44.82 40.67 45.22 45.86 49.99 51.05 50.17 48.24 49.67 46.90 48.67 49.04 54.61 61.04 61.56 60.77 60.27
57.86 57.25 56.54 55.72 55.47 55.43 54.33 53.68 52.98 53.76 55.01 54.94 54.11 54.08 47.95 40.43 39.71 48.16 53.06 53.17 50.01 48.20 45.76 45.26 43.07 42.04 38.57 40.26 42.35 41.92 43.45 47.30 51.01 50.66 49.44 50.51 47.64 46.82 47.94 51.31 61.29 62.69 61.80 59.88 60.42
57.84 57.25 56.38 55.57 55.00 54.85 53.79 53.02 53.30 53.84 54.19 54.27 54.00 52.93 44.82 36.19 46.02 46.53 47.48 49.70 49.13 47.10 44.37 46.28 44.23 45.54 41.44 41.49 40.77 43.48 46.12 45.46 50.30 49.51 49.18 47.55 47.63 47.40 47.90 51.67 58.68 60.85 61.16 61.61 61.19
58.05 57.19 56.27 55.38 54.97 54.35 53.52 52.42 52.97 54.11 53.51 54.24 54.14 49.93 43.62 40.20 47.58 46.75 48.54 49.45 50.03 48.87 43.41 46.91 48.14 45.56 44.11 40.48 44.34 44.07 42.38 43.96 47.99 47.54 48.12 48.66 46.13 44.13 47.56 49.77 55.78 57.32 58.83 60.40 60.68
57.84 57.06 56.11 55.17 54.60 54.06 52.55 52.34 52.70 53.28 53.20 54.15 53.31 46.34 40.01 49.18 46.88 47.56 48.52 49.18 51.60 50.37 47.47 49.15 49.26 46.38 44.98 43.97 42.33 40.63 41.15 34.91 45.40 46.95 47.49 46.35 41.81 46.55 48.41 46.49 50.19 52.77 54.96 58.05 60.68
58.03 56.92 55.88 54.81 54.19 53.33 52.24 52.65 52.76 53.11 53.39 53.36 46.73 44.70 37.81 50.52 44.51 46.59 47.44 45.90 49.30 49.21 48.87 50.74 48.32 43.30 44.84 37.12 34.68 37.20 33.90 35.16 39.97 45.90 45.54 43.69 41.78 46.22 48.34 46.61 45.92 45.47 49.55 51.72 54.59
57.74 56.52 55.43 54.29 53.64 52.53 52.31 52.90 51.87 51.59 49.62 50.18 48.40 41.19 41.36 40.45 44.93 46.44 47.85 47.39 46.20 45.31 42.30 44.40 43.53 36.30 38.99 35.11 27.21 31.82 34.26 36.05 35.72 43.26 43.34 40.12 40.84 45.37 47.98 46.22 45.21 45.68 45.49 47.17 49.84
57.48 56.05 54.81 53.73 52.87 52.10 49.58 45.16 41.21 39.01 41.49 38.92 38.87 40.01 41.92 44.36 47.33 44.84 47.27 44.67 44.92 42.64 35.73 38.11 36.30 32.60 37.00 36.59 38.14 37.18 35.80 35.90 39.64 44.28 41.64 39.65 40.40 42.30 46.24 45.88 43.47 45.10 45.50 46.22 48.89
57.53 55.47 54.42 53.13 52.16 52.24 47.02 41.57 40.98 41.92 34.73 42.72 42.84 42.81 44.22 44.10 39.87 42.76 47.53 39.14 37.97 33.06 36.84 32.81 32.82 38.27 40.67 40.91 38.81 37.24 35.68 35.56 40.04 43.14 41.46 40.47 39.13 42.54 45.26 46.31 44.37 44.47 45.74 46.05 46.73
56.68 55.22 54.01 52.49 51.64 48.19 44.45 44.52 46.25 44.62 34.68 39.77 42.42 41.09 41.45 42.62 38.05 38.96 44.15 40.53 35.49 32.68 33.93 31.86 35.72 39.54 39.79 39.16 37.13 36.15 35.09 35.85 37.11 41.21 42.27 40.66 37.54 39.93 44.13 46.43 45.61 45.89 46.01 46.72 46.82
55.50 54.90 53.82 51.91 46.50 45.87 43.01 47.41 45.91 44.33 23.85 32.11 37.94 40.71 42.90 41.76 35.43 43.77 45.62 41.07 35.13 30.95 35.35 35.03 38.92 38.54 37.73 36.90 38.05 33.75 39.08 39.38 38.97 36.67 33.95 41.00 30.90 37.03 40.98 42.53 44.45 44.11 43.96 45.59 46.56
54.74 54.50 53.45 52.02 46.58 43.99 45.36 45.98 45.06 41.31 10.58 34.53 37.61 46.27 44.36 38.27 36.51 37.90 45.26 40.68 32.29 33.00 35.30 34.14 35.49 36.79 35.27 35.92 39.43 37.35 41.05 39.21 39.52 37.09 36.25 36.58 32.02 33.67 39.42 39.83 42.60 41.79 42.89 44.64 46.89
53.74 54.01 53.25 49.93 47.36 47.42 46.24 45.39 41.62 27.23 13.13 30.54 38.33 36.71 38.41 39.87 40.14 41.01 40.48 41.35 39.87 36.53 38.72 38.63 42.58 40.35 38.42 40.90 41.26 41.87 39.21 39.43 38.77 36.81 28.61 34.42 32.35 30.33 33.38 38.39 41.16 41.33 42.66 44.59 45.43
53.39 53.61 51.19 49.79 43.99 47.42 45.65 40.03 26.02 22.93 32.35 29.06 32.79 36.65 36.40 37.01 36.22 37.15 35.98 31.39 28.38 27.70 31.78 36.18 37.40 40.99 42.66 38.62 40.25 39.77 33.44 27.54 26.37 26.88 26.08 33.34 31.61 32.55 36.68 38.15 40.50 40.95 41.85 43.66 43.67
52.54 52.89 51.05 49.74 48.24 46.28 42.76 31.90 21.39 26.63 28.11 36.43 35.07 35.14 33.59 37.13 35.91 36.47 33.55 30.13 36.40 35.67 33.25 28.11 24.57 37.85 41.33 39.54 36.72 37.48 32.04 27.16 22.81 23.85 22.98 32.84 28.73 32.26 35.31 38.09 39.06 40.68 41.30 41.38 40.83
52.97 49.29 47.69 48.26 48.01 45.47 35.51 22.56 23.14 26.41 31.86 35.37 34.52 29.70 31.14 35.61 36.40 34.17 31.29 31.94 35.23 36.40 31.51 29.12 31.55 40.28 42.01 42.53 41.34 35.85 27.33 32.87 26.85 25.29 22.98 27.71 31.21 35.02 36.05 36.35 37.54 38.32 39.20 38.27 38.98
47.42 45.55 45.48 48.84 48.27 43.01 31.31 27.96 28.98 36.46 37.40 36.44 28.88 32.32 27.66 31.51 33.19 33.32 31.56 35.18 36.59 38.34 37.69 34.01 29.84 38.19 40.36 41.59 39.85 37.62 37.06 28.83 26.96 20.36 19.59 22.33 24.58 27.06 31.47 33.53 36.51 37.17 37.89 38.95 39.43
45.80 40.80 46.63 48.67 46.44 37.95 25.79 26.60 32.74 39.23 39.97 35.96 33.02 32.10 31.57 31.59 34.04 31.58 31.17 34.98 38.33 38.21 37.73 35.77 31.61 33.63 35.85 33.26 31.52 33.85 33.24 31.87 30.03 25.49 20.15 19.35 24.08 31.38 33.30 34.80 35.97 36.62 37.37 39.07 40.30
44.07 33.98 46.95 47.68 35.38 35.16 28.09 32.58 39.63 37.92 39.61 38.20 37.59 36.59 32.77 33.59 33.87 35.12 31.44 33.63 39.31 38.88 34.69 36.29 31.01 28.08 29.79 35.63 37.34 34.57 32.11 31.13 23.67 23.14 21.61 20.82 24.67 33.71 33.35 36.64 37.55 37.87 38.59 40.21 41.17
39.65 39.63 46.21 45.44 29.92 29.91 32.84 34.51 36.93 37.22 37.29 37.15 35.78 37.42 36.72 33.66 32.53 35.94 34.20 39.24 39.12 37.52 34.90 35.64 27.92 18.97 23.61 29.64 33.75 32.31 34.48 33.28 30.34 27.29 20.69 19.26 24.41 35.76 36.00 37.32 37.31 37.11 38.36 40.57 41.32
40.44 33.19 39.72 41.54 39.13 31.75 30.93 33.05 35.96 39.16 37.92 38.36 36.57 36.60 35.96 34.30 36.01 32.82 33.70 38.35 39.45 38.64 43.39 39.51 30.10 26.29 20.19 25.45 30.12 28.58 32.62 33.98 29.16 21.43 24.93 25.21 27.19 30.80 33.48 35.93 35.31 37.33 38.79 39.15 39.74
39.91 35.31 37.94 32.27 34.24 33.55 33.53 35.14 35.34 33.71 36.78 37.43 33.97 35.15 35.34 32.31 32.70 32.27 35.19 35.85 39.12 41.00 36.90 34.84 24.85 21.75 29.64 33.24 31.46 30.62 30.75 32.63 26.71 29.09 24.71 28.55 29.60 32.33 34.45 35.00 36.23 36.04 38.17 38.72 39.83
37.00 34.91 36.30 33.21 36.88 34.64 35.97 32.69 34.82 34.22 34.47 33.28 33.24 35.14 34.68 33.60 33.50 32.34 34.81 33.34 33.55 36.65 33.73 34.42 25.01 26.58 26.84 31.08 30.92 28.78 30.52 31.27 31.77 32.34 32.25 31.67 31.17 36.38 36.01 36.34 36.59 38.04 37.80 38.44 38.80
39.41 39.15 36.08 35.68 34.09 32.68 33.83 32.89 35.02 36.67 37.35 36.88 36.06 34.99 34.02 35.03 35.67 35.88 35.26 37.13 36.30 34.86 32.97 32.14 27.51 23.69 20.70 26.79 27.69 24.15 28.36 30.30 31.02 32.99 32.99 29.11 34.09 35.50 34.25 36.38 36.06 37.41 38.14 37.61 38.31

GFSSW_sfc_wetblb_090.txt.gz
Wetbulb
58.93 58.09 57.79 57.08 56.95 57.52 57.46 55.90 55.36 55.31 56.32 56.02 55.42 55.22 55.73 54.58 53.92 47.45 42.75 47.10 50.72 57.03 56.17 51.08 50.19 49.00 48.70 46.84 48.87 48.90 40.40 36.67 39.48 41.33 42.12 45.69 46.81 50.41 52.89 54.55 56.36 57.69 58.43 60.62 63.89
59.53 58.47 57.91 57.27 56.57 56.74 56.70 56.46 54.89 54.75 54.57 56.38 55.54 54.92 55.40 54.33 47.60 44.12 50.31 54.92 54.79 55.59 49.62 47.37 45.60 46.26 42.31 43.50 45.41 43.34 38.10 38.14 44.22 44.33 41.84 46.04 47.97 49.14 52.74 54.43 56.05 59.04 61.18 62.80 62.12
60.24 58.87 57.97 57.36 56.95 56.11 55.99 56.03 55.06 54.06 54.37 55.82 55.75 54.56 54.76 51.03 40.86 39.31 53.39 53.44 53.62 54.23 51.13 49.48 48.06 45.30 39.79 41.92 41.88 41.52 38.26 42.44 45.83 47.16 48.42 47.77 47.67 50.60 50.81 51.50 55.58 56.87 58.84 60.13 60.53
61.50 59.36 58.10 57.61 56.98 56.20 56.13 55.94 54.54 53.70 54.09 55.25 55.03 54.15 53.49 46.20 26.47 41.29 52.50 53.46 53.33 50.81 48.69 47.46 45.64 40.67 37.82 36.66 41.64 37.88 42.48 44.15 46.54 48.14 49.31 48.13 50.10 46.79 49.48 49.90 54.21 60.46 60.34 59.76 57.99
62.12 59.63 57.90 57.53 56.76 55.95 55.64 55.39 54.33 53.41 53.47 54.36 54.44 53.71 47.13 39.16 39.30 47.42 52.35 51.70 50.27 48.72 44.79 42.79 42.13 39.94 36.79 39.74 41.05 39.32 41.09 44.87 46.81 47.32 48.17 49.97 47.74 46.56 46.14 49.53 60.03 61.14 60.02 60.12 58.79
62.22 59.79 57.34 57.36 56.40 55.71 55.34 54.61 53.79 53.72 54.52 53.42 54.16 52.65 43.62 34.07 45.08 46.56 46.06 48.86 48.88 47.63 45.02 43.98 43.26 43.49 40.00 39.69 39.36 40.96 42.41 43.24 46.24 45.94 48.26 47.52 47.36 47.71 47.36 49.73 60.55 59.76 59.01 60.30 60.71
59.78 60.10 57.29 57.20 56.13 55.61 55.09 54.06 53.56 53.53 53.80 53.14 53.84 50.04 42.66 39.80 46.57 47.24 47.10 48.64 50.10 48.81 45.65 45.36 46.46 43.19 43.10 40.03 42.96 41.63 39.44 42.92 41.89 44.44 47.55 47.97 44.61 44.18 48.12 49.77 55.85 58.79 58.42 59.33 60.13
56.75 60.01 57.44 56.60 55.85 55.30 54.61 53.91 53.00 53.21 53.51 53.26 53.09 47.36 38.86 48.01 47.24 46.73 47.14 48.26 50.81 49.07 46.87 48.11 47.80 43.66 41.63 43.55 41.11 37.86 39.57 35.31 41.60 41.01 43.99 45.94 41.16 45.37 48.01 48.03 49.09 53.69 56.96 59.10 60.32
56.24 58.54 57.43 55.99 55.49 54.43 53.65 52.92 53.02 53.66 53.63 53.49 47.09 43.00 37.35 49.69 43.74 45.80 46.20 45.51 48.79 48.04 48.19 49.47 46.96 41.38 40.40 36.62 34.08 36.11 31.99 34.97 37.09 42.83 44.93 43.70 42.40 45.69 47.85 47.02 46.17 46.90 49.95 55.33 58.60
55.03 55.63 56.98 55.37 54.54 53.72 52.62 53.06 52.95 52.11 49.98 50.02 47.78 40.03 40.16 39.59 43.99 45.63 47.02 46.62 45.88 44.26 42.02 43.28 40.85 35.87 37.60 33.41 25.13 30.44 32.52 35.36 35.73 41.93 41.78 40.47 40.20 44.42 46.11 45.68 44.85 45.34 46.32 48.24 53.73
52.77 54.83 56.42 55.07 54.02 52.57 50.36 45.84 42.35 39.42 41.51 38.27 38.29 39.07 41.00 43.95 46.15 44.06 46.46 43.98 44.58 42.41 34.93 38.88 33.07 31.97 35.24 35.33 35.46 35.72 34.87 33.83 37.23 41.79 40.49 38.80 39.72 42.37 44.98 44.39 44.24 44.43 45.72 46.46 49.62
53.26 54.43 55.73 54.09 53.15 52.02 47.83 42.66 41.12 41.43 34.13 41.65 41.60 41.97 43.60 43.39 39.11 41.46 46.45 37.91 36.81 31.95 36.28 33.40 32.75 36.99 40.51 39.83 37.52 36.72 35.03 35.67 39.60 41.31 39.92 39.40 38.73 42.18 44.34 44.81 45.83 45.53 45.32 45.99 46.93
51.80 54.01 55.36 53.32 51.83 49.91 45.15 44.48 46.64 43.95 33.44 38.58 41.52 40.49 40.55 42.20 37.10 38.13 43.19 39.15 34.37 31.17 33.32 28.39 34.97 39.59 39.24 38.07 36.54 35.47 33.91 34.38 35.24 39.78 41.80 39.18 36.20 39.48 43.54 45.69 46.49 45.50 46.23 46.39 47.12
51.33 53.15 54.66 52.65 46.80 46.33 43.21 47.57 46.86 43.51 22.62 31.90 37.01 39.80 41.99 41.03 34.17 43.25 44.71 39.69 33.75 29.99 34.22 33.08 39.31 38.03 37.07 35.93 37.66 33.49 39.20 38.98 38.27 35.32 31.65 39.61 29.82 34.63 40.35 42.10 44.60 43.39 43.52 44.90 46.26
51.13 52.89 53.99 51.59 47.02 44.69 46.60 47.60 44.84 40.15 10.10 33.48 36.55 45.38 43.49 37.52 34.94 36.50 44.47 39.35 31.30 31.95 33.68 33.00 36.94 36.79 35.47 36.06 39.41 36.77 40.01 38.99 38.62 36.56 35.67 35.13 32.05 33.95 38.24 38.34 41.85 41.66 42.67 44.17 45.99
50.89 52.08 52.53 50.62 48.02 48.28 47.25 45.64 41.08 22.90 10.92 32.25 37.59 35.59 38.28 39.33 39.85 40.09 39.23 40.30 38.94 35.87 38.55 37.29 41.73 39.57 39.35 41.01 40.93 41.42 38.94 38.85 38.13 36.70 25.61 34.10 31.15 30.61 34.29 38.43 40.50 43.28 43.03 43.83 45.27
50.34 50.81 50.23 50.62 44.30 49.53 46.42 40.86 24.27 14.45 31.05 28.80 31.78 35.44 35.60 35.30 35.61 36.54 34.67 30.55 28.03 29.59 32.00 34.77 36.93 40.54 42.36 37.11 39.83 40.43 35.07 28.42 26.91 26.78 25.02 32.80 30.11 31.60 37.05 38.46 40.91 41.12 40.86 42.35 43.39
49.85 50.56 49.69 49.53 49.93 47.27 43.88 32.54 15.47 26.12 27.75 34.62 34.37 34.65 32.07 35.23 34.13 34.96 31.40 28.78 33.90 33.89 31.44 23.54 20.05 35.73 40.96 37.96 34.61 37.00 32.99 28.21 21.59 21.15 24.87 32.93 29.00 31.67 35.81 37.98 39.24 40.85 38.95 40.75 41.57
49.93 48.23 48.21 48.59 49.91 46.97 37.68 24.97 22.75 26.79 30.98 34.08 33.03 29.20 29.68 34.60 33.81 32.61 29.85 30.33 34.05 34.84 28.61 27.22 29.56 40.21 40.40 42.18 41.13 35.58 29.47 33.67 27.07 26.81 23.52 28.10 30.66 33.78 36.20 36.69 37.77 38.21 37.77 38.17 38.77
45.31 44.94 45.05 49.58 48.96 44.32 34.30 28.30 28.40 33.47 36.38 34.67 28.03 30.66 26.98 29.92 30.00 33.43 30.93 34.12 35.49 38.37 37.90 33.03 29.05 36.89 39.68 41.84 39.30 35.84 36.26 28.38 27.80 22.44 19.57 22.20 22.89 26.48 31.71 33.80 36.05 37.31 38.16 38.17 39.05
43.72 39.21 46.39 49.22 47.63 39.51 30.30 26.54 31.72 36.89 38.65 34.39 30.89 30.34 29.50 30.16 31.40 29.36 29.07 33.95 38.28 38.30 37.49 33.99 30.36 32.68 34.42 33.74 31.16 32.71 31.58 30.47 29.44 25.75 20.70 19.69 23.82 30.85 32.24 33.38 34.56 35.97 38.13 39.57 40.23
41.68 33.94 47.00 48.04 35.91 36.39 31.94 31.61 37.84 36.63 38.32 36.79 36.25 34.67 32.01 32.74 31.23 31.26 30.01 32.20 40.22 38.07 33.14 34.37 30.61 25.96 31.37 34.96 36.09 33.37 30.35 29.14 23.45 23.31 20.93 20.58 24.64 33.01 31.97 35.33 36.70 37.42 38.98 39.73 40.65
39.24 39.26 46.88 45.63 30.81 32.20 33.11 33.49 35.48 35.98 36.49 36.09 35.36 36.64 34.64 32.51 30.35 33.07 33.11 38.10 39.20 36.85 34.96 34.58 27.15 24.36 26.80 29.34 33.23 31.72 33.14 31.52 28.91 26.58 21.08 19.34 23.90 34.99 34.73 35.66 36.46 37.37 37.42 39.48 40.06
39.41 32.80 39.70 41.42 38.91 33.10 31.49 30.80 33.42 37.98 36.83 37.74 36.51 35.79 34.95 32.53 34.61 31.84 32.46 37.62 38.05 37.76 42.47 38.42 28.51 24.70 19.70 24.89 29.32 28.28 31.49 31.24 28.47 22.11 24.03 24.03 24.65 29.88 32.78 35.15 35.08 37.15 37.04 37.05 38.29
40.36 35.75 38.17 31.90 34.34 33.06 32.11 33.22 33.63 33.17 36.24 36.09 33.18 34.13 34.60 30.39 31.96 30.83 33.29 34.44 37.74 39.89 35.90 33.75 24.32 21.46 29.26 31.40 30.77 30.59 30.74 31.08 24.63 27.29 24.06 26.97 28.94 30.61 33.49 33.76 35.28 35.62 37.78 38.28 38.33
36.51 36.14 36.71 35.68 36.45 33.50 32.58 33.26 33.57 33.98 34.40 32.56 32.49 34.21 33.99 32.89 32.94 31.91 34.16 31.59 32.12 34.65 32.37 33.03 24.13 26.28 25.06 28.95 29.41 28.41 30.06 30.27 31.09 31.31 30.02 29.08 29.80 34.76 33.91 33.88 34.47 36.89 37.61 37.46 37.94
39.59 39.54 38.61 36.14 34.88 32.44 30.50 32.38 35.37 36.15 36.45 36.21 35.20 34.13 33.15 34.40 35.28 35.66 34.81 36.02 34.71 33.25 31.68 30.89 27.14 23.25 20.06 25.98 26.99 23.10 27.70 29.67 30.50 31.14 31.99 28.65 32.93 35.20 34.62 36.03 35.49 36.24 37.38 37.41 37.46

GFSSW_sfc_wetblb_093.txt.gz
Wetbulb
61.62 60.91 59.63 58.57 57.69 57.45 57.22 57.54 57.21 55.75 55.47 55.76 56.81 55.75 55.19 55.46 54.18 48.34 43.29 46.62 51.00 56.21 55.28 51.07 50.20 49.48 49.50 46.98 49.55 49.79 38.55 34.86 37.77 40.06 43.06 48.38 47.29 51.48 53.24 52.10 57.27 58.15 57.90 61.31 62.13
62.82 61.91 60.63 58.80 57.91 57.60 56.89 56.66 56.65 55.82 55.01 55.20 56.59 56.03 55.00 54.60 48.27 44.59 50.29 53.81 55.41 54.54 49.28 46.95 44.59 46.68 43.89 44.10 45.70 42.46 36.88 36.68 42.67 44.43 44.48 47.37 47.80 49.14 50.04 51.97 55.11 57.71 61.98 62.13 61.32
62.05 62.58 61.14 59.18 58.03 57.67 57.03 56.41 56.74 55.59 54.66 54.81 56.13 55.34 54.61 50.51 40.53 39.28 52.95 55.10 53.52 53.22 50.34 49.24 48.01 44.84 40.34 42.54 42.23 41.04 35.78 40.97 42.65 45.32 48.31 48.07 47.41 50.00 48.92 48.15 54.55 55.87 59.82 61.09 60.10
59.73 60.69 61.93 59.48 58.00 57.66 56.80 56.01 56.19 55.03 54.23 54.60 55.58 54.34 52.60 47.15 28.99 42.10 53.14 52.80 54.09 50.61 47.53 46.13 45.23 40.11 38.64 36.96 41.36 36.56 40.68 41.79 44.13 46.49 47.42 46.58 49.52 48.60 49.17 50.21 53.68 59.88 60.62 59.91 58.75
58.98 58.67 59.78 59.47 58.03 57.19 56.54 55.72 55.38 54.69 54.19 54.53 54.93 53.68 47.43 39.98 39.11 47.42 52.58 50.00 50.16 48.41 45.45 43.31 40.25 40.74 36.44 37.83 38.83 37.35 38.91 42.41 44.58 45.00 47.01 48.68 46.19 46.86 48.97 52.77 52.45 59.31 60.36 59.28 58.74
56.36 57.06 57.39 59.55 57.68 56.79 56.07 55.47 54.96 54.07 54.04 54.69 54.05 52.36 44.32 34.85 44.86 47.27 46.23 47.72 48.17 47.40 45.29 44.72 41.10 43.73 39.64 38.35 38.19 40.32 40.48 41.25 43.90 44.82 46.51 45.40 45.87 46.79 49.45 51.38 51.95 58.64 58.90 59.49 58.36
54.69 55.04 56.68 59.10 57.58 56.62 55.65 55.53 54.17 53.44 53.68 53.92 53.78 50.85 43.02 39.14 47.11 47.78 47.74 47.42 49.48 48.65 44.94 46.64 45.60 42.52 41.79 37.93 42.06 39.63 35.06 40.61 41.86 44.34 44.38 46.35 40.68 40.90 48.96 49.74 51.78 57.37 58.11 57.78 58.52
53.36 54.02 56.14 58.95 57.20 55.57 55.07 53.86 53.16 53.06 53.01 53.45 53.59 47.99 39.49 47.84 47.49 47.73 47.63 47.79 50.64 48.70 46.97 47.53 47.33 43.85 40.91 40.75 39.33 36.90 37.94 33.63 41.05 43.29 41.97 42.59 36.24 44.65 48.56 48.79 51.60 54.20 57.90 58.65 59.73
52.81 53.28 54.19 56.99 56.14 55.08 53.83 53.10 52.69 53.13 53.19 53.23 48.88 44.85 37.59 49.42 43.96 45.93 46.90 45.15 48.65 47.86 47.86 48.96 46.51 41.31 39.99 32.99 31.47 36.41 30.90 33.48 37.21 42.33 41.91 38.70 36.32 44.22 47.49 47.51 46.97 48.31 51.52 57.78 60.05
51.83 52.47 52.86 55.53 55.48 53.65 52.93 52.59 52.52 51.65 49.85 50.25 48.21 40.87 40.82 39.42 43.83 45.45 47.03 46.34 45.28 43.88 42.06 43.38 40.27 36.08 35.57 31.86 27.62 30.09 31.77 34.41 35.16 40.11 40.34 36.95 34.61 38.12 46.45 46.30 46.68 46.83 48.93 53.90 58.21
51.39 51.40 52.12 54.96 54.29 53.28 50.42 46.96 43.27 40.99 42.58 40.13 39.85 39.19 41.02 44.18 46.08 44.21 46.49 44.65 45.07 42.40 35.49 38.18 33.73 29.65 34.74 34.62 36.07 35.72 34.69 33.78 38.50 41.74 39.10 37.87 35.55 39.94 45.49 45.66 46.33 47.32 48.38 50.40 54.22
51.13 51.32 52.17 54.92 53.75 52.31 48.74 43.06 42.86 42.57 35.80 42.20 42.06 41.87 43.63 43.64 38.37 41.06 46.50 38.53 37.42 32.94 36.56 34.32 32.64 36.63 36.52 36.79 37.56 36.63 35.14 35.13 38.36 40.66 38.30 36.92 35.34 40.44 44.51 45.03 46.30 47.00 47.23 48.48 49.99
50.74 51.04 52.64 54.22 52.44 50.35 46.18 44.70 48.20 44.95 34.80 38.25 41.28 40.78 40.83 42.07 37.17 37.89 43.35 39.73 35.12 32.39 33.65 29.60 35.25 39.75 39.34 37.69 35.98 35.91 34.61 34.94 34.90 39.40 39.34 37.35 33.95 39.10 43.84 45.87 47.21 47.94 47.87 47.83 48.75
50.45 50.69 52.44 52.31 47.14 46.41 44.17 48.05 48.30 44.53 28.55 32.43 37.81 39.86 41.71 40.86 34.25 43.13 44.77 40.42 34.46 31.89 34.11 33.95 39.20 38.24 36.84 36.14 37.55 33.32 39.02 38.28 36.75 35.70 31.58 38.96 28.52 36.05 41.06 42.35 45.32 47.10 46.81 46.85 47.91
50.17 50.41 51.27 51.12 46.46 44.33 46.88 48.88 46.24 41.58 19.71 34.21 36.54 45.10 42.87 36.25 35.23 36.30 44.60 39.75 32.80 32.98 34.35 34.60 36.93 36.78 33.98 36.74 39.55 36.33 40.38 38.94 38.19 36.86 35.61 34.70 31.81 34.95 39.48 39.10 42.27 46.19 47.02 47.34 47.38
49.70 50.04 50.17 49.52 48.10 48.42 47.45 46.75 42.46 28.87 19.44 32.72 37.33 35.65 37.79 38.76 39.75 39.82 39.32 40.32 39.41 36.10 38.03 37.41 41.45 39.95 38.93 40.37 41.33 41.88 38.73 37.79 37.71 35.70 28.64 33.72 32.18 32.32 35.98 39.06 41.64 45.67 46.58 48.05 47.94
49.43 49.81 48.05 49.01 43.97 49.11 47.30 41.89 28.67 22.16 32.23 31.25 31.65 35.10 35.20 34.84 35.89 36.00 34.63 31.19 29.50 27.42 31.24 34.13 36.43 39.71 42.24 36.52 40.45 38.99 35.25 28.32 26.31 24.77 25.32 33.23 31.60 33.71 37.46 37.89 40.18 44.90 44.75 45.99 46.94
49.32 49.31 47.70 48.07 50.22 47.62 44.60 34.57 22.94 27.97 29.28 34.69 33.85 34.10 31.88 34.40 33.75 34.58 31.97 28.88 34.69 34.57 30.29 21.88 21.51 35.88 40.14 38.30 35.76 36.21 34.02 27.71 21.12 22.46 27.32 34.16 29.68 33.28 37.19 38.70 40.61 40.97 40.90 43.42 44.51
48.84 43.97 45.54 48.80 48.71 47.00 37.61 27.40 27.53 29.10 32.03 32.82 32.47 29.13 31.32 35.33 33.70 32.55 29.46 29.74 33.33 35.56 28.90 27.10 30.49 40.01 40.20 41.43 40.44 36.01 30.33 33.82 27.25 27.77 27.74 28.57 32.26 36.17 38.15 38.50 39.53 39.45 40.38 39.97 41.00
44.47 41.71 42.95 49.49 48.74 43.60 34.37 30.03 30.45 33.87 35.60 33.43 27.65 29.79 27.09 29.95 29.26 30.78 30.84 33.57 35.59 37.45 37.21 33.17 28.07 36.09 39.67 41.91 40.13 37.28 36.98 28.88 28.26 21.04 20.18 25.44 26.72 27.99 32.67 35.63 37.98 39.03 38.96 40.02 41.03
43.04 37.71 45.81 49.12 47.79 37.82 29.40 30.96 31.97 36.32 37.55 33.11 30.23 29.47 28.88 29.23 29.92 28.66 29.17 33.91 38.74 37.91 37.63 35.89 32.32 34.39 35.91 34.73 32.52 33.56 31.96 31.17 30.31 26.78 23.72 22.63 26.27 33.61 33.72 36.22 37.26 38.46 39.86 40.64 41.39
40.99 33.60 46.42 48.29 35.23 35.55 31.93 32.89 37.58 36.17 37.07 35.96 35.43 33.51 31.13 32.04 30.22 30.43 29.19 32.26 39.54 38.01 33.19 34.38 30.96 30.51 32.36 35.84 37.14 35.47 32.22 29.79 26.37 25.56 22.80 23.92 26.86 34.27 33.61 36.68 38.64 39.13 40.36 41.55 42.20
37.38 35.82 46.97 45.58 30.76 32.60 34.91 34.27 35.55 35.41 35.73 35.30 34.53 35.49 34.05 32.22 30.27 33.18 32.50 38.06 40.08 37.21 34.72 34.55 27.90 24.76 26.00 30.23 33.72 33.12 33.91 31.09 29.35 28.30 23.21 23.08 26.67 36.25 36.53 37.23 38.74 38.75 39.90 40.47 40.90
38.95 31.37 39.15 41.16 39.02 34.42 33.15 32.37 31.57 37.86 36.39 36.65 34.98 35.73 33.86 32.17 33.89 31.43 32.35 37.54 39.50 38.83 41.74 37.29 28.37 25.23 20.30 26.10 30.53 29.81 33.19 32.33 29.41 24.54 26.12 26.11 28.81 32.69 35.13 36.65 37.79 38.48 38.90 39.60 40.34
38.89 34.13 38.05 31.50 34.64 34.97 34.76 32.89 31.22 34.37 37.46 35.32 33.20 34.37 33.60 30.21 30.80 30.82 33.34 34.32 37.45 39.51 35.93 33.53 25.10 22.43 28.87 30.80 31.89 31.60 32.10 31.98 26.48 28.98 26.24 28.08 30.20 32.91 35.87 37.37 38.01 38.60 38.87 39.76 39.99
37.09 36.39 37.39 35.78 36.59 34.48 34.59 30.72 33.06 34.12 35.06 31.89 32.46 34.05 33.52 32.47 32.48 31.59 33.82 31.92 32.01 34.55 32.79 32.72 25.20 27.10 26.65 29.24 29.57 29.48 31.55 31.65 32.73 32.11 31.31 31.61 32.09 36.24 36.19 37.57 37.86 38.54 39.12 38.82 38.90
37.14 39.32 38.45 36.80 35.07 33.83 30.44 33.66 35.75 35.93 35.68 35.21 34.55 33.49 33.29 33.84 35.02 35.55 35.00 35.12 34.82 33.48 31.60 30.53 27.56 23.90 21.37 26.63 27.40 24.12 28.61 30.83 31.75 32.62 32.49 30.10 33.99 36.72 36.33 36.84 37.25 38.19 38.49 38.40 39.30

GFSSW_sfc_wetblb_096.txt.gz
Wetbulb
61.09 62.50 62.82 61.72 59.82 58.48 58.06 57.14 56.91 56.25 55.58 54.90 54.90 56.65 56.21 55.54 55.32 52.09 46.10 48.57 50.89 55.43 55.00 51.42 49.75 49.56 50.63 46.95 49.56 50.40 40.14 36.92 39.17 40.40 42.69 48.19 47.77 52.96 55.56 53.70 54.65 57.87 59.78 61.61 63.88
59.25 60.77 61.52 62.47 60.23 58.79 58.25 57.31 56.66 56.33 55.19 54.32 54.90 56.37 55.27 54.65 50.51 46.29 51.06 53.82 55.59 54.33 50.47 46.18 44.27 46.27 44.54 44.57 45.69 43.23 37.73 37.83 43.19 44.57 44.07 47.12 48.36 49.93 50.86 52.00 52.59 54.98 61.68 63.74 64.56
57.47 59.32 60.02 60.83 61.09 59.08 58.24 57.39 56.36 55.88 55.09 54.15 54.73 55.74 54.49 52.42 44.19 43.17 52.99 55.78 55.03 54.81 50.93 48.95 47.84 45.07 40.48 43.54 43.03 41.74 37.23 41.51 43.06 45.25 46.66 46.57 47.87 51.31 50.16 48.65 52.82 53.24 57.29 61.52 62.61
55.67 57.35 58.05 59.74 61.38 59.29 58.39 57.05 55.69 55.42 54.58 54.00 53.87 54.43 52.66 48.97 34.43 46.41 53.95 53.19 53.92 53.97 50.21 47.09 45.21 41.10 38.15 37.71 42.26 37.68 40.81 41.86 42.92 45.04 45.50 43.71 48.62 48.06 50.12 50.95 55.07 56.52 57.23 61.61 60.94
54.34 55.06 55.87 57.48 59.28 59.39 57.80 56.79 55.52 54.72 53.62 54.06 54.25 54.19 49.82 42.66 42.42 49.62 53.47 51.29 51.23 50.50 47.24 44.70 42.43 40.59 36.89 38.69 41.09 38.73 40.01 41.49 43.17 43.39 44.43 47.08 45.98 47.71 49.38 53.79 55.15 56.24 56.97 58.12 60.66
54.05 54.07 54.42 55.28 57.47 59.28 57.40 56.05 55.37 53.80 53.54 53.81 54.02 53.02 46.84 38.40 48.92 50.48 49.75 49.55 49.91 48.81 47.16 45.56 42.61 43.39 39.58 40.08 39.60 41.18 40.80 40.99 42.31 42.53 44.45 43.42 45.47 47.31 49.92 53.38 53.52 54.53 55.07 56.60 59.94
53.50 53.33 53.70 53.67 55.98 58.83 56.95 55.56 55.20 52.98 53.13 53.54 53.28 51.64 44.02 43.43 50.11 50.87 50.26 49.58 50.36 49.69 46.49 48.23 46.69 41.95 41.55 39.25 43.05 41.70 37.50 39.86 41.33 42.14 42.54 45.71 42.12 44.03 49.81 51.84 50.69 52.86 54.39 56.45 58.97
53.16 52.73 52.82 53.22 55.03 58.36 55.95 54.88 52.82 52.26 52.90 53.10 53.28 49.43 42.45 50.04 51.84 49.84 51.26 49.06 51.95 50.38 48.35 49.13 47.91 43.42 41.27 43.73 40.54 34.20 37.26 32.36 39.87 41.93 43.59 44.04 37.66 45.12 49.71 48.91 49.28 52.37 54.16 56.39 57.91
52.88 52.43 52.26 52.65 54.27 55.84 55.08 53.43 52.51 52.79 53.52 53.48 49.65 45.27 39.98 50.52 46.46 49.15 49.60 46.73 49.38 49.22 49.75 48.99 46.27 42.51 42.15 36.85 33.34 34.86 31.96 32.82 37.05 43.30 43.00 42.63 39.37 45.39 45.87 45.57 45.65 51.62 54.02 56.22 56.76
52.46 52.04 51.84 52.17 53.87 54.84 53.13 53.07 53.20 52.24 51.37 51.64 48.23 41.60 44.11 41.38 46.20 47.40 49.86 48.63 46.24 45.09 44.80 43.78 41.97 38.71 37.74 34.97 27.47 31.24 33.15 35.47 35.51 40.66 42.11 40.31 40.30 43.19 44.43 44.74 44.84 51.23 53.28 55.56 56.22
51.95 51.49 51.53 52.54 54.01 53.48 51.72 48.50 43.49 41.68 44.58 40.97 41.93 41.19 42.40 46.46 47.96 46.27 48.19 47.05 46.53 44.05 36.97 39.48 34.76 31.27 36.42 37.23 34.66 32.66 35.04 34.39 38.17 42.53 40.64 40.04 39.68 40.66 43.47 44.68 42.34 50.92 53.03 55.71 56.17
51.36 50.94 51.25 52.76 54.91 52.87 49.84 44.30 43.44 44.21 37.83 43.95 43.67 43.71 45.40 46.06 40.18 43.31 48.53 41.70 40.32 36.59 39.10 36.05 32.35 38.62 38.68 37.79 36.00 35.13 35.15 35.34 38.72 41.04 40.22 38.66 38.26 42.15 43.68 43.28 42.41 49.86 51.20 54.56 55.21
50.93 50.55 50.76 52.72 52.71 50.22 47.12 45.69 48.71 46.00 37.21 38.53 42.11 41.29 43.15 44.54 39.51 40.03 45.19 42.08 38.14 35.80 36.75 34.62 36.60 39.92 39.22 37.50 36.01 37.31 35.61 35.79 35.30 39.20 40.38 38.93 36.27 37.04 40.79 42.81 44.26 49.49 49.85 52.81 54.60
50.94 50.13 49.92 51.45 47.77 47.67 45.23 48.62 49.53 47.43 33.42 34.06 38.16 41.66 43.10 43.35 37.34 44.86 46.55 42.48 37.75 35.37 36.44 36.36 40.37 38.74 37.93 36.16 38.52 34.26 40.19 39.50 36.75 36.32 33.17 40.11 29.40 35.50 38.07 43.59 48.15 48.85 49.23 50.06 52.63
51.07 50.26 49.70 50.01 48.10 44.96 46.77 49.14 49.76 45.16 25.21 36.34 37.74 46.48 44.09 39.38 38.62 39.41 47.00 42.62 35.55 36.28 37.65 35.06 37.62 37.39 35.61 36.98 39.96 36.88 42.03 39.60 38.29 36.84 37.37 36.03 33.21 35.21 40.56 42.53 45.77 48.58 49.29 49.76 50.83
50.27 49.77 49.32 49.76 48.61 48.25 49.39 48.63 45.55 31.98 23.42 33.31 38.66 37.37 38.07 39.61 40.12 40.91 41.31 43.39 41.94 37.94 38.53 38.16 41.99 40.28 39.36 40.50 41.02 43.17 40.47 39.96 40.27 38.04 31.66 34.42 33.84 33.07 35.52 38.16 42.99 46.94 48.74 50.19 49.52
49.86 49.60 48.84 49.65 44.22 48.69 48.17 42.80 32.06 27.40 33.36 32.57 33.13 36.94 36.36 35.80 36.82 37.74 36.43 35.57 34.77 32.23 32.56 35.43 36.73 40.40 42.23 37.75 41.31 40.07 37.88 30.60 29.14 30.30 27.90 35.27 33.91 33.50 38.19 40.76 41.85 45.06 47.96 50.19 50.76
48.79 48.99 48.70 48.69 50.75 48.47 45.04 35.77 26.98 29.72 30.25 36.31 35.76 36.41 32.70 36.05 35.63 36.07 34.40 33.02 36.82 36.57 34.32 30.94 29.16 36.13 40.44 38.79 35.82 36.23 36.32 31.67 24.50 26.90 29.42 36.34 30.99 33.02 41.62 43.08 44.20 46.03 45.03 48.21 49.65
48.16 48.27 47.61 49.16 50.63 48.47 39.25 30.32 30.62 31.66 34.65 34.49 35.67 32.29 32.49 34.96 35.48 35.33 34.14 34.05 36.50 38.18 32.94 31.96 31.78 39.76 40.74 41.93 39.91 36.91 34.07 37.25 33.06 35.26 32.06 33.33 35.94 41.54 41.41 41.49 41.35 41.32 43.91 44.64 45.62
46.71 44.11 44.14 50.01 50.26 43.97 35.48 31.29 32.88 34.78 36.58 37.19 31.75 34.77 30.56 31.86 33.06 33.95 33.89 37.28 37.52 38.80 40.87 36.55 31.11 37.46 40.02 42.50 42.02 39.21 39.95 33.76 35.39 27.43 25.05 30.01 32.81 33.56 38.25 40.50 42.36 42.57 43.01 43.80 45.20
44.87 39.21 45.20 50.05 47.54 38.79 31.73 33.27 33.87 37.97 37.86 35.96 34.26 33.42 34.24 33.28 34.22 33.44 33.90 37.59 40.23 39.92 40.92 38.53 35.53 34.80 37.87 36.26 35.51 37.34 36.48 35.52 35.71 32.99 30.13 27.83 30.80 38.53 38.70 40.88 41.74 42.95 44.67 45.34 45.88
41.65 34.04 45.97 47.89 34.42 35.65 33.98 35.18 37.04 37.46 39.73 39.41 39.14 37.11 35.72 35.99 34.16 34.50 34.39 36.57 41.27 41.37 36.86 38.94 36.79 31.67 33.70 39.24 40.36 39.19 36.71 36.08 34.31 29.54 30.11 33.79 31.63 40.11 40.32 42.29 43.84 43.13 44.59 45.79 46.21
37.81 38.75 46.67 45.65 32.22 34.05 34.94 34.84 36.30 36.44 38.55 38.98 38.16 39.17 38.91 37.01 33.95 36.83 37.17 40.94 41.54 40.46 38.82 39.17 34.77 31.37 31.93 36.13 39.28 37.50 37.69 37.08 35.95 36.22 29.53 31.56 31.90 41.33 42.09 42.46 43.69 44.32 45.06 45.36 46.07
38.23 32.96 38.00 40.49 39.41 35.46 34.44 34.01 33.83 39.07 38.96 40.24 38.78 40.06 38.87 37.27 38.73 36.28 37.51 40.04 41.26 41.83 41.00 40.73 34.94 31.26 29.43 31.41 35.28 34.44 36.55 37.51 36.23 34.61 33.45 33.82 34.18 38.67 40.72 41.57 43.20 44.13 45.09 45.66 45.30
39.09 34.98 38.38 33.23 35.29 36.14 36.06 35.22 32.85 33.84 39.34 39.83 38.16 38.83 38.48 35.49 36.34 36.20 38.41 39.23 40.94 40.86 40.46 39.76 32.90 31.37 33.75 34.51 35.82 35.45 35.99 36.86 34.09 34.74 33.71 34.32 35.80 39.37 41.87 42.80 43.54 44.25 44.35 44.47 44.32
36.99 37.25 39.79 37.12 36.95 35.68 35.60 34.62 33.74 35.64 37.47 36.90 37.09 38.98 39.56 37.32 37.68 36.29 38.44 38.70 38.30 40.22 38.93 38.65 33.99 32.95 32.47 34.76 34.73 33.07 35.71 36.63 36.72 35.68 36.14 37.37 36.73 41.68 43.55 43.88 43.39 43.41 43.58 43.13 43.55
43.24 43.47 41.67 36.58 34.97 35.14 34.35 35.12 36.09 37.73 37.90 38.49 39.37 39.62 38.72 38.51 41.11 42.59 41.77 41.60 41.03 39.45 37.37 36.76 35.11 33.42 29.99 32.29 33.10 31.62 33.20 34.87 35.90 37.16 37.64 35.26 38.62 41.72 41.09 41.09 42.02 42.63 43.25 43.23 43.64

GFSSW_sfc_wetblb_099.txt.gz
Wetbulb
57.22 58.32 59.96 61.47 61.66 61.17 59.72 58.63 57.46 56.84 56.25 55.63 54.87 54.96 56.72 55.16 55.26 53.61 47.66 51.07 51.04 53.68 56.42 52.63 50.97 49.62 50.60 48.08 48.97 49.66 40.09 37.92 39.30 40.41 42.58 47.57 46.31 49.77 52.60 51.66 53.41 55.09 55.60 58.67 63.59
55.62 56.22 58.46 59.50 60.37 61.39 60.16 58.77 57.73 56.89 56.37 54.90 54.23 54.99 55.36 54.63 52.29 48.54 52.52 52.89 54.03 55.70 51.55 47.58 45.10 46.90 44.64 44.89 46.25 43.04 38.33 38.65 43.43 44.18 43.59 46.12 46.55 47.74 48.09 49.29 50.96 53.03 56.90 58.87 64.11
54.94 54.96 56.13 57.21 57.80 59.83 60.71 58.94 57.79 56.64 56.08 54.67 53.91 55.02 54.53 53.81 47.07 45.31 54.40 55.51 56.79 55.32 51.70 49.15 48.11 45.57 42.33 43.74 43.61 42.69 38.01 41.81 42.81 44.37 45.43 44.79 45.83 48.46 47.22 46.19 50.54 50.77 54.04 59.03 63.05
54.74 54.61 54.45 55.25 56.59 58.19 60.59 59.15 57.66 56.08 55.58 54.16 53.86 54.70 53.89 51.47 37.43 48.08 56.62 56.46 54.41 53.84 51.09 48.01 45.60 40.90 38.78 38.72 42.59 37.82 41.77 42.33 42.98 44.03 43.70 43.40 46.29 45.75 47.42 48.53 52.88 53.35 55.34 57.52 58.91
54.73 54.26 54.20 54.32 54.98 56.64 58.35 59.31 57.02 56.22 55.03 53.95 54.24 54.96 51.49 45.61 45.26 51.47 55.09 53.58 51.48 50.37 47.97 45.56 42.63 41.63 38.74 39.65 40.73 39.22 40.76 42.29 43.55 43.19 43.29 44.40 42.92 44.57 45.91 50.42 53.43 54.40 55.12 56.02 58.03
53.84 54.21 53.56 53.54 54.00 55.35 56.91 58.64 56.54 55.30 54.17 53.67 54.82 54.46 49.38 40.78 50.99 51.45 51.89 50.27 49.78 49.15 47.74 46.47 43.76 43.50 39.88 40.02 39.00 42.29 42.12 42.27 43.23 42.80 42.87 40.99 41.76 43.71 46.08 50.51 51.41 53.88 54.77 55.08 56.67
54.05 53.41 53.38 53.06 53.31 54.58 56.58 57.24 55.65 54.70 52.95 54.04 54.67 52.55 46.05 44.89 51.41 51.87 50.69 50.04 50.33 50.01 47.38 48.38 47.46 42.47 41.77 39.07 43.36 42.47 38.20 40.79 41.26 42.30 40.96 42.72 38.40 39.52 46.39 49.14 49.75 52.10 53.97 55.48 56.77
53.88 53.31 53.02 52.80 52.80 53.77 57.36 55.93 54.90 53.44 53.37 54.00 54.15 51.07 43.20 51.85 53.02 50.62 51.18 49.86 51.22 51.91 49.91 49.55 49.79 44.50 41.12 43.66 41.38 37.66 38.07 32.27 39.89 40.86 42.53 41.21 33.43 42.08 46.75 47.32 48.81 50.94 53.00 54.24 55.85
53.49 53.26 52.84 52.30 52.49 54.20 55.70 54.35 52.60 53.35 53.85 53.89 50.41 47.41 42.21 51.40 47.34 49.94 50.62 46.62 49.72 50.51 50.47 49.39 47.61 42.05 41.23 36.61 34.79 37.07 31.11 32.24 34.60 42.59 41.35 39.71 35.71 43.57 47.75 48.24 48.05 49.86 52.03 53.69 54.87
53.05 52.99 52.46 51.87 52.18 53.80 53.64 53.37 53.66 53.33 52.27 51.85 50.03 42.42 46.08 42.97 47.37 48.08 50.16 49.19 46.79 46.99 45.18 43.70 41.74 38.36 38.39 34.81 29.17 31.82 32.81 35.26 35.77 40.24 40.39 38.51 38.22 44.30 47.15 47.26 47.24 49.00 52.31 52.21 53.76
52.77 52.54 51.88 51.56 51.83 53.07 52.19 49.22 44.78 41.74 44.83 41.79 42.66 42.99 43.65 47.63 49.35 46.61 48.91 47.47 47.10 43.84 37.55 40.73 35.95 32.25 34.79 36.90 37.68 36.76 34.31 32.90 37.56 39.26 38.97 38.69 38.98 42.19 45.88 46.35 46.33 47.68 50.52 51.53 53.44
52.56 52.01 51.33 51.46 54.68 54.38 50.21 44.57 44.73 46.26 38.81 44.40 44.88 45.65 46.45 47.34 40.85 44.33 48.88 42.49 41.73 36.05 39.77 36.59 32.15 38.31 39.32 39.27 37.22 36.64 34.49 34.40 39.14 41.31 39.49 39.48 39.57 43.33 44.90 44.85 45.81 45.04 46.61 52.65 54.40
51.85 51.34 50.67 51.11 52.17 49.99 47.72 46.24 49.12 48.24 38.69 40.73 44.15 42.77 43.70 45.70 40.48 40.99 45.78 43.14 39.52 36.55 36.61 33.95 37.31 41.11 38.65 36.32 35.19 35.91 34.78 36.06 35.85 39.27 41.38 38.78 37.70 40.18 43.83 44.92 46.04 46.54 47.58 53.48 54.68
51.10 51.33 50.17 51.03 48.15 48.30 44.95 49.81 49.91 49.30 35.06 35.75 38.94 42.00 44.15 44.36 38.79 45.47 47.10 43.37 38.92 35.86 38.05 37.37 41.20 39.18 38.29 36.46 37.77 33.98 40.63 38.58 35.50 35.80 32.38 40.49 30.31 35.42 38.85 42.51 44.91 45.12 47.17 53.63 53.68
49.44 50.69 50.18 49.77 47.81 45.51 47.52 51.22 50.32 46.54 25.34 37.59 38.61 47.11 44.74 40.33 40.36 40.85 47.77 43.75 37.15 37.42 37.84 35.88 37.88 37.29 36.57 37.45 39.58 37.08 41.65 38.39 36.64 35.69 36.09 36.08 33.49 34.99 37.97 40.05 42.91 46.38 48.94 52.28 53.21
50.17 50.62 50.20 49.01 49.54 49.88 49.84 49.69 45.53 32.13 25.50 33.78 39.07 37.87 38.19 40.27 39.36 41.71 41.73 44.69 43.74 38.73 39.13 38.35 43.23 40.62 39.69 40.87 40.75 41.20 39.72 39.16 38.94 37.32 31.44 34.92 33.26 33.52 35.28 35.83 44.16 46.77 47.37 49.83 52.39
49.02 49.81 49.05 50.36 45.70 51.58 50.11 42.85 31.64 27.69 35.74 32.62 33.97 37.59 37.22 36.44 37.87 37.78 36.95 36.89 34.36 32.67 32.80 37.39 38.19 41.07 42.17 36.51 40.35 40.38 35.83 30.46 29.18 29.45 28.60 35.51 33.77 32.60 37.27 38.75 45.05 46.42 47.14 48.90 50.73
49.49 49.41 48.80 49.21 51.64 50.24 45.23 35.31 27.62 32.21 32.05 37.29 36.61 37.08 33.88 37.01 36.61 36.84 35.86 34.66 38.89 37.62 34.96 31.84 30.01 36.92 40.96 38.32 35.62 37.93 36.68 31.96 24.44 27.15 29.88 36.66 30.09 33.38 41.48 44.14 45.77 44.89 47.33 48.66 48.26
48.73 49.26 48.44 49.50 51.01 47.86 39.54 30.44 32.17 32.93 35.12 35.13 36.19 32.90 32.77 35.85 36.23 36.08 35.45 35.81 38.59 39.75 32.50 32.41 32.36 39.88 40.58 40.20 39.58 37.86 35.12 39.12 34.65 36.58 31.59 32.98 34.65 39.26 42.26 40.93 42.06 42.02 43.41 44.62 46.20
47.72 45.80 45.11 50.08 50.89 45.06 35.29 31.38 34.82 36.10 37.78 38.05 32.09 35.33 30.12 33.40 33.46 34.71 35.69 39.06 38.61 40.58 42.03 37.60 32.33 37.17 39.56 42.14 42.27 39.82 41.60 33.86 36.16 28.32 25.53 30.86 31.98 32.50 37.72 38.40 40.99 41.66 42.02 44.32 46.34
46.83 39.88 45.75 51.01 48.47 39.51 31.82 34.08 35.13 38.96 38.84 36.74 35.41 34.64 35.36 33.45 35.22 35.44 35.68 38.94 40.86 40.71 41.55 38.62 35.11 35.73 39.13 37.45 36.63 38.30 36.79 37.61 37.18 33.98 30.56 28.00 30.15 39.40 40.65 41.94 41.55 43.09 44.75 45.34 46.16
43.84 34.88 46.10 49.14 35.63 36.79 34.90 35.94 36.68 38.80 40.87 40.25 40.38 38.55 36.89 37.31 35.72 36.24 35.88 38.60 43.25 42.63 37.11 39.59 37.56 32.88 34.85 40.77 41.46 40.49 37.75 38.27 34.91 31.92 35.57 34.19 30.97 42.51 43.65 44.22 44.51 44.11 45.48 46.12 46.79
40.00 37.25 46.13 45.89 32.99 34.29 35.56 35.93 37.39 38.24 39.78 39.80 39.03 40.61 40.65 38.20 34.66 37.98 38.88 42.54 43.21 41.95 39.64 40.32 36.36 31.31 32.92 37.43 41.05 38.73 40.06 40.11 38.94 39.11 32.43 31.76 32.08 43.21 44.27 44.59 45.48 44.83 45.59 46.26 46.77
40.79 33.97 37.46 40.26 40.61 36.52 34.97 34.97 34.92 40.43 40.03 41.37 40.53 41.63 40.28 38.56 40.62 37.57 38.52 41.42 42.94 42.93 41.81 42.71 37.24 33.88 30.75 32.77 36.82 35.60 37.96 39.08 38.59 35.81 35.33 34.97 34.97 39.75 41.96 42.80 44.44 45.28 46.22 45.97 46.16
42.28 37.28 39.43 34.34 37.25 37.75 36.97 35.48 34.80 35.22 40.98 42.26 39.88 40.09 39.45 36.52 37.84 37.48 39.81 40.65 42.55 42.77 42.52 42.26 33.95 33.49 36.05 37.21 37.75 37.28 37.27 38.03 35.65 38.24 34.60 36.42 36.78 40.19 42.79 43.89 44.90 45.70 45.94 45.39 45.36
39.28 39.26 40.35 38.07 38.81 36.89 35.10 35.41 35.23 37.02 39.08 38.28 38.49 40.49 41.20 38.46 39.34 37.13 39.71 40.58 39.67 42.47 41.15 41.85 35.90 35.52 34.03 37.09 37.02 34.93 37.84 38.45 38.16 38.49 38.52 38.81 37.66 44.14 44.91 45.28 44.85 44.94 45.09 44.54 45.15
46.32 46.40 42.94 37.22 36.04 36.21 36.25 36.80 37.06 39.19 40.40 40.89 41.29 40.96 40.01 40.19 43.91 44.53 44.79 44.20 43.09 41.22 39.72 39.53 37.17 35.53 31.09 34.97 34.94 32.71 34.60 36.75 37.58 39.83 39.83 36.21 40.25 43.45 42.60 43.30 44.11 44.25 44.99 44.77 45.20

GFSSW_sfc_wetblb_102.txt.gz
Wetbulb
55.80 55.92 55.86 56.94 58.65 59.42 60.82 61.21 59.57 58.10 57.21 56.84 55.72 55.22 55.52 57.18 55.70 53.13 49.02 51.57 52.70 54.95 54.65 52.55 50.56 49.28 49.25 46.98 48.16 47.28 36.83 33.62 36.18 37.52 39.73 45.33 43.87 47.64 49.14 46.80 48.38 50.76 51.05 55.81 62.57
55.55 55.41 55.60 55.64 55.91 57.35 58.23 60.34 59.87 58.16 57.27 56.66 55.21 54.93 55.70 56.15 52.03 49.12 54.61 55.56 54.54 56.39 51.66 48.18 44.81 46.49 42.63 43.16 44.72 40.64 35.04 35.69 41.06 41.53 40.31 43.26 43.54 44.88 44.79 45.01 45.78 48.36 52.12 54.43 61.58
55.03 55.79 54.89 54.87 54.86 55.70 56.93 59.01 60.35 58.42 57.23 56.55 54.81 54.82 55.78 54.56 46.92 46.49 56.09 55.64 56.77 55.59 51.41 48.64 47.39 45.36 40.63 42.44 41.12 40.64 34.91 39.74 41.06 42.46 43.40 42.15 41.98 44.70 42.91 42.03 45.31 45.76 48.82 52.00 57.73
54.87 54.77 55.23 54.61 54.48 54.60 55.74 57.04 59.86 58.16 57.11 55.93 54.72 55.06 55.29 51.52 36.68 48.58 56.22 57.52 57.12 54.10 50.46 47.31 45.25 41.25 38.56 37.26 41.35 35.33 39.87 41.08 41.76 43.25 42.25 40.16 42.60 40.98 42.77 43.53 48.08 49.24 51.55 52.50 54.83
55.27 55.10 54.44 54.37 54.03 53.95 54.45 56.40 57.99 58.11 56.91 55.36 54.62 55.41 51.46 45.13 45.08 53.55 57.00 55.30 52.68 50.50 47.36 45.18 42.25 40.89 36.50 38.78 39.90 37.34 39.16 41.40 42.21 42.06 41.90 42.76 39.84 40.04 41.32 45.90 48.18 49.55 50.80 53.22 54.18
55.12 54.89 54.45 53.83 53.70 53.52 53.80 55.57 57.44 57.20 56.04 54.53 55.00 55.56 48.55 40.20 50.69 52.43 52.50 50.91 49.44 48.39 46.90 46.47 43.33 44.08 39.60 38.51 37.92 40.09 40.30 40.90 42.50 42.50 42.15 39.70 39.64 40.56 41.61 44.81 46.12 48.23 48.67 51.50 53.84
54.90 54.68 54.18 53.81 53.54 53.22 53.73 55.60 57.64 56.19 55.05 54.68 55.71 52.49 46.72 44.46 51.47 51.11 50.94 49.24 50.52 49.24 46.07 48.51 47.79 42.86 41.82 37.75 42.23 41.14 36.55 38.99 40.29 41.54 40.34 42.42 36.98 37.00 41.93 43.49 43.39 46.47 48.44 51.05 53.18
54.18 54.22 53.82 53.61 53.15 52.85 54.17 56.89 56.09 54.91 54.27 54.53 55.54 50.81 42.62 52.12 52.60 50.12 50.43 49.22 50.82 51.14 49.67 49.54 49.18 44.47 41.21 42.14 39.26 36.81 37.34 31.05 38.42 39.97 41.36 40.10 30.70 39.08 42.29 41.60 41.17 44.73 48.22 50.32 51.99
53.09 53.40 53.55 53.24 52.68 52.36 55.08 55.92 54.40 53.71 54.20 54.42 49.93 47.54 41.13 51.48 46.70 49.91 50.19 46.72 48.56 50.46 50.19 49.69 47.46 41.89 40.84 35.76 31.92 34.92 27.48 30.74 33.79 41.01 40.16 38.74 32.82 39.69 42.29 41.93 41.19 43.22 47.42 48.53 50.53
52.46 51.99 52.99 52.84 52.19 51.88 52.95 53.44 53.59 53.42 52.60 51.67 49.84 42.38 44.99 43.02 47.21 48.13 49.59 48.69 46.50 47.03 45.36 43.77 41.29 37.21 37.60 34.44 24.61 29.73 30.72 33.20 32.72 38.90 39.36 36.86 35.19 39.79 42.42 41.67 41.49 45.70 46.74 48.22 50.11
52.94 52.07 52.30 52.31 51.89 53.33 51.12 49.02 43.65 41.78 45.72 41.41 41.68 42.34 44.23 47.56 49.32 46.17 48.09 46.45 46.07 43.16 36.84 40.80 35.48 30.55 33.37 35.85 35.75 33.90 32.87 31.77 35.05 40.86 37.62 35.88 35.87 38.28 42.41 42.09 43.27 44.39 46.03 48.59 49.88
52.11 51.84 51.64 51.44 52.82 53.96 50.62 44.27 44.48 46.00 38.46 43.92 44.28 44.81 46.95 47.53 41.30 44.23 48.55 41.42 40.45 35.37 39.07 36.05 30.50 36.41 39.06 38.18 36.29 35.23 32.82 31.72 36.58 41.24 37.33 36.71 35.29 39.69 42.20 41.74 43.32 43.77 43.52 46.37 49.45
51.64 51.22 50.79 51.04 51.34 49.86 47.07 46.13 49.62 47.83 38.91 41.29 43.45 43.18 43.38 45.39 40.73 41.08 44.62 42.69 38.49 35.76 35.82 33.76 35.82 40.41 38.02 36.64 35.41 34.09 32.55 32.58 34.25 36.59 39.74 37.81 34.80 37.93 42.21 43.79 44.28 44.10 44.74 46.10 50.27
49.46 50.29 50.55 50.64 46.88 48.33 44.52 49.02 49.62 49.41 33.63 34.67 37.96 41.64 43.80 44.76 38.84 45.74 46.35 43.14 38.85 34.23 36.67 35.69 39.72 38.01 37.64 36.57 37.73 31.53 38.85 38.48 36.56 33.86 31.10 38.44 27.16 35.70 38.06 39.16 41.88 43.47 44.61 46.85 52.04
49.73 50.13 50.91 50.10 47.16 44.97 47.50 49.37 49.84 46.03 23.36 37.14 38.03 47.10 44.86 39.95 39.80 39.79 47.63 43.05 35.62 36.60 37.11 34.00 37.33 36.33 35.22 37.02 39.20 34.81 40.33 38.33 37.43 34.40 32.02 34.81 30.72 34.15 37.05 38.52 41.80 42.80 45.97 51.46 52.47
49.99 49.55 50.33 47.75 48.30 48.87 50.25 49.43 45.62 31.49 23.53 33.40 38.47 38.04 37.42 39.55 38.25 40.97 41.44 44.20 43.12 38.02 38.38 36.77 41.91 40.03 39.48 41.12 40.65 41.06 38.11 38.11 37.22 35.04 29.20 34.51 32.67 31.50 33.30 36.35 40.59 47.48 50.33 51.42 52.34
50.46 50.05 48.73 49.67 44.64 50.80 49.61 43.54 30.70 25.63 35.82 31.40 33.81 36.89 36.62 35.57 36.98 37.13 35.21 35.21 32.93 30.47 31.23 36.51 37.48 41.35 41.82 36.59 39.53 38.97 35.34 27.61 27.36 28.35 27.45 34.12 31.96 31.54 36.90 39.72 43.47 46.06 48.56 50.93 51.53
49.89 49.46 48.32 48.91 50.92 49.83 45.54 35.30 25.87 31.54 33.50 37.82 36.57 36.90 33.91 36.68 36.63 36.22 35.22 31.92 37.99 36.50 33.13 29.53 28.72 36.85 40.18 38.10 35.18 37.09 35.48 29.19 24.06 25.57 29.75 34.71 28.43 31.70 40.84 42.56 46.40 47.23 47.49 47.11 47.32
48.96 49.06 47.66 48.96 50.87 49.00 39.79 28.73 29.03 32.94 35.62 34.91 36.13 32.06 32.22 35.70 35.85 34.99 33.56 34.85 38.01 38.59 33.18 31.70 31.69 40.20 40.10 40.53 39.52 37.24 33.54 37.32 31.24 33.65 29.65 32.17 33.01 37.42 40.17 41.21 41.92 42.86 45.59 45.91 46.61
48.06 45.78 44.54 50.39 49.95 44.97 35.23 32.34 33.30 37.24 38.25 37.66 31.99 34.65 29.30 32.36 32.34 33.24 33.76 38.49 38.04 40.70 40.93 37.04 30.69 36.92 38.76 41.19 41.24 38.53 40.39 30.47 32.64 26.92 25.58 29.20 29.14 31.69 35.24 39.36 41.28 41.56 42.43 44.23 45.52
46.64 39.55 45.66 50.49 48.39 39.35 30.87 32.91 35.61 39.50 39.15 36.95 35.47 34.25 33.56 32.17 34.39 33.90 35.06 38.74 40.60 40.54 41.12 38.30 32.99 34.82 38.15 37.01 35.41 36.19 34.28 34.89 34.21 30.61 25.16 24.12 28.12 39.49 38.61 40.44 40.55 41.62 43.05 43.72 44.52
43.67 33.48 46.75 49.13 34.93 35.93 34.05 36.08 37.29 38.33 41.27 39.73 40.50 38.58 36.03 35.91 35.16 35.64 35.25 38.20 42.87 41.85 36.14 39.44 36.54 31.35 34.04 39.10 40.16 37.71 35.46 35.22 26.82 28.02 29.55 27.68 28.53 41.91 41.64 41.91 42.31 41.73 42.78 43.62 44.06
38.55 37.04 46.42 46.15 32.01 32.96 36.09 35.51 37.34 37.89 39.78 39.61 38.89 40.25 40.12 37.66 33.96 37.50 38.31 42.67 43.49 41.49 37.31 38.26 32.85 28.25 29.74 34.34 37.77 36.28 37.23 37.74 36.89 34.56 26.73 24.32 27.92 40.67 39.54 40.75 42.26 41.84 42.42 42.78 43.48
40.49 33.62 38.86 41.06 40.13 36.20 33.82 33.56 35.20 41.01 40.78 41.69 40.35 40.83 39.37 37.36 39.21 36.37 37.60 41.63 42.75 42.44 42.82 41.50 34.33 30.17 25.94 28.74 33.86 31.37 35.14 36.64 34.20 27.77 29.45 29.32 31.58 36.33 38.23 38.91 40.30 41.03 41.36 41.55 42.78
42.07 36.28 38.73 33.82 37.22 36.52 36.58 35.04 35.22 35.96 41.32 42.10 39.31 40.09 38.92 35.11 36.71 36.40 38.37 39.15 41.88 43.93 40.43 39.34 29.29 26.80 33.17 35.83 35.59 34.74 34.59 35.32 31.51 34.10 28.48 32.42 33.35 36.41 38.32 38.64 39.93 41.22 41.96 42.05 42.70
39.66 37.97 40.47 37.81 38.04 36.09 34.99 35.33 36.06 38.03 39.18 37.90 38.33 40.11 40.35 36.75 37.97 35.98 38.41 38.23 36.83 39.13 37.08 39.25 29.60 29.84 29.53 34.96 34.77 31.08 34.93 35.76 35.77 36.36 35.55 35.36 34.10 39.32 39.79 40.59 39.86 41.07 41.87 41.69 42.28
44.91 45.51 41.12 37.15 35.46 35.79 35.43 36.65 37.21 39.50 40.52 41.15 40.39 39.93 38.38 39.03 41.47 40.91 40.81 40.80 39.03 37.63 36.56 36.12 32.47 29.55 24.61 31.45 31.47 27.07 31.79 34.40 35.00 36.61 35.99 31.46 36.06 39.52 39.00 40.75 40.20 40.72 41.62 41.44 41.94

GFSSW_sfc_wetblb_105.txt.gz
Wetbulb
55.52 55.97 55.94 55.13 55.57 55.62 56.64 58.97 60.05 60.37 59.01 58.22 56.98 55.84 55.72 56.38 56.90 52.88 47.99 50.90 53.39 55.61 53.85 51.51 49.64 48.02 46.37 43.69 45.59 43.99 33.66 31.26 33.40 35.11 37.30 42.21 41.00 45.17 46.17 43.33 44.95 44.30 45.46 55.00 63.03
55.61 55.45 55.50 55.71 54.91 54.98 55.12 56.61 58.22 60.02 59.19 58.00 57.02 55.22 55.51 56.32 52.56 48.93 55.30 57.72 57.68 56.27 51.50 49.17 43.83 45.02 39.26 40.20 41.75 37.79 31.75 33.42 38.64 38.44 36.79 40.30 40.47 41.28 41.15 41.49 41.73 44.48 47.31 58.68 61.81
55.99 55.74 55.60 55.35 55.57 54.89 54.72 54.96 56.88 58.56 59.15 57.98 56.65 55.23 55.76 54.95 46.83 45.83 57.77 57.50 56.75 55.98 52.15 47.71 46.67 44.63 38.26 39.46 38.52 38.16 33.31 38.09 39.74 41.18 42.07 40.90 40.28 41.98 39.41 38.04 40.63 41.90 44.85 48.46 53.47
56.02 55.81 55.68 55.58 54.94 54.81 54.44 54.33 55.59 57.75 59.10 58.30 56.38 55.43 56.11 51.19 34.31 47.26 56.90 57.30 58.43 54.20 50.93 46.86 44.40 38.89 36.27 35.33 39.10 33.42 38.59 39.41 40.23 41.99 40.82 38.60 40.88 39.02 39.61 39.58 43.51 44.79 46.97 48.00 51.64
55.68 55.65 55.31 55.28 54.71 54.33 54.12 53.92 54.84 57.29 58.82 57.37 56.20 56.07 51.86 44.68 43.54 52.23 57.95 57.68 53.26 51.20 47.69 44.56 40.55 40.38 36.22 36.04 37.80 35.88 37.50 40.44 41.45 41.59 41.02 41.18 38.56 38.48 39.44 42.64 43.80 44.95 46.39 46.76 50.58
55.46 55.18 55.03 54.64 54.48 54.14 53.67 53.61 54.66 56.49 58.07 56.94 55.82 56.26 48.36 39.50 50.32 54.69 52.05 51.14 50.05 48.01 45.65 44.47 42.70 43.82 39.58 36.53 35.70 38.11 38.84 39.14 40.34 40.31 41.42 39.91 39.96 39.20 39.84 42.41 42.96 44.21 43.96 45.24 49.96
55.11 54.73 54.47 53.96 54.00 53.91 53.61 53.80 54.64 56.97 57.52 55.96 55.78 52.64 46.25 44.16 49.66 51.68 51.11 48.90 49.87 48.54 45.51 48.25 47.67 43.14 40.86 36.79 41.18 40.23 35.31 38.14 38.45 39.74 39.24 41.70 36.59 36.98 41.16 41.42 41.33 42.48 43.55 44.89 50.02
54.13 53.68 53.43 53.33 53.58 53.31 53.35 56.41 56.92 56.76 55.84 55.96 56.26 50.88 42.96 52.18 48.44 49.39 49.14 48.27 50.13 50.42 49.56 48.84 47.88 44.62 40.94 41.39 38.04 34.55 34.19 27.86 36.95 39.39 40.48 38.76 29.59 38.38 40.58 39.84 39.57 41.29 42.55 43.55 48.71
52.64 53.05 52.71 52.54 52.94 52.47 52.90 55.02 56.16 55.29 54.41 55.40 50.71 47.75 41.04 51.86 46.97 48.61 48.93 46.41 48.23 49.43 50.20 49.87 46.26 41.25 39.59 33.67 29.18 31.34 22.13 26.86 32.30 39.98 39.33 37.97 32.81 38.79 41.48 39.55 39.06 39.86 40.85 42.58 48.21
49.19 51.11 51.16 51.14 52.12 51.91 52.21 53.42 54.33 54.23 52.67 51.55 49.77 41.89 44.24 42.67 47.22 48.45 48.80 48.37 46.63 47.08 45.23 43.12 40.73 35.78 36.70 31.70 19.75 24.87 26.20 30.74 30.53 36.72 38.70 36.63 36.05 40.34 40.88 40.09 38.65 39.51 40.47 44.41 47.01
51.13 51.72 51.34 51.66 51.43 52.27 50.76 48.18 43.43 40.44 46.29 41.98 42.31 42.54 43.78 47.32 48.81 45.73 47.48 45.87 45.23 43.73 36.24 40.80 33.85 29.21 30.62 33.35 32.67 32.22 30.67 29.47 33.23 38.02 37.54 36.45 36.73 38.24 40.16 40.92 38.78 39.18 41.68 42.88 46.14
51.12 51.26 50.86 51.19 51.53 53.53 49.13 42.99 44.18 43.96 37.89 44.59 44.64 44.86 46.78 47.61 40.97 44.10 47.33 40.33 39.43 33.58 38.44 35.79 31.06 34.52 36.88 35.87 34.65 33.48 32.23 30.80 34.52 38.63 37.87 35.97 35.25 38.16 39.58 39.56 40.25 40.63 43.10 42.31 46.47
49.98 50.44 50.27 50.15 50.81 49.25 45.20 45.35 49.56 48.35 38.70 41.45 43.52 43.18 43.57 45.65 40.77 40.76 44.25 41.70 38.44 33.93 33.33 29.55 33.70 38.78 36.51 35.76 34.75 34.63 32.42 30.93 31.75 35.50 37.61 35.70 33.83 35.23 39.16 41.83 40.52 41.99 42.97 44.32 45.08
49.79 50.23 49.30 50.01 45.63 46.15 42.94 48.77 49.68 49.01 33.19 34.68 39.00 42.20 43.83 44.42 39.11 45.39 45.71 41.98 37.27 32.51 33.87 32.43 37.46 36.82 36.07 35.30 37.19 31.87 37.08 37.09 36.11 33.70 28.84 36.34 24.77 34.25 36.43 37.85 40.54 40.32 40.78 43.30 46.05
49.14 50.32 49.20 49.92 45.67 44.53 47.12 49.35 49.82 46.01 20.30 36.52 37.93 47.22 44.50 39.91 38.97 39.67 46.27 41.68 34.66 34.52 34.82 31.26 36.95 35.54 34.36 35.20 38.36 34.39 39.16 36.91 36.18 35.44 32.01 32.70 29.81 34.42 37.47 35.61 38.30 39.44 40.53 47.39 51.13
50.60 50.99 50.58 46.48 45.04 47.58 49.27 49.44 44.85 30.15 20.24 32.92 37.95 38.08 37.24 39.32 38.44 41.31 41.45 42.57 41.32 36.62 36.17 34.73 40.27 38.52 37.77 40.21 40.32 40.74 37.30 36.86 36.67 34.47 27.86 33.74 32.45 31.04 32.89 35.56 38.71 41.05 44.65 50.15 51.55
50.81 50.42 48.77 49.95 43.83 48.66 46.98 41.48 28.23 23.80 36.24 30.83 33.76 36.54 35.80 34.31 35.99 36.46 34.61 33.60 30.27 26.03 29.18 34.47 35.17 39.71 40.41 35.01 38.97 38.12 34.75 25.51 26.16 27.01 26.77 34.40 31.29 31.34 35.26 39.98 41.10 45.64 47.85 50.62 51.95
50.03 50.13 47.97 49.31 49.00 46.16 42.80 35.10 24.39 31.83 30.85 37.20 35.90 36.37 33.60 36.07 36.31 34.93 32.43 28.45 34.50 34.53 29.48 23.46 24.15 35.61 40.02 37.57 35.71 35.44 35.60 28.29 21.61 25.54 28.79 34.21 26.92 29.38 37.90 46.48 46.52 47.32 47.52 47.52 47.61
50.25 44.23 44.25 46.63 48.62 45.92 37.35 26.68 28.71 33.04 35.85 34.35 35.14 29.96 30.65 34.30 33.59 32.79 30.38 31.75 35.88 37.00 31.57 30.32 30.03 39.89 39.82 40.67 39.30 36.65 33.80 37.64 30.88 33.32 28.59 30.39 31.81 36.15 39.09 41.96 44.30 44.88 45.54 45.39 46.59
42.10 40.62 41.99 48.15 46.53 41.95 31.24 31.86 33.39 37.56 38.22 37.53 29.95 31.48 26.39 29.30 29.52 30.55 31.47 37.20 37.98 40.25 40.27 35.92 28.63 36.90 38.27 41.10 40.29 37.05 39.58 30.96 31.51 23.64 24.19 28.39 29.46 28.99 33.90 38.87 41.42 42.27 43.20 44.62 46.10
41.00 34.83 42.80 47.47 43.37 35.37 29.95 32.76 35.45 39.19 39.38 36.99 33.61 31.68 30.25 31.24 34.00 33.11 34.18 37.94 40.31 40.32 40.71 37.17 32.98 34.51 38.25 36.42 32.87 34.87 33.81 35.10 32.72 30.20 26.45 23.18 28.43 35.98 38.29 39.59 39.63 40.49 42.13 44.00 44.99
38.66 30.51 44.87 45.79 31.05 35.77 32.10 34.49 38.60 37.55 39.74 38.78 38.20 36.30 32.57 33.34 33.80 34.43 35.27 37.80 42.63 41.33 36.97 39.12 35.98 29.27 32.57 37.86 38.80 36.37 35.28 34.04 25.87 27.54 27.59 25.36 29.60 41.27 41.04 41.10 41.17 40.78 41.74 42.33 42.95
35.98 37.05 42.61 41.77 26.85 28.58 34.67 35.23 37.11 38.08 38.84 38.57 37.05 38.40 37.85 36.17 33.14 37.01 37.86 42.28 42.87 41.07 37.06 38.39 30.78 24.53 27.72 31.71 35.58 34.40 35.63 35.62 35.28 31.06 26.46 22.18 29.85 41.13 38.73 38.94 40.48 39.68 41.09 41.93 42.33
34.94 25.50 33.83 37.01 37.38 30.71 31.93 31.46 34.27 39.10 39.17 39.93 38.83 38.61 37.13 35.18 36.84 34.17 35.59 40.36 41.56 40.99 43.47 40.68 32.50 28.21 21.95 27.90 32.20 30.71 34.03 34.77 32.24 24.75 27.79 27.78 32.45 34.55 35.79 37.21 38.83 39.16 40.03 40.49 41.25
36.47 30.87 33.87 28.36 33.05 32.55 31.92 32.57 34.74 34.39 39.04 39.49 37.74 38.22 36.42 33.61 34.30 34.17 36.20 37.02 40.61 43.01 38.94 37.17 27.65 25.65 31.45 34.29 34.12 31.64 32.43 33.71 31.37 31.65 27.94 31.17 32.29 34.35 35.56 36.00 37.46 39.20 40.77 41.23 41.54
34.53 33.00 37.90 36.35 34.79 29.94 31.76 32.00 35.06 36.35 37.03 35.42 35.68 38.33 37.29 34.33 34.37 33.52 36.09 35.52 33.86 37.66 35.52 36.76 26.87 29.10 28.89 32.86 32.24 29.37 32.70 33.99 34.52 34.41 33.18 32.85 31.64 37.27 36.95 37.93 37.63 39.13 40.21 40.11 40.61
39.78 40.65 36.18 34.37 31.60 30.51 30.80 33.59 36.24 37.10 38.49 39.38 37.93 36.77 35.89 37.04 37.80 37.72 38.25 37.98 36.54 34.73 34.31 34.07 29.57 26.51 22.62 29.45 29.88 26.09 30.32 31.92 33.07 34.85 34.30 30.34 34.05 36.49 36.42 38.33 37.81 38.83 39.82 39.63 40.23

GFSSW_sfc_wetblb_108.txt.gz
Wetbulb
56.56 56.23 55.94 55.69 55.89 55.60 55.13 55.24 56.31 58.18 60.73 60.09 59.32 57.43 56.16 56.87 56.85 52.62 47.71 50.90 52.94 56.36 52.63 50.60 48.62 46.84 44.58 42.33 44.25 42.54 32.50 30.25 32.52 34.25 36.02 39.83 37.77 41.51 43.82 40.93 41.61 42.92 42.85 48.71 59.61
56.65 56.74 56.47 56.21 55.69 55.64 55.38 54.97 54.93 56.71 58.61 59.93 58.70 57.22 55.69 55.99 52.75 49.27 54.33 57.96 58.36 56.83 50.50 48.16 42.47 43.76 38.22 38.85 40.38 36.86 30.72 32.17 37.47 37.04 34.96 38.92 38.75 39.96 39.24 38.97 39.31 41.44 45.63 48.17 51.05
56.68 56.51 56.22 55.99 56.02 55.68 54.74 54.83 54.66 55.04 57.11 59.73 58.64 57.23 56.04 54.73 45.80 45.64 57.31 59.25 58.17 55.87 50.31 47.00 46.04 43.36 36.99 38.46 37.14 36.97 32.35 36.59 38.77 39.97 41.07 39.88 39.66 40.77 37.74 37.00 39.00 38.59 41.38 45.80 49.87
56.00 56.02 56.02 55.99 55.64 55.26 54.55 54.13 53.87 54.07 56.15 58.86 58.18 56.43 56.61 50.89 33.80 46.92 59.25 58.86 57.76 53.37 49.15 46.03 43.29 37.63 34.33 33.96 37.97 32.70 37.74 39.02 39.29 40.75 39.97 37.61 39.39 37.82 38.33 38.78 41.81 42.28 43.54 45.33 47.14
55.39 55.64 55.44 55.53 55.43 55.03 54.51 54.07 53.44 53.93 55.82 57.98 57.99 56.45 52.22 44.56 43.48 51.05 58.44 57.91 52.90 50.17 46.76 43.41 39.66 38.15 33.57 34.81 36.71 34.66 36.60 39.74 40.64 40.65 40.37 41.01 38.52 37.63 38.11 41.32 42.35 43.24 43.90 43.49 45.99
54.69 54.89 54.83 54.99 54.67 54.70 54.29 54.15 53.90 53.66 55.93 58.23 56.60 56.47 48.35 39.82 49.47 53.46 53.26 51.06 50.06 47.44 44.92 43.71 41.20 41.67 36.68 35.21 34.17 36.63 37.72 38.41 39.98 39.60 39.97 37.98 38.14 39.05 40.07 41.11 41.34 42.67 42.26 42.32 43.91
53.79 53.54 53.83 53.88 53.77 53.94 53.82 53.89 54.18 55.65 55.23 57.86 56.81 53.44 46.65 43.86 51.88 52.37 50.76 48.77 48.96 47.40 44.06 46.58 46.81 41.72 38.79 35.43 39.88 39.04 34.39 36.48 37.90 39.34 37.99 40.13 35.48 36.08 41.30 41.25 40.41 41.55 42.46 43.09 43.65
52.46 52.08 52.06 53.39 52.76 53.01 52.89 53.30 55.86 56.76 56.33 57.04 56.40 50.90 43.39 52.42 50.69 50.34 49.07 47.43 49.06 50.29 48.39 48.63 47.06 42.73 40.91 40.11 36.70 33.75 32.71 27.19 35.45 38.41 39.50 37.95 28.97 37.03 39.87 39.24 39.06 40.32 41.88 42.62 42.19
51.64 51.03 50.68 50.25 51.45 52.43 52.09 51.61 55.46 56.79 57.04 56.21 50.56 47.59 40.53 52.29 46.96 48.20 48.05 45.90 47.09 48.68 49.20 49.94 45.27 40.51 39.19 33.66 28.95 29.18 20.25 25.83 31.13 38.87 38.23 36.04 31.75 38.14 40.58 38.70 38.15 38.59 39.92 40.77 41.36
50.56 50.42 50.96 50.00 50.71 52.03 52.10 51.39 54.78 54.33 52.70 51.36 50.41 43.04 44.21 42.80 46.71 47.67 47.63 47.86 45.96 45.85 44.74 43.52 41.15 36.08 35.30 31.33 16.32 22.75 23.65 28.70 28.61 34.35 36.28 34.63 34.10 39.00 41.85 40.98 38.60 37.64 37.39 40.19 42.46
51.28 51.00 50.06 50.90 51.45 51.50 50.59 45.20 41.34 42.37 45.56 42.27 41.55 42.49 43.78 47.23 49.02 45.99 46.79 45.19 46.08 43.38 33.12 40.10 31.36 28.50 29.35 31.89 31.10 30.08 29.64 29.01 32.20 36.14 34.53 34.24 35.20 38.00 40.76 39.88 37.40 36.87 38.20 39.66 42.51
50.81 51.12 51.29 51.24 52.61 53.30 48.29 43.51 41.94 43.32 37.04 45.36 45.08 44.22 46.16 46.73 40.43 43.26 47.18 39.50 38.59 32.68 37.14 33.81 30.61 34.03 35.15 34.05 33.13 32.06 30.95 30.56 33.81 36.72 35.38 34.80 34.41 38.15 39.98 38.59 39.08 38.81 38.01 39.77 41.66
50.46 50.22 50.57 50.77 50.98 48.27 45.30 45.61 49.68 48.66 37.51 40.38 44.08 43.47 43.72 45.23 40.21 40.22 43.66 40.69 36.98 31.96 31.78 28.22 31.39 37.40 34.88 33.24 33.38 34.26 31.41 31.14 29.68 34.49 37.23 34.25 32.62 34.21 37.88 38.89 38.99 39.44 41.30 42.11 42.35
50.52 50.20 50.00 50.70 45.70 43.99 42.43 48.65 49.46 48.33 32.50 35.40 39.00 42.28 43.99 44.44 38.59 44.95 45.14 41.06 37.00 32.30 32.90 31.77 36.32 34.65 33.56 33.11 35.89 31.38 37.24 35.62 35.62 34.15 28.29 35.63 25.62 32.81 35.72 36.66 38.87 39.17 39.11 41.31 42.81
51.27 50.69 50.27 49.24 45.29 44.23 46.29 48.89 48.14 44.48 18.98 36.30 38.42 46.69 44.09 39.79 38.65 39.39 45.29 40.88 33.56 33.13 35.80 31.09 34.84 35.60 33.79 34.56 37.97 34.09 37.92 35.71 34.77 32.69 31.78 32.69 29.13 30.02 36.42 35.23 36.15 38.52 39.54 40.98 43.83
51.21 51.02 50.50 45.77 46.01 46.88 48.28 48.69 43.40 26.35 15.14 32.67 37.21 37.78 37.02 39.16 38.36 40.96 40.53 42.09 40.52 35.55 35.10 34.12 38.76 37.07 35.70 39.02 39.38 39.91 37.02 35.67 35.09 34.07 26.30 32.74 31.16 30.66 33.02 35.46 37.03 38.90 41.20 42.86 48.62
51.35 51.18 49.73 49.37 42.55 47.69 45.97 41.26 26.72 21.42 35.16 31.73 32.85 35.97 34.91 33.78 34.97 35.84 34.38 32.02 28.90 26.03 28.14 32.90 33.81 37.81 39.49 35.16 37.84 38.18 34.22 23.38 22.37 24.89 23.98 34.73 31.58 31.35 36.20 38.08 39.06 42.01 45.87 48.92 51.52
51.39 49.38 48.52 48.48 47.07 45.40 42.57 30.30 21.57 30.64 30.48 36.72 35.38 35.48 32.23 35.30 34.61 33.65 30.53 27.64 33.27 32.72 27.36 28.26 21.17 34.99 39.29 36.54 35.47 34.64 34.29 27.04 21.51 24.07 26.05 33.50 26.71 31.08 37.07 45.79 47.03 46.72 46.88 48.43 48.30
49.30 42.73 43.59 46.26 46.73 43.82 34.16 25.70 29.23 32.10 35.30 33.88 34.82 28.53 29.70 33.63 32.53 31.24 29.65 29.66 34.66 35.26 30.17 30.09 26.78 39.63 39.42 40.86 39.18 35.96 33.45 37.00 30.66 32.23 28.11 30.73 31.83 34.22 37.32 42.05 44.21 44.59 45.37 46.01 47.06
41.38 38.93 40.61 47.07 45.85 38.95 31.81 31.45 33.67 37.38 37.60 36.52 27.98 29.52 24.85 27.89 27.95 29.71 30.45 36.98 37.95 39.98 40.40 35.47 28.66 37.11 38.89 40.85 40.27 36.63 39.25 32.19 32.00 24.46 22.55 26.98 29.32 27.62 32.31 38.10 40.87 42.57 43.30 44.93 46.22
38.86 33.68 41.07 46.08 42.26 35.87 30.72 32.60 35.79 38.84 38.38 36.21 31.97 29.41 30.30 31.48 32.52 32.67 34.48 38.24 40.95 39.86 40.65 37.11 33.71 33.12 38.31 35.55 33.82 35.66 34.54 35.22 33.63 29.64 25.06 22.62 27.99 34.75 35.92 38.59 37.99 41.48 42.83 43.05 44.17
36.30 27.17 41.78 43.68 31.35 35.50 31.98 33.73 38.20 36.78 38.67 37.36 36.34 34.19 31.30 33.50 34.33 35.54 35.33 36.95 42.10 41.55 36.45 38.38 35.08 28.35 32.14 37.28 39.38 37.31 35.56 34.55 26.87 27.04 27.63 26.55 28.43 39.18 39.85 40.06 40.15 39.59 41.34 41.88 42.43
32.73 33.20 40.63 39.92 25.07 30.27 32.39 33.83 36.37 36.57 37.40 37.68 36.34 37.22 36.92 34.84 32.22 35.55 36.15 41.69 42.46 40.52 36.06 38.38 30.29 25.10 26.85 31.25 34.91 33.23 35.37 35.16 34.07 31.14 26.17 23.56 29.52 40.31 39.83 40.01 40.62 40.01 40.35 40.90 41.10
33.26 26.11 33.07 35.56 34.28 28.76 28.77 30.49 33.45 38.41 38.04 38.64 37.86 37.88 35.92 34.08 35.74 33.08 34.82 39.33 40.44 40.04 43.85 39.76 30.89 26.71 22.90 28.30 31.70 30.02 32.16 33.33 30.66 25.77 27.53 28.85 31.18 32.37 34.76 36.44 38.08 38.55 38.97 39.14 39.44
34.31 30.18 32.70 27.34 31.34 31.56 31.27 32.07 33.77 33.83 38.14 38.19 36.88 36.84 35.24 32.41 32.87 32.74 35.34 36.13 39.19 40.97 37.84 35.29 27.57 24.41 30.00 31.92 31.83 30.84 31.08 32.60 29.30 30.72 25.79 30.72 30.49 33.03 34.55 35.61 36.70 38.46 39.73 39.75 39.96
34.00 32.34 34.79 31.76 33.13 30.72 31.88 31.69 34.13 35.28 35.49 34.83 35.14 37.04 36.04 33.27 32.69 31.95 34.13 34.01 32.93 36.40 34.17 35.11 26.19 28.15 27.36 31.61 31.15 28.69 31.56 32.45 32.86 33.07 32.19 31.87 31.16 35.64 35.53 36.11 36.83 38.41 39.34 38.99 39.59
38.31 39.37 35.06 32.19 29.95 29.39 29.71 33.15 35.54 36.37 37.32 38.11 36.59 35.30 34.87 35.75 36.35 36.76 36.52 36.68 34.88 33.50 33.42 32.82 28.45 25.64 21.69 27.83 29.20 24.45 29.68 30.87 31.73 33.49 32.81 29.34 33.28 35.40 34.75 36.86 36.73 37.90 38.63 38.75 39.30

GFSSW_sfc_wetblb_111.txt.gz
Wetbulb
56.52 56.55 56.86 56.74 56.59 56.14 55.94 55.59 55.05 55.06 56.49 58.88 60.57 59.75 57.30 56.37 56.14 53.35 47.49 49.59 51.71 56.95 52.62 49.40 47.16 44.64 43.68 41.48 43.24 41.18 32.18 28.78 31.48 34.38 35.59 38.07 37.01 40.68 42.20 38.85 39.47 41.49 40.82 45.72 47.68
56.28 56.50 56.47 56.32 55.94 55.75 55.95 55.37 55.06 55.03 55.25 57.48 59.54 59.15 56.91 56.41 52.31 48.82 53.99 57.36 59.15 57.19 48.77 45.07 41.28 42.63 37.73 37.89 39.48 35.53 29.67 30.77 36.32 35.51 33.86 37.90 37.51 38.93 38.33 37.95 37.01 40.07 43.35 45.35 47.17
55.78 56.14 56.21 56.18 56.14 55.64 55.10 55.20 54.40 54.19 54.39 56.54 59.18 58.10 56.46 54.73 44.69 44.49 57.19 58.86 58.87 55.10 48.56 46.18 44.98 42.09 36.23 37.30 36.06 35.91 31.25 35.49 37.55 39.03 39.80 38.37 37.65 40.11 36.64 35.94 37.67 37.86 39.27 42.84 45.64
54.96 55.25 55.38 55.95 56.16 55.81 55.32 55.02 54.55 53.38 53.84 55.49 58.90 57.74 56.88 50.64 35.35 46.70 58.14 59.83 58.39 51.63 48.37 45.10 42.13 36.28 33.29 31.90 36.77 31.43 36.89 37.89 38.80 39.69 39.03 36.55 38.28 36.58 37.08 37.82 40.95 41.76 42.75 42.57 43.94
54.73 54.31 54.52 55.13 55.65 55.74 55.70 55.26 54.52 53.28 53.42 54.53 57.95 57.12 51.53 44.18 43.29 50.59 59.79 58.06 51.95 49.66 45.39 42.23 38.70 36.68 32.23 33.63 35.26 33.37 35.53 38.93 39.78 39.80 39.34 39.87 37.44 37.21 37.84 41.13 43.03 43.29 42.87 41.58 43.20
53.93 53.51 53.34 53.87 54.72 54.61 54.55 54.85 54.49 54.25 53.69 54.19 57.26 56.34 48.13 39.93 50.72 53.25 52.11 50.76 49.41 46.87 44.42 42.79 39.97 39.94 36.00 34.32 33.05 35.38 36.79 37.33 38.83 38.86 39.30 37.28 37.20 37.03 38.72 40.97 40.85 41.82 41.73 40.77 42.15
52.95 52.32 52.38 52.10 53.04 53.71 54.00 54.06 53.85 53.65 54.32 55.04 57.21 52.44 46.79 43.58 51.82 52.61 51.42 48.37 48.44 46.76 43.40 45.63 44.29 39.65 37.64 34.02 38.91 37.88 33.18 35.40 36.32 37.90 37.64 39.27 34.34 34.49 39.54 40.46 40.27 41.46 42.51 43.06 41.92
52.42 51.68 51.22 50.98 51.69 52.87 52.33 52.76 52.95 55.27 55.33 55.36 55.81 50.63 42.40 52.25 51.86 50.25 48.50 46.84 49.26 49.46 47.85 47.37 46.02 41.88 40.13 38.83 35.47 32.61 31.17 26.66 34.09 37.63 38.70 37.16 28.72 36.35 39.19 38.20 37.96 40.14 41.74 42.30 41.73
51.90 50.86 50.44 51.01 50.00 50.14 52.38 51.53 54.15 56.54 56.04 56.36 49.63 47.07 40.81 52.20 47.75 48.36 49.01 45.39 47.51 47.47 48.70 48.86 44.13 39.65 38.84 32.67 27.41 27.75 19.60 24.79 29.82 37.62 37.05 35.28 30.55 36.74 39.53 38.10 37.45 38.95 39.77 40.63 41.46
51.54 50.82 50.64 50.78 50.51 51.18 51.54 51.39 52.77 53.06 52.43 51.53 50.12 41.95 44.29 42.20 46.73 48.17 48.61 47.69 45.51 45.05 44.23 42.63 39.88 35.88 34.54 31.39 16.11 21.71 22.55 26.95 27.63 33.02 35.12 33.02 32.36 36.93 39.75 39.55 38.67 38.82 37.95 38.63 39.45
51.96 51.56 49.90 50.75 50.71 51.44 47.24 44.08 41.98 40.54 46.26 40.58 41.78 42.26 43.51 46.73 48.33 45.55 47.23 44.25 45.18 41.79 32.96 37.53 29.76 23.48 28.03 30.38 29.60 29.97 30.12 28.47 31.43 35.29 34.13 32.54 32.84 35.60 39.40 39.20 38.36 38.50 36.49 37.02 39.51
50.98 51.31 51.37 51.87 52.97 51.89 48.16 39.39 41.09 42.58 37.79 45.42 44.36 43.71 45.79 46.74 40.50 43.42 46.73 39.59 38.05 31.78 36.11 34.81 27.85 32.14 33.94 32.83 31.91 32.35 30.48 29.99 33.03 35.61 34.18 33.62 33.17 37.00 38.86 38.42 38.87 38.33 36.80 37.71 39.55
51.15 50.80 51.02 51.20 51.27 47.90 46.25 45.35 49.38 48.65 36.78 39.95 44.01 42.50 43.27 44.71 39.51 39.40 42.93 40.08 35.72 31.00 30.92 27.06 30.21 35.94 34.20 32.40 31.15 32.40 31.44 31.62 31.21 34.20 36.66 34.94 30.55 33.27 37.46 38.82 38.85 38.01 38.58 39.69 41.23
51.66 51.28 51.02 51.06 45.45 44.26 42.85 48.86 49.48 48.15 32.49 33.45 38.43 40.82 44.06 43.79 37.50 44.03 44.34 39.91 36.21 30.89 31.37 29.99 34.62 33.84 32.31 31.26 33.78 30.22 35.22 35.82 34.35 33.32 26.79 33.97 23.92 29.12 33.93 36.04 37.52 37.76 37.92 39.00 40.25
52.19 52.36 50.90 49.85 43.36 43.20 45.76 47.97 47.86 43.54 14.88 36.87 38.38 45.76 43.90 38.86 37.99 38.29 44.08 39.97 32.69 32.07 32.86 28.78 32.51 34.91 33.95 33.86 36.12 32.62 37.67 35.95 34.86 33.30 30.87 31.58 28.62 28.75 34.09 33.43 36.02 37.80 37.96 40.88 41.45
52.22 52.26 50.41 45.33 44.68 47.36 48.49 46.74 41.36 22.60 18.25 31.60 37.58 37.08 36.33 37.78 37.35 39.94 39.33 40.91 39.24 34.34 34.13 32.71 37.09 36.21 34.66 37.44 38.11 39.13 36.64 35.85 34.80 33.43 25.93 28.96 30.05 22.17 32.47 36.00 37.63 38.25 39.63 42.74 42.55
51.43 51.13 48.82 48.22 41.93 46.17 44.26 38.76 22.89 18.34 34.25 32.07 32.46 35.19 33.62 32.77 34.23 35.04 33.68 30.43 28.01 21.22 24.25 31.18 32.52 35.91 38.49 33.91 36.11 37.67 34.61 21.91 20.34 21.49 22.62 34.50 31.45 29.28 36.28 37.13 40.89 39.44 43.18 47.20 48.33
51.34 48.64 47.08 46.91 45.72 44.50 40.38 29.09 19.23 29.79 30.19 35.72 34.84 34.49 31.42 34.38 32.66 32.55 29.37 27.15 32.17 31.22 28.43 28.09 20.89 33.77 38.88 36.48 34.12 34.85 33.97 27.12 19.75 17.98 24.06 33.96 27.37 31.51 37.26 43.94 45.74 46.27 46.77 47.54 48.27
48.30 41.77 42.29 44.47 46.56 42.76 35.29 27.37 28.29 30.93 34.65 33.60 34.40 28.52 29.35 32.83 32.00 30.28 28.43 28.34 34.40 34.44 27.11 29.35 28.35 38.51 38.60 39.68 38.93 35.42 33.24 37.43 30.48 31.03 27.94 29.83 32.14 35.36 36.95 40.94 43.67 44.31 45.48 45.89 46.52
40.64 37.97 38.68 45.26 44.61 38.80 33.36 31.37 31.86 36.30 36.75 34.99 27.43 28.43 24.27 27.22 27.24 28.40 29.39 36.31 37.28 39.22 39.00 36.08 28.01 34.41 38.61 40.33 40.00 36.83 39.06 31.39 31.48 24.05 23.45 27.96 28.98 26.86 31.65 34.75 41.12 42.04 43.02 43.37 44.39
37.29 32.57 39.92 44.69 41.60 35.39 29.92 31.96 35.55 38.63 37.29 35.34 31.57 28.52 29.52 31.32 32.14 32.59 34.40 37.58 40.64 40.09 40.96 37.69 32.95 31.79 37.64 34.64 33.32 35.85 34.54 35.63 34.74 29.34 24.50 23.71 27.39 33.83 33.55 36.04 39.14 40.18 42.15 42.15 41.76
34.90 28.53 40.96 41.87 31.61 29.32 29.21 32.29 37.61 36.12 38.22 36.33 35.75 33.15 31.13 34.17 35.30 35.10 34.99 36.74 41.14 40.63 35.22 37.76 35.15 28.52 31.52 36.52 38.90 38.01 35.58 34.25 27.32 26.67 26.18 26.63 28.20 37.26 38.23 38.76 39.80 39.47 40.93 40.84 41.38
32.38 31.86 39.62 39.32 25.77 26.35 31.21 33.12 35.27 36.13 36.67 36.85 35.25 36.36 35.64 33.79 30.82 34.84 35.68 40.69 41.64 39.73 36.04 37.88 29.55 23.91 26.54 30.37 33.50 32.87 35.40 35.17 34.20 31.06 26.18 22.63 29.14 40.28 40.19 39.52 39.78 38.48 39.23 39.50 40.93
32.44 27.90 33.89 35.21 32.80 28.68 28.95 30.39 33.14 37.78 37.16 37.20 36.46 37.22 35.15 33.48 34.63 32.71 33.84 38.30 40.19 40.18 43.67 38.95 30.13 26.96 21.96 27.85 31.01 29.38 31.03 32.90 32.23 24.77 27.62 27.56 29.82 32.28 33.95 35.52 36.99 37.53 37.99 38.33 38.83
33.68 30.45 32.17 26.23 30.56 29.55 29.80 31.51 33.33 33.31 36.97 37.65 36.08 35.79 34.17 31.09 32.21 31.80 33.97 35.03 37.53 39.53 37.40 34.13 27.40 24.82 29.58 31.16 30.80 30.07 29.48 31.36 27.77 29.87 26.87 29.81 29.71 32.15 34.00 35.41 36.32 37.85 38.38 38.85 39.05
34.08 31.97 32.38 30.26 31.20 29.60 30.72 31.13 33.20 34.61 35.16 34.40 34.40 36.05 35.03 31.77 31.37 30.35 32.54 32.07 31.57 34.93 32.71 34.12 26.39 28.24 26.53 30.00 29.45 28.25 30.84 31.58 32.00 32.16 31.87 31.07 29.45 35.39 34.97 35.29 36.41 37.47 38.50 38.40 38.71
36.60 37.57 33.97 30.72 28.81 28.22 28.94 32.18 34.45 35.44 36.37 37.39 35.89 34.41 33.97 34.88 36.02 36.25 36.00 35.43 34.24 32.04 32.48 31.86 27.75 24.63 20.65 27.19 28.11 23.78 28.41 29.66 30.80 31.93 32.27 28.81 32.76 34.54 33.88 36.23 36.22 37.28 38.09 38.08 38.50

GFSSW_sfc_wetblb_114.txt.gz
Wetbulb
56.34 56.66 56.16 55.78 55.49 56.08 56.21 56.33 55.08 54.94 54.93 56.06 57.42 60.52 59.08 57.52 56.47 53.47 46.91 49.10 51.28 56.70 53.59 47.82 45.60 43.23 42.85 40.63 42.58 40.25 31.57 28.11 30.54 33.16 33.68 36.77 36.42 39.77 41.06 37.74 38.32 40.26 39.10 44.75 45.67
55.79 55.99 56.19 55.92 56.12 56.14 55.83 55.60 55.60 54.57 54.29 54.53 56.55 59.00 58.12 56.86 51.51 48.17 53.73 57.01 57.17 56.80 47.27 43.47 40.50 41.54 37.31 37.34 38.86 34.45 28.07 29.76 34.68 34.84 32.95 36.72 36.80 37.54 37.41 36.67 35.92 39.18 42.86 43.59 44.71
55.36 55.47 55.41 55.60 55.78 55.91 55.95 55.54 55.11 54.24 53.45 53.51 55.85 58.57 57.20 54.89 45.33 44.71 56.87 58.60 59.81 54.44 48.52 45.16 43.69 41.02 35.49 36.39 35.65 34.88 29.99 34.30 36.48 38.10 38.57 36.68 35.95 38.05 35.39 34.02 36.56 37.07 38.86 41.46 43.03
53.05 54.49 54.47 54.73 54.94 55.53 55.80 55.54 55.26 54.39 53.29 52.65 55.24 58.11 57.23 50.61 36.82 46.91 58.57 60.07 57.34 50.40 47.51 44.06 40.91 35.54 32.26 31.35 35.88 29.96 36.21 36.91 37.74 39.08 38.38 35.95 37.72 36.16 36.30 36.10 39.96 41.05 41.91 41.15 41.22
53.71 53.49 53.77 54.23 54.16 54.73 55.35 55.41 55.41 54.98 53.14 52.88 54.34 57.85 51.29 44.03 43.02 51.69 60.19 58.30 51.00 48.49 44.35 41.34 37.82 35.41 31.00 33.11 34.15 32.31 34.56 38.05 38.95 38.67 38.14 39.06 36.40 36.04 36.56 40.79 41.87 42.34 42.59 41.12 41.18
52.93 52.79 52.61 52.92 52.64 53.37 54.21 54.68 54.88 54.61 53.98 53.08 54.62 54.47 48.18 40.63 51.22 53.73 51.88 50.44 48.70 46.80 43.39 41.93 39.07 38.77 35.56 33.53 32.08 34.53 36.18 36.53 37.85 37.77 38.48 36.46 35.94 36.08 37.34 39.07 40.02 41.06 40.69 40.44 40.60
52.96 52.14 51.53 51.58 51.70 52.84 53.17 53.36 53.33 53.61 53.92 53.64 54.79 52.66 47.11 44.08 52.21 52.39 50.43 48.77 48.53 46.70 43.77 44.79 43.49 39.05 36.96 33.05 37.85 36.75 32.28 34.31 35.06 36.77 36.19 38.50 33.12 33.73 38.78 38.32 38.47 39.78 40.99 41.98 41.99
52.09 51.58 50.97 50.25 50.31 52.11 52.93 52.62 53.06 53.11 53.89 54.09 55.50 50.66 43.06 52.36 52.92 50.00 49.17 47.58 49.53 48.77 46.95 46.12 45.10 40.92 38.13 37.55 34.16 31.23 29.55 25.05 32.70 36.67 37.80 36.01 28.42 35.47 37.73 36.89 36.84 38.74 40.75 41.23 41.63
51.92 51.31 52.02 51.44 50.13 48.99 52.05 52.75 54.88 55.69 55.57 54.77 49.61 46.85 41.14 52.50 48.89 48.94 48.96 45.84 46.97 47.63 47.82 48.00 43.33 37.99 37.04 30.28 23.64 27.33 19.69 24.47 29.16 36.13 36.05 33.98 29.92 35.94 38.41 37.89 37.78 39.03 39.61 40.55 41.73
52.31 51.32 51.41 51.34 51.31 51.57 51.79 52.36 53.91 52.69 51.50 50.78 49.28 42.02 44.41 43.35 47.18 47.61 48.73 48.56 45.52 44.45 43.01 40.60 37.84 32.16 33.34 25.12 16.27 21.30 22.65 27.41 27.13 32.05 34.06 32.28 31.84 36.16 38.72 38.12 37.04 38.47 39.28 39.87 39.94
51.85 51.94 52.37 52.19 50.31 50.53 46.13 45.71 42.68 41.83 45.71 39.27 40.64 41.46 43.87 46.91 49.14 45.90 47.52 45.47 44.81 40.49 31.99 36.41 26.30 19.67 26.74 28.88 27.69 30.78 29.62 28.68 31.99 34.77 33.58 31.44 31.94 34.88 38.36 38.04 36.91 38.20 39.00 39.15 40.00
51.83 51.81 52.20 53.06 51.88 51.73 46.25 40.35 41.91 44.26 37.97 44.99 44.36 43.94 45.81 46.53 40.19 43.18 46.92 39.57 38.31 30.53 34.53 30.34 23.22 30.97 32.68 31.68 30.71 30.92 29.31 27.21 31.69 34.67 32.78 32.37 32.29 36.37 38.19 38.30 38.29 38.15 38.33 38.35 39.12
52.66 51.81 52.18 51.85 50.93 48.39 45.42 44.86 49.23 48.62 36.59 39.71 43.69 42.24 42.79 44.77 39.86 39.83 42.78 39.22 34.81 30.55 29.87 25.99 29.20 34.85 33.24 31.45 29.87 29.01 27.56 28.17 29.93 33.90 34.73 33.35 28.69 31.07 35.58 38.28 38.67 38.72 38.01 38.20 38.25
52.87 52.31 51.92 50.40 44.90 44.11 43.91 48.89 49.53 48.13 32.32 33.40 38.44 40.42 43.74 43.71 37.44 43.64 43.79 39.06 35.05 29.44 30.24 28.65 33.46 32.51 31.50 30.38 31.73 27.34 33.44 33.63 33.75 32.38 27.54 34.26 23.27 28.21 32.88 35.06 36.73 37.36 37.22 38.19 39.65
51.76 52.09 51.14 49.83 45.39 44.25 45.95 47.54 46.98 41.92 15.65 36.71 38.32 45.69 43.76 37.65 37.21 37.76 43.46 39.22 31.68 31.02 30.95 27.67 31.09 31.77 32.39 32.60 34.00 31.70 35.93 34.47 33.94 33.00 31.59 30.43 27.86 27.80 34.10 33.00 36.58 38.88 38.79 39.13 40.52
51.30 51.09 50.39 45.87 44.35 44.98 45.46 44.37 39.36 21.75 17.70 30.58 38.62 36.43 35.78 36.64 37.01 38.98 38.30 39.90 38.25 32.92 31.86 30.88 35.47 34.50 33.12 35.62 36.17 37.04 34.99 34.61 33.35 33.95 25.03 27.64 29.55 25.52 33.16 34.59 36.81 40.01 40.80 43.16 44.47
51.63 50.43 47.66 46.65 39.91 45.28 43.66 37.23 22.47 18.81 33.53 29.36 30.75 34.29 32.40 31.66 33.16 34.03 32.44 29.44 26.67 19.66 21.91 30.16 31.00 34.66 36.93 32.43 34.73 35.62 34.10 20.77 17.42 22.92 20.66 33.84 31.51 31.46 36.26 37.40 42.02 43.07 45.37 47.27 48.23
51.00 47.83 46.11 46.33 45.15 43.61 38.84 29.17 20.28 29.44 30.20 34.62 33.61 33.25 29.77 32.28 29.98 30.84 29.44 26.55 30.51 28.85 27.15 24.89 19.62 32.44 37.91 35.61 32.97 35.19 34.00 26.57 16.48 17.86 23.58 33.30 25.48 31.06 38.16 39.95 44.97 45.90 45.97 46.22 46.41
47.77 40.76 40.73 42.49 44.92 41.28 34.86 26.97 25.77 30.48 32.79 32.22 33.26 28.24 28.47 32.09 30.49 28.80 26.08 27.26 32.40 32.17 25.41 28.58 23.53 36.75 37.96 38.89 38.89 35.18 33.05 37.07 30.76 30.01 27.09 29.47 32.32 36.60 36.96 37.26 42.07 42.53 43.60 43.50 43.63
39.16 36.71 37.46 43.53 42.43 38.63 32.09 31.54 31.46 36.11 35.94 33.98 27.20 27.12 23.50 26.76 26.40 26.07 27.09 34.57 35.63 35.76 36.20 34.85 28.64 33.16 37.43 40.20 39.85 36.79 39.03 31.60 31.67 23.47 22.71 27.97 28.15 26.82 30.97 33.34 37.37 40.19 40.52 41.41 42.41
36.41 34.24 40.15 42.86 40.97 35.71 29.71 31.06 34.18 37.51 36.88 34.79 30.45 27.29 27.98 31.54 32.18 30.34 31.26 35.42 39.43 40.05 40.90 37.81 32.86 30.07 36.34 34.65 33.68 36.15 34.70 35.54 35.07 30.39 24.82 23.19 26.53 33.40 32.16 35.10 36.08 39.29 39.81 40.35 41.05
34.45 30.00 41.58 41.25 32.56 27.86 27.66 33.27 37.22 35.65 37.54 35.68 35.11 34.32 31.39 35.19 34.13 34.83 34.14 36.36 40.34 39.94 35.24 37.98 34.95 28.79 30.97 36.11 38.48 37.19 35.20 34.83 27.02 27.28 27.23 26.87 28.23 38.74 37.84 38.92 39.37 38.90 39.74 40.63 40.98
32.11 31.42 39.67 39.60 26.82 24.69 30.25 32.27 34.75 35.51 36.28 36.21 35.66 36.69 35.81 33.39 31.24 34.39 34.98 39.80 40.62 38.98 35.88 36.85 28.49 23.08 25.48 29.58 32.91 31.61 33.90 34.01 33.29 30.42 26.79 24.31 29.03 40.01 40.08 39.50 39.12 38.15 38.91 39.71 40.37
33.20 27.85 33.46 34.45 31.59 28.38 27.76 29.97 32.80 37.11 36.23 36.53 35.64 36.00 34.78 33.07 33.76 31.55 32.93 36.97 39.42 39.62 43.50 39.17 29.34 26.67 21.89 27.57 30.07 29.31 30.82 31.45 31.55 24.82 27.07 27.72 30.88 34.55 35.56 35.71 36.64 36.78 38.16 38.47 39.17
33.41 29.87 31.67 24.92 30.41 28.48 29.01 30.36 32.29 32.47 36.13 36.65 34.87 34.75 32.63 30.40 31.32 30.85 32.72 34.24 37.42 38.76 37.07 33.90 26.47 24.13 28.70 30.49 29.69 30.26 29.62 30.18 26.99 28.48 26.31 28.75 29.41 32.34 34.14 34.57 34.85 36.99 37.33 37.81 38.48
32.75 31.40 30.72 29.24 29.78 27.71 30.40 29.91 31.94 33.61 33.98 33.67 33.05 34.72 34.14 31.25 30.24 29.72 32.14 30.55 29.92 34.19 31.77 33.00 25.90 27.54 26.26 28.51 28.82 28.61 29.78 30.64 31.26 30.82 30.58 30.47 28.92 34.34 33.91 34.61 34.90 36.94 37.66 37.53 37.57
35.96 35.86 32.76 30.25 28.55 27.81 28.17 30.12 33.25 33.84 35.38 36.99 34.75 33.01 32.66 33.96 35.75 35.85 35.59 34.90 33.69 30.71 31.37 30.43 27.27 25.23 20.78 26.17 27.20 23.78 28.76 29.82 30.58 30.79 31.63 28.14 32.23 33.66 33.05 35.18 36.24 36.91 37.54 37.56 37.67

GFSSW_sfc_wetblb_117.txt.gz
Wetbulb
56.39 57.36 56.19 56.42 55.73 55.21 55.01 55.43 55.90 55.30 54.52 55.09 56.25 58.65 59.98 58.55 57.84 53.02 47.55 50.07 52.39 57.40 54.74 47.67 46.41 44.97 44.90 43.46 44.53 43.38 34.73 31.81 33.52 34.70 36.53 39.79 39.45 42.31 43.74 42.07 42.98 44.13 43.99 47.53 47.82
55.42 56.01 55.15 56.01 55.69 55.62 55.68 55.89 55.09 55.10 53.68 53.82 54.87 57.98 59.45 57.75 51.57 48.49 53.54 57.13 58.69 56.28 47.73 44.57 41.84 43.08 39.67 40.39 41.36 38.13 32.15 33.00 37.18 38.45 37.11 38.93 39.38 39.94 40.37 40.12 40.84 42.57 45.85 47.23 47.06
53.23 53.81 54.28 54.64 54.79 55.02 55.61 55.85 55.59 54.82 53.37 53.28 53.91 57.91 57.95 54.39 45.51 44.61 56.26 58.76 59.13 53.81 48.96 45.93 44.38 42.21 38.10 39.18 38.03 37.11 32.72 35.95 37.83 39.50 39.72 38.20 37.91 40.20 38.74 36.91 39.95 40.80 43.19 44.48 45.53
53.19 52.04 52.43 53.96 54.22 53.81 54.00 55.43 55.51 54.74 53.18 52.19 54.33 58.06 55.71 50.59 38.16 47.28 57.13 60.29 57.77 50.43 47.80 44.63 41.96 37.73 34.98 34.28 37.92 33.85 37.15 37.98 38.57 39.72 38.94 37.39 39.66 38.18 38.55 39.85 42.97 42.99 43.62 44.01 44.23
53.40 52.77 52.80 53.19 52.95 53.23 54.00 54.51 55.19 55.10 53.19 52.59 53.18 57.02 51.29 44.85 44.00 52.27 58.85 56.69 50.67 48.69 44.78 41.99 39.08 37.03 33.34 35.33 36.34 34.65 35.88 38.29 39.59 39.22 38.82 39.43 37.50 37.69 38.11 42.17 43.48 43.34 43.45 43.25 44.20
53.32 52.79 52.38 52.20 52.08 52.33 53.23 53.50 53.81 54.53 53.88 53.04 56.40 54.95 48.85 41.63 51.62 53.81 51.24 50.21 49.00 47.02 44.41 43.25 40.57 40.13 36.45 35.69 34.36 36.59 36.94 37.25 38.34 38.32 39.07 37.19 37.34 37.64 39.57 41.66 41.56 41.96 42.58 43.31 43.78
52.91 52.51 51.76 50.68 51.30 52.92 53.53 54.11 54.25 53.96 53.77 54.29 55.52 52.99 47.17 44.44 52.86 52.49 50.77 48.38 49.18 47.71 44.64 45.47 44.25 40.58 38.91 35.41 39.09 37.40 33.48 35.07 36.23 37.80 36.79 39.22 34.93 35.33 40.88 40.55 40.16 41.28 42.31 43.39 44.23
52.49 52.85 52.44 50.73 51.13 52.48 52.82 52.83 52.68 53.01 52.77 53.66 55.20 50.68 42.77 52.60 53.23 49.34 49.79 48.39 49.95 49.58 47.40 46.87 45.98 41.87 39.49 39.16 34.55 32.56 31.52 28.45 34.66 37.36 38.79 37.57 31.70 37.47 40.12 39.19 39.47 40.82 42.05 43.06 44.71
53.01 53.00 52.31 51.31 50.44 51.79 53.39 55.26 55.55 54.54 54.66 54.93 49.57 47.07 41.88 53.17 47.70 49.35 49.65 46.29 47.97 48.49 48.42 48.22 44.82 39.36 38.43 31.09 27.97 29.43 25.79 27.44 30.76 36.60 36.56 35.84 32.24 37.46 41.08 40.56 39.63 40.74 41.68 42.52 43.56
52.60 53.02 52.02 51.94 52.00 52.25 53.61 53.24 53.13 51.35 50.26 49.92 49.12 42.08 44.98 44.27 46.68 47.60 49.67 48.97 45.80 44.85 43.08 41.16 38.16 33.24 32.73 28.08 22.88 25.56 25.86 28.13 28.48 33.46 34.96 33.31 32.73 37.14 39.46 39.42 39.23 40.42 41.12 41.73 42.57
52.69 52.80 52.92 51.68 51.17 50.33 47.13 45.28 41.05 39.34 44.71 39.67 41.46 41.61 44.19 47.02 49.12 46.01 47.74 46.02 44.86 40.01 34.07 37.69 29.80 24.86 28.93 30.53 29.10 30.58 28.93 27.79 31.06 35.12 33.17 32.46 33.22 36.33 39.43 39.83 39.37 40.23 40.58 41.27 42.44
52.82 52.82 52.26 52.14 52.05 51.08 46.47 41.95 43.15 43.50 35.46 43.81 43.89 44.34 46.12 46.53 39.97 43.20 47.10 40.27 38.54 33.29 35.97 30.63 26.58 31.92 33.09 32.25 31.19 30.28 28.44 28.08 31.82 34.91 33.64 33.52 33.54 37.47 38.91 39.08 39.91 40.15 40.52 41.11 41.87
52.54 52.53 52.41 51.71 51.15 48.36 46.15 45.92 49.59 48.86 35.61 39.11 43.16 41.78 43.19 44.88 39.35 39.92 43.35 40.19 35.57 32.30 32.22 27.69 32.02 34.39 33.42 31.80 30.09 29.74 28.30 28.31 29.36 33.59 36.19 34.29 31.58 32.53 37.27 39.92 40.34 41.28 41.42 41.70 41.67
52.40 52.07 52.00 50.63 46.35 45.55 43.68 48.32 48.93 47.87 31.39 33.98 38.42 40.53 43.74 43.27 37.15 43.67 44.31 40.11 36.36 30.61 31.23 30.46 33.98 32.47 31.35 30.38 31.75 27.87 32.86 32.54 32.04 32.90 27.55 35.55 25.85 31.18 35.14 36.66 38.83 41.04 41.96 42.64 42.58
51.63 51.66 51.40 49.80 43.30 42.51 45.06 46.66 46.82 41.88 15.43 35.82 38.33 45.86 43.56 38.01 37.46 38.33 43.70 39.87 32.65 32.14 31.16 28.67 31.69 32.46 31.86 32.26 33.67 31.60 36.54 34.54 34.16 32.90 32.23 31.36 29.08 30.40 36.18 35.08 36.68 39.63 41.91 43.76 43.99
51.92 51.02 49.53 44.82 42.77 44.30 44.72 42.68 38.33 23.70 18.25 31.83 37.82 36.25 35.24 36.65 37.30 38.90 38.50 40.20 38.71 33.45 32.86 31.22 35.61 35.29 33.39 35.46 35.87 36.71 34.85 34.24 33.96 32.11 26.87 29.35 29.16 28.22 33.53 34.92 36.87 40.38 45.15 46.54 46.19
51.85 50.39 47.35 45.57 38.77 44.13 42.81 36.33 22.86 21.12 33.02 27.63 31.53 34.60 32.47 31.60 33.03 34.15 32.44 29.91 28.02 21.40 23.65 30.51 31.83 35.11 36.60 33.57 35.91 36.04 33.25 21.54 19.68 24.91 21.73 31.70 31.56 31.94 36.17 37.69 39.28 43.50 43.56 45.37 45.35
50.83 47.35 45.48 45.16 43.95 42.77 38.11 29.43 20.10 29.18 28.05 34.05 33.30 33.07 29.78 31.38 29.65 30.66 30.32 27.28 30.32 30.22 26.00 23.49 21.26 32.69 37.56 35.34 33.41 34.71 33.71 24.55 17.72 19.85 23.21 32.90 26.13 31.26 37.12 39.22 40.75 42.32 42.53 43.49 44.75
48.08 39.63 39.28 41.30 43.87 40.34 34.65 26.39 27.73 30.72 32.40 31.45 32.10 27.15 28.01 31.07 30.18 29.32 26.95 27.80 32.17 31.96 25.55 28.51 24.85 36.31 37.70 38.59 38.80 35.28 32.51 36.76 30.77 30.64 26.84 28.98 32.27 36.88 36.89 36.66 39.24 39.92 41.02 41.11 42.65
37.68 35.88 37.88 42.33 41.56 38.64 32.60 31.24 30.10 35.26 35.41 33.29 26.58 27.22 24.06 27.20 26.95 27.87 28.32 34.16 35.25 35.34 36.03 34.75 27.15 33.07 37.51 39.96 39.85 37.46 39.07 31.97 31.84 22.95 20.87 27.27 27.83 27.99 31.43 33.52 36.39 38.68 39.26 40.43 41.66
35.37 34.82 40.85 42.03 40.63 35.56 29.18 31.99 33.48 36.89 36.54 34.71 29.38 27.69 28.55 32.60 32.08 29.83 31.40 35.57 39.57 39.72 40.46 37.73 33.25 30.58 36.68 34.89 35.11 36.00 34.30 35.02 34.88 31.80 25.11 23.06 25.03 34.38 33.49 36.14 36.82 38.51 40.00 40.41 40.62
34.34 30.64 41.53 40.94 32.44 27.69 25.80 31.60 36.89 34.91 36.92 35.44 34.83 32.85 31.93 33.88 34.15 35.11 34.35 35.85 40.19 39.66 35.61 38.36 34.88 29.75 31.59 36.62 39.28 38.08 35.67 35.20 28.74 28.64 28.88 27.41 28.59 39.49 39.22 39.34 39.21 39.19 39.81 40.64 41.13
31.86 31.75 39.70 39.68 27.38 24.73 30.06 32.03 34.03 35.14 35.23 34.77 34.34 35.45 34.43 32.35 29.50 33.37 34.74 39.62 40.34 39.12 36.49 37.35 30.56 24.89 26.41 30.83 34.13 32.94 35.02 35.02 33.89 31.16 27.95 25.16 29.31 39.92 39.78 39.78 39.91 38.61 39.27 39.90 40.50
32.91 28.20 33.32 33.62 30.58 29.53 27.51 30.10 32.04 36.46 35.41 35.93 34.82 35.36 33.66 31.93 33.06 30.93 32.48 36.98 39.34 39.43 43.02 39.97 30.25 27.54 23.93 28.57 31.12 29.07 31.31 31.87 31.15 27.65 27.81 28.01 31.01 35.51 37.16 37.70 38.04 38.44 39.04 39.43 39.72
32.33 29.52 30.00 25.17 30.08 27.76 28.88 30.26 31.05 31.95 35.27 36.00 33.80 33.84 31.69 29.18 29.67 29.70 32.18 33.41 36.31 38.38 37.22 34.31 26.75 24.93 28.65 30.14 30.36 29.82 30.42 30.96 27.90 29.68 27.27 29.79 30.57 33.47 35.62 36.12 37.07 38.37 39.13 38.93 38.97
32.09 31.01 29.82 28.64 29.45 27.19 30.23 29.38 31.21 32.04 32.55 32.85 32.32 34.08 32.98 30.44 31.67 29.63 31.07 30.52 30.15 33.55 31.55 32.37 26.35 28.12 26.68 29.59 29.29 28.28 30.85 31.46 31.80 31.88 30.75 30.90 30.85 35.47 36.00 36.86 36.77 37.77 38.39 38.39 38.45
34.77 34.31 32.48 29.69 27.78 26.49 28.41 30.71 32.84 32.63 34.67 35.62 33.73 32.19 31.20 33.56 35.36 35.55 35.14 34.46 33.42 30.85 30.84 30.13 27.58 25.83 21.87 25.97 27.01 24.77 28.09 31.09 31.79 32.45 31.84 29.31 33.20 34.70 34.37 35.74 36.66 37.40 38.04 38.35 38.43